<?xml version="1.0" encoding="UTF-8" standalone="no" ?>
<gpx xmlns="http://www.topografix.com/GPX/1/1" xmlns:xsi="http://www.w3.org/2001/XMLSchema-instance" xsi:schemaLocation="http://www.topografix.com/GPX/1/1 http://www.topografix.com/GPX/1/1/gpx.xsd" version="1.1" creator="VisuGPX - https://www.visugpx.com">
  <metadata>
    <name>gendrey</name>
    <desc><![CDATA[sortie improvisée]]></desc>
  </metadata>
  <wpt lat="47.07529" lon="5.49082">
    <ele>206</ele>
  </wpt>
  <trk>
    <name><![CDATA[gendrey_1]]></name>
    <trkseg>
      <trkpt lat="47.07529" lon="5.49082">
        <ele>206</ele>
        <time>2012-09-14T11:52:34Z</time>
      </trkpt>
      <trkpt lat="47.07536" lon="5.49091">
        <ele>206</ele>
        <time>2012-09-14T11:52:38Z</time>
      </trkpt>
      <trkpt lat="47.07544" lon="5.49102">
        <ele>206</ele>
        <time>2012-09-14T11:52:42Z</time>
      </trkpt>
      <trkpt lat="47.07553" lon="5.49108">
        <ele>206</ele>
        <time>2012-09-14T11:52:46Z</time>
      </trkpt>
      <trkpt lat="47.07564" lon="5.4911">
        <ele>206</ele>
        <time>2012-09-14T11:52:50Z</time>
      </trkpt>
      <trkpt lat="47.07574" lon="5.49109">
        <ele>206</ele>
        <time>2012-09-14T11:52:53Z</time>
      </trkpt>
      <trkpt lat="47.07585" lon="5.49102">
        <ele>206</ele>
        <time>2012-09-14T11:52:56Z</time>
      </trkpt>
      <trkpt lat="47.07595" lon="5.49093">
        <ele>206</ele>
        <time>2012-09-14T11:52:59Z</time>
      </trkpt>
      <trkpt lat="47.07604" lon="5.49081">
        <ele>206</ele>
        <time>2012-09-14T11:53:02Z</time>
      </trkpt>
      <trkpt lat="47.07612" lon="5.49067">
        <ele>206</ele>
        <time>2012-09-14T11:53:05Z</time>
      </trkpt>
      <trkpt lat="47.07618" lon="5.49058">
        <ele>206</ele>
        <time>2012-09-14T11:53:07Z</time>
      </trkpt>
      <trkpt lat="47.07627" lon="5.49044">
        <ele>206</ele>
        <time>2012-09-14T11:53:10Z</time>
      </trkpt>
      <trkpt lat="47.07633" lon="5.49034">
        <ele>206</ele>
        <time>2012-09-14T11:53:12Z</time>
      </trkpt>
      <trkpt lat="47.0764" lon="5.49025">
        <ele>206</ele>
        <time>2012-09-14T11:53:14Z</time>
      </trkpt>
      <trkpt lat="47.07647" lon="5.49016">
        <ele>206</ele>
        <time>2012-09-14T11:53:16Z</time>
      </trkpt>
      <trkpt lat="47.07657" lon="5.49005">
        <ele>206</ele>
        <time>2012-09-14T11:53:19Z</time>
      </trkpt>
      <trkpt lat="47.07668" lon="5.48992">
        <ele>206</ele>
        <time>2012-09-14T11:53:22Z</time>
      </trkpt>
      <trkpt lat="47.07675" lon="5.48984">
        <ele>211</ele>
        <time>2012-09-14T11:53:24Z</time>
      </trkpt>
      <trkpt lat="47.07684" lon="5.48969">
        <ele>211</ele>
        <time>2012-09-14T11:53:27Z</time>
      </trkpt>
      <trkpt lat="47.07687" lon="5.48956">
        <ele>211</ele>
        <time>2012-09-14T11:53:29Z</time>
      </trkpt>
      <trkpt lat="47.07689" lon="5.48942">
        <ele>211</ele>
        <time>2012-09-14T11:53:31Z</time>
      </trkpt>
      <trkpt lat="47.07692" lon="5.48928">
        <ele>211</ele>
        <time>2012-09-14T11:53:33Z</time>
      </trkpt>
      <trkpt lat="47.07695" lon="5.48914">
        <ele>211</ele>
        <time>2012-09-14T11:53:35Z</time>
      </trkpt>
      <trkpt lat="47.07701" lon="5.48904">
        <ele>211</ele>
        <time>2012-09-14T11:53:37Z</time>
      </trkpt>
      <trkpt lat="47.07712" lon="5.48894">
        <ele>211</ele>
        <time>2012-09-14T11:53:40Z</time>
      </trkpt>
      <trkpt lat="47.07721" lon="5.48892">
        <ele>211</ele>
        <time>2012-09-14T11:53:42Z</time>
      </trkpt>
      <trkpt lat="47.07731" lon="5.48897">
        <ele>211</ele>
        <time>2012-09-14T11:53:45Z</time>
      </trkpt>
      <trkpt lat="47.07741" lon="5.48908">
        <ele>211</ele>
        <time>2012-09-14T11:53:49Z</time>
      </trkpt>
      <trkpt lat="47.07746" lon="5.4892">
        <ele>211</ele>
        <time>2012-09-14T11:53:52Z</time>
      </trkpt>
      <trkpt lat="47.07743" lon="5.48937">
        <ele>211</ele>
        <time>2012-09-14T11:53:55Z</time>
      </trkpt>
      <trkpt lat="47.07736" lon="5.48947">
        <ele>211</ele>
        <time>2012-09-14T11:53:57Z</time>
      </trkpt>
      <trkpt lat="47.07729" lon="5.48955">
        <ele>211</ele>
        <time>2012-09-14T11:53:59Z</time>
      </trkpt>
      <trkpt lat="47.07721" lon="5.48962">
        <ele>211</ele>
        <time>2012-09-14T11:54:01Z</time>
      </trkpt>
      <trkpt lat="47.07713" lon="5.4897">
        <ele>211</ele>
        <time>2012-09-14T11:54:03Z</time>
      </trkpt>
      <trkpt lat="47.07705" lon="5.48978">
        <ele>211</ele>
        <time>2012-09-14T11:54:05Z</time>
      </trkpt>
      <trkpt lat="47.07695" lon="5.4899">
        <ele>205</ele>
        <time>2012-09-14T11:54:08Z</time>
      </trkpt>
      <trkpt lat="47.07685" lon="5.49002">
        <ele>205</ele>
        <time>2012-09-14T11:54:11Z</time>
      </trkpt>
      <trkpt lat="47.07674" lon="5.49014">
        <ele>205</ele>
        <time>2012-09-14T11:54:14Z</time>
      </trkpt>
      <trkpt lat="47.07666" lon="5.49022">
        <ele>205</ele>
        <time>2012-09-14T11:54:16Z</time>
      </trkpt>
      <trkpt lat="47.07659" lon="5.49031">
        <ele>205</ele>
        <time>2012-09-14T11:54:18Z</time>
      </trkpt>
      <trkpt lat="47.07652" lon="5.4904">
        <ele>205</ele>
        <time>2012-09-14T11:54:20Z</time>
      </trkpt>
      <trkpt lat="47.07644" lon="5.49049">
        <ele>205</ele>
        <time>2012-09-14T11:54:22Z</time>
      </trkpt>
      <trkpt lat="47.07636" lon="5.49059">
        <ele>200</ele>
        <time>2012-09-14T11:54:24Z</time>
      </trkpt>
      <trkpt lat="47.0763" lon="5.4907">
        <ele>200</ele>
        <time>2012-09-14T11:54:26Z</time>
      </trkpt>
      <trkpt lat="47.07622" lon="5.4908">
        <ele>200</ele>
        <time>2012-09-14T11:54:28Z</time>
      </trkpt>
      <trkpt lat="47.07615" lon="5.49091">
        <ele>200</ele>
        <time>2012-09-14T11:54:30Z</time>
      </trkpt>
      <trkpt lat="47.07609" lon="5.49102">
        <ele>200</ele>
        <time>2012-09-14T11:54:32Z</time>
      </trkpt>
      <trkpt lat="47.07601" lon="5.49113">
        <ele>200</ele>
        <time>2012-09-14T11:54:34Z</time>
      </trkpt>
      <trkpt lat="47.07595" lon="5.49125">
        <ele>200</ele>
        <time>2012-09-14T11:54:36Z</time>
      </trkpt>
      <trkpt lat="47.07588" lon="5.49137">
        <ele>200</ele>
        <time>2012-09-14T11:54:38Z</time>
      </trkpt>
      <trkpt lat="47.07582" lon="5.49149">
        <ele>200</ele>
        <time>2012-09-14T11:54:40Z</time>
      </trkpt>
      <trkpt lat="47.07576" lon="5.49162">
        <ele>200</ele>
        <time>2012-09-14T11:54:42Z</time>
      </trkpt>
      <trkpt lat="47.07569" lon="5.49174">
        <ele>200</ele>
        <time>2012-09-14T11:54:44Z</time>
      </trkpt>
      <trkpt lat="47.07563" lon="5.49187">
        <ele>200</ele>
        <time>2012-09-14T11:54:46Z</time>
      </trkpt>
      <trkpt lat="47.07556" lon="5.49199">
        <ele>200</ele>
        <time>2012-09-14T11:54:48Z</time>
      </trkpt>
      <trkpt lat="47.07549" lon="5.49213">
        <ele>200</ele>
        <time>2012-09-14T11:54:50Z</time>
      </trkpt>
      <trkpt lat="47.07542" lon="5.49226">
        <ele>200</ele>
        <time>2012-09-14T11:54:52Z</time>
      </trkpt>
      <trkpt lat="47.07536" lon="5.49239">
        <ele>200</ele>
        <time>2012-09-14T11:54:54Z</time>
      </trkpt>
      <trkpt lat="47.07529" lon="5.49252">
        <ele>200</ele>
        <time>2012-09-14T11:54:56Z</time>
      </trkpt>
      <trkpt lat="47.07522" lon="5.49264">
        <ele>200</ele>
        <time>2012-09-14T11:54:58Z</time>
      </trkpt>
      <trkpt lat="47.07516" lon="5.49276">
        <ele>200</ele>
        <time>2012-09-14T11:55:00Z</time>
      </trkpt>
      <trkpt lat="47.0751" lon="5.49288">
        <ele>200</ele>
        <time>2012-09-14T11:55:02Z</time>
      </trkpt>
      <trkpt lat="47.07504" lon="5.493">
        <ele>200</ele>
        <time>2012-09-14T11:55:04Z</time>
      </trkpt>
      <trkpt lat="47.07498" lon="5.49311">
        <ele>200</ele>
        <time>2012-09-14T11:55:06Z</time>
      </trkpt>
      <trkpt lat="47.07492" lon="5.49325">
        <ele>200</ele>
        <time>2012-09-14T11:55:09Z</time>
      </trkpt>
      <trkpt lat="47.07485" lon="5.49338">
        <ele>205</ele>
        <time>2012-09-14T11:55:12Z</time>
      </trkpt>
      <trkpt lat="47.07479" lon="5.49349">
        <ele>205</ele>
        <time>2012-09-14T11:55:15Z</time>
      </trkpt>
      <trkpt lat="47.07473" lon="5.4936">
        <ele>205</ele>
        <time>2012-09-14T11:55:18Z</time>
      </trkpt>
      <trkpt lat="47.07468" lon="5.49373">
        <ele>205</ele>
        <time>2012-09-14T11:55:21Z</time>
      </trkpt>
      <trkpt lat="47.07461" lon="5.49385">
        <ele>205</ele>
        <time>2012-09-14T11:55:25Z</time>
      </trkpt>
      <trkpt lat="47.07455" lon="5.49396">
        <ele>205</ele>
        <time>2012-09-14T11:55:30Z</time>
      </trkpt>
      <trkpt lat="47.07447" lon="5.49408">
        <ele>205</ele>
        <time>2012-09-14T11:55:35Z</time>
      </trkpt>
      <trkpt lat="47.07437" lon="5.49413">
        <ele>205</ele>
        <time>2012-09-14T11:55:39Z</time>
      </trkpt>
      <trkpt lat="47.07428" lon="5.49419">
        <ele>210</ele>
        <time>2012-09-14T11:55:42Z</time>
      </trkpt>
      <trkpt lat="47.07421" lon="5.49429">
        <ele>210</ele>
        <time>2012-09-14T11:55:45Z</time>
      </trkpt>
      <trkpt lat="47.07418" lon="5.49444">
        <ele>210</ele>
        <time>2012-09-14T11:55:48Z</time>
      </trkpt>
      <trkpt lat="47.07418" lon="5.49461">
        <ele>210</ele>
        <time>2012-09-14T11:55:51Z</time>
      </trkpt>
      <trkpt lat="47.07415" lon="5.49473">
        <ele>210</ele>
        <time>2012-09-14T11:55:53Z</time>
      </trkpt>
      <trkpt lat="47.07409" lon="5.49488">
        <ele>210</ele>
        <time>2012-09-14T11:55:56Z</time>
      </trkpt>
      <trkpt lat="47.07402" lon="5.49502">
        <ele>210</ele>
        <time>2012-09-14T11:55:59Z</time>
      </trkpt>
      <trkpt lat="47.07395" lon="5.49516">
        <ele>210</ele>
        <time>2012-09-14T11:56:02Z</time>
      </trkpt>
      <trkpt lat="47.07388" lon="5.4953">
        <ele>216</ele>
        <time>2012-09-14T11:56:05Z</time>
      </trkpt>
      <trkpt lat="47.07382" lon="5.49545">
        <ele>216</ele>
        <time>2012-09-14T11:56:08Z</time>
      </trkpt>
      <trkpt lat="47.07376" lon="5.49561">
        <ele>216</ele>
        <time>2012-09-14T11:56:11Z</time>
      </trkpt>
      <trkpt lat="47.0737" lon="5.49577">
        <ele>216</ele>
        <time>2012-09-14T11:56:14Z</time>
      </trkpt>
      <trkpt lat="47.07364" lon="5.49593">
        <ele>216</ele>
        <time>2012-09-14T11:56:17Z</time>
      </trkpt>
      <trkpt lat="47.07358" lon="5.49609">
        <ele>216</ele>
        <time>2012-09-14T11:56:20Z</time>
      </trkpt>
      <trkpt lat="47.07352" lon="5.49626">
        <ele>216</ele>
        <time>2012-09-14T11:56:23Z</time>
      </trkpt>
      <trkpt lat="47.07348" lon="5.49638">
        <ele>216</ele>
        <time>2012-09-14T11:56:25Z</time>
      </trkpt>
      <trkpt lat="47.07344" lon="5.4965">
        <ele>216</ele>
        <time>2012-09-14T11:56:27Z</time>
      </trkpt>
      <trkpt lat="47.0734" lon="5.49663">
        <ele>216</ele>
        <time>2012-09-14T11:56:29Z</time>
      </trkpt>
      <trkpt lat="47.07336" lon="5.49676">
        <ele>216</ele>
        <time>2012-09-14T11:56:31Z</time>
      </trkpt>
      <trkpt lat="47.07333" lon="5.49689">
        <ele>216</ele>
        <time>2012-09-14T11:56:33Z</time>
      </trkpt>
      <trkpt lat="47.07329" lon="5.49703">
        <ele>216</ele>
        <time>2012-09-14T11:56:35Z</time>
      </trkpt>
      <trkpt lat="47.07324" lon="5.49714">
        <ele>216</ele>
        <time>2012-09-14T11:56:37Z</time>
      </trkpt>
      <trkpt lat="47.07317" lon="5.49723">
        <ele>216</ele>
        <time>2012-09-14T11:56:39Z</time>
      </trkpt>
      <trkpt lat="47.07306" lon="5.49732">
        <ele>216</ele>
        <time>2012-09-14T11:56:42Z</time>
      </trkpt>
      <trkpt lat="47.07298" lon="5.49747">
        <ele>216</ele>
        <time>2012-09-14T11:56:45Z</time>
      </trkpt>
      <trkpt lat="47.07298" lon="5.49765">
        <ele>216</ele>
        <time>2012-09-14T11:56:48Z</time>
      </trkpt>
      <trkpt lat="47.07306" lon="5.49781">
        <ele>216</ele>
        <time>2012-09-14T11:56:51Z</time>
      </trkpt>
      <trkpt lat="47.07318" lon="5.49787">
        <ele>216</ele>
        <time>2012-09-14T11:56:54Z</time>
      </trkpt>
      <trkpt lat="47.07328" lon="5.49788">
        <ele>216</ele>
        <time>2012-09-14T11:56:56Z</time>
      </trkpt>
      <trkpt lat="47.07337" lon="5.49791">
        <ele>216</ele>
        <time>2012-09-14T11:56:58Z</time>
      </trkpt>
      <trkpt lat="47.07346" lon="5.49796">
        <ele>216</ele>
        <time>2012-09-14T11:57:00Z</time>
      </trkpt>
      <trkpt lat="47.07355" lon="5.49801">
        <ele>216</ele>
        <time>2012-09-14T11:57:02Z</time>
      </trkpt>
      <trkpt lat="47.07364" lon="5.49803">
        <ele>221</ele>
        <time>2012-09-14T11:57:04Z</time>
      </trkpt>
      <trkpt lat="47.07374" lon="5.49806">
        <ele>221</ele>
        <time>2012-09-14T11:57:06Z</time>
      </trkpt>
      <trkpt lat="47.07386" lon="5.49809">
        <ele>221</ele>
        <time>2012-09-14T11:57:09Z</time>
      </trkpt>
      <trkpt lat="47.07395" lon="5.49816">
        <ele>226</ele>
        <time>2012-09-14T11:57:11Z</time>
      </trkpt>
      <trkpt lat="47.07405" lon="5.4982">
        <ele>226</ele>
        <time>2012-09-14T11:57:13Z</time>
      </trkpt>
      <trkpt lat="47.07415" lon="5.49821">
        <ele>226</ele>
        <time>2012-09-14T11:57:15Z</time>
      </trkpt>
      <trkpt lat="47.07425" lon="5.49819">
        <ele>226</ele>
        <time>2012-09-14T11:57:17Z</time>
      </trkpt>
      <trkpt lat="47.07434" lon="5.49821">
        <ele>226</ele>
        <time>2012-09-14T11:57:19Z</time>
      </trkpt>
      <trkpt lat="47.07445" lon="5.49825">
        <ele>221</ele>
        <time>2012-09-14T11:57:21Z</time>
      </trkpt>
      <trkpt lat="47.07456" lon="5.49827">
        <ele>221</ele>
        <time>2012-09-14T11:57:23Z</time>
      </trkpt>
      <trkpt lat="47.07466" lon="5.4983">
        <ele>221</ele>
        <time>2012-09-14T11:57:25Z</time>
      </trkpt>
      <trkpt lat="47.07477" lon="5.49834">
        <ele>221</ele>
        <time>2012-09-14T11:57:27Z</time>
      </trkpt>
      <trkpt lat="47.07488" lon="5.49838">
        <ele>221</ele>
        <time>2012-09-14T11:57:29Z</time>
      </trkpt>
      <trkpt lat="47.07498" lon="5.49842">
        <ele>215</ele>
        <time>2012-09-14T11:57:31Z</time>
      </trkpt>
      <trkpt lat="47.07507" lon="5.49843">
        <ele>215</ele>
        <time>2012-09-14T11:57:33Z</time>
      </trkpt>
      <trkpt lat="47.07518" lon="5.49847">
        <ele>215</ele>
        <time>2012-09-14T11:57:35Z</time>
      </trkpt>
      <trkpt lat="47.07528" lon="5.49852">
        <ele>215</ele>
        <time>2012-09-14T11:57:37Z</time>
      </trkpt>
      <trkpt lat="47.07537" lon="5.49863">
        <ele>215</ele>
        <time>2012-09-14T11:57:39Z</time>
      </trkpt>
      <trkpt lat="47.07539" lon="5.49879">
        <ele>215</ele>
        <time>2012-09-14T11:57:41Z</time>
      </trkpt>
      <trkpt lat="47.07539" lon="5.49894">
        <ele>215</ele>
        <time>2012-09-14T11:57:43Z</time>
      </trkpt>
      <trkpt lat="47.07538" lon="5.49909">
        <ele>215</ele>
        <time>2012-09-14T11:57:45Z</time>
      </trkpt>
      <trkpt lat="47.07537" lon="5.49924">
        <ele>215</ele>
        <time>2012-09-14T11:57:47Z</time>
      </trkpt>
      <trkpt lat="47.07536" lon="5.49939">
        <ele>215</ele>
        <time>2012-09-14T11:57:49Z</time>
      </trkpt>
      <trkpt lat="47.07534" lon="5.49953">
        <ele>215</ele>
        <time>2012-09-14T11:57:51Z</time>
      </trkpt>
      <trkpt lat="47.07533" lon="5.49967">
        <ele>215</ele>
        <time>2012-09-14T11:57:53Z</time>
      </trkpt>
      <trkpt lat="47.07533" lon="5.4998">
        <ele>215</ele>
        <time>2012-09-14T11:57:55Z</time>
      </trkpt>
      <trkpt lat="47.07531" lon="5.49999">
        <ele>215</ele>
        <time>2012-09-14T11:57:58Z</time>
      </trkpt>
      <trkpt lat="47.0753" lon="5.50018">
        <ele>215</ele>
        <time>2012-09-14T11:58:01Z</time>
      </trkpt>
      <trkpt lat="47.07528" lon="5.50036">
        <ele>215</ele>
        <time>2012-09-14T11:58:04Z</time>
      </trkpt>
      <trkpt lat="47.07528" lon="5.50053">
        <ele>215</ele>
        <time>2012-09-14T11:58:07Z</time>
      </trkpt>
      <trkpt lat="47.07528" lon="5.50068">
        <ele>221</ele>
        <time>2012-09-14T11:58:10Z</time>
      </trkpt>
      <trkpt lat="47.07528" lon="5.50084">
        <ele>221</ele>
        <time>2012-09-14T11:58:13Z</time>
      </trkpt>
      <trkpt lat="47.07529" lon="5.501">
        <ele>221</ele>
        <time>2012-09-14T11:58:16Z</time>
      </trkpt>
      <trkpt lat="47.0753" lon="5.50117">
        <ele>221</ele>
        <time>2012-09-14T11:58:19Z</time>
      </trkpt>
      <trkpt lat="47.07531" lon="5.50132">
        <ele>221</ele>
        <time>2012-09-14T11:58:22Z</time>
      </trkpt>
      <trkpt lat="47.07533" lon="5.50147">
        <ele>221</ele>
        <time>2012-09-14T11:58:25Z</time>
      </trkpt>
      <trkpt lat="47.07533" lon="5.50162">
        <ele>221</ele>
        <time>2012-09-14T11:58:28Z</time>
      </trkpt>
      <trkpt lat="47.07533" lon="5.50177">
        <ele>221</ele>
        <time>2012-09-14T11:58:31Z</time>
      </trkpt>
      <trkpt lat="47.07528" lon="5.5019">
        <ele>227</ele>
        <time>2012-09-14T11:58:35Z</time>
      </trkpt>
      <trkpt lat="47.07519" lon="5.50196">
        <ele>227</ele>
        <time>2012-09-14T11:58:38Z</time>
      </trkpt>
      <trkpt lat="47.07507" lon="5.502">
        <ele>227</ele>
        <time>2012-09-14T11:58:41Z</time>
      </trkpt>
      <trkpt lat="47.07498" lon="5.50204">
        <ele>227</ele>
        <time>2012-09-14T11:58:43Z</time>
      </trkpt>
      <trkpt lat="47.07486" lon="5.50206">
        <ele>227</ele>
        <time>2012-09-14T11:58:46Z</time>
      </trkpt>
      <trkpt lat="47.07473" lon="5.50209">
        <ele>227</ele>
        <time>2012-09-14T11:58:49Z</time>
      </trkpt>
      <trkpt lat="47.07461" lon="5.5021">
        <ele>227</ele>
        <time>2012-09-14T11:58:52Z</time>
      </trkpt>
      <trkpt lat="47.0745" lon="5.50215">
        <ele>227</ele>
        <time>2012-09-14T11:58:55Z</time>
      </trkpt>
      <trkpt lat="47.07439" lon="5.50218">
        <ele>227</ele>
        <time>2012-09-14T11:58:58Z</time>
      </trkpt>
      <trkpt lat="47.07426" lon="5.50217">
        <ele>227</ele>
        <time>2012-09-14T11:59:01Z</time>
      </trkpt>
      <trkpt lat="47.07417" lon="5.50218">
        <ele>227</ele>
        <time>2012-09-14T11:59:03Z</time>
      </trkpt>
      <trkpt lat="47.07407" lon="5.50218">
        <ele>227</ele>
        <time>2012-09-14T11:59:05Z</time>
      </trkpt>
      <trkpt lat="47.07397" lon="5.50217">
        <ele>227</ele>
        <time>2012-09-14T11:59:07Z</time>
      </trkpt>
      <trkpt lat="47.07387" lon="5.50218">
        <ele>227</ele>
        <time>2012-09-14T11:59:09Z</time>
      </trkpt>
      <trkpt lat="47.07377" lon="5.50218">
        <ele>227</ele>
        <time>2012-09-14T11:59:11Z</time>
      </trkpt>
      <trkpt lat="47.07368" lon="5.50218">
        <ele>227</ele>
        <time>2012-09-14T11:59:13Z</time>
      </trkpt>
      <trkpt lat="47.07357" lon="5.50219">
        <ele>227</ele>
        <time>2012-09-14T11:59:15Z</time>
      </trkpt>
      <trkpt lat="47.07347" lon="5.50221">
        <ele>227</ele>
        <time>2012-09-14T11:59:17Z</time>
      </trkpt>
      <trkpt lat="47.07337" lon="5.50223">
        <ele>227</ele>
        <time>2012-09-14T11:59:19Z</time>
      </trkpt>
      <trkpt lat="47.07328" lon="5.50226">
        <ele>227</ele>
        <time>2012-09-14T11:59:21Z</time>
      </trkpt>
      <trkpt lat="47.07318" lon="5.50229">
        <ele>227</ele>
        <time>2012-09-14T11:59:23Z</time>
      </trkpt>
      <trkpt lat="47.07308" lon="5.50233">
        <ele>227</ele>
        <time>2012-09-14T11:59:25Z</time>
      </trkpt>
      <trkpt lat="47.07298" lon="5.50236">
        <ele>227</ele>
        <time>2012-09-14T11:59:27Z</time>
      </trkpt>
      <trkpt lat="47.07288" lon="5.50241">
        <ele>227</ele>
        <time>2012-09-14T11:59:29Z</time>
      </trkpt>
      <trkpt lat="47.07278" lon="5.50245">
        <ele>227</ele>
        <time>2012-09-14T11:59:31Z</time>
      </trkpt>
      <trkpt lat="47.07269" lon="5.5025">
        <ele>227</ele>
        <time>2012-09-14T11:59:33Z</time>
      </trkpt>
      <trkpt lat="47.07259" lon="5.50254">
        <ele>227</ele>
        <time>2012-09-14T11:59:35Z</time>
      </trkpt>
      <trkpt lat="47.0725" lon="5.50259">
        <ele>227</ele>
        <time>2012-09-14T11:59:37Z</time>
      </trkpt>
      <trkpt lat="47.07241" lon="5.50264">
        <ele>227</ele>
        <time>2012-09-14T11:59:39Z</time>
      </trkpt>
      <trkpt lat="47.07231" lon="5.50269">
        <ele>227</ele>
        <time>2012-09-14T11:59:41Z</time>
      </trkpt>
      <trkpt lat="47.07223" lon="5.50275">
        <ele>227</ele>
        <time>2012-09-14T11:59:43Z</time>
      </trkpt>
      <trkpt lat="47.07214" lon="5.5028">
        <ele>227</ele>
        <time>2012-09-14T11:59:45Z</time>
      </trkpt>
      <trkpt lat="47.07205" lon="5.50285">
        <ele>227</ele>
        <time>2012-09-14T11:59:47Z</time>
      </trkpt>
      <trkpt lat="47.07196" lon="5.5029">
        <ele>227</ele>
        <time>2012-09-14T11:59:49Z</time>
      </trkpt>
      <trkpt lat="47.07188" lon="5.50295">
        <ele>232</ele>
        <time>2012-09-14T11:59:51Z</time>
      </trkpt>
      <trkpt lat="47.07179" lon="5.503">
        <ele>232</ele>
        <time>2012-09-14T11:59:53Z</time>
      </trkpt>
      <trkpt lat="47.07167" lon="5.50307">
        <ele>232</ele>
        <time>2012-09-14T11:59:56Z</time>
      </trkpt>
      <trkpt lat="47.07155" lon="5.50314">
        <ele>232</ele>
        <time>2012-09-14T11:59:59Z</time>
      </trkpt>
      <trkpt lat="47.07143" lon="5.50321">
        <ele>232</ele>
        <time>2012-09-14T12:00:02Z</time>
      </trkpt>
      <trkpt lat="47.07131" lon="5.50329">
        <ele>232</ele>
        <time>2012-09-14T12:00:05Z</time>
      </trkpt>
      <trkpt lat="47.0712" lon="5.50336">
        <ele>232</ele>
        <time>2012-09-14T12:00:08Z</time>
      </trkpt>
      <trkpt lat="47.07109" lon="5.50344">
        <ele>232</ele>
        <time>2012-09-14T12:00:11Z</time>
      </trkpt>
      <trkpt lat="47.07097" lon="5.50351">
        <ele>232</ele>
        <time>2012-09-14T12:00:14Z</time>
      </trkpt>
      <trkpt lat="47.07086" lon="5.50359">
        <ele>232</ele>
        <time>2012-09-14T12:00:17Z</time>
      </trkpt>
      <trkpt lat="47.07074" lon="5.50367">
        <ele>232</ele>
        <time>2012-09-14T12:00:20Z</time>
      </trkpt>
      <trkpt lat="47.07063" lon="5.50375">
        <ele>232</ele>
        <time>2012-09-14T12:00:23Z</time>
      </trkpt>
      <trkpt lat="47.07052" lon="5.50384">
        <ele>232</ele>
        <time>2012-09-14T12:00:26Z</time>
      </trkpt>
      <trkpt lat="47.07044" lon="5.50391">
        <ele>237</ele>
        <time>2012-09-14T12:00:28Z</time>
      </trkpt>
      <trkpt lat="47.07033" lon="5.50399">
        <ele>237</ele>
        <time>2012-09-14T12:00:31Z</time>
      </trkpt>
      <trkpt lat="47.07022" lon="5.50407">
        <ele>237</ele>
        <time>2012-09-14T12:00:34Z</time>
      </trkpt>
      <trkpt lat="47.0701" lon="5.50416">
        <ele>237</ele>
        <time>2012-09-14T12:00:37Z</time>
      </trkpt>
      <trkpt lat="47.06999" lon="5.50425">
        <ele>237</ele>
        <time>2012-09-14T12:00:40Z</time>
      </trkpt>
      <trkpt lat="47.06988" lon="5.50435">
        <ele>237</ele>
        <time>2012-09-14T12:00:43Z</time>
      </trkpt>
      <trkpt lat="47.06977" lon="5.50445">
        <ele>237</ele>
        <time>2012-09-14T12:00:46Z</time>
      </trkpt>
      <trkpt lat="47.0697" lon="5.50454">
        <ele>237</ele>
        <time>2012-09-14T12:00:48Z</time>
      </trkpt>
      <trkpt lat="47.06964" lon="5.50466">
        <ele>237</ele>
        <time>2012-09-14T12:00:50Z</time>
      </trkpt>
      <trkpt lat="47.0696" lon="5.50479">
        <ele>237</ele>
        <time>2012-09-14T12:00:52Z</time>
      </trkpt>
      <trkpt lat="47.06956" lon="5.50491">
        <ele>237</ele>
        <time>2012-09-14T12:00:54Z</time>
      </trkpt>
      <trkpt lat="47.06952" lon="5.50504">
        <ele>237</ele>
        <time>2012-09-14T12:00:56Z</time>
      </trkpt>
      <trkpt lat="47.06948" lon="5.50517">
        <ele>237</ele>
        <time>2012-09-14T12:00:58Z</time>
      </trkpt>
      <trkpt lat="47.06944" lon="5.50531">
        <ele>237</ele>
        <time>2012-09-14T12:01:00Z</time>
      </trkpt>
      <trkpt lat="47.0694" lon="5.50545">
        <ele>237</ele>
        <time>2012-09-14T12:01:02Z</time>
      </trkpt>
      <trkpt lat="47.06935" lon="5.50558">
        <ele>237</ele>
        <time>2012-09-14T12:01:04Z</time>
      </trkpt>
      <trkpt lat="47.06931" lon="5.50572">
        <ele>237</ele>
        <time>2012-09-14T12:01:06Z</time>
      </trkpt>
      <trkpt lat="47.06927" lon="5.50587">
        <ele>237</ele>
        <time>2012-09-14T12:01:08Z</time>
      </trkpt>
      <trkpt lat="47.06922" lon="5.50603">
        <ele>237</ele>
        <time>2012-09-14T12:01:10Z</time>
      </trkpt>
      <trkpt lat="47.06918" lon="5.50618">
        <ele>237</ele>
        <time>2012-09-14T12:01:12Z</time>
      </trkpt>
      <trkpt lat="47.06914" lon="5.50634">
        <ele>237</ele>
        <time>2012-09-14T12:01:14Z</time>
      </trkpt>
      <trkpt lat="47.0691" lon="5.50649">
        <ele>237</ele>
        <time>2012-09-14T12:01:16Z</time>
      </trkpt>
      <trkpt lat="47.06906" lon="5.50664">
        <ele>237</ele>
        <time>2012-09-14T12:01:18Z</time>
      </trkpt>
      <trkpt lat="47.06903" lon="5.50679">
        <ele>237</ele>
        <time>2012-09-14T12:01:20Z</time>
      </trkpt>
      <trkpt lat="47.06899" lon="5.50695">
        <ele>237</ele>
        <time>2012-09-14T12:01:22Z</time>
      </trkpt>
      <trkpt lat="47.06894" lon="5.5071">
        <ele>237</ele>
        <time>2012-09-14T12:01:24Z</time>
      </trkpt>
      <trkpt lat="47.06889" lon="5.50724">
        <ele>237</ele>
        <time>2012-09-14T12:01:26Z</time>
      </trkpt>
      <trkpt lat="47.06885" lon="5.5074">
        <ele>231</ele>
        <time>2012-09-14T12:01:28Z</time>
      </trkpt>
      <trkpt lat="47.0688" lon="5.50757">
        <ele>231</ele>
        <time>2012-09-14T12:01:30Z</time>
      </trkpt>
      <trkpt lat="47.06875" lon="5.50775">
        <ele>231</ele>
        <time>2012-09-14T12:01:32Z</time>
      </trkpt>
      <trkpt lat="47.06869" lon="5.50793">
        <ele>231</ele>
        <time>2012-09-14T12:01:34Z</time>
      </trkpt>
      <trkpt lat="47.06863" lon="5.5081">
        <ele>231</ele>
        <time>2012-09-14T12:01:36Z</time>
      </trkpt>
      <trkpt lat="47.06858" lon="5.50828">
        <ele>231</ele>
        <time>2012-09-14T12:01:38Z</time>
      </trkpt>
      <trkpt lat="47.06853" lon="5.50846">
        <ele>231</ele>
        <time>2012-09-14T12:01:40Z</time>
      </trkpt>
      <trkpt lat="47.06848" lon="5.50863">
        <ele>231</ele>
        <time>2012-09-14T12:01:42Z</time>
      </trkpt>
      <trkpt lat="47.06845" lon="5.5088">
        <ele>231</ele>
        <time>2012-09-14T12:01:44Z</time>
      </trkpt>
      <trkpt lat="47.06842" lon="5.50896">
        <ele>231</ele>
        <time>2012-09-14T12:01:46Z</time>
      </trkpt>
      <trkpt lat="47.06838" lon="5.50913">
        <ele>231</ele>
        <time>2012-09-14T12:01:48Z</time>
      </trkpt>
      <trkpt lat="47.06833" lon="5.50926">
        <ele>231</ele>
        <time>2012-09-14T12:01:50Z</time>
      </trkpt>
      <trkpt lat="47.06829" lon="5.5094">
        <ele>231</ele>
        <time>2012-09-14T12:01:52Z</time>
      </trkpt>
      <trkpt lat="47.06824" lon="5.50953">
        <ele>231</ele>
        <time>2012-09-14T12:01:54Z</time>
      </trkpt>
      <trkpt lat="47.06818" lon="5.50966">
        <ele>231</ele>
        <time>2012-09-14T12:01:56Z</time>
      </trkpt>
      <trkpt lat="47.06815" lon="5.50981">
        <ele>231</ele>
        <time>2012-09-14T12:01:58Z</time>
      </trkpt>
      <trkpt lat="47.06811" lon="5.50995">
        <ele>231</ele>
        <time>2012-09-14T12:02:00Z</time>
      </trkpt>
      <trkpt lat="47.06807" lon="5.5101">
        <ele>231</ele>
        <time>2012-09-14T12:02:02Z</time>
      </trkpt>
      <trkpt lat="47.06802" lon="5.51024">
        <ele>231</ele>
        <time>2012-09-14T12:02:04Z</time>
      </trkpt>
      <trkpt lat="47.06797" lon="5.51039">
        <ele>231</ele>
        <time>2012-09-14T12:02:06Z</time>
      </trkpt>
      <trkpt lat="47.06792" lon="5.51054">
        <ele>231</ele>
        <time>2012-09-14T12:02:08Z</time>
      </trkpt>
      <trkpt lat="47.06788" lon="5.5107">
        <ele>231</ele>
        <time>2012-09-14T12:02:10Z</time>
      </trkpt>
      <trkpt lat="47.06783" lon="5.51086">
        <ele>231</ele>
        <time>2012-09-14T12:02:12Z</time>
      </trkpt>
      <trkpt lat="47.06778" lon="5.51102">
        <ele>231</ele>
        <time>2012-09-14T12:02:14Z</time>
      </trkpt>
      <trkpt lat="47.06773" lon="5.51118">
        <ele>231</ele>
        <time>2012-09-14T12:02:16Z</time>
      </trkpt>
      <trkpt lat="47.06768" lon="5.51134">
        <ele>231</ele>
        <time>2012-09-14T12:02:18Z</time>
      </trkpt>
      <trkpt lat="47.06763" lon="5.51151">
        <ele>231</ele>
        <time>2012-09-14T12:02:20Z</time>
      </trkpt>
      <trkpt lat="47.06759" lon="5.51168">
        <ele>231</ele>
        <time>2012-09-14T12:02:22Z</time>
      </trkpt>
      <trkpt lat="47.06753" lon="5.51185">
        <ele>231</ele>
        <time>2012-09-14T12:02:24Z</time>
      </trkpt>
      <trkpt lat="47.06748" lon="5.51203">
        <ele>231</ele>
        <time>2012-09-14T12:02:26Z</time>
      </trkpt>
      <trkpt lat="47.06744" lon="5.51221">
        <ele>231</ele>
        <time>2012-09-14T12:02:28Z</time>
      </trkpt>
      <trkpt lat="47.06738" lon="5.51239">
        <ele>231</ele>
        <time>2012-09-14T12:02:30Z</time>
      </trkpt>
      <trkpt lat="47.06733" lon="5.51258">
        <ele>231</ele>
        <time>2012-09-14T12:02:32Z</time>
      </trkpt>
      <trkpt lat="47.06727" lon="5.51277">
        <ele>231</ele>
        <time>2012-09-14T12:02:34Z</time>
      </trkpt>
      <trkpt lat="47.06721" lon="5.51296">
        <ele>231</ele>
        <time>2012-09-14T12:02:36Z</time>
      </trkpt>
      <trkpt lat="47.06715" lon="5.51316">
        <ele>231</ele>
        <time>2012-09-14T12:02:38Z</time>
      </trkpt>
      <trkpt lat="47.06708" lon="5.51336">
        <ele>231</ele>
        <time>2012-09-14T12:02:40Z</time>
      </trkpt>
      <trkpt lat="47.06702" lon="5.51357">
        <ele>231</ele>
        <time>2012-09-14T12:02:42Z</time>
      </trkpt>
      <trkpt lat="47.06695" lon="5.51378">
        <ele>231</ele>
        <time>2012-09-14T12:02:44Z</time>
      </trkpt>
      <trkpt lat="47.06689" lon="5.51399">
        <ele>231</ele>
        <time>2012-09-14T12:02:46Z</time>
      </trkpt>
      <trkpt lat="47.06683" lon="5.51422">
        <ele>226</ele>
        <time>2012-09-14T12:02:48Z</time>
      </trkpt>
      <trkpt lat="47.06676" lon="5.51443">
        <ele>226</ele>
        <time>2012-09-14T12:02:50Z</time>
      </trkpt>
      <trkpt lat="47.0667" lon="5.51466">
        <ele>226</ele>
        <time>2012-09-14T12:02:52Z</time>
      </trkpt>
      <trkpt lat="47.06664" lon="5.51487">
        <ele>226</ele>
        <time>2012-09-14T12:02:54Z</time>
      </trkpt>
      <trkpt lat="47.06658" lon="5.51507">
        <ele>226</ele>
        <time>2012-09-14T12:02:56Z</time>
      </trkpt>
      <trkpt lat="47.06652" lon="5.51527">
        <ele>226</ele>
        <time>2012-09-14T12:02:58Z</time>
      </trkpt>
      <trkpt lat="47.06646" lon="5.51547">
        <ele>226</ele>
        <time>2012-09-14T12:03:00Z</time>
      </trkpt>
      <trkpt lat="47.0664" lon="5.51566">
        <ele>226</ele>
        <time>2012-09-14T12:03:02Z</time>
      </trkpt>
      <trkpt lat="47.06635" lon="5.51584">
        <ele>226</ele>
        <time>2012-09-14T12:03:04Z</time>
      </trkpt>
      <trkpt lat="47.0663" lon="5.516">
        <ele>226</ele>
        <time>2012-09-14T12:03:06Z</time>
      </trkpt>
      <trkpt lat="47.06626" lon="5.51617">
        <ele>226</ele>
        <time>2012-09-14T12:03:08Z</time>
      </trkpt>
      <trkpt lat="47.06621" lon="5.51633">
        <ele>226</ele>
        <time>2012-09-14T12:03:10Z</time>
      </trkpt>
      <trkpt lat="47.06617" lon="5.51649">
        <ele>226</ele>
        <time>2012-09-14T12:03:12Z</time>
      </trkpt>
      <trkpt lat="47.06613" lon="5.51664">
        <ele>226</ele>
        <time>2012-09-14T12:03:14Z</time>
      </trkpt>
      <trkpt lat="47.06609" lon="5.5168">
        <ele>226</ele>
        <time>2012-09-14T12:03:16Z</time>
      </trkpt>
      <trkpt lat="47.06605" lon="5.51695">
        <ele>226</ele>
        <time>2012-09-14T12:03:18Z</time>
      </trkpt>
      <trkpt lat="47.066" lon="5.51709">
        <ele>226</ele>
        <time>2012-09-14T12:03:20Z</time>
      </trkpt>
      <trkpt lat="47.06595" lon="5.51725">
        <ele>226</ele>
        <time>2012-09-14T12:03:22Z</time>
      </trkpt>
      <trkpt lat="47.06591" lon="5.5174">
        <ele>226</ele>
        <time>2012-09-14T12:03:24Z</time>
      </trkpt>
      <trkpt lat="47.06586" lon="5.51754">
        <ele>226</ele>
        <time>2012-09-14T12:03:26Z</time>
      </trkpt>
      <trkpt lat="47.06582" lon="5.51768">
        <ele>226</ele>
        <time>2012-09-14T12:03:28Z</time>
      </trkpt>
      <trkpt lat="47.06577" lon="5.51781">
        <ele>226</ele>
        <time>2012-09-14T12:03:30Z</time>
      </trkpt>
      <trkpt lat="47.06573" lon="5.51795">
        <ele>226</ele>
        <time>2012-09-14T12:03:32Z</time>
      </trkpt>
      <trkpt lat="47.0657" lon="5.51808">
        <ele>226</ele>
        <time>2012-09-14T12:03:34Z</time>
      </trkpt>
      <trkpt lat="47.06565" lon="5.51822">
        <ele>226</ele>
        <time>2012-09-14T12:03:36Z</time>
      </trkpt>
      <trkpt lat="47.0656" lon="5.51835">
        <ele>226</ele>
        <time>2012-09-14T12:03:38Z</time>
      </trkpt>
      <trkpt lat="47.06555" lon="5.51849">
        <ele>226</ele>
        <time>2012-09-14T12:03:40Z</time>
      </trkpt>
      <trkpt lat="47.06552" lon="5.51863">
        <ele>226</ele>
        <time>2012-09-14T12:03:42Z</time>
      </trkpt>
      <trkpt lat="47.06548" lon="5.51876">
        <ele>226</ele>
        <time>2012-09-14T12:03:44Z</time>
      </trkpt>
      <trkpt lat="47.06544" lon="5.51891">
        <ele>226</ele>
        <time>2012-09-14T12:03:46Z</time>
      </trkpt>
      <trkpt lat="47.0654" lon="5.51906">
        <ele>226</ele>
        <time>2012-09-14T12:03:48Z</time>
      </trkpt>
      <trkpt lat="47.06536" lon="5.51921">
        <ele>226</ele>
        <time>2012-09-14T12:03:50Z</time>
      </trkpt>
      <trkpt lat="47.06531" lon="5.51938">
        <ele>226</ele>
        <time>2012-09-14T12:03:52Z</time>
      </trkpt>
      <trkpt lat="47.06527" lon="5.51955">
        <ele>226</ele>
        <time>2012-09-14T12:03:54Z</time>
      </trkpt>
      <trkpt lat="47.06521" lon="5.51972">
        <ele>226</ele>
        <time>2012-09-14T12:03:56Z</time>
      </trkpt>
      <trkpt lat="47.06516" lon="5.51991">
        <ele>226</ele>
        <time>2012-09-14T12:03:58Z</time>
      </trkpt>
      <trkpt lat="47.0651" lon="5.5201">
        <ele>226</ele>
        <time>2012-09-14T12:04:00Z</time>
      </trkpt>
      <trkpt lat="47.06503" lon="5.5203">
        <ele>226</ele>
        <time>2012-09-14T12:04:02Z</time>
      </trkpt>
      <trkpt lat="47.06498" lon="5.52051">
        <ele>226</ele>
        <time>2012-09-14T12:04:04Z</time>
      </trkpt>
      <trkpt lat="47.06491" lon="5.52073">
        <ele>226</ele>
        <time>2012-09-14T12:04:06Z</time>
      </trkpt>
      <trkpt lat="47.06486" lon="5.52096">
        <ele>226</ele>
        <time>2012-09-14T12:04:08Z</time>
      </trkpt>
      <trkpt lat="47.0648" lon="5.52116">
        <ele>226</ele>
        <time>2012-09-14T12:04:10Z</time>
      </trkpt>
      <trkpt lat="47.06475" lon="5.52134">
        <ele>226</ele>
        <time>2012-09-14T12:04:12Z</time>
      </trkpt>
      <trkpt lat="47.06469" lon="5.52153">
        <ele>226</ele>
        <time>2012-09-14T12:04:14Z</time>
      </trkpt>
      <trkpt lat="47.06464" lon="5.52169">
        <ele>226</ele>
        <time>2012-09-14T12:04:16Z</time>
      </trkpt>
      <trkpt lat="47.0646" lon="5.52184">
        <ele>226</ele>
        <time>2012-09-14T12:04:18Z</time>
      </trkpt>
      <trkpt lat="47.06457" lon="5.52198">
        <ele>226</ele>
        <time>2012-09-14T12:04:20Z</time>
      </trkpt>
      <trkpt lat="47.06452" lon="5.52212">
        <ele>226</ele>
        <time>2012-09-14T12:04:22Z</time>
      </trkpt>
      <trkpt lat="47.06448" lon="5.52225">
        <ele>226</ele>
        <time>2012-09-14T12:04:24Z</time>
      </trkpt>
      <trkpt lat="47.06444" lon="5.52238">
        <ele>226</ele>
        <time>2012-09-14T12:04:26Z</time>
      </trkpt>
      <trkpt lat="47.0644" lon="5.52257">
        <ele>226</ele>
        <time>2012-09-14T12:04:29Z</time>
      </trkpt>
      <trkpt lat="47.06436" lon="5.5227">
        <ele>226</ele>
        <time>2012-09-14T12:04:31Z</time>
      </trkpt>
      <trkpt lat="47.06432" lon="5.52282">
        <ele>226</ele>
        <time>2012-09-14T12:04:33Z</time>
      </trkpt>
      <trkpt lat="47.06427" lon="5.52294">
        <ele>226</ele>
        <time>2012-09-14T12:04:35Z</time>
      </trkpt>
      <trkpt lat="47.06423" lon="5.52313">
        <ele>226</ele>
        <time>2012-09-14T12:04:38Z</time>
      </trkpt>
      <trkpt lat="47.06419" lon="5.52326">
        <ele>226</ele>
        <time>2012-09-14T12:04:40Z</time>
      </trkpt>
      <trkpt lat="47.06414" lon="5.52339">
        <ele>226</ele>
        <time>2012-09-14T12:04:42Z</time>
      </trkpt>
      <trkpt lat="47.06411" lon="5.52352">
        <ele>226</ele>
        <time>2012-09-14T12:04:44Z</time>
      </trkpt>
      <trkpt lat="47.06408" lon="5.52367">
        <ele>226</ele>
        <time>2012-09-14T12:04:46Z</time>
      </trkpt>
      <trkpt lat="47.06405" lon="5.52383">
        <ele>226</ele>
        <time>2012-09-14T12:04:48Z</time>
      </trkpt>
      <trkpt lat="47.064" lon="5.52397">
        <ele>226</ele>
        <time>2012-09-14T12:04:50Z</time>
      </trkpt>
      <trkpt lat="47.06395" lon="5.52412">
        <ele>226</ele>
        <time>2012-09-14T12:04:52Z</time>
      </trkpt>
      <trkpt lat="47.0639" lon="5.52426">
        <ele>226</ele>
        <time>2012-09-14T12:04:54Z</time>
      </trkpt>
      <trkpt lat="47.06386" lon="5.52441">
        <ele>226</ele>
        <time>2012-09-14T12:04:56Z</time>
      </trkpt>
      <trkpt lat="47.06382" lon="5.52456">
        <ele>232</ele>
        <time>2012-09-14T12:04:58Z</time>
      </trkpt>
      <trkpt lat="47.06379" lon="5.5247">
        <ele>232</ele>
        <time>2012-09-14T12:05:00Z</time>
      </trkpt>
      <trkpt lat="47.06373" lon="5.52484">
        <ele>232</ele>
        <time>2012-09-14T12:05:02Z</time>
      </trkpt>
      <trkpt lat="47.06368" lon="5.52498">
        <ele>232</ele>
        <time>2012-09-14T12:05:04Z</time>
      </trkpt>
      <trkpt lat="47.06364" lon="5.52512">
        <ele>237</ele>
        <time>2012-09-14T12:05:06Z</time>
      </trkpt>
      <trkpt lat="47.06361" lon="5.52527">
        <ele>237</ele>
        <time>2012-09-14T12:05:08Z</time>
      </trkpt>
      <trkpt lat="47.06356" lon="5.52542">
        <ele>237</ele>
        <time>2012-09-14T12:05:10Z</time>
      </trkpt>
      <trkpt lat="47.06351" lon="5.52556">
        <ele>237</ele>
        <time>2012-09-14T12:05:12Z</time>
      </trkpt>
      <trkpt lat="47.06346" lon="5.52571">
        <ele>237</ele>
        <time>2012-09-14T12:05:14Z</time>
      </trkpt>
      <trkpt lat="47.06341" lon="5.52586">
        <ele>237</ele>
        <time>2012-09-14T12:05:16Z</time>
      </trkpt>
      <trkpt lat="47.06336" lon="5.52602">
        <ele>237</ele>
        <time>2012-09-14T12:05:18Z</time>
      </trkpt>
      <trkpt lat="47.06331" lon="5.52618">
        <ele>237</ele>
        <time>2012-09-14T12:05:20Z</time>
      </trkpt>
      <trkpt lat="47.06327" lon="5.52635">
        <ele>237</ele>
        <time>2012-09-14T12:05:22Z</time>
      </trkpt>
      <trkpt lat="47.06322" lon="5.52652">
        <ele>237</ele>
        <time>2012-09-14T12:05:24Z</time>
      </trkpt>
      <trkpt lat="47.06317" lon="5.5267">
        <ele>237</ele>
        <time>2012-09-14T12:05:26Z</time>
      </trkpt>
      <trkpt lat="47.06312" lon="5.52685">
        <ele>237</ele>
        <time>2012-09-14T12:05:28Z</time>
      </trkpt>
      <trkpt lat="47.06307" lon="5.52701">
        <ele>237</ele>
        <time>2012-09-14T12:05:30Z</time>
      </trkpt>
      <trkpt lat="47.06303" lon="5.52717">
        <ele>237</ele>
        <time>2012-09-14T12:05:32Z</time>
      </trkpt>
      <trkpt lat="47.06298" lon="5.52733">
        <ele>237</ele>
        <time>2012-09-14T12:05:34Z</time>
      </trkpt>
      <trkpt lat="47.06294" lon="5.52748">
        <ele>237</ele>
        <time>2012-09-14T12:05:36Z</time>
      </trkpt>
      <trkpt lat="47.06291" lon="5.52763">
        <ele>237</ele>
        <time>2012-09-14T12:05:38Z</time>
      </trkpt>
      <trkpt lat="47.06287" lon="5.52778">
        <ele>237</ele>
        <time>2012-09-14T12:05:40Z</time>
      </trkpt>
      <trkpt lat="47.06282" lon="5.52794">
        <ele>231</ele>
        <time>2012-09-14T12:05:42Z</time>
      </trkpt>
      <trkpt lat="47.06278" lon="5.52809">
        <ele>231</ele>
        <time>2012-09-14T12:05:44Z</time>
      </trkpt>
      <trkpt lat="47.06274" lon="5.52823">
        <ele>231</ele>
        <time>2012-09-14T12:05:46Z</time>
      </trkpt>
      <trkpt lat="47.06269" lon="5.52838">
        <ele>231</ele>
        <time>2012-09-14T12:05:48Z</time>
      </trkpt>
      <trkpt lat="47.06265" lon="5.52852">
        <ele>231</ele>
        <time>2012-09-14T12:05:50Z</time>
      </trkpt>
      <trkpt lat="47.06261" lon="5.52867">
        <ele>231</ele>
        <time>2012-09-14T12:05:52Z</time>
      </trkpt>
      <trkpt lat="47.06257" lon="5.52883">
        <ele>231</ele>
        <time>2012-09-14T12:05:54Z</time>
      </trkpt>
      <trkpt lat="47.06253" lon="5.52897">
        <ele>231</ele>
        <time>2012-09-14T12:05:56Z</time>
      </trkpt>
      <trkpt lat="47.06247" lon="5.52911">
        <ele>231</ele>
        <time>2012-09-14T12:05:58Z</time>
      </trkpt>
      <trkpt lat="47.06242" lon="5.52927">
        <ele>231</ele>
        <time>2012-09-14T12:06:00Z</time>
      </trkpt>
      <trkpt lat="47.06238" lon="5.52941">
        <ele>225</ele>
        <time>2012-09-14T12:06:02Z</time>
      </trkpt>
      <trkpt lat="47.06233" lon="5.52957">
        <ele>225</ele>
        <time>2012-09-14T12:06:04Z</time>
      </trkpt>
      <trkpt lat="47.06228" lon="5.52972">
        <ele>225</ele>
        <time>2012-09-14T12:06:06Z</time>
      </trkpt>
      <trkpt lat="47.06223" lon="5.52989">
        <ele>225</ele>
        <time>2012-09-14T12:06:08Z</time>
      </trkpt>
      <trkpt lat="47.06217" lon="5.53006">
        <ele>225</ele>
        <time>2012-09-14T12:06:10Z</time>
      </trkpt>
      <trkpt lat="47.06212" lon="5.53023">
        <ele>225</ele>
        <time>2012-09-14T12:06:12Z</time>
      </trkpt>
      <trkpt lat="47.06207" lon="5.5304">
        <ele>231</ele>
        <time>2012-09-14T12:06:14Z</time>
      </trkpt>
      <trkpt lat="47.06201" lon="5.53058">
        <ele>231</ele>
        <time>2012-09-14T12:06:16Z</time>
      </trkpt>
      <trkpt lat="47.06195" lon="5.53076">
        <ele>231</ele>
        <time>2012-09-14T12:06:18Z</time>
      </trkpt>
      <trkpt lat="47.0619" lon="5.53094">
        <ele>231</ele>
        <time>2012-09-14T12:06:20Z</time>
      </trkpt>
      <trkpt lat="47.06186" lon="5.53112">
        <ele>231</ele>
        <time>2012-09-14T12:06:22Z</time>
      </trkpt>
      <trkpt lat="47.0618" lon="5.5313">
        <ele>231</ele>
        <time>2012-09-14T12:06:24Z</time>
      </trkpt>
      <trkpt lat="47.06174" lon="5.5315">
        <ele>225</ele>
        <time>2012-09-14T12:06:26Z</time>
      </trkpt>
      <trkpt lat="47.06167" lon="5.53172">
        <ele>225</ele>
        <time>2012-09-14T12:06:28Z</time>
      </trkpt>
      <trkpt lat="47.0616" lon="5.53195">
        <ele>225</ele>
        <time>2012-09-14T12:06:30Z</time>
      </trkpt>
      <trkpt lat="47.06157" lon="5.53208">
        <ele>225</ele>
        <time>2012-09-14T12:06:31Z</time>
      </trkpt>
      <trkpt lat="47.06153" lon="5.5322">
        <ele>225</ele>
        <time>2012-09-14T12:06:32Z</time>
      </trkpt>
      <trkpt lat="47.06147" lon="5.53244">
        <ele>225</ele>
        <time>2012-09-14T12:06:34Z</time>
      </trkpt>
      <trkpt lat="47.06141" lon="5.53264">
        <ele>219</ele>
        <time>2012-09-14T12:06:36Z</time>
      </trkpt>
      <trkpt lat="47.06136" lon="5.53282">
        <ele>219</ele>
        <time>2012-09-14T12:06:38Z</time>
      </trkpt>
      <trkpt lat="47.06133" lon="5.53297">
        <ele>219</ele>
        <time>2012-09-14T12:06:40Z</time>
      </trkpt>
      <trkpt lat="47.06129" lon="5.5331">
        <ele>219</ele>
        <time>2012-09-14T12:06:42Z</time>
      </trkpt>
      <trkpt lat="47.06125" lon="5.53324">
        <ele>219</ele>
        <time>2012-09-14T12:06:44Z</time>
      </trkpt>
      <trkpt lat="47.0612" lon="5.53341">
        <ele>219</ele>
        <time>2012-09-14T12:06:47Z</time>
      </trkpt>
      <trkpt lat="47.06115" lon="5.53357">
        <ele>219</ele>
        <time>2012-09-14T12:06:50Z</time>
      </trkpt>
      <trkpt lat="47.06108" lon="5.53372">
        <ele>219</ele>
        <time>2012-09-14T12:06:53Z</time>
      </trkpt>
      <trkpt lat="47.06102" lon="5.53387">
        <ele>219</ele>
        <time>2012-09-14T12:06:56Z</time>
      </trkpt>
      <trkpt lat="47.06097" lon="5.53402">
        <ele>219</ele>
        <time>2012-09-14T12:06:59Z</time>
      </trkpt>
      <trkpt lat="47.0609" lon="5.53413">
        <ele>219</ele>
        <time>2012-09-14T12:07:02Z</time>
      </trkpt>
      <trkpt lat="47.06082" lon="5.53424">
        <ele>219</ele>
        <time>2012-09-14T12:07:05Z</time>
      </trkpt>
      <trkpt lat="47.06074" lon="5.53437">
        <ele>219</ele>
        <time>2012-09-14T12:07:08Z</time>
      </trkpt>
      <trkpt lat="47.06064" lon="5.53448">
        <ele>226</ele>
        <time>2012-09-14T12:07:11Z</time>
      </trkpt>
      <trkpt lat="47.06055" lon="5.53461">
        <ele>226</ele>
        <time>2012-09-14T12:07:14Z</time>
      </trkpt>
      <trkpt lat="47.06049" lon="5.53471">
        <ele>226</ele>
        <time>2012-09-14T12:07:16Z</time>
      </trkpt>
      <trkpt lat="47.06041" lon="5.5348">
        <ele>226</ele>
        <time>2012-09-14T12:07:18Z</time>
      </trkpt>
      <trkpt lat="47.06032" lon="5.53493">
        <ele>232</ele>
        <time>2012-09-14T12:07:21Z</time>
      </trkpt>
      <trkpt lat="47.06024" lon="5.53503">
        <ele>232</ele>
        <time>2012-09-14T12:07:24Z</time>
      </trkpt>
      <trkpt lat="47.06015" lon="5.53515">
        <ele>232</ele>
        <time>2012-09-14T12:07:27Z</time>
      </trkpt>
      <trkpt lat="47.06006" lon="5.53525">
        <ele>232</ele>
        <time>2012-09-14T12:07:30Z</time>
      </trkpt>
      <trkpt lat="47.05998" lon="5.53537">
        <ele>232</ele>
        <time>2012-09-14T12:07:33Z</time>
      </trkpt>
      <trkpt lat="47.0599" lon="5.53549">
        <ele>238</ele>
        <time>2012-09-14T12:07:36Z</time>
      </trkpt>
      <trkpt lat="47.05982" lon="5.53562">
        <ele>238</ele>
        <time>2012-09-14T12:07:39Z</time>
      </trkpt>
      <trkpt lat="47.05975" lon="5.53573">
        <ele>238</ele>
        <time>2012-09-14T12:07:42Z</time>
      </trkpt>
      <trkpt lat="47.05966" lon="5.53584">
        <ele>244</ele>
        <time>2012-09-14T12:07:45Z</time>
      </trkpt>
      <trkpt lat="47.05958" lon="5.53597">
        <ele>244</ele>
        <time>2012-09-14T12:07:48Z</time>
      </trkpt>
      <trkpt lat="47.0595" lon="5.53605">
        <ele>244</ele>
        <time>2012-09-14T12:07:50Z</time>
      </trkpt>
      <trkpt lat="47.05944" lon="5.53614">
        <ele>244</ele>
        <time>2012-09-14T12:07:52Z</time>
      </trkpt>
      <trkpt lat="47.05936" lon="5.53623">
        <ele>250</ele>
        <time>2012-09-14T12:07:54Z</time>
      </trkpt>
      <trkpt lat="47.05929" lon="5.53633">
        <ele>250</ele>
        <time>2012-09-14T12:07:56Z</time>
      </trkpt>
      <trkpt lat="47.05921" lon="5.53642">
        <ele>250</ele>
        <time>2012-09-14T12:07:58Z</time>
      </trkpt>
      <trkpt lat="47.05913" lon="5.53652">
        <ele>250</ele>
        <time>2012-09-14T12:08:00Z</time>
      </trkpt>
      <trkpt lat="47.05905" lon="5.53662">
        <ele>250</ele>
        <time>2012-09-14T12:08:02Z</time>
      </trkpt>
      <trkpt lat="47.05897" lon="5.53673">
        <ele>250</ele>
        <time>2012-09-14T12:08:04Z</time>
      </trkpt>
      <trkpt lat="47.05889" lon="5.53685">
        <ele>250</ele>
        <time>2012-09-14T12:08:06Z</time>
      </trkpt>
      <trkpt lat="47.05881" lon="5.53696">
        <ele>250</ele>
        <time>2012-09-14T12:08:08Z</time>
      </trkpt>
      <trkpt lat="47.05873" lon="5.53707">
        <ele>250</ele>
        <time>2012-09-14T12:08:10Z</time>
      </trkpt>
      <trkpt lat="47.05864" lon="5.5372">
        <ele>250</ele>
        <time>2012-09-14T12:08:12Z</time>
      </trkpt>
      <trkpt lat="47.05856" lon="5.53732">
        <ele>250</ele>
        <time>2012-09-14T12:08:14Z</time>
      </trkpt>
      <trkpt lat="47.05847" lon="5.53746">
        <ele>250</ele>
        <time>2012-09-14T12:08:16Z</time>
      </trkpt>
      <trkpt lat="47.05839" lon="5.53759">
        <ele>244</ele>
        <time>2012-09-14T12:08:18Z</time>
      </trkpt>
      <trkpt lat="47.05829" lon="5.53772">
        <ele>244</ele>
        <time>2012-09-14T12:08:20Z</time>
      </trkpt>
      <trkpt lat="47.05818" lon="5.53784">
        <ele>244</ele>
        <time>2012-09-14T12:08:22Z</time>
      </trkpt>
      <trkpt lat="47.05808" lon="5.53798">
        <ele>244</ele>
        <time>2012-09-14T12:08:24Z</time>
      </trkpt>
      <trkpt lat="47.05799" lon="5.53812">
        <ele>244</ele>
        <time>2012-09-14T12:08:26Z</time>
      </trkpt>
      <trkpt lat="47.05789" lon="5.53826">
        <ele>244</ele>
        <time>2012-09-14T12:08:28Z</time>
      </trkpt>
      <trkpt lat="47.0578" lon="5.53839">
        <ele>244</ele>
        <time>2012-09-14T12:08:30Z</time>
      </trkpt>
      <trkpt lat="47.0577" lon="5.53854">
        <ele>244</ele>
        <time>2012-09-14T12:08:32Z</time>
      </trkpt>
      <trkpt lat="47.05761" lon="5.5387">
        <ele>244</ele>
        <time>2012-09-14T12:08:34Z</time>
      </trkpt>
      <trkpt lat="47.05752" lon="5.53883">
        <ele>244</ele>
        <time>2012-09-14T12:08:36Z</time>
      </trkpt>
      <trkpt lat="47.05742" lon="5.53899">
        <ele>244</ele>
        <time>2012-09-14T12:08:38Z</time>
      </trkpt>
      <trkpt lat="47.05733" lon="5.53912">
        <ele>244</ele>
        <time>2012-09-14T12:08:40Z</time>
      </trkpt>
      <trkpt lat="47.05723" lon="5.53926">
        <ele>244</ele>
        <time>2012-09-14T12:08:42Z</time>
      </trkpt>
      <trkpt lat="47.05714" lon="5.53939">
        <ele>244</ele>
        <time>2012-09-14T12:08:44Z</time>
      </trkpt>
      <trkpt lat="47.05705" lon="5.53953">
        <ele>244</ele>
        <time>2012-09-14T12:08:46Z</time>
      </trkpt>
      <trkpt lat="47.05696" lon="5.53967">
        <ele>239</ele>
        <time>2012-09-14T12:08:48Z</time>
      </trkpt>
      <trkpt lat="47.05686" lon="5.53982">
        <ele>239</ele>
        <time>2012-09-14T12:08:50Z</time>
      </trkpt>
      <trkpt lat="47.05675" lon="5.53998">
        <ele>239</ele>
        <time>2012-09-14T12:08:52Z</time>
      </trkpt>
      <trkpt lat="47.05663" lon="5.54014">
        <ele>239</ele>
        <time>2012-09-14T12:08:54Z</time>
      </trkpt>
      <trkpt lat="47.05651" lon="5.54033">
        <ele>239</ele>
        <time>2012-09-14T12:08:56Z</time>
      </trkpt>
      <trkpt lat="47.05645" lon="5.54043">
        <ele>233</ele>
        <time>2012-09-14T12:08:57Z</time>
      </trkpt>
      <trkpt lat="47.05638" lon="5.54053">
        <ele>233</ele>
        <time>2012-09-14T12:08:58Z</time>
      </trkpt>
      <trkpt lat="47.05632" lon="5.54063">
        <ele>233</ele>
        <time>2012-09-14T12:08:59Z</time>
      </trkpt>
      <trkpt lat="47.05625" lon="5.54074">
        <ele>233</ele>
        <time>2012-09-14T12:09:00Z</time>
      </trkpt>
      <trkpt lat="47.05619" lon="5.54084">
        <ele>233</ele>
        <time>2012-09-14T12:09:01Z</time>
      </trkpt>
      <trkpt lat="47.05612" lon="5.54093">
        <ele>233</ele>
        <time>2012-09-14T12:09:02Z</time>
      </trkpt>
      <trkpt lat="47.05605" lon="5.54104">
        <ele>233</ele>
        <time>2012-09-14T12:09:03Z</time>
      </trkpt>
      <trkpt lat="47.05597" lon="5.54114">
        <ele>233</ele>
        <time>2012-09-14T12:09:04Z</time>
      </trkpt>
      <trkpt lat="47.0559" lon="5.54125">
        <ele>233</ele>
        <time>2012-09-14T12:09:05Z</time>
      </trkpt>
      <trkpt lat="47.05583" lon="5.54136">
        <ele>233</ele>
        <time>2012-09-14T12:09:06Z</time>
      </trkpt>
      <trkpt lat="47.05576" lon="5.54146">
        <ele>233</ele>
        <time>2012-09-14T12:09:07Z</time>
      </trkpt>
      <trkpt lat="47.05568" lon="5.54156">
        <ele>233</ele>
        <time>2012-09-14T12:09:08Z</time>
      </trkpt>
      <trkpt lat="47.05561" lon="5.54167">
        <ele>228</ele>
        <time>2012-09-14T12:09:09Z</time>
      </trkpt>
      <trkpt lat="47.05554" lon="5.54177">
        <ele>228</ele>
        <time>2012-09-14T12:09:10Z</time>
      </trkpt>
      <trkpt lat="47.05546" lon="5.54187">
        <ele>228</ele>
        <time>2012-09-14T12:09:11Z</time>
      </trkpt>
      <trkpt lat="47.0554" lon="5.54199">
        <ele>228</ele>
        <time>2012-09-14T12:09:12Z</time>
      </trkpt>
      <trkpt lat="47.05533" lon="5.5421">
        <ele>228</ele>
        <time>2012-09-14T12:09:13Z</time>
      </trkpt>
      <trkpt lat="47.05525" lon="5.54221">
        <ele>228</ele>
        <time>2012-09-14T12:09:14Z</time>
      </trkpt>
      <trkpt lat="47.05517" lon="5.54233">
        <ele>228</ele>
        <time>2012-09-14T12:09:15Z</time>
      </trkpt>
      <trkpt lat="47.0551" lon="5.54244">
        <ele>228</ele>
        <time>2012-09-14T12:09:16Z</time>
      </trkpt>
      <trkpt lat="47.05503" lon="5.54256">
        <ele>228</ele>
        <time>2012-09-14T12:09:17Z</time>
      </trkpt>
      <trkpt lat="47.05497" lon="5.54269">
        <ele>228</ele>
        <time>2012-09-14T12:09:18Z</time>
      </trkpt>
      <trkpt lat="47.05492" lon="5.54282">
        <ele>228</ele>
        <time>2012-09-14T12:09:19Z</time>
      </trkpt>
      <trkpt lat="47.05487" lon="5.54296">
        <ele>228</ele>
        <time>2012-09-14T12:09:20Z</time>
      </trkpt>
      <trkpt lat="47.05483" lon="5.54308">
        <ele>228</ele>
        <time>2012-09-14T12:09:21Z</time>
      </trkpt>
      <trkpt lat="47.05479" lon="5.54321">
        <ele>222</ele>
        <time>2012-09-14T12:09:22Z</time>
      </trkpt>
      <trkpt lat="47.05471" lon="5.54342">
        <ele>222</ele>
        <time>2012-09-14T12:09:24Z</time>
      </trkpt>
      <trkpt lat="47.05466" lon="5.54365">
        <ele>222</ele>
        <time>2012-09-14T12:09:26Z</time>
      </trkpt>
      <trkpt lat="47.05463" lon="5.54387">
        <ele>222</ele>
        <time>2012-09-14T12:09:28Z</time>
      </trkpt>
      <trkpt lat="47.05457" lon="5.54407">
        <ele>222</ele>
        <time>2012-09-14T12:09:30Z</time>
      </trkpt>
      <trkpt lat="47.05451" lon="5.54426">
        <ele>222</ele>
        <time>2012-09-14T12:09:32Z</time>
      </trkpt>
      <trkpt lat="47.05444" lon="5.54442">
        <ele>222</ele>
        <time>2012-09-14T12:09:34Z</time>
      </trkpt>
      <trkpt lat="47.05441" lon="5.54456">
        <ele>222</ele>
        <time>2012-09-14T12:09:36Z</time>
      </trkpt>
      <trkpt lat="47.05436" lon="5.5447">
        <ele>222</ele>
        <time>2012-09-14T12:09:38Z</time>
      </trkpt>
      <trkpt lat="47.05433" lon="5.54484">
        <ele>222</ele>
        <time>2012-09-14T12:09:40Z</time>
      </trkpt>
      <trkpt lat="47.05428" lon="5.54498">
        <ele>222</ele>
        <time>2012-09-14T12:09:42Z</time>
      </trkpt>
      <trkpt lat="47.05424" lon="5.54511">
        <ele>228</ele>
        <time>2012-09-14T12:09:44Z</time>
      </trkpt>
      <trkpt lat="47.05419" lon="5.54526">
        <ele>228</ele>
        <time>2012-09-14T12:09:46Z</time>
      </trkpt>
      <trkpt lat="47.05414" lon="5.54542">
        <ele>228</ele>
        <time>2012-09-14T12:09:48Z</time>
      </trkpt>
      <trkpt lat="47.05409" lon="5.54559">
        <ele>228</ele>
        <time>2012-09-14T12:09:50Z</time>
      </trkpt>
      <trkpt lat="47.05405" lon="5.54573">
        <ele>228</ele>
        <time>2012-09-14T12:09:52Z</time>
      </trkpt>
      <trkpt lat="47.05403" lon="5.54588">
        <ele>228</ele>
        <time>2012-09-14T12:09:54Z</time>
      </trkpt>
      <trkpt lat="47.05398" lon="5.546">
        <ele>228</ele>
        <time>2012-09-14T12:09:56Z</time>
      </trkpt>
      <trkpt lat="47.05396" lon="5.54615">
        <ele>228</ele>
        <time>2012-09-14T12:09:58Z</time>
      </trkpt>
      <trkpt lat="47.0539" lon="5.54627">
        <ele>228</ele>
        <time>2012-09-14T12:10:00Z</time>
      </trkpt>
      <trkpt lat="47.05384" lon="5.5464">
        <ele>228</ele>
        <time>2012-09-14T12:10:02Z</time>
      </trkpt>
      <trkpt lat="47.05379" lon="5.54652">
        <ele>228</ele>
        <time>2012-09-14T12:10:04Z</time>
      </trkpt>
      <trkpt lat="47.05374" lon="5.54665">
        <ele>228</ele>
        <time>2012-09-14T12:10:06Z</time>
      </trkpt>
      <trkpt lat="47.05371" lon="5.54678">
        <ele>228</ele>
        <time>2012-09-14T12:10:08Z</time>
      </trkpt>
      <trkpt lat="47.05369" lon="5.54692">
        <ele>233</ele>
        <time>2012-09-14T12:10:10Z</time>
      </trkpt>
      <trkpt lat="47.05363" lon="5.54704">
        <ele>233</ele>
        <time>2012-09-14T12:10:12Z</time>
      </trkpt>
      <trkpt lat="47.05358" lon="5.54719">
        <ele>233</ele>
        <time>2012-09-14T12:10:14Z</time>
      </trkpt>
      <trkpt lat="47.05354" lon="5.54732">
        <ele>233</ele>
        <time>2012-09-14T12:10:16Z</time>
      </trkpt>
      <trkpt lat="47.05349" lon="5.54747">
        <ele>233</ele>
        <time>2012-09-14T12:10:18Z</time>
      </trkpt>
      <trkpt lat="47.05344" lon="5.54761">
        <ele>233</ele>
        <time>2012-09-14T12:10:20Z</time>
      </trkpt>
      <trkpt lat="47.05339" lon="5.54775">
        <ele>227</ele>
        <time>2012-09-14T12:10:22Z</time>
      </trkpt>
      <trkpt lat="47.05333" lon="5.54791">
        <ele>227</ele>
        <time>2012-09-14T12:10:24Z</time>
      </trkpt>
      <trkpt lat="47.05327" lon="5.54806">
        <ele>227</ele>
        <time>2012-09-14T12:10:26Z</time>
      </trkpt>
      <trkpt lat="47.05322" lon="5.54821">
        <ele>227</ele>
        <time>2012-09-14T12:10:28Z</time>
      </trkpt>
      <trkpt lat="47.05318" lon="5.54837">
        <ele>222</ele>
        <time>2012-09-14T12:10:30Z</time>
      </trkpt>
      <trkpt lat="47.05314" lon="5.54853">
        <ele>222</ele>
        <time>2012-09-14T12:10:32Z</time>
      </trkpt>
      <trkpt lat="47.0531" lon="5.54866">
        <ele>222</ele>
        <time>2012-09-14T12:10:34Z</time>
      </trkpt>
      <trkpt lat="47.05308" lon="5.5488">
        <ele>222</ele>
        <time>2012-09-14T12:10:36Z</time>
      </trkpt>
      <trkpt lat="47.05304" lon="5.54898">
        <ele>222</ele>
        <time>2012-09-14T12:10:39Z</time>
      </trkpt>
      <trkpt lat="47.05304" lon="5.54913">
        <ele>222</ele>
        <time>2012-09-14T12:10:41Z</time>
      </trkpt>
      <trkpt lat="47.05307" lon="5.54928">
        <ele>222</ele>
        <time>2012-09-14T12:10:43Z</time>
      </trkpt>
      <trkpt lat="47.05311" lon="5.54947">
        <ele>222</ele>
        <time>2012-09-14T12:10:45Z</time>
      </trkpt>
      <trkpt lat="47.05316" lon="5.54968">
        <ele>222</ele>
        <time>2012-09-14T12:10:47Z</time>
      </trkpt>
      <trkpt lat="47.05322" lon="5.54991">
        <ele>222</ele>
        <time>2012-09-14T12:10:49Z</time>
      </trkpt>
      <trkpt lat="47.05327" lon="5.55012">
        <ele>222</ele>
        <time>2012-09-14T12:10:51Z</time>
      </trkpt>
      <trkpt lat="47.05333" lon="5.55034">
        <ele>222</ele>
        <time>2012-09-14T12:10:53Z</time>
      </trkpt>
      <trkpt lat="47.05335" lon="5.55055">
        <ele>222</ele>
        <time>2012-09-14T12:10:55Z</time>
      </trkpt>
      <trkpt lat="47.05337" lon="5.55075">
        <ele>222</ele>
        <time>2012-09-14T12:10:57Z</time>
      </trkpt>
      <trkpt lat="47.0534" lon="5.55095">
        <ele>222</ele>
        <time>2012-09-14T12:10:59Z</time>
      </trkpt>
      <trkpt lat="47.05346" lon="5.55113">
        <ele>222</ele>
        <time>2012-09-14T12:11:01Z</time>
      </trkpt>
      <trkpt lat="47.05352" lon="5.55127">
        <ele>222</ele>
        <time>2012-09-14T12:11:03Z</time>
      </trkpt>
      <trkpt lat="47.05355" lon="5.55144">
        <ele>222</ele>
        <time>2012-09-14T12:11:05Z</time>
      </trkpt>
      <trkpt lat="47.05358" lon="5.55158">
        <ele>222</ele>
        <time>2012-09-14T12:11:07Z</time>
      </trkpt>
      <trkpt lat="47.05362" lon="5.55171">
        <ele>222</ele>
        <time>2012-09-14T12:11:09Z</time>
      </trkpt>
      <trkpt lat="47.05366" lon="5.55184">
        <ele>222</ele>
        <time>2012-09-14T12:11:11Z</time>
      </trkpt>
      <trkpt lat="47.0537" lon="5.55197">
        <ele>222</ele>
        <time>2012-09-14T12:11:13Z</time>
      </trkpt>
      <trkpt lat="47.05373" lon="5.5521">
        <ele>228</ele>
        <time>2012-09-14T12:11:15Z</time>
      </trkpt>
      <trkpt lat="47.05378" lon="5.55222">
        <ele>228</ele>
        <time>2012-09-14T12:11:17Z</time>
      </trkpt>
      <trkpt lat="47.05382" lon="5.55239">
        <ele>228</ele>
        <time>2012-09-14T12:11:20Z</time>
      </trkpt>
      <trkpt lat="47.05384" lon="5.55256">
        <ele>228</ele>
        <time>2012-09-14T12:11:23Z</time>
      </trkpt>
      <trkpt lat="47.05386" lon="5.55274">
        <ele>228</ele>
        <time>2012-09-14T12:11:26Z</time>
      </trkpt>
      <trkpt lat="47.05391" lon="5.55291">
        <ele>228</ele>
        <time>2012-09-14T12:11:29Z</time>
      </trkpt>
      <trkpt lat="47.05395" lon="5.55309">
        <ele>228</ele>
        <time>2012-09-14T12:11:32Z</time>
      </trkpt>
      <trkpt lat="47.054" lon="5.55326">
        <ele>228</ele>
        <time>2012-09-14T12:11:35Z</time>
      </trkpt>
      <trkpt lat="47.05404" lon="5.55344">
        <ele>228</ele>
        <time>2012-09-14T12:11:38Z</time>
      </trkpt>
      <trkpt lat="47.05408" lon="5.55357">
        <ele>228</ele>
        <time>2012-09-14T12:11:40Z</time>
      </trkpt>
      <trkpt lat="47.05412" lon="5.55374">
        <ele>233</ele>
        <time>2012-09-14T12:11:43Z</time>
      </trkpt>
      <trkpt lat="47.05417" lon="5.55391">
        <ele>233</ele>
        <time>2012-09-14T12:11:46Z</time>
      </trkpt>
      <trkpt lat="47.0542" lon="5.5541">
        <ele>227</ele>
        <time>2012-09-14T12:11:49Z</time>
      </trkpt>
      <trkpt lat="47.05422" lon="5.55423">
        <ele>227</ele>
        <time>2012-09-14T12:11:51Z</time>
      </trkpt>
      <trkpt lat="47.05422" lon="5.55436">
        <ele>227</ele>
        <time>2012-09-14T12:11:53Z</time>
      </trkpt>
      <trkpt lat="47.05425" lon="5.55456">
        <ele>233</ele>
        <time>2012-09-14T12:11:56Z</time>
      </trkpt>
      <trkpt lat="47.05428" lon="5.55475">
        <ele>233</ele>
        <time>2012-09-14T12:11:59Z</time>
      </trkpt>
      <trkpt lat="47.05433" lon="5.55488">
        <ele>240</ele>
        <time>2012-09-14T12:12:01Z</time>
      </trkpt>
      <trkpt lat="47.05436" lon="5.555">
        <ele>240</ele>
        <time>2012-09-14T12:12:03Z</time>
      </trkpt>
      <trkpt lat="47.0544" lon="5.55513">
        <ele>240</ele>
        <time>2012-09-14T12:12:05Z</time>
      </trkpt>
      <trkpt lat="47.05443" lon="5.55526">
        <ele>240</ele>
        <time>2012-09-14T12:12:07Z</time>
      </trkpt>
      <trkpt lat="47.05445" lon="5.55539">
        <ele>240</ele>
        <time>2012-09-14T12:12:09Z</time>
      </trkpt>
      <trkpt lat="47.05448" lon="5.55552">
        <ele>240</ele>
        <time>2012-09-14T12:12:11Z</time>
      </trkpt>
      <trkpt lat="47.05451" lon="5.55566">
        <ele>240</ele>
        <time>2012-09-14T12:12:13Z</time>
      </trkpt>
      <trkpt lat="47.05456" lon="5.55584">
        <ele>240</ele>
        <time>2012-09-14T12:12:16Z</time>
      </trkpt>
      <trkpt lat="47.0546" lon="5.55597">
        <ele>245</ele>
        <time>2012-09-14T12:12:18Z</time>
      </trkpt>
      <trkpt lat="47.05463" lon="5.55611">
        <ele>245</ele>
        <time>2012-09-14T12:12:20Z</time>
      </trkpt>
      <trkpt lat="47.05466" lon="5.55625">
        <ele>245</ele>
        <time>2012-09-14T12:12:22Z</time>
      </trkpt>
      <trkpt lat="47.05469" lon="5.55638">
        <ele>245</ele>
        <time>2012-09-14T12:12:24Z</time>
      </trkpt>
      <trkpt lat="47.05473" lon="5.55651">
        <ele>245</ele>
        <time>2012-09-14T12:12:26Z</time>
      </trkpt>
      <trkpt lat="47.05476" lon="5.55664">
        <ele>245</ele>
        <time>2012-09-14T12:12:28Z</time>
      </trkpt>
      <trkpt lat="47.05479" lon="5.55677">
        <ele>245</ele>
        <time>2012-09-14T12:12:30Z</time>
      </trkpt>
      <trkpt lat="47.05484" lon="5.5569">
        <ele>252</ele>
        <time>2012-09-14T12:12:32Z</time>
      </trkpt>
      <trkpt lat="47.05487" lon="5.55704">
        <ele>258</ele>
        <time>2012-09-14T12:12:34Z</time>
      </trkpt>
      <trkpt lat="47.0549" lon="5.55719">
        <ele>258</ele>
        <time>2012-09-14T12:12:36Z</time>
      </trkpt>
      <trkpt lat="47.05493" lon="5.55736">
        <ele>258</ele>
        <time>2012-09-14T12:12:38Z</time>
      </trkpt>
      <trkpt lat="47.05495" lon="5.55753">
        <ele>258</ele>
        <time>2012-09-14T12:12:40Z</time>
      </trkpt>
      <trkpt lat="47.055" lon="5.55768">
        <ele>258</ele>
        <time>2012-09-14T12:12:42Z</time>
      </trkpt>
      <trkpt lat="47.05503" lon="5.55785">
        <ele>251</ele>
        <time>2012-09-14T12:12:44Z</time>
      </trkpt>
      <trkpt lat="47.05508" lon="5.558">
        <ele>251</ele>
        <time>2012-09-14T12:12:46Z</time>
      </trkpt>
      <trkpt lat="47.05511" lon="5.55818">
        <ele>251</ele>
        <time>2012-09-14T12:12:48Z</time>
      </trkpt>
      <trkpt lat="47.05513" lon="5.55834">
        <ele>245</ele>
        <time>2012-09-14T12:12:50Z</time>
      </trkpt>
      <trkpt lat="47.05517" lon="5.55851">
        <ele>245</ele>
        <time>2012-09-14T12:12:52Z</time>
      </trkpt>
      <trkpt lat="47.0552" lon="5.55866">
        <ele>245</ele>
        <time>2012-09-14T12:12:54Z</time>
      </trkpt>
      <trkpt lat="47.05524" lon="5.55882">
        <ele>245</ele>
        <time>2012-09-14T12:12:56Z</time>
      </trkpt>
      <trkpt lat="47.05527" lon="5.55897">
        <ele>245</ele>
        <time>2012-09-14T12:12:58Z</time>
      </trkpt>
      <trkpt lat="47.0553" lon="5.55913">
        <ele>245</ele>
        <time>2012-09-14T12:13:00Z</time>
      </trkpt>
      <trkpt lat="47.05533" lon="5.5593">
        <ele>245</ele>
        <time>2012-09-14T12:13:02Z</time>
      </trkpt>
      <trkpt lat="47.05537" lon="5.55946">
        <ele>245</ele>
        <time>2012-09-14T12:13:04Z</time>
      </trkpt>
      <trkpt lat="47.0554" lon="5.55962">
        <ele>245</ele>
        <time>2012-09-14T12:13:06Z</time>
      </trkpt>
      <trkpt lat="47.05544" lon="5.55978">
        <ele>245</ele>
        <time>2012-09-14T12:13:08Z</time>
      </trkpt>
      <trkpt lat="47.05548" lon="5.55994">
        <ele>245</ele>
        <time>2012-09-14T12:13:10Z</time>
      </trkpt>
      <trkpt lat="47.05551" lon="5.56012">
        <ele>245</ele>
        <time>2012-09-14T12:13:12Z</time>
      </trkpt>
      <trkpt lat="47.05554" lon="5.56031">
        <ele>245</ele>
        <time>2012-09-14T12:13:14Z</time>
      </trkpt>
      <trkpt lat="47.05557" lon="5.56051">
        <ele>245</ele>
        <time>2012-09-14T12:13:16Z</time>
      </trkpt>
      <trkpt lat="47.05562" lon="5.56071">
        <ele>245</ele>
        <time>2012-09-14T12:13:18Z</time>
      </trkpt>
      <trkpt lat="47.05567" lon="5.56091">
        <ele>239</ele>
        <time>2012-09-14T12:13:20Z</time>
      </trkpt>
      <trkpt lat="47.05572" lon="5.56113">
        <ele>239</ele>
        <time>2012-09-14T12:13:22Z</time>
      </trkpt>
      <trkpt lat="47.05576" lon="5.56136">
        <ele>239</ele>
        <time>2012-09-14T12:13:24Z</time>
      </trkpt>
      <trkpt lat="47.05583" lon="5.5616">
        <ele>239</ele>
        <time>2012-09-14T12:13:26Z</time>
      </trkpt>
      <trkpt lat="47.05585" lon="5.56172">
        <ele>234</ele>
        <time>2012-09-14T12:13:27Z</time>
      </trkpt>
      <trkpt lat="47.05588" lon="5.56185">
        <ele>234</ele>
        <time>2012-09-14T12:13:28Z</time>
      </trkpt>
      <trkpt lat="47.05591" lon="5.56198">
        <ele>234</ele>
        <time>2012-09-14T12:13:29Z</time>
      </trkpt>
      <trkpt lat="47.05594" lon="5.56213">
        <ele>234</ele>
        <time>2012-09-14T12:13:30Z</time>
      </trkpt>
      <trkpt lat="47.05597" lon="5.56226">
        <ele>234</ele>
        <time>2012-09-14T12:13:31Z</time>
      </trkpt>
      <trkpt lat="47.056" lon="5.5624">
        <ele>234</ele>
        <time>2012-09-14T12:13:32Z</time>
      </trkpt>
      <trkpt lat="47.05602" lon="5.56253">
        <ele>234</ele>
        <time>2012-09-14T12:13:33Z</time>
      </trkpt>
      <trkpt lat="47.05605" lon="5.56267">
        <ele>234</ele>
        <time>2012-09-14T12:13:34Z</time>
      </trkpt>
      <trkpt lat="47.05608" lon="5.5628">
        <ele>228</ele>
        <time>2012-09-14T12:13:35Z</time>
      </trkpt>
      <trkpt lat="47.05611" lon="5.56293">
        <ele>228</ele>
        <time>2012-09-14T12:13:36Z</time>
      </trkpt>
      <trkpt lat="47.05613" lon="5.56307">
        <ele>228</ele>
        <time>2012-09-14T12:13:37Z</time>
      </trkpt>
      <trkpt lat="47.05616" lon="5.5632">
        <ele>228</ele>
        <time>2012-09-14T12:13:38Z</time>
      </trkpt>
      <trkpt lat="47.05619" lon="5.56333">
        <ele>228</ele>
        <time>2012-09-14T12:13:39Z</time>
      </trkpt>
      <trkpt lat="47.05622" lon="5.56347">
        <ele>228</ele>
        <time>2012-09-14T12:13:40Z</time>
      </trkpt>
      <trkpt lat="47.05626" lon="5.56361">
        <ele>228</ele>
        <time>2012-09-14T12:13:41Z</time>
      </trkpt>
      <trkpt lat="47.05629" lon="5.56375">
        <ele>228</ele>
        <time>2012-09-14T12:13:42Z</time>
      </trkpt>
      <trkpt lat="47.05632" lon="5.5639">
        <ele>228</ele>
        <time>2012-09-14T12:13:43Z</time>
      </trkpt>
      <trkpt lat="47.05635" lon="5.56404">
        <ele>223</ele>
        <time>2012-09-14T12:13:44Z</time>
      </trkpt>
      <trkpt lat="47.05638" lon="5.56418">
        <ele>223</ele>
        <time>2012-09-14T12:13:45Z</time>
      </trkpt>
      <trkpt lat="47.05641" lon="5.56433">
        <ele>223</ele>
        <time>2012-09-14T12:13:46Z</time>
      </trkpt>
      <trkpt lat="47.05645" lon="5.56446">
        <ele>223</ele>
        <time>2012-09-14T12:13:47Z</time>
      </trkpt>
      <trkpt lat="47.05648" lon="5.5646">
        <ele>223</ele>
        <time>2012-09-14T12:13:48Z</time>
      </trkpt>
      <trkpt lat="47.05651" lon="5.56473">
        <ele>223</ele>
        <time>2012-09-14T12:13:49Z</time>
      </trkpt>
      <trkpt lat="47.05656" lon="5.56496">
        <ele>223</ele>
        <time>2012-09-14T12:13:51Z</time>
      </trkpt>
      <trkpt lat="47.05662" lon="5.56514">
        <ele>223</ele>
        <time>2012-09-14T12:13:53Z</time>
      </trkpt>
      <trkpt lat="47.05667" lon="5.56532">
        <ele>223</ele>
        <time>2012-09-14T12:13:55Z</time>
      </trkpt>
      <trkpt lat="47.0567" lon="5.56549">
        <ele>223</ele>
        <time>2012-09-14T12:13:57Z</time>
      </trkpt>
      <trkpt lat="47.05673" lon="5.56565">
        <ele>223</ele>
        <time>2012-09-14T12:13:59Z</time>
      </trkpt>
      <trkpt lat="47.05677" lon="5.56578">
        <ele>223</ele>
        <time>2012-09-14T12:14:01Z</time>
      </trkpt>
      <trkpt lat="47.0568" lon="5.56591">
        <ele>223</ele>
        <time>2012-09-14T12:14:03Z</time>
      </trkpt>
      <trkpt lat="47.05682" lon="5.56604">
        <ele>229</ele>
        <time>2012-09-14T12:14:05Z</time>
      </trkpt>
      <trkpt lat="47.05686" lon="5.56618">
        <ele>229</ele>
        <time>2012-09-14T12:14:07Z</time>
      </trkpt>
      <trkpt lat="47.05691" lon="5.56631">
        <ele>229</ele>
        <time>2012-09-14T12:14:09Z</time>
      </trkpt>
      <trkpt lat="47.05694" lon="5.56646">
        <ele>229</ele>
        <time>2012-09-14T12:14:11Z</time>
      </trkpt>
      <trkpt lat="47.05697" lon="5.5666">
        <ele>229</ele>
        <time>2012-09-14T12:14:13Z</time>
      </trkpt>
      <trkpt lat="47.057" lon="5.56675">
        <ele>229</ele>
        <time>2012-09-14T12:14:15Z</time>
      </trkpt>
      <trkpt lat="47.05703" lon="5.56691">
        <ele>229</ele>
        <time>2012-09-14T12:14:17Z</time>
      </trkpt>
      <trkpt lat="47.05707" lon="5.56706">
        <ele>229</ele>
        <time>2012-09-14T12:14:19Z</time>
      </trkpt>
      <trkpt lat="47.0571" lon="5.5672">
        <ele>234</ele>
        <time>2012-09-14T12:14:21Z</time>
      </trkpt>
      <trkpt lat="47.05714" lon="5.56735">
        <ele>234</ele>
        <time>2012-09-14T12:14:23Z</time>
      </trkpt>
      <trkpt lat="47.05717" lon="5.5675">
        <ele>234</ele>
        <time>2012-09-14T12:14:25Z</time>
      </trkpt>
      <trkpt lat="47.05719" lon="5.56765">
        <ele>234</ele>
        <time>2012-09-14T12:14:27Z</time>
      </trkpt>
      <trkpt lat="47.05723" lon="5.56779">
        <ele>234</ele>
        <time>2012-09-14T12:14:29Z</time>
      </trkpt>
      <trkpt lat="47.05726" lon="5.56795">
        <ele>234</ele>
        <time>2012-09-14T12:14:31Z</time>
      </trkpt>
      <trkpt lat="47.05729" lon="5.5681">
        <ele>234</ele>
        <time>2012-09-14T12:14:33Z</time>
      </trkpt>
      <trkpt lat="47.05733" lon="5.56824">
        <ele>234</ele>
        <time>2012-09-14T12:14:35Z</time>
      </trkpt>
      <trkpt lat="47.05736" lon="5.56839">
        <ele>234</ele>
        <time>2012-09-14T12:14:37Z</time>
      </trkpt>
      <trkpt lat="47.05738" lon="5.56854">
        <ele>234</ele>
        <time>2012-09-14T12:14:39Z</time>
      </trkpt>
      <trkpt lat="47.0574" lon="5.56869">
        <ele>234</ele>
        <time>2012-09-14T12:14:41Z</time>
      </trkpt>
      <trkpt lat="47.05743" lon="5.56884">
        <ele>234</ele>
        <time>2012-09-14T12:14:43Z</time>
      </trkpt>
      <trkpt lat="47.05746" lon="5.56898">
        <ele>234</ele>
        <time>2012-09-14T12:14:45Z</time>
      </trkpt>
      <trkpt lat="47.0575" lon="5.56912">
        <ele>234</ele>
        <time>2012-09-14T12:14:47Z</time>
      </trkpt>
      <trkpt lat="47.05754" lon="5.56927">
        <ele>234</ele>
        <time>2012-09-14T12:14:49Z</time>
      </trkpt>
      <trkpt lat="47.05758" lon="5.56941">
        <ele>234</ele>
        <time>2012-09-14T12:14:51Z</time>
      </trkpt>
      <trkpt lat="47.05762" lon="5.56956">
        <ele>234</ele>
        <time>2012-09-14T12:14:53Z</time>
      </trkpt>
      <trkpt lat="47.05766" lon="5.56972">
        <ele>234</ele>
        <time>2012-09-14T12:14:55Z</time>
      </trkpt>
      <trkpt lat="47.05769" lon="5.56987">
        <ele>234</ele>
        <time>2012-09-14T12:14:57Z</time>
      </trkpt>
      <trkpt lat="47.05772" lon="5.57002">
        <ele>234</ele>
        <time>2012-09-14T12:14:59Z</time>
      </trkpt>
      <trkpt lat="47.05775" lon="5.57018">
        <ele>234</ele>
        <time>2012-09-14T12:15:01Z</time>
      </trkpt>
      <trkpt lat="47.05778" lon="5.57033">
        <ele>234</ele>
        <time>2012-09-14T12:15:03Z</time>
      </trkpt>
      <trkpt lat="47.05782" lon="5.57048">
        <ele>234</ele>
        <time>2012-09-14T12:15:05Z</time>
      </trkpt>
      <trkpt lat="47.05786" lon="5.57063">
        <ele>234</ele>
        <time>2012-09-14T12:15:07Z</time>
      </trkpt>
      <trkpt lat="47.0579" lon="5.57079">
        <ele>240</ele>
        <time>2012-09-14T12:15:09Z</time>
      </trkpt>
      <trkpt lat="47.05793" lon="5.57094">
        <ele>240</ele>
        <time>2012-09-14T12:15:11Z</time>
      </trkpt>
      <trkpt lat="47.05797" lon="5.5711">
        <ele>240</ele>
        <time>2012-09-14T12:15:13Z</time>
      </trkpt>
      <trkpt lat="47.05801" lon="5.57127">
        <ele>240</ele>
        <time>2012-09-14T12:15:15Z</time>
      </trkpt>
      <trkpt lat="47.05805" lon="5.57145">
        <ele>240</ele>
        <time>2012-09-14T12:15:17Z</time>
      </trkpt>
      <trkpt lat="47.05808" lon="5.57164">
        <ele>240</ele>
        <time>2012-09-14T12:15:19Z</time>
      </trkpt>
      <trkpt lat="47.05814" lon="5.57184">
        <ele>240</ele>
        <time>2012-09-14T12:15:21Z</time>
      </trkpt>
      <trkpt lat="47.05819" lon="5.57206">
        <ele>240</ele>
        <time>2012-09-14T12:15:23Z</time>
      </trkpt>
      <trkpt lat="47.05824" lon="5.5723">
        <ele>240</ele>
        <time>2012-09-14T12:15:25Z</time>
      </trkpt>
      <trkpt lat="47.05829" lon="5.57254">
        <ele>240</ele>
        <time>2012-09-14T12:15:27Z</time>
      </trkpt>
      <trkpt lat="47.05834" lon="5.57278">
        <ele>240</ele>
        <time>2012-09-14T12:15:29Z</time>
      </trkpt>
      <trkpt lat="47.05837" lon="5.57291">
        <ele>240</ele>
        <time>2012-09-14T12:15:30Z</time>
      </trkpt>
      <trkpt lat="47.05843" lon="5.57313">
        <ele>240</ele>
        <time>2012-09-14T12:15:32Z</time>
      </trkpt>
      <trkpt lat="47.05848" lon="5.57336">
        <ele>240</ele>
        <time>2012-09-14T12:15:34Z</time>
      </trkpt>
      <trkpt lat="47.05853" lon="5.57359">
        <ele>240</ele>
        <time>2012-09-14T12:15:36Z</time>
      </trkpt>
      <trkpt lat="47.05858" lon="5.57382">
        <ele>240</ele>
        <time>2012-09-14T12:15:38Z</time>
      </trkpt>
      <trkpt lat="47.05863" lon="5.57404">
        <ele>240</ele>
        <time>2012-09-14T12:15:40Z</time>
      </trkpt>
      <trkpt lat="47.05869" lon="5.57424">
        <ele>240</ele>
        <time>2012-09-14T12:15:42Z</time>
      </trkpt>
      <trkpt lat="47.05874" lon="5.57446">
        <ele>235</ele>
        <time>2012-09-14T12:15:44Z</time>
      </trkpt>
      <trkpt lat="47.05878" lon="5.57468">
        <ele>235</ele>
        <time>2012-09-14T12:15:46Z</time>
      </trkpt>
      <trkpt lat="47.05883" lon="5.57489">
        <ele>235</ele>
        <time>2012-09-14T12:15:48Z</time>
      </trkpt>
      <trkpt lat="47.05888" lon="5.5751">
        <ele>235</ele>
        <time>2012-09-14T12:15:50Z</time>
      </trkpt>
      <trkpt lat="47.05893" lon="5.57529">
        <ele>235</ele>
        <time>2012-09-14T12:15:52Z</time>
      </trkpt>
      <trkpt lat="47.05896" lon="5.57547">
        <ele>235</ele>
        <time>2012-09-14T12:15:54Z</time>
      </trkpt>
      <trkpt lat="47.05901" lon="5.57564">
        <ele>235</ele>
        <time>2012-09-14T12:15:56Z</time>
      </trkpt>
      <trkpt lat="47.05903" lon="5.57581">
        <ele>235</ele>
        <time>2012-09-14T12:15:58Z</time>
      </trkpt>
      <trkpt lat="47.05906" lon="5.57597">
        <ele>235</ele>
        <time>2012-09-14T12:16:00Z</time>
      </trkpt>
      <trkpt lat="47.05909" lon="5.57612">
        <ele>235</ele>
        <time>2012-09-14T12:16:02Z</time>
      </trkpt>
      <trkpt lat="47.05912" lon="5.57627">
        <ele>235</ele>
        <time>2012-09-14T12:16:04Z</time>
      </trkpt>
      <trkpt lat="47.05913" lon="5.57644">
        <ele>235</ele>
        <time>2012-09-14T12:16:06Z</time>
      </trkpt>
      <trkpt lat="47.05917" lon="5.57658">
        <ele>240</ele>
        <time>2012-09-14T12:16:08Z</time>
      </trkpt>
      <trkpt lat="47.05921" lon="5.57672">
        <ele>240</ele>
        <time>2012-09-14T12:16:10Z</time>
      </trkpt>
      <trkpt lat="47.05925" lon="5.57687">
        <ele>240</ele>
        <time>2012-09-14T12:16:12Z</time>
      </trkpt>
      <trkpt lat="47.05929" lon="5.57701">
        <ele>240</ele>
        <time>2012-09-14T12:16:14Z</time>
      </trkpt>
      <trkpt lat="47.05932" lon="5.57715">
        <ele>240</ele>
        <time>2012-09-14T12:16:16Z</time>
      </trkpt>
      <trkpt lat="47.05936" lon="5.57728">
        <ele>240</ele>
        <time>2012-09-14T12:16:18Z</time>
      </trkpt>
      <trkpt lat="47.05939" lon="5.57742">
        <ele>240</ele>
        <time>2012-09-14T12:16:20Z</time>
      </trkpt>
      <trkpt lat="47.05941" lon="5.57758">
        <ele>240</ele>
        <time>2012-09-14T12:16:22Z</time>
      </trkpt>
      <trkpt lat="47.05945" lon="5.57771">
        <ele>240</ele>
        <time>2012-09-14T12:16:24Z</time>
      </trkpt>
      <trkpt lat="47.05949" lon="5.57786">
        <ele>240</ele>
        <time>2012-09-14T12:16:26Z</time>
      </trkpt>
      <trkpt lat="47.05952" lon="5.57801">
        <ele>240</ele>
        <time>2012-09-14T12:16:28Z</time>
      </trkpt>
      <trkpt lat="47.05955" lon="5.57816">
        <ele>240</ele>
        <time>2012-09-14T12:16:30Z</time>
      </trkpt>
      <trkpt lat="47.05959" lon="5.57831">
        <ele>240</ele>
        <time>2012-09-14T12:16:32Z</time>
      </trkpt>
      <trkpt lat="47.05963" lon="5.57847">
        <ele>240</ele>
        <time>2012-09-14T12:16:34Z</time>
      </trkpt>
      <trkpt lat="47.05966" lon="5.57863">
        <ele>240</ele>
        <time>2012-09-14T12:16:36Z</time>
      </trkpt>
      <trkpt lat="47.05969" lon="5.57879">
        <ele>240</ele>
        <time>2012-09-14T12:16:38Z</time>
      </trkpt>
      <trkpt lat="47.05973" lon="5.57895">
        <ele>240</ele>
        <time>2012-09-14T12:16:40Z</time>
      </trkpt>
      <trkpt lat="47.05977" lon="5.57911">
        <ele>240</ele>
        <time>2012-09-14T12:16:42Z</time>
      </trkpt>
      <trkpt lat="47.05982" lon="5.57928">
        <ele>240</ele>
        <time>2012-09-14T12:16:44Z</time>
      </trkpt>
      <trkpt lat="47.05986" lon="5.57945">
        <ele>240</ele>
        <time>2012-09-14T12:16:46Z</time>
      </trkpt>
      <trkpt lat="47.0599" lon="5.57962">
        <ele>240</ele>
        <time>2012-09-14T12:16:48Z</time>
      </trkpt>
      <trkpt lat="47.05993" lon="5.57978">
        <ele>240</ele>
        <time>2012-09-14T12:16:50Z</time>
      </trkpt>
      <trkpt lat="47.05998" lon="5.57996">
        <ele>240</ele>
        <time>2012-09-14T12:16:52Z</time>
      </trkpt>
      <trkpt lat="47.06002" lon="5.58013">
        <ele>240</ele>
        <time>2012-09-14T12:16:54Z</time>
      </trkpt>
      <trkpt lat="47.06007" lon="5.58031">
        <ele>240</ele>
        <time>2012-09-14T12:16:56Z</time>
      </trkpt>
      <trkpt lat="47.0601" lon="5.5805">
        <ele>240</ele>
        <time>2012-09-14T12:16:58Z</time>
      </trkpt>
      <trkpt lat="47.06014" lon="5.58069">
        <ele>240</ele>
        <time>2012-09-14T12:17:00Z</time>
      </trkpt>
      <trkpt lat="47.06018" lon="5.58087">
        <ele>240</ele>
        <time>2012-09-14T12:17:02Z</time>
      </trkpt>
      <trkpt lat="47.06022" lon="5.58104">
        <ele>240</ele>
        <time>2012-09-14T12:17:04Z</time>
      </trkpt>
      <trkpt lat="47.06026" lon="5.58122">
        <ele>240</ele>
        <time>2012-09-14T12:17:06Z</time>
      </trkpt>
      <trkpt lat="47.06031" lon="5.58141">
        <ele>240</ele>
        <time>2012-09-14T12:17:08Z</time>
      </trkpt>
      <trkpt lat="47.06034" lon="5.5816">
        <ele>240</ele>
        <time>2012-09-14T12:17:10Z</time>
      </trkpt>
      <trkpt lat="47.06039" lon="5.5818">
        <ele>240</ele>
        <time>2012-09-14T12:17:12Z</time>
      </trkpt>
      <trkpt lat="47.06044" lon="5.582">
        <ele>240</ele>
        <time>2012-09-14T12:17:14Z</time>
      </trkpt>
      <trkpt lat="47.06049" lon="5.58219">
        <ele>240</ele>
        <time>2012-09-14T12:17:16Z</time>
      </trkpt>
      <trkpt lat="47.06053" lon="5.58239">
        <ele>240</ele>
        <time>2012-09-14T12:17:18Z</time>
      </trkpt>
      <trkpt lat="47.06058" lon="5.58258">
        <ele>246</ele>
        <time>2012-09-14T12:17:20Z</time>
      </trkpt>
      <trkpt lat="47.06061" lon="5.58278">
        <ele>246</ele>
        <time>2012-09-14T12:17:22Z</time>
      </trkpt>
      <trkpt lat="47.06064" lon="5.58295">
        <ele>246</ele>
        <time>2012-09-14T12:17:24Z</time>
      </trkpt>
      <trkpt lat="47.06068" lon="5.58313">
        <ele>246</ele>
        <time>2012-09-14T12:17:26Z</time>
      </trkpt>
      <trkpt lat="47.06072" lon="5.58331">
        <ele>246</ele>
        <time>2012-09-14T12:17:28Z</time>
      </trkpt>
      <trkpt lat="47.06079" lon="5.58347">
        <ele>246</ele>
        <time>2012-09-14T12:17:30Z</time>
      </trkpt>
      <trkpt lat="47.06083" lon="5.58362">
        <ele>246</ele>
        <time>2012-09-14T12:17:32Z</time>
      </trkpt>
      <trkpt lat="47.06087" lon="5.58378">
        <ele>246</ele>
        <time>2012-09-14T12:17:34Z</time>
      </trkpt>
      <trkpt lat="47.06088" lon="5.58395">
        <ele>246</ele>
        <time>2012-09-14T12:17:36Z</time>
      </trkpt>
      <trkpt lat="47.06091" lon="5.58408">
        <ele>246</ele>
        <time>2012-09-14T12:17:38Z</time>
      </trkpt>
      <trkpt lat="47.06093" lon="5.58422">
        <ele>246</ele>
        <time>2012-09-14T12:17:40Z</time>
      </trkpt>
      <trkpt lat="47.06096" lon="5.58438">
        <ele>240</ele>
        <time>2012-09-14T12:17:42Z</time>
      </trkpt>
      <trkpt lat="47.06099" lon="5.58454">
        <ele>240</ele>
        <time>2012-09-14T12:17:44Z</time>
      </trkpt>
      <trkpt lat="47.06104" lon="5.5847">
        <ele>240</ele>
        <time>2012-09-14T12:17:46Z</time>
      </trkpt>
      <trkpt lat="47.06107" lon="5.58487">
        <ele>240</ele>
        <time>2012-09-14T12:17:48Z</time>
      </trkpt>
      <trkpt lat="47.06112" lon="5.58504">
        <ele>240</ele>
        <time>2012-09-14T12:17:50Z</time>
      </trkpt>
      <trkpt lat="47.06115" lon="5.58521">
        <ele>240</ele>
        <time>2012-09-14T12:17:52Z</time>
      </trkpt>
      <trkpt lat="47.06119" lon="5.5854">
        <ele>240</ele>
        <time>2012-09-14T12:17:54Z</time>
      </trkpt>
      <trkpt lat="47.06123" lon="5.58558">
        <ele>240</ele>
        <time>2012-09-14T12:17:56Z</time>
      </trkpt>
      <trkpt lat="47.06127" lon="5.58577">
        <ele>240</ele>
        <time>2012-09-14T12:17:58Z</time>
      </trkpt>
      <trkpt lat="47.0613" lon="5.58597">
        <ele>240</ele>
        <time>2012-09-14T12:18:00Z</time>
      </trkpt>
      <trkpt lat="47.06134" lon="5.58617">
        <ele>240</ele>
        <time>2012-09-14T12:18:02Z</time>
      </trkpt>
      <trkpt lat="47.06138" lon="5.58634">
        <ele>240</ele>
        <time>2012-09-14T12:18:04Z</time>
      </trkpt>
      <trkpt lat="47.06141" lon="5.58652">
        <ele>234</ele>
        <time>2012-09-14T12:18:06Z</time>
      </trkpt>
      <trkpt lat="47.06145" lon="5.58669">
        <ele>234</ele>
        <time>2012-09-14T12:18:08Z</time>
      </trkpt>
      <trkpt lat="47.06149" lon="5.58685">
        <ele>234</ele>
        <time>2012-09-14T12:18:10Z</time>
      </trkpt>
      <trkpt lat="47.06153" lon="5.58698">
        <ele>234</ele>
        <time>2012-09-14T12:18:12Z</time>
      </trkpt>
      <trkpt lat="47.06155" lon="5.58713">
        <ele>234</ele>
        <time>2012-09-14T12:18:15Z</time>
      </trkpt>
      <trkpt lat="47.0616" lon="5.58725">
        <ele>234</ele>
        <time>2012-09-14T12:18:21Z</time>
      </trkpt>
      <trkpt lat="47.06155" lon="5.58714">
        <ele>234</ele>
        <time>2012-09-14T12:19:11Z</time>
      </trkpt>
      <trkpt lat="47.06149" lon="5.58701">
        <ele>241</ele>
        <time>2012-09-14T12:19:42Z</time>
      </trkpt>
      <trkpt lat="47.06146" lon="5.58688">
        <ele>241</ele>
        <time>2012-09-14T12:19:45Z</time>
      </trkpt>
      <trkpt lat="47.06144" lon="5.58675">
        <ele>241</ele>
        <time>2012-09-14T12:19:48Z</time>
      </trkpt>
      <trkpt lat="47.06139" lon="5.58661">
        <ele>241</ele>
        <time>2012-09-14T12:19:51Z</time>
      </trkpt>
      <trkpt lat="47.06134" lon="5.58646">
        <ele>241</ele>
        <time>2012-09-14T12:19:54Z</time>
      </trkpt>
      <trkpt lat="47.06128" lon="5.58633">
        <ele>241</ele>
        <time>2012-09-14T12:19:57Z</time>
      </trkpt>
      <trkpt lat="47.06121" lon="5.5862">
        <ele>235</ele>
        <time>2012-09-14T12:20:00Z</time>
      </trkpt>
      <trkpt lat="47.06112" lon="5.58608">
        <ele>228</ele>
        <time>2012-09-14T12:20:03Z</time>
      </trkpt>
      <trkpt lat="47.06103" lon="5.58595">
        <ele>220</ele>
        <time>2012-09-14T12:20:06Z</time>
      </trkpt>
      <trkpt lat="47.06096" lon="5.58581">
        <ele>220</ele>
        <time>2012-09-14T12:20:09Z</time>
      </trkpt>
      <trkpt lat="47.06089" lon="5.58569">
        <ele>210</ele>
        <time>2012-09-14T12:20:12Z</time>
      </trkpt>
      <trkpt lat="47.06082" lon="5.58552">
        <ele>210</ele>
        <time>2012-09-14T12:20:15Z</time>
      </trkpt>
      <trkpt lat="47.06079" lon="5.58538">
        <ele>210</ele>
        <time>2012-09-14T12:20:17Z</time>
      </trkpt>
      <trkpt lat="47.06077" lon="5.58524">
        <ele>210</ele>
        <time>2012-09-14T12:20:19Z</time>
      </trkpt>
      <trkpt lat="47.06074" lon="5.58511">
        <ele>210</ele>
        <time>2012-09-14T12:20:21Z</time>
      </trkpt>
      <trkpt lat="47.06072" lon="5.58497">
        <ele>210</ele>
        <time>2012-09-14T12:20:23Z</time>
      </trkpt>
      <trkpt lat="47.06069" lon="5.58479">
        <ele>210</ele>
        <time>2012-09-14T12:20:26Z</time>
      </trkpt>
      <trkpt lat="47.06067" lon="5.58461">
        <ele>205</ele>
        <time>2012-09-14T12:20:29Z</time>
      </trkpt>
      <trkpt lat="47.06062" lon="5.58445">
        <ele>205</ele>
        <time>2012-09-14T12:20:32Z</time>
      </trkpt>
      <trkpt lat="47.06055" lon="5.58436">
        <ele>212</ele>
        <time>2012-09-14T12:20:35Z</time>
      </trkpt>
      <trkpt lat="47.06048" lon="5.58425">
        <ele>221</ele>
        <time>2012-09-14T12:20:40Z</time>
      </trkpt>
      <trkpt lat="47.06037" lon="5.58429">
        <ele>232</ele>
        <time>2012-09-14T12:20:45Z</time>
      </trkpt>
      <trkpt lat="47.06026" lon="5.58436">
        <ele>238</ele>
        <time>2012-09-14T12:20:48Z</time>
      </trkpt>
      <trkpt lat="47.06014" lon="5.58442">
        <ele>238</ele>
        <time>2012-09-14T12:20:51Z</time>
      </trkpt>
      <trkpt lat="47.06004" lon="5.58448">
        <ele>238</ele>
        <time>2012-09-14T12:20:53Z</time>
      </trkpt>
      <trkpt lat="47.05994" lon="5.58453">
        <ele>244</ele>
        <time>2012-09-14T12:20:55Z</time>
      </trkpt>
      <trkpt lat="47.05983" lon="5.58461">
        <ele>244</ele>
        <time>2012-09-14T12:20:57Z</time>
      </trkpt>
      <trkpt lat="47.05972" lon="5.58467">
        <ele>244</ele>
        <time>2012-09-14T12:20:59Z</time>
      </trkpt>
      <trkpt lat="47.05961" lon="5.58474">
        <ele>244</ele>
        <time>2012-09-14T12:21:01Z</time>
      </trkpt>
      <trkpt lat="47.05952" lon="5.58481">
        <ele>251</ele>
        <time>2012-09-14T12:21:03Z</time>
      </trkpt>
      <trkpt lat="47.0594" lon="5.58487">
        <ele>251</ele>
        <time>2012-09-14T12:21:05Z</time>
      </trkpt>
      <trkpt lat="47.05926" lon="5.58493">
        <ele>251</ele>
        <time>2012-09-14T12:21:07Z</time>
      </trkpt>
      <trkpt lat="47.05916" lon="5.58503">
        <ele>251</ele>
        <time>2012-09-14T12:21:09Z</time>
      </trkpt>
      <trkpt lat="47.05905" lon="5.58515">
        <ele>251</ele>
        <time>2012-09-14T12:21:11Z</time>
      </trkpt>
      <trkpt lat="47.05894" lon="5.58525">
        <ele>251</ele>
        <time>2012-09-14T12:21:13Z</time>
      </trkpt>
      <trkpt lat="47.05878" lon="5.58529">
        <ele>251</ele>
        <time>2012-09-14T12:21:15Z</time>
      </trkpt>
      <trkpt lat="47.05863" lon="5.58536">
        <ele>251</ele>
        <time>2012-09-14T12:21:17Z</time>
      </trkpt>
      <trkpt lat="47.05849" lon="5.58542">
        <ele>251</ele>
        <time>2012-09-14T12:21:19Z</time>
      </trkpt>
      <trkpt lat="47.05835" lon="5.58549">
        <ele>251</ele>
        <time>2012-09-14T12:21:21Z</time>
      </trkpt>
      <trkpt lat="47.05821" lon="5.58556">
        <ele>251</ele>
        <time>2012-09-14T12:21:23Z</time>
      </trkpt>
      <trkpt lat="47.05807" lon="5.58563">
        <ele>251</ele>
        <time>2012-09-14T12:21:25Z</time>
      </trkpt>
      <trkpt lat="47.05793" lon="5.58572">
        <ele>251</ele>
        <time>2012-09-14T12:21:27Z</time>
      </trkpt>
      <trkpt lat="47.0578" lon="5.58581">
        <ele>251</ele>
        <time>2012-09-14T12:21:29Z</time>
      </trkpt>
      <trkpt lat="47.05766" lon="5.58589">
        <ele>251</ele>
        <time>2012-09-14T12:21:31Z</time>
      </trkpt>
      <trkpt lat="47.05751" lon="5.58598">
        <ele>251</ele>
        <time>2012-09-14T12:21:33Z</time>
      </trkpt>
      <trkpt lat="47.05737" lon="5.58606">
        <ele>251</ele>
        <time>2012-09-14T12:21:35Z</time>
      </trkpt>
      <trkpt lat="47.05723" lon="5.58614">
        <ele>251</ele>
        <time>2012-09-14T12:21:37Z</time>
      </trkpt>
      <trkpt lat="47.05708" lon="5.5862">
        <ele>251</ele>
        <time>2012-09-14T12:21:39Z</time>
      </trkpt>
      <trkpt lat="47.05693" lon="5.58627">
        <ele>251</ele>
        <time>2012-09-14T12:21:41Z</time>
      </trkpt>
      <trkpt lat="47.05681" lon="5.58637">
        <ele>251</ele>
        <time>2012-09-14T12:21:43Z</time>
      </trkpt>
      <trkpt lat="47.05668" lon="5.58646">
        <ele>251</ele>
        <time>2012-09-14T12:21:45Z</time>
      </trkpt>
      <trkpt lat="47.05651" lon="5.58651">
        <ele>251</ele>
        <time>2012-09-14T12:21:47Z</time>
      </trkpt>
      <trkpt lat="47.05635" lon="5.58658">
        <ele>251</ele>
        <time>2012-09-14T12:21:49Z</time>
      </trkpt>
      <trkpt lat="47.05619" lon="5.58666">
        <ele>244</ele>
        <time>2012-09-14T12:21:51Z</time>
      </trkpt>
      <trkpt lat="47.05611" lon="5.5867">
        <ele>244</ele>
        <time>2012-09-14T12:21:52Z</time>
      </trkpt>
      <trkpt lat="47.05595" lon="5.5868">
        <ele>244</ele>
        <time>2012-09-14T12:21:54Z</time>
      </trkpt>
      <trkpt lat="47.05579" lon="5.58688">
        <ele>244</ele>
        <time>2012-09-14T12:21:56Z</time>
      </trkpt>
      <trkpt lat="47.05564" lon="5.58698">
        <ele>244</ele>
        <time>2012-09-14T12:21:58Z</time>
      </trkpt>
      <trkpt lat="47.05548" lon="5.58705">
        <ele>244</ele>
        <time>2012-09-14T12:22:00Z</time>
      </trkpt>
      <trkpt lat="47.0554" lon="5.5871">
        <ele>244</ele>
        <time>2012-09-14T12:22:01Z</time>
      </trkpt>
      <trkpt lat="47.05524" lon="5.58719">
        <ele>238</ele>
        <time>2012-09-14T12:22:03Z</time>
      </trkpt>
      <trkpt lat="47.05509" lon="5.58727">
        <ele>238</ele>
        <time>2012-09-14T12:22:05Z</time>
      </trkpt>
      <trkpt lat="47.05492" lon="5.58733">
        <ele>238</ele>
        <time>2012-09-14T12:22:07Z</time>
      </trkpt>
      <trkpt lat="47.05476" lon="5.5874">
        <ele>233</ele>
        <time>2012-09-14T12:22:09Z</time>
      </trkpt>
      <trkpt lat="47.05462" lon="5.58749">
        <ele>233</ele>
        <time>2012-09-14T12:22:11Z</time>
      </trkpt>
      <trkpt lat="47.05446" lon="5.58756">
        <ele>233</ele>
        <time>2012-09-14T12:22:13Z</time>
      </trkpt>
      <trkpt lat="47.05432" lon="5.58764">
        <ele>233</ele>
        <time>2012-09-14T12:22:15Z</time>
      </trkpt>
      <trkpt lat="47.05417" lon="5.58772">
        <ele>233</ele>
        <time>2012-09-14T12:22:17Z</time>
      </trkpt>
      <trkpt lat="47.05403" lon="5.5878">
        <ele>233</ele>
        <time>2012-09-14T12:22:19Z</time>
      </trkpt>
      <trkpt lat="47.05389" lon="5.58789">
        <ele>233</ele>
        <time>2012-09-14T12:22:21Z</time>
      </trkpt>
      <trkpt lat="47.05375" lon="5.58798">
        <ele>233</ele>
        <time>2012-09-14T12:22:23Z</time>
      </trkpt>
      <trkpt lat="47.05362" lon="5.58807">
        <ele>233</ele>
        <time>2012-09-14T12:22:25Z</time>
      </trkpt>
      <trkpt lat="47.05349" lon="5.58814">
        <ele>233</ele>
        <time>2012-09-14T12:22:27Z</time>
      </trkpt>
      <trkpt lat="47.05335" lon="5.58821">
        <ele>238</ele>
        <time>2012-09-14T12:22:29Z</time>
      </trkpt>
      <trkpt lat="47.0532" lon="5.58829">
        <ele>238</ele>
        <time>2012-09-14T12:22:31Z</time>
      </trkpt>
      <trkpt lat="47.05312" lon="5.58832">
        <ele>238</ele>
        <time>2012-09-14T12:22:32Z</time>
      </trkpt>
      <trkpt lat="47.05296" lon="5.5884">
        <ele>233</ele>
        <time>2012-09-14T12:22:34Z</time>
      </trkpt>
      <trkpt lat="47.0528" lon="5.58849">
        <ele>233</ele>
        <time>2012-09-14T12:22:36Z</time>
      </trkpt>
      <trkpt lat="47.05272" lon="5.58853">
        <ele>233</ele>
        <time>2012-09-14T12:22:37Z</time>
      </trkpt>
      <trkpt lat="47.05255" lon="5.5886">
        <ele>226</ele>
        <time>2012-09-14T12:22:39Z</time>
      </trkpt>
      <trkpt lat="47.05238" lon="5.58866">
        <ele>226</ele>
        <time>2012-09-14T12:22:41Z</time>
      </trkpt>
      <trkpt lat="47.05226" lon="5.58872">
        <ele>226</ele>
        <time>2012-09-14T12:22:43Z</time>
      </trkpt>
      <trkpt lat="47.05217" lon="5.58881">
        <ele>220</ele>
        <time>2012-09-14T12:22:45Z</time>
      </trkpt>
      <trkpt lat="47.05217" lon="5.58899">
        <ele>220</ele>
        <time>2012-09-14T12:22:47Z</time>
      </trkpt>
      <trkpt lat="47.0522" lon="5.58917">
        <ele>220</ele>
        <time>2012-09-14T12:22:49Z</time>
      </trkpt>
      <trkpt lat="47.05227" lon="5.58935">
        <ele>215</ele>
        <time>2012-09-14T12:22:51Z</time>
      </trkpt>
      <trkpt lat="47.05233" lon="5.58954">
        <ele>215</ele>
        <time>2012-09-14T12:22:53Z</time>
      </trkpt>
      <trkpt lat="47.05238" lon="5.58973">
        <ele>215</ele>
        <time>2012-09-14T12:22:55Z</time>
      </trkpt>
      <trkpt lat="47.05247" lon="5.59012">
        <ele>210</ele>
        <time>2012-09-14T12:22:59Z</time>
      </trkpt>
      <trkpt lat="47.05249" lon="5.59031">
        <ele>210</ele>
        <time>2012-09-14T12:23:01Z</time>
      </trkpt>
      <trkpt lat="47.05253" lon="5.59049">
        <ele>210</ele>
        <time>2012-09-14T12:23:03Z</time>
      </trkpt>
      <trkpt lat="47.05255" lon="5.59067">
        <ele>210</ele>
        <time>2012-09-14T12:23:05Z</time>
      </trkpt>
      <trkpt lat="47.05257" lon="5.59085">
        <ele>210</ele>
        <time>2012-09-14T12:23:07Z</time>
      </trkpt>
      <trkpt lat="47.05261" lon="5.59102">
        <ele>210</ele>
        <time>2012-09-14T12:23:09Z</time>
      </trkpt>
      <trkpt lat="47.05267" lon="5.59118">
        <ele>210</ele>
        <time>2012-09-14T12:23:11Z</time>
      </trkpt>
      <trkpt lat="47.05269" lon="5.59136">
        <ele>216</ele>
        <time>2012-09-14T12:23:13Z</time>
      </trkpt>
      <trkpt lat="47.05271" lon="5.59153">
        <ele>222</ele>
        <time>2012-09-14T12:23:15Z</time>
      </trkpt>
      <trkpt lat="47.05273" lon="5.59169">
        <ele>222</ele>
        <time>2012-09-14T12:23:17Z</time>
      </trkpt>
      <trkpt lat="47.05277" lon="5.59189">
        <ele>222</ele>
        <time>2012-09-14T12:23:20Z</time>
      </trkpt>
      <trkpt lat="47.05279" lon="5.5921">
        <ele>222</ele>
        <time>2012-09-14T12:23:23Z</time>
      </trkpt>
      <trkpt lat="47.05279" lon="5.59229">
        <ele>222</ele>
        <time>2012-09-14T12:23:25Z</time>
      </trkpt>
      <trkpt lat="47.0528" lon="5.59244">
        <ele>228</ele>
        <time>2012-09-14T12:23:27Z</time>
      </trkpt>
      <trkpt lat="47.0528" lon="5.59262">
        <ele>228</ele>
        <time>2012-09-14T12:23:29Z</time>
      </trkpt>
      <trkpt lat="47.05281" lon="5.59281">
        <ele>228</ele>
        <time>2012-09-14T12:23:31Z</time>
      </trkpt>
      <trkpt lat="47.05282" lon="5.593">
        <ele>222</ele>
        <time>2012-09-14T12:23:33Z</time>
      </trkpt>
      <trkpt lat="47.05281" lon="5.59318">
        <ele>222</ele>
        <time>2012-09-14T12:23:35Z</time>
      </trkpt>
      <trkpt lat="47.05278" lon="5.59336">
        <ele>222</ele>
        <time>2012-09-14T12:23:37Z</time>
      </trkpt>
      <trkpt lat="47.05271" lon="5.59355">
        <ele>222</ele>
        <time>2012-09-14T12:23:39Z</time>
      </trkpt>
      <trkpt lat="47.05263" lon="5.59373">
        <ele>228</ele>
        <time>2012-09-14T12:23:41Z</time>
      </trkpt>
      <trkpt lat="47.05258" lon="5.5939">
        <ele>228</ele>
        <time>2012-09-14T12:23:43Z</time>
      </trkpt>
      <trkpt lat="47.05252" lon="5.59407">
        <ele>228</ele>
        <time>2012-09-14T12:23:45Z</time>
      </trkpt>
      <trkpt lat="47.05247" lon="5.59423">
        <ele>228</ele>
        <time>2012-09-14T12:23:47Z</time>
      </trkpt>
      <trkpt lat="47.05242" lon="5.59439">
        <ele>228</ele>
        <time>2012-09-14T12:23:49Z</time>
      </trkpt>
      <trkpt lat="47.05236" lon="5.59457">
        <ele>228</ele>
        <time>2012-09-14T12:23:51Z</time>
      </trkpt>
      <trkpt lat="47.05234" lon="5.59474">
        <ele>228</ele>
        <time>2012-09-14T12:23:53Z</time>
      </trkpt>
      <trkpt lat="47.05229" lon="5.59491">
        <ele>228</ele>
        <time>2012-09-14T12:23:55Z</time>
      </trkpt>
      <trkpt lat="47.05223" lon="5.59509">
        <ele>228</ele>
        <time>2012-09-14T12:23:57Z</time>
      </trkpt>
      <trkpt lat="47.05218" lon="5.59527">
        <ele>228</ele>
        <time>2012-09-14T12:23:59Z</time>
      </trkpt>
      <trkpt lat="47.05211" lon="5.59545">
        <ele>221</ele>
        <time>2012-09-14T12:24:01Z</time>
      </trkpt>
      <trkpt lat="47.05204" lon="5.59564">
        <ele>221</ele>
        <time>2012-09-14T12:24:03Z</time>
      </trkpt>
      <trkpt lat="47.05198" lon="5.59583">
        <ele>221</ele>
        <time>2012-09-14T12:24:05Z</time>
      </trkpt>
      <trkpt lat="47.05191" lon="5.59603">
        <ele>221</ele>
        <time>2012-09-14T12:24:07Z</time>
      </trkpt>
      <trkpt lat="47.05186" lon="5.59622">
        <ele>216</ele>
        <time>2012-09-14T12:24:09Z</time>
      </trkpt>
      <trkpt lat="47.0518" lon="5.59641">
        <ele>216</ele>
        <time>2012-09-14T12:24:11Z</time>
      </trkpt>
      <trkpt lat="47.05176" lon="5.59659">
        <ele>216</ele>
        <time>2012-09-14T12:24:13Z</time>
      </trkpt>
      <trkpt lat="47.05171" lon="5.59678">
        <ele>216</ele>
        <time>2012-09-14T12:24:15Z</time>
      </trkpt>
      <trkpt lat="47.05165" lon="5.59699">
        <ele>216</ele>
        <time>2012-09-14T12:24:17Z</time>
      </trkpt>
      <trkpt lat="47.0516" lon="5.5972">
        <ele>216</ele>
        <time>2012-09-14T12:24:19Z</time>
      </trkpt>
      <trkpt lat="47.05153" lon="5.5974">
        <ele>216</ele>
        <time>2012-09-14T12:24:21Z</time>
      </trkpt>
      <trkpt lat="47.05145" lon="5.5976">
        <ele>216</ele>
        <time>2012-09-14T12:24:23Z</time>
      </trkpt>
      <trkpt lat="47.05135" lon="5.59778">
        <ele>216</ele>
        <time>2012-09-14T12:24:25Z</time>
      </trkpt>
      <trkpt lat="47.05125" lon="5.59793">
        <ele>216</ele>
        <time>2012-09-14T12:24:27Z</time>
      </trkpt>
      <trkpt lat="47.05116" lon="5.59809">
        <ele>216</ele>
        <time>2012-09-14T12:24:29Z</time>
      </trkpt>
      <trkpt lat="47.05107" lon="5.59822">
        <ele>216</ele>
        <time>2012-09-14T12:24:31Z</time>
      </trkpt>
      <trkpt lat="47.05098" lon="5.59836">
        <ele>216</ele>
        <time>2012-09-14T12:24:33Z</time>
      </trkpt>
      <trkpt lat="47.0509" lon="5.59849">
        <ele>216</ele>
        <time>2012-09-14T12:24:35Z</time>
      </trkpt>
      <trkpt lat="47.05082" lon="5.59862">
        <ele>216</ele>
        <time>2012-09-14T12:24:37Z</time>
      </trkpt>
      <trkpt lat="47.05074" lon="5.59875">
        <ele>216</ele>
        <time>2012-09-14T12:24:39Z</time>
      </trkpt>
      <trkpt lat="47.05066" lon="5.59889">
        <ele>216</ele>
        <time>2012-09-14T12:24:41Z</time>
      </trkpt>
      <trkpt lat="47.05059" lon="5.59902">
        <ele>216</ele>
        <time>2012-09-14T12:24:43Z</time>
      </trkpt>
      <trkpt lat="47.05051" lon="5.59916">
        <ele>216</ele>
        <time>2012-09-14T12:24:45Z</time>
      </trkpt>
      <trkpt lat="47.05044" lon="5.59929">
        <ele>216</ele>
        <time>2012-09-14T12:24:47Z</time>
      </trkpt>
      <trkpt lat="47.05037" lon="5.59942">
        <ele>216</ele>
        <time>2012-09-14T12:24:49Z</time>
      </trkpt>
      <trkpt lat="47.05029" lon="5.59956">
        <ele>216</ele>
        <time>2012-09-14T12:24:51Z</time>
      </trkpt>
      <trkpt lat="47.05023" lon="5.5997">
        <ele>216</ele>
        <time>2012-09-14T12:24:53Z</time>
      </trkpt>
      <trkpt lat="47.05016" lon="5.59985">
        <ele>216</ele>
        <time>2012-09-14T12:24:55Z</time>
      </trkpt>
      <trkpt lat="47.05008" lon="5.59999">
        <ele>216</ele>
        <time>2012-09-14T12:24:57Z</time>
      </trkpt>
      <trkpt lat="47.05" lon="5.60014">
        <ele>216</ele>
        <time>2012-09-14T12:24:59Z</time>
      </trkpt>
      <trkpt lat="47.04992" lon="5.6003">
        <ele>216</ele>
        <time>2012-09-14T12:25:01Z</time>
      </trkpt>
      <trkpt lat="47.04985" lon="5.60045">
        <ele>216</ele>
        <time>2012-09-14T12:25:03Z</time>
      </trkpt>
      <trkpt lat="47.04977" lon="5.6006">
        <ele>216</ele>
        <time>2012-09-14T12:25:05Z</time>
      </trkpt>
      <trkpt lat="47.04968" lon="5.60075">
        <ele>216</ele>
        <time>2012-09-14T12:25:07Z</time>
      </trkpt>
      <trkpt lat="47.04961" lon="5.60091">
        <ele>216</ele>
        <time>2012-09-14T12:25:09Z</time>
      </trkpt>
      <trkpt lat="47.04954" lon="5.60106">
        <ele>216</ele>
        <time>2012-09-14T12:25:11Z</time>
      </trkpt>
      <trkpt lat="47.04947" lon="5.60121">
        <ele>216</ele>
        <time>2012-09-14T12:25:13Z</time>
      </trkpt>
      <trkpt lat="47.04939" lon="5.60137">
        <ele>216</ele>
        <time>2012-09-14T12:25:15Z</time>
      </trkpt>
      <trkpt lat="47.04935" lon="5.60154">
        <ele>216</ele>
        <time>2012-09-14T12:25:17Z</time>
      </trkpt>
      <trkpt lat="47.04931" lon="5.60171">
        <ele>216</ele>
        <time>2012-09-14T12:25:19Z</time>
      </trkpt>
      <trkpt lat="47.04929" lon="5.60189">
        <ele>216</ele>
        <time>2012-09-14T12:25:21Z</time>
      </trkpt>
      <trkpt lat="47.04927" lon="5.60206">
        <ele>216</ele>
        <time>2012-09-14T12:25:23Z</time>
      </trkpt>
      <trkpt lat="47.04923" lon="5.60223">
        <ele>216</ele>
        <time>2012-09-14T12:25:25Z</time>
      </trkpt>
      <trkpt lat="47.0492" lon="5.60241">
        <ele>221</ele>
        <time>2012-09-14T12:25:27Z</time>
      </trkpt>
      <trkpt lat="47.04919" lon="5.6026">
        <ele>221</ele>
        <time>2012-09-14T12:25:29Z</time>
      </trkpt>
      <trkpt lat="47.04918" lon="5.60279">
        <ele>221</ele>
        <time>2012-09-14T12:25:31Z</time>
      </trkpt>
      <trkpt lat="47.04915" lon="5.60299">
        <ele>221</ele>
        <time>2012-09-14T12:25:33Z</time>
      </trkpt>
      <trkpt lat="47.04913" lon="5.60318">
        <ele>221</ele>
        <time>2012-09-14T12:25:35Z</time>
      </trkpt>
      <trkpt lat="47.04912" lon="5.60337">
        <ele>221</ele>
        <time>2012-09-14T12:25:37Z</time>
      </trkpt>
      <trkpt lat="47.04911" lon="5.60356">
        <ele>221</ele>
        <time>2012-09-14T12:25:39Z</time>
      </trkpt>
      <trkpt lat="47.04912" lon="5.60375">
        <ele>221</ele>
        <time>2012-09-14T12:25:41Z</time>
      </trkpt>
      <trkpt lat="47.04915" lon="5.60395">
        <ele>221</ele>
        <time>2012-09-14T12:25:43Z</time>
      </trkpt>
      <trkpt lat="47.04916" lon="5.60415">
        <ele>221</ele>
        <time>2012-09-14T12:25:45Z</time>
      </trkpt>
      <trkpt lat="47.04918" lon="5.60434">
        <ele>221</ele>
        <time>2012-09-14T12:25:47Z</time>
      </trkpt>
      <trkpt lat="47.04921" lon="5.60454">
        <ele>221</ele>
        <time>2012-09-14T12:25:49Z</time>
      </trkpt>
      <trkpt lat="47.04923" lon="5.60473">
        <ele>221</ele>
        <time>2012-09-14T12:25:51Z</time>
      </trkpt>
      <trkpt lat="47.04924" lon="5.60492">
        <ele>221</ele>
        <time>2012-09-14T12:25:53Z</time>
      </trkpt>
      <trkpt lat="47.04926" lon="5.6051">
        <ele>221</ele>
        <time>2012-09-14T12:25:55Z</time>
      </trkpt>
      <trkpt lat="47.04929" lon="5.60531">
        <ele>221</ele>
        <time>2012-09-14T12:25:57Z</time>
      </trkpt>
      <trkpt lat="47.04928" lon="5.60551">
        <ele>221</ele>
        <time>2012-09-14T12:25:59Z</time>
      </trkpt>
      <trkpt lat="47.04927" lon="5.6057">
        <ele>221</ele>
        <time>2012-09-14T12:26:01Z</time>
      </trkpt>
      <trkpt lat="47.04926" lon="5.6059">
        <ele>221</ele>
        <time>2012-09-14T12:26:03Z</time>
      </trkpt>
      <trkpt lat="47.04925" lon="5.60606">
        <ele>221</ele>
        <time>2012-09-14T12:26:05Z</time>
      </trkpt>
      <trkpt lat="47.04923" lon="5.60624">
        <ele>221</ele>
        <time>2012-09-14T12:26:07Z</time>
      </trkpt>
      <trkpt lat="47.04923" lon="5.60644">
        <ele>221</ele>
        <time>2012-09-14T12:26:09Z</time>
      </trkpt>
      <trkpt lat="47.04921" lon="5.60662">
        <ele>221</ele>
        <time>2012-09-14T12:26:11Z</time>
      </trkpt>
      <trkpt lat="47.0492" lon="5.60681">
        <ele>221</ele>
        <time>2012-09-14T12:26:13Z</time>
      </trkpt>
      <trkpt lat="47.04917" lon="5.60699">
        <ele>221</ele>
        <time>2012-09-14T12:26:15Z</time>
      </trkpt>
      <trkpt lat="47.04915" lon="5.60717">
        <ele>221</ele>
        <time>2012-09-14T12:26:17Z</time>
      </trkpt>
      <trkpt lat="47.04911" lon="5.60735">
        <ele>221</ele>
        <time>2012-09-14T12:26:19Z</time>
      </trkpt>
      <trkpt lat="47.04907" lon="5.60754">
        <ele>221</ele>
        <time>2012-09-14T12:26:21Z</time>
      </trkpt>
      <trkpt lat="47.04901" lon="5.60772">
        <ele>221</ele>
        <time>2012-09-14T12:26:23Z</time>
      </trkpt>
      <trkpt lat="47.04895" lon="5.6079">
        <ele>221</ele>
        <time>2012-09-14T12:26:25Z</time>
      </trkpt>
      <trkpt lat="47.04889" lon="5.60808">
        <ele>221</ele>
        <time>2012-09-14T12:26:27Z</time>
      </trkpt>
      <trkpt lat="47.04881" lon="5.60824">
        <ele>221</ele>
        <time>2012-09-14T12:26:29Z</time>
      </trkpt>
      <trkpt lat="47.04873" lon="5.60842">
        <ele>221</ele>
        <time>2012-09-14T12:26:31Z</time>
      </trkpt>
      <trkpt lat="47.0487" lon="5.60859">
        <ele>221</ele>
        <time>2012-09-14T12:26:33Z</time>
      </trkpt>
      <trkpt lat="47.04871" lon="5.60878">
        <ele>221</ele>
        <time>2012-09-14T12:26:35Z</time>
      </trkpt>
      <trkpt lat="47.04875" lon="5.6089">
        <ele>221</ele>
        <time>2012-09-14T12:26:37Z</time>
      </trkpt>
      <trkpt lat="47.04884" lon="5.60907">
        <ele>221</ele>
        <time>2012-09-14T12:26:40Z</time>
      </trkpt>
      <trkpt lat="47.04896" lon="5.60917">
        <ele>221</ele>
        <time>2012-09-14T12:26:42Z</time>
      </trkpt>
      <trkpt lat="47.04904" lon="5.60921">
        <ele>221</ele>
        <time>2012-09-14T12:26:43Z</time>
      </trkpt>
      <trkpt lat="47.04913" lon="5.60934">
        <ele>221</ele>
        <time>2012-09-14T12:26:45Z</time>
      </trkpt>
      <trkpt lat="47.04918" lon="5.60953">
        <ele>221</ele>
        <time>2012-09-14T12:26:47Z</time>
      </trkpt>
      <trkpt lat="47.04917" lon="5.6097">
        <ele>221</ele>
        <time>2012-09-14T12:26:49Z</time>
      </trkpt>
      <trkpt lat="47.04916" lon="5.60989">
        <ele>221</ele>
        <time>2012-09-14T12:26:51Z</time>
      </trkpt>
      <trkpt lat="47.04915" lon="5.61008">
        <ele>221</ele>
        <time>2012-09-14T12:26:53Z</time>
      </trkpt>
      <trkpt lat="47.04913" lon="5.61026">
        <ele>221</ele>
        <time>2012-09-14T12:26:55Z</time>
      </trkpt>
      <trkpt lat="47.04912" lon="5.61043">
        <ele>221</ele>
        <time>2012-09-14T12:26:57Z</time>
      </trkpt>
      <trkpt lat="47.04911" lon="5.6106">
        <ele>221</ele>
        <time>2012-09-14T12:26:59Z</time>
      </trkpt>
      <trkpt lat="47.0491" lon="5.61078">
        <ele>221</ele>
        <time>2012-09-14T12:27:01Z</time>
      </trkpt>
      <trkpt lat="47.04908" lon="5.61096">
        <ele>221</ele>
        <time>2012-09-14T12:27:03Z</time>
      </trkpt>
      <trkpt lat="47.04908" lon="5.61113">
        <ele>221</ele>
        <time>2012-09-14T12:27:05Z</time>
      </trkpt>
      <trkpt lat="47.04908" lon="5.61131">
        <ele>221</ele>
        <time>2012-09-14T12:27:07Z</time>
      </trkpt>
      <trkpt lat="47.04906" lon="5.61149">
        <ele>221</ele>
        <time>2012-09-14T12:27:09Z</time>
      </trkpt>
      <trkpt lat="47.04905" lon="5.61168">
        <ele>221</ele>
        <time>2012-09-14T12:27:11Z</time>
      </trkpt>
      <trkpt lat="47.04907" lon="5.61185">
        <ele>221</ele>
        <time>2012-09-14T12:27:13Z</time>
      </trkpt>
      <trkpt lat="47.04907" lon="5.61202">
        <ele>221</ele>
        <time>2012-09-14T12:27:15Z</time>
      </trkpt>
      <trkpt lat="47.04909" lon="5.61218">
        <ele>221</ele>
        <time>2012-09-14T12:27:17Z</time>
      </trkpt>
      <trkpt lat="47.04908" lon="5.61235">
        <ele>221</ele>
        <time>2012-09-14T12:27:19Z</time>
      </trkpt>
      <trkpt lat="47.04909" lon="5.61252">
        <ele>221</ele>
        <time>2012-09-14T12:27:21Z</time>
      </trkpt>
      <trkpt lat="47.04908" lon="5.61269">
        <ele>221</ele>
        <time>2012-09-14T12:27:23Z</time>
      </trkpt>
      <trkpt lat="47.04909" lon="5.61287">
        <ele>221</ele>
        <time>2012-09-14T12:27:25Z</time>
      </trkpt>
      <trkpt lat="47.04908" lon="5.61303">
        <ele>221</ele>
        <time>2012-09-14T12:27:27Z</time>
      </trkpt>
      <trkpt lat="47.04906" lon="5.61321">
        <ele>221</ele>
        <time>2012-09-14T12:27:29Z</time>
      </trkpt>
      <trkpt lat="47.04903" lon="5.61339">
        <ele>221</ele>
        <time>2012-09-14T12:27:31Z</time>
      </trkpt>
      <trkpt lat="47.04901" lon="5.61356">
        <ele>221</ele>
        <time>2012-09-14T12:27:33Z</time>
      </trkpt>
      <trkpt lat="47.04899" lon="5.61373">
        <ele>221</ele>
        <time>2012-09-14T12:27:35Z</time>
      </trkpt>
      <trkpt lat="47.04898" lon="5.61392">
        <ele>221</ele>
        <time>2012-09-14T12:27:37Z</time>
      </trkpt>
      <trkpt lat="47.04892" lon="5.61408">
        <ele>221</ele>
        <time>2012-09-14T12:27:39Z</time>
      </trkpt>
      <trkpt lat="47.04888" lon="5.61425">
        <ele>221</ele>
        <time>2012-09-14T12:27:41Z</time>
      </trkpt>
      <trkpt lat="47.04885" lon="5.61439">
        <ele>221</ele>
        <time>2012-09-14T12:27:43Z</time>
      </trkpt>
      <trkpt lat="47.04883" lon="5.61452">
        <ele>221</ele>
        <time>2012-09-14T12:27:45Z</time>
      </trkpt>
      <trkpt lat="47.04878" lon="5.6147">
        <ele>221</ele>
        <time>2012-09-14T12:27:47Z</time>
      </trkpt>
      <trkpt lat="47.04875" lon="5.61487">
        <ele>221</ele>
        <time>2012-09-14T12:27:49Z</time>
      </trkpt>
      <trkpt lat="47.04872" lon="5.61502">
        <ele>221</ele>
        <time>2012-09-14T12:27:51Z</time>
      </trkpt>
      <trkpt lat="47.04869" lon="5.61515">
        <ele>221</ele>
        <time>2012-09-14T12:27:53Z</time>
      </trkpt>
      <trkpt lat="47.04865" lon="5.6153">
        <ele>221</ele>
        <time>2012-09-14T12:27:55Z</time>
      </trkpt>
      <trkpt lat="47.04861" lon="5.61545">
        <ele>221</ele>
        <time>2012-09-14T12:27:57Z</time>
      </trkpt>
      <trkpt lat="47.04857" lon="5.61559">
        <ele>221</ele>
        <time>2012-09-14T12:27:59Z</time>
      </trkpt>
      <trkpt lat="47.04853" lon="5.61575">
        <ele>221</ele>
        <time>2012-09-14T12:28:01Z</time>
      </trkpt>
      <trkpt lat="47.04849" lon="5.61588">
        <ele>221</ele>
        <time>2012-09-14T12:28:03Z</time>
      </trkpt>
      <trkpt lat="47.04846" lon="5.61602">
        <ele>221</ele>
        <time>2012-09-14T12:28:05Z</time>
      </trkpt>
      <trkpt lat="47.04842" lon="5.61616">
        <ele>221</ele>
        <time>2012-09-14T12:28:07Z</time>
      </trkpt>
      <trkpt lat="47.04838" lon="5.61629">
        <ele>221</ele>
        <time>2012-09-14T12:28:09Z</time>
      </trkpt>
      <trkpt lat="47.04834" lon="5.61645">
        <ele>221</ele>
        <time>2012-09-14T12:28:11Z</time>
      </trkpt>
      <trkpt lat="47.0483" lon="5.6166">
        <ele>221</ele>
        <time>2012-09-14T12:28:13Z</time>
      </trkpt>
      <trkpt lat="47.04827" lon="5.61677">
        <ele>221</ele>
        <time>2012-09-14T12:28:15Z</time>
      </trkpt>
      <trkpt lat="47.04822" lon="5.61696">
        <ele>221</ele>
        <time>2012-09-14T12:28:17Z</time>
      </trkpt>
      <trkpt lat="47.04818" lon="5.61713">
        <ele>221</ele>
        <time>2012-09-14T12:28:19Z</time>
      </trkpt>
      <trkpt lat="47.04814" lon="5.61729">
        <ele>221</ele>
        <time>2012-09-14T12:28:21Z</time>
      </trkpt>
      <trkpt lat="47.04808" lon="5.61744">
        <ele>221</ele>
        <time>2012-09-14T12:28:23Z</time>
      </trkpt>
      <trkpt lat="47.04802" lon="5.61757">
        <ele>221</ele>
        <time>2012-09-14T12:28:25Z</time>
      </trkpt>
      <trkpt lat="47.04794" lon="5.61769">
        <ele>221</ele>
        <time>2012-09-14T12:28:27Z</time>
      </trkpt>
      <trkpt lat="47.04787" lon="5.61779">
        <ele>221</ele>
        <time>2012-09-14T12:28:29Z</time>
      </trkpt>
      <trkpt lat="47.04782" lon="5.61791">
        <ele>221</ele>
        <time>2012-09-14T12:28:31Z</time>
      </trkpt>
      <trkpt lat="47.04779" lon="5.61806">
        <ele>221</ele>
        <time>2012-09-14T12:28:33Z</time>
      </trkpt>
      <trkpt lat="47.04778" lon="5.61821">
        <ele>221</ele>
        <time>2012-09-14T12:28:35Z</time>
      </trkpt>
      <trkpt lat="47.04779" lon="5.61836">
        <ele>221</ele>
        <time>2012-09-14T12:28:37Z</time>
      </trkpt>
      <trkpt lat="47.04779" lon="5.6185">
        <ele>221</ele>
        <time>2012-09-14T12:28:39Z</time>
      </trkpt>
      <trkpt lat="47.04781" lon="5.61865">
        <ele>221</ele>
        <time>2012-09-14T12:28:41Z</time>
      </trkpt>
      <trkpt lat="47.04783" lon="5.61878">
        <ele>221</ele>
        <time>2012-09-14T12:28:43Z</time>
      </trkpt>
      <trkpt lat="47.04786" lon="5.61898">
        <ele>221</ele>
        <time>2012-09-14T12:28:46Z</time>
      </trkpt>
      <trkpt lat="47.04788" lon="5.61912">
        <ele>221</ele>
        <time>2012-09-14T12:28:48Z</time>
      </trkpt>
      <trkpt lat="47.04791" lon="5.61928">
        <ele>221</ele>
        <time>2012-09-14T12:28:50Z</time>
      </trkpt>
      <trkpt lat="47.04793" lon="5.61942">
        <ele>221</ele>
        <time>2012-09-14T12:28:52Z</time>
      </trkpt>
      <trkpt lat="47.04794" lon="5.61957">
        <ele>221</ele>
        <time>2012-09-14T12:28:54Z</time>
      </trkpt>
      <trkpt lat="47.04794" lon="5.61972">
        <ele>221</ele>
        <time>2012-09-14T12:28:56Z</time>
      </trkpt>
      <trkpt lat="47.04794" lon="5.61986">
        <ele>221</ele>
        <time>2012-09-14T12:28:58Z</time>
      </trkpt>
      <trkpt lat="47.04794" lon="5.62">
        <ele>221</ele>
        <time>2012-09-14T12:29:00Z</time>
      </trkpt>
      <trkpt lat="47.04791" lon="5.62016">
        <ele>221</ele>
        <time>2012-09-14T12:29:02Z</time>
      </trkpt>
      <trkpt lat="47.04789" lon="5.62031">
        <ele>221</ele>
        <time>2012-09-14T12:29:04Z</time>
      </trkpt>
      <trkpt lat="47.04787" lon="5.62046">
        <ele>221</ele>
        <time>2012-09-14T12:29:06Z</time>
      </trkpt>
      <trkpt lat="47.04784" lon="5.62062">
        <ele>221</ele>
        <time>2012-09-14T12:29:08Z</time>
      </trkpt>
      <trkpt lat="47.04784" lon="5.62078">
        <ele>221</ele>
        <time>2012-09-14T12:29:10Z</time>
      </trkpt>
      <trkpt lat="47.04786" lon="5.62093">
        <ele>221</ele>
        <time>2012-09-14T12:29:12Z</time>
      </trkpt>
      <trkpt lat="47.04787" lon="5.62108">
        <ele>221</ele>
        <time>2012-09-14T12:29:14Z</time>
      </trkpt>
      <trkpt lat="47.04791" lon="5.62123">
        <ele>221</ele>
        <time>2012-09-14T12:29:16Z</time>
      </trkpt>
      <trkpt lat="47.04793" lon="5.62137">
        <ele>221</ele>
        <time>2012-09-14T12:29:18Z</time>
      </trkpt>
      <trkpt lat="47.04795" lon="5.62153">
        <ele>221</ele>
        <time>2012-09-14T12:29:20Z</time>
      </trkpt>
      <trkpt lat="47.04795" lon="5.6217">
        <ele>221</ele>
        <time>2012-09-14T12:29:22Z</time>
      </trkpt>
      <trkpt lat="47.04794" lon="5.62187">
        <ele>221</ele>
        <time>2012-09-14T12:29:24Z</time>
      </trkpt>
      <trkpt lat="47.0479" lon="5.62203">
        <ele>221</ele>
        <time>2012-09-14T12:29:26Z</time>
      </trkpt>
      <trkpt lat="47.04784" lon="5.6222">
        <ele>221</ele>
        <time>2012-09-14T12:29:28Z</time>
      </trkpt>
      <trkpt lat="47.04778" lon="5.62235">
        <ele>221</ele>
        <time>2012-09-14T12:29:30Z</time>
      </trkpt>
      <trkpt lat="47.04775" lon="5.62251">
        <ele>221</ele>
        <time>2012-09-14T12:29:32Z</time>
      </trkpt>
      <trkpt lat="47.04772" lon="5.62267">
        <ele>221</ele>
        <time>2012-09-14T12:29:34Z</time>
      </trkpt>
      <trkpt lat="47.0477" lon="5.62283">
        <ele>221</ele>
        <time>2012-09-14T12:29:36Z</time>
      </trkpt>
      <trkpt lat="47.04767" lon="5.623">
        <ele>221</ele>
        <time>2012-09-14T12:29:38Z</time>
      </trkpt>
      <trkpt lat="47.04764" lon="5.62316">
        <ele>221</ele>
        <time>2012-09-14T12:29:40Z</time>
      </trkpt>
      <trkpt lat="47.04761" lon="5.62332">
        <ele>221</ele>
        <time>2012-09-14T12:29:42Z</time>
      </trkpt>
      <trkpt lat="47.04757" lon="5.62348">
        <ele>221</ele>
        <time>2012-09-14T12:29:44Z</time>
      </trkpt>
      <trkpt lat="47.04753" lon="5.62366">
        <ele>221</ele>
        <time>2012-09-14T12:29:46Z</time>
      </trkpt>
      <trkpt lat="47.04749" lon="5.62383">
        <ele>221</ele>
        <time>2012-09-14T12:29:48Z</time>
      </trkpt>
      <trkpt lat="47.04744" lon="5.62399">
        <ele>221</ele>
        <time>2012-09-14T12:29:50Z</time>
      </trkpt>
      <trkpt lat="47.0474" lon="5.62417">
        <ele>221</ele>
        <time>2012-09-14T12:29:52Z</time>
      </trkpt>
      <trkpt lat="47.04736" lon="5.62434">
        <ele>221</ele>
        <time>2012-09-14T12:29:54Z</time>
      </trkpt>
      <trkpt lat="47.04732" lon="5.62452">
        <ele>221</ele>
        <time>2012-09-14T12:29:56Z</time>
      </trkpt>
      <trkpt lat="47.04728" lon="5.62471">
        <ele>221</ele>
        <time>2012-09-14T12:29:58Z</time>
      </trkpt>
      <trkpt lat="47.04725" lon="5.62491">
        <ele>221</ele>
        <time>2012-09-14T12:30:00Z</time>
      </trkpt>
      <trkpt lat="47.04721" lon="5.6251">
        <ele>221</ele>
        <time>2012-09-14T12:30:02Z</time>
      </trkpt>
      <trkpt lat="47.04719" lon="5.62528">
        <ele>221</ele>
        <time>2012-09-14T12:30:04Z</time>
      </trkpt>
      <trkpt lat="47.04719" lon="5.62547">
        <ele>221</ele>
        <time>2012-09-14T12:30:06Z</time>
      </trkpt>
      <trkpt lat="47.0472" lon="5.62565">
        <ele>221</ele>
        <time>2012-09-14T12:30:08Z</time>
      </trkpt>
      <trkpt lat="47.0472" lon="5.62581">
        <ele>221</ele>
        <time>2012-09-14T12:30:10Z</time>
      </trkpt>
      <trkpt lat="47.04719" lon="5.62597">
        <ele>221</ele>
        <time>2012-09-14T12:30:12Z</time>
      </trkpt>
      <trkpt lat="47.04716" lon="5.62614">
        <ele>221</ele>
        <time>2012-09-14T12:30:14Z</time>
      </trkpt>
      <trkpt lat="47.04712" lon="5.62632">
        <ele>221</ele>
        <time>2012-09-14T12:30:16Z</time>
      </trkpt>
      <trkpt lat="47.04706" lon="5.6265">
        <ele>221</ele>
        <time>2012-09-14T12:30:18Z</time>
      </trkpt>
      <trkpt lat="47.04703" lon="5.6267">
        <ele>221</ele>
        <time>2012-09-14T12:30:20Z</time>
      </trkpt>
      <trkpt lat="47.04703" lon="5.62689">
        <ele>221</ele>
        <time>2012-09-14T12:30:22Z</time>
      </trkpt>
      <trkpt lat="47.04704" lon="5.62709">
        <ele>221</ele>
        <time>2012-09-14T12:30:24Z</time>
      </trkpt>
      <trkpt lat="47.04708" lon="5.62728">
        <ele>221</ele>
        <time>2012-09-14T12:30:26Z</time>
      </trkpt>
      <trkpt lat="47.04713" lon="5.62745">
        <ele>221</ele>
        <time>2012-09-14T12:30:28Z</time>
      </trkpt>
      <trkpt lat="47.04716" lon="5.62763">
        <ele>221</ele>
        <time>2012-09-14T12:30:30Z</time>
      </trkpt>
      <trkpt lat="47.04718" lon="5.62781">
        <ele>221</ele>
        <time>2012-09-14T12:30:32Z</time>
      </trkpt>
      <trkpt lat="47.04721" lon="5.62799">
        <ele>221</ele>
        <time>2012-09-14T12:30:34Z</time>
      </trkpt>
      <trkpt lat="47.04723" lon="5.62818">
        <ele>221</ele>
        <time>2012-09-14T12:30:36Z</time>
      </trkpt>
      <trkpt lat="47.04727" lon="5.62836">
        <ele>221</ele>
        <time>2012-09-14T12:30:38Z</time>
      </trkpt>
      <trkpt lat="47.04732" lon="5.62854">
        <ele>221</ele>
        <time>2012-09-14T12:30:40Z</time>
      </trkpt>
      <trkpt lat="47.04738" lon="5.62872">
        <ele>221</ele>
        <time>2012-09-14T12:30:42Z</time>
      </trkpt>
      <trkpt lat="47.04744" lon="5.62889">
        <ele>221</ele>
        <time>2012-09-14T12:30:44Z</time>
      </trkpt>
      <trkpt lat="47.0475" lon="5.62905">
        <ele>221</ele>
        <time>2012-09-14T12:30:46Z</time>
      </trkpt>
      <trkpt lat="47.04757" lon="5.6292">
        <ele>221</ele>
        <time>2012-09-14T12:30:48Z</time>
      </trkpt>
      <trkpt lat="47.04766" lon="5.62934">
        <ele>221</ele>
        <time>2012-09-14T12:30:50Z</time>
      </trkpt>
      <trkpt lat="47.04776" lon="5.62945">
        <ele>221</ele>
        <time>2012-09-14T12:30:52Z</time>
      </trkpt>
      <trkpt lat="47.04785" lon="5.62956">
        <ele>221</ele>
        <time>2012-09-14T12:30:54Z</time>
      </trkpt>
      <trkpt lat="47.04795" lon="5.62968">
        <ele>221</ele>
        <time>2012-09-14T12:30:56Z</time>
      </trkpt>
      <trkpt lat="47.04803" lon="5.62981">
        <ele>221</ele>
        <time>2012-09-14T12:30:58Z</time>
      </trkpt>
      <trkpt lat="47.04811" lon="5.62998">
        <ele>221</ele>
        <time>2012-09-14T12:31:00Z</time>
      </trkpt>
      <trkpt lat="47.04817" lon="5.63016">
        <ele>221</ele>
        <time>2012-09-14T12:31:02Z</time>
      </trkpt>
      <trkpt lat="47.04823" lon="5.63034">
        <ele>221</ele>
        <time>2012-09-14T12:31:04Z</time>
      </trkpt>
      <trkpt lat="47.04829" lon="5.63052">
        <ele>221</ele>
        <time>2012-09-14T12:31:06Z</time>
      </trkpt>
      <trkpt lat="47.04835" lon="5.63069">
        <ele>221</ele>
        <time>2012-09-14T12:31:08Z</time>
      </trkpt>
      <trkpt lat="47.04842" lon="5.63087">
        <ele>221</ele>
        <time>2012-09-14T12:31:10Z</time>
      </trkpt>
      <trkpt lat="47.04848" lon="5.63104">
        <ele>221</ele>
        <time>2012-09-14T12:31:12Z</time>
      </trkpt>
      <trkpt lat="47.04854" lon="5.6312">
        <ele>221</ele>
        <time>2012-09-14T12:31:14Z</time>
      </trkpt>
      <trkpt lat="47.04861" lon="5.63136">
        <ele>221</ele>
        <time>2012-09-14T12:31:16Z</time>
      </trkpt>
      <trkpt lat="47.04869" lon="5.63152">
        <ele>221</ele>
        <time>2012-09-14T12:31:18Z</time>
      </trkpt>
      <trkpt lat="47.04876" lon="5.63168">
        <ele>221</ele>
        <time>2012-09-14T12:31:20Z</time>
      </trkpt>
      <trkpt lat="47.04883" lon="5.63184">
        <ele>221</ele>
        <time>2012-09-14T12:31:22Z</time>
      </trkpt>
      <trkpt lat="47.04891" lon="5.632">
        <ele>221</ele>
        <time>2012-09-14T12:31:24Z</time>
      </trkpt>
      <trkpt lat="47.04899" lon="5.63214">
        <ele>221</ele>
        <time>2012-09-14T12:31:26Z</time>
      </trkpt>
      <trkpt lat="47.04907" lon="5.63228">
        <ele>221</ele>
        <time>2012-09-14T12:31:28Z</time>
      </trkpt>
      <trkpt lat="47.04915" lon="5.63243">
        <ele>221</ele>
        <time>2012-09-14T12:31:30Z</time>
      </trkpt>
      <trkpt lat="47.04924" lon="5.63258">
        <ele>221</ele>
        <time>2012-09-14T12:31:32Z</time>
      </trkpt>
      <trkpt lat="47.04932" lon="5.63273">
        <ele>221</ele>
        <time>2012-09-14T12:31:34Z</time>
      </trkpt>
      <trkpt lat="47.0494" lon="5.63288">
        <ele>221</ele>
        <time>2012-09-14T12:31:36Z</time>
      </trkpt>
      <trkpt lat="47.04948" lon="5.63302">
        <ele>221</ele>
        <time>2012-09-14T12:31:38Z</time>
      </trkpt>
      <trkpt lat="47.04957" lon="5.63316">
        <ele>221</ele>
        <time>2012-09-14T12:31:40Z</time>
      </trkpt>
      <trkpt lat="47.04966" lon="5.63331">
        <ele>221</ele>
        <time>2012-09-14T12:31:42Z</time>
      </trkpt>
      <trkpt lat="47.04974" lon="5.63345">
        <ele>221</ele>
        <time>2012-09-14T12:31:44Z</time>
      </trkpt>
      <trkpt lat="47.04983" lon="5.63361">
        <ele>221</ele>
        <time>2012-09-14T12:31:46Z</time>
      </trkpt>
      <trkpt lat="47.04989" lon="5.63378">
        <ele>221</ele>
        <time>2012-09-14T12:31:48Z</time>
      </trkpt>
      <trkpt lat="47.04996" lon="5.63394">
        <ele>221</ele>
        <time>2012-09-14T12:31:50Z</time>
      </trkpt>
      <trkpt lat="47.05001" lon="5.6341">
        <ele>221</ele>
        <time>2012-09-14T12:31:52Z</time>
      </trkpt>
      <trkpt lat="47.05007" lon="5.63425">
        <ele>221</ele>
        <time>2012-09-14T12:31:54Z</time>
      </trkpt>
      <trkpt lat="47.05013" lon="5.6344">
        <ele>221</ele>
        <time>2012-09-14T12:31:56Z</time>
      </trkpt>
      <trkpt lat="47.05019" lon="5.63455">
        <ele>221</ele>
        <time>2012-09-14T12:31:58Z</time>
      </trkpt>
      <trkpt lat="47.05026" lon="5.6347">
        <ele>221</ele>
        <time>2012-09-14T12:32:00Z</time>
      </trkpt>
      <trkpt lat="47.05034" lon="5.63485">
        <ele>221</ele>
        <time>2012-09-14T12:32:02Z</time>
      </trkpt>
      <trkpt lat="47.05042" lon="5.635">
        <ele>221</ele>
        <time>2012-09-14T12:32:04Z</time>
      </trkpt>
      <trkpt lat="47.05051" lon="5.63514">
        <ele>221</ele>
        <time>2012-09-14T12:32:06Z</time>
      </trkpt>
      <trkpt lat="47.05061" lon="5.63526">
        <ele>221</ele>
        <time>2012-09-14T12:32:08Z</time>
      </trkpt>
      <trkpt lat="47.05069" lon="5.63539">
        <ele>221</ele>
        <time>2012-09-14T12:32:10Z</time>
      </trkpt>
      <trkpt lat="47.05079" lon="5.63551">
        <ele>221</ele>
        <time>2012-09-14T12:32:12Z</time>
      </trkpt>
      <trkpt lat="47.05088" lon="5.63564">
        <ele>221</ele>
        <time>2012-09-14T12:32:14Z</time>
      </trkpt>
      <trkpt lat="47.05097" lon="5.63576">
        <ele>221</ele>
        <time>2012-09-14T12:32:16Z</time>
      </trkpt>
      <trkpt lat="47.05106" lon="5.63589">
        <ele>221</ele>
        <time>2012-09-14T12:32:18Z</time>
      </trkpt>
      <trkpt lat="47.05115" lon="5.63601">
        <ele>226</ele>
        <time>2012-09-14T12:32:20Z</time>
      </trkpt>
      <trkpt lat="47.05125" lon="5.63613">
        <ele>226</ele>
        <time>2012-09-14T12:32:22Z</time>
      </trkpt>
      <trkpt lat="47.05134" lon="5.63623">
        <ele>226</ele>
        <time>2012-09-14T12:32:24Z</time>
      </trkpt>
      <trkpt lat="47.05144" lon="5.63632">
        <ele>226</ele>
        <time>2012-09-14T12:32:26Z</time>
      </trkpt>
      <trkpt lat="47.05154" lon="5.63642">
        <ele>226</ele>
        <time>2012-09-14T12:32:28Z</time>
      </trkpt>
      <trkpt lat="47.05164" lon="5.63652">
        <ele>226</ele>
        <time>2012-09-14T12:32:30Z</time>
      </trkpt>
      <trkpt lat="47.05172" lon="5.63667">
        <ele>226</ele>
        <time>2012-09-14T12:32:32Z</time>
      </trkpt>
      <trkpt lat="47.05179" lon="5.63682">
        <ele>226</ele>
        <time>2012-09-14T12:32:34Z</time>
      </trkpt>
      <trkpt lat="47.05183" lon="5.63698">
        <ele>226</ele>
        <time>2012-09-14T12:32:36Z</time>
      </trkpt>
      <trkpt lat="47.05188" lon="5.63717">
        <ele>226</ele>
        <time>2012-09-14T12:32:38Z</time>
      </trkpt>
      <trkpt lat="47.05193" lon="5.63735">
        <ele>226</ele>
        <time>2012-09-14T12:32:40Z</time>
      </trkpt>
      <trkpt lat="47.05198" lon="5.63752">
        <ele>226</ele>
        <time>2012-09-14T12:32:42Z</time>
      </trkpt>
      <trkpt lat="47.05204" lon="5.63769">
        <ele>226</ele>
        <time>2012-09-14T12:32:44Z</time>
      </trkpt>
      <trkpt lat="47.05209" lon="5.63785">
        <ele>226</ele>
        <time>2012-09-14T12:32:46Z</time>
      </trkpt>
      <trkpt lat="47.05215" lon="5.63801">
        <ele>226</ele>
        <time>2012-09-14T12:32:48Z</time>
      </trkpt>
      <trkpt lat="47.05223" lon="5.63815">
        <ele>226</ele>
        <time>2012-09-14T12:32:50Z</time>
      </trkpt>
      <trkpt lat="47.05232" lon="5.63825">
        <ele>226</ele>
        <time>2012-09-14T12:32:52Z</time>
      </trkpt>
      <trkpt lat="47.05242" lon="5.63833">
        <ele>226</ele>
        <time>2012-09-14T12:32:54Z</time>
      </trkpt>
      <trkpt lat="47.05252" lon="5.63839">
        <ele>226</ele>
        <time>2012-09-14T12:32:56Z</time>
      </trkpt>
      <trkpt lat="47.05261" lon="5.63845">
        <ele>226</ele>
        <time>2012-09-14T12:32:58Z</time>
      </trkpt>
      <trkpt lat="47.05269" lon="5.63848">
        <ele>226</ele>
        <time>2012-09-14T12:33:00Z</time>
      </trkpt>
      <trkpt lat="47.05281" lon="5.63856">
        <ele>232</ele>
        <time>2012-09-14T12:33:03Z</time>
      </trkpt>
      <trkpt lat="47.05292" lon="5.63863">
        <ele>232</ele>
        <time>2012-09-14T12:33:06Z</time>
      </trkpt>
      <trkpt lat="47.05303" lon="5.63869">
        <ele>232</ele>
        <time>2012-09-14T12:33:09Z</time>
      </trkpt>
      <trkpt lat="47.05314" lon="5.63877">
        <ele>237</ele>
        <time>2012-09-14T12:33:12Z</time>
      </trkpt>
      <trkpt lat="47.05322" lon="5.63885">
        <ele>237</ele>
        <time>2012-09-14T12:33:14Z</time>
      </trkpt>
      <trkpt lat="47.05328" lon="5.63894">
        <ele>237</ele>
        <time>2012-09-14T12:33:16Z</time>
      </trkpt>
      <trkpt lat="47.05336" lon="5.63904">
        <ele>237</ele>
        <time>2012-09-14T12:33:18Z</time>
      </trkpt>
      <trkpt lat="47.05343" lon="5.63917">
        <ele>237</ele>
        <time>2012-09-14T12:33:20Z</time>
      </trkpt>
      <trkpt lat="47.05351" lon="5.63929">
        <ele>237</ele>
        <time>2012-09-14T12:33:22Z</time>
      </trkpt>
      <trkpt lat="47.05359" lon="5.63939">
        <ele>237</ele>
        <time>2012-09-14T12:33:24Z</time>
      </trkpt>
      <trkpt lat="47.05368" lon="5.63945">
        <ele>237</ele>
        <time>2012-09-14T12:33:26Z</time>
      </trkpt>
      <trkpt lat="47.05378" lon="5.63945">
        <ele>237</ele>
        <time>2012-09-14T12:33:28Z</time>
      </trkpt>
      <trkpt lat="47.05387" lon="5.63942">
        <ele>237</ele>
        <time>2012-09-14T12:33:30Z</time>
      </trkpt>
      <trkpt lat="47.05398" lon="5.63935">
        <ele>237</ele>
        <time>2012-09-14T12:33:33Z</time>
      </trkpt>
      <trkpt lat="47.05408" lon="5.6393">
        <ele>242</ele>
        <time>2012-09-14T12:33:36Z</time>
      </trkpt>
      <trkpt lat="47.05418" lon="5.63925">
        <ele>242</ele>
        <time>2012-09-14T12:33:39Z</time>
      </trkpt>
      <trkpt lat="47.05428" lon="5.63918">
        <ele>242</ele>
        <time>2012-09-14T12:33:42Z</time>
      </trkpt>
      <trkpt lat="47.05438" lon="5.63913">
        <ele>242</ele>
        <time>2012-09-14T12:33:45Z</time>
      </trkpt>
      <trkpt lat="47.05447" lon="5.63908">
        <ele>249</ele>
        <time>2012-09-14T12:33:48Z</time>
      </trkpt>
      <trkpt lat="47.05458" lon="5.63904">
        <ele>249</ele>
        <time>2012-09-14T12:33:51Z</time>
      </trkpt>
      <trkpt lat="47.05469" lon="5.63897">
        <ele>249</ele>
        <time>2012-09-14T12:33:54Z</time>
      </trkpt>
      <trkpt lat="47.05482" lon="5.63891">
        <ele>249</ele>
        <time>2012-09-14T12:33:57Z</time>
      </trkpt>
      <trkpt lat="47.05494" lon="5.63885">
        <ele>249</ele>
        <time>2012-09-14T12:34:00Z</time>
      </trkpt>
      <trkpt lat="47.05506" lon="5.63879">
        <ele>249</ele>
        <time>2012-09-14T12:34:03Z</time>
      </trkpt>
      <trkpt lat="47.05517" lon="5.63871">
        <ele>254</ele>
        <time>2012-09-14T12:34:06Z</time>
      </trkpt>
      <trkpt lat="47.05526" lon="5.63867">
        <ele>254</ele>
        <time>2012-09-14T12:34:08Z</time>
      </trkpt>
      <trkpt lat="47.05535" lon="5.63864">
        <ele>254</ele>
        <time>2012-09-14T12:34:10Z</time>
      </trkpt>
      <trkpt lat="47.05544" lon="5.63855">
        <ele>254</ele>
        <time>2012-09-14T12:34:13Z</time>
      </trkpt>
      <trkpt lat="47.05556" lon="5.63848">
        <ele>260</ele>
        <time>2012-09-14T12:34:16Z</time>
      </trkpt>
      <trkpt lat="47.05566" lon="5.63845">
        <ele>260</ele>
        <time>2012-09-14T12:34:18Z</time>
      </trkpt>
      <trkpt lat="47.05576" lon="5.63839">
        <ele>260</ele>
        <time>2012-09-14T12:34:20Z</time>
      </trkpt>
      <trkpt lat="47.05585" lon="5.63833">
        <ele>260</ele>
        <time>2012-09-14T12:34:22Z</time>
      </trkpt>
      <trkpt lat="47.05594" lon="5.63827">
        <ele>260</ele>
        <time>2012-09-14T12:34:24Z</time>
      </trkpt>
      <trkpt lat="47.05602" lon="5.6382">
        <ele>260</ele>
        <time>2012-09-14T12:34:26Z</time>
      </trkpt>
      <trkpt lat="47.05616" lon="5.63816">
        <ele>260</ele>
        <time>2012-09-14T12:34:29Z</time>
      </trkpt>
      <trkpt lat="47.05626" lon="5.63811">
        <ele>260</ele>
        <time>2012-09-14T12:34:31Z</time>
      </trkpt>
      <trkpt lat="47.05635" lon="5.63808">
        <ele>260</ele>
        <time>2012-09-14T12:34:33Z</time>
      </trkpt>
      <trkpt lat="47.05645" lon="5.63804">
        <ele>254</ele>
        <time>2012-09-14T12:34:35Z</time>
      </trkpt>
      <trkpt lat="47.05654" lon="5.638">
        <ele>254</ele>
        <time>2012-09-14T12:34:37Z</time>
      </trkpt>
      <trkpt lat="47.05665" lon="5.63795">
        <ele>254</ele>
        <time>2012-09-14T12:34:39Z</time>
      </trkpt>
      <trkpt lat="47.05677" lon="5.63789">
        <ele>254</ele>
        <time>2012-09-14T12:34:41Z</time>
      </trkpt>
      <trkpt lat="47.05685" lon="5.63783">
        <ele>254</ele>
        <time>2012-09-14T12:34:43Z</time>
      </trkpt>
      <trkpt lat="47.05698" lon="5.63781">
        <ele>254</ele>
        <time>2012-09-14T12:34:45Z</time>
      </trkpt>
      <trkpt lat="47.0571" lon="5.63777">
        <ele>254</ele>
        <time>2012-09-14T12:34:47Z</time>
      </trkpt>
      <trkpt lat="47.05721" lon="5.6377">
        <ele>254</ele>
        <time>2012-09-14T12:34:49Z</time>
      </trkpt>
      <trkpt lat="47.0573" lon="5.6376">
        <ele>254</ele>
        <time>2012-09-14T12:34:51Z</time>
      </trkpt>
      <trkpt lat="47.05741" lon="5.63753">
        <ele>254</ele>
        <time>2012-09-14T12:34:53Z</time>
      </trkpt>
      <trkpt lat="47.05753" lon="5.63748">
        <ele>254</ele>
        <time>2012-09-14T12:34:55Z</time>
      </trkpt>
      <trkpt lat="47.05766" lon="5.63741">
        <ele>254</ele>
        <time>2012-09-14T12:34:57Z</time>
      </trkpt>
      <trkpt lat="47.0578" lon="5.63735">
        <ele>254</ele>
        <time>2012-09-14T12:34:59Z</time>
      </trkpt>
      <trkpt lat="47.05794" lon="5.63729">
        <ele>254</ele>
        <time>2012-09-14T12:35:01Z</time>
      </trkpt>
      <trkpt lat="47.05807" lon="5.63722">
        <ele>254</ele>
        <time>2012-09-14T12:35:03Z</time>
      </trkpt>
      <trkpt lat="47.05821" lon="5.63714">
        <ele>254</ele>
        <time>2012-09-14T12:35:05Z</time>
      </trkpt>
      <trkpt lat="47.05834" lon="5.63704">
        <ele>254</ele>
        <time>2012-09-14T12:35:07Z</time>
      </trkpt>
      <trkpt lat="47.05848" lon="5.63696">
        <ele>254</ele>
        <time>2012-09-14T12:35:09Z</time>
      </trkpt>
      <trkpt lat="47.05863" lon="5.63691">
        <ele>254</ele>
        <time>2012-09-14T12:35:11Z</time>
      </trkpt>
      <trkpt lat="47.05876" lon="5.63686">
        <ele>254</ele>
        <time>2012-09-14T12:35:13Z</time>
      </trkpt>
      <trkpt lat="47.0589" lon="5.63679">
        <ele>254</ele>
        <time>2012-09-14T12:35:15Z</time>
      </trkpt>
      <trkpt lat="47.05904" lon="5.63671">
        <ele>254</ele>
        <time>2012-09-14T12:35:17Z</time>
      </trkpt>
      <trkpt lat="47.05917" lon="5.63664">
        <ele>254</ele>
        <time>2012-09-14T12:35:19Z</time>
      </trkpt>
      <trkpt lat="47.05929" lon="5.63659">
        <ele>254</ele>
        <time>2012-09-14T12:35:21Z</time>
      </trkpt>
      <trkpt lat="47.05942" lon="5.63653">
        <ele>254</ele>
        <time>2012-09-14T12:35:23Z</time>
      </trkpt>
      <trkpt lat="47.05955" lon="5.63648">
        <ele>254</ele>
        <time>2012-09-14T12:35:25Z</time>
      </trkpt>
      <trkpt lat="47.05968" lon="5.63643">
        <ele>254</ele>
        <time>2012-09-14T12:35:27Z</time>
      </trkpt>
      <trkpt lat="47.05982" lon="5.63637">
        <ele>254</ele>
        <time>2012-09-14T12:35:29Z</time>
      </trkpt>
      <trkpt lat="47.05992" lon="5.63628">
        <ele>254</ele>
        <time>2012-09-14T12:35:31Z</time>
      </trkpt>
      <trkpt lat="47.06003" lon="5.63622">
        <ele>254</ele>
        <time>2012-09-14T12:35:33Z</time>
      </trkpt>
      <trkpt lat="47.06016" lon="5.63616">
        <ele>249</ele>
        <time>2012-09-14T12:35:35Z</time>
      </trkpt>
      <trkpt lat="47.06028" lon="5.63609">
        <ele>249</ele>
        <time>2012-09-14T12:35:37Z</time>
      </trkpt>
      <trkpt lat="47.06041" lon="5.63604">
        <ele>249</ele>
        <time>2012-09-14T12:35:39Z</time>
      </trkpt>
      <trkpt lat="47.06053" lon="5.63598">
        <ele>249</ele>
        <time>2012-09-14T12:35:41Z</time>
      </trkpt>
      <trkpt lat="47.06065" lon="5.6359">
        <ele>249</ele>
        <time>2012-09-14T12:35:43Z</time>
      </trkpt>
      <trkpt lat="47.06077" lon="5.63586">
        <ele>249</ele>
        <time>2012-09-14T12:35:45Z</time>
      </trkpt>
      <trkpt lat="47.06089" lon="5.63581">
        <ele>249</ele>
        <time>2012-09-14T12:35:47Z</time>
      </trkpt>
      <trkpt lat="47.06102" lon="5.63573">
        <ele>249</ele>
        <time>2012-09-14T12:35:49Z</time>
      </trkpt>
      <trkpt lat="47.06114" lon="5.63565">
        <ele>249</ele>
        <time>2012-09-14T12:35:51Z</time>
      </trkpt>
      <trkpt lat="47.06125" lon="5.63558">
        <ele>254</ele>
        <time>2012-09-14T12:35:53Z</time>
      </trkpt>
      <trkpt lat="47.06136" lon="5.63554">
        <ele>254</ele>
        <time>2012-09-14T12:35:55Z</time>
      </trkpt>
      <trkpt lat="47.06147" lon="5.63549">
        <ele>254</ele>
        <time>2012-09-14T12:35:57Z</time>
      </trkpt>
      <trkpt lat="47.06158" lon="5.63543">
        <ele>254</ele>
        <time>2012-09-14T12:35:59Z</time>
      </trkpt>
      <trkpt lat="47.0617" lon="5.63538">
        <ele>254</ele>
        <time>2012-09-14T12:36:01Z</time>
      </trkpt>
      <trkpt lat="47.06182" lon="5.63533">
        <ele>254</ele>
        <time>2012-09-14T12:36:03Z</time>
      </trkpt>
      <trkpt lat="47.06193" lon="5.63526">
        <ele>254</ele>
        <time>2012-09-14T12:36:05Z</time>
      </trkpt>
      <trkpt lat="47.06204" lon="5.6352">
        <ele>254</ele>
        <time>2012-09-14T12:36:07Z</time>
      </trkpt>
      <trkpt lat="47.06215" lon="5.63511">
        <ele>254</ele>
        <time>2012-09-14T12:36:09Z</time>
      </trkpt>
      <trkpt lat="47.06228" lon="5.63505">
        <ele>254</ele>
        <time>2012-09-14T12:36:11Z</time>
      </trkpt>
      <trkpt lat="47.06239" lon="5.635">
        <ele>254</ele>
        <time>2012-09-14T12:36:13Z</time>
      </trkpt>
      <trkpt lat="47.0625" lon="5.63493">
        <ele>254</ele>
        <time>2012-09-14T12:36:15Z</time>
      </trkpt>
      <trkpt lat="47.06262" lon="5.63486">
        <ele>254</ele>
        <time>2012-09-14T12:36:17Z</time>
      </trkpt>
      <trkpt lat="47.06275" lon="5.63481">
        <ele>254</ele>
        <time>2012-09-14T12:36:19Z</time>
      </trkpt>
      <trkpt lat="47.06287" lon="5.63475">
        <ele>254</ele>
        <time>2012-09-14T12:36:21Z</time>
      </trkpt>
      <trkpt lat="47.063" lon="5.63469">
        <ele>254</ele>
        <time>2012-09-14T12:36:23Z</time>
      </trkpt>
      <trkpt lat="47.06313" lon="5.63465">
        <ele>254</ele>
        <time>2012-09-14T12:36:25Z</time>
      </trkpt>
      <trkpt lat="47.06327" lon="5.6346">
        <ele>254</ele>
        <time>2012-09-14T12:36:27Z</time>
      </trkpt>
      <trkpt lat="47.06339" lon="5.63454">
        <ele>254</ele>
        <time>2012-09-14T12:36:29Z</time>
      </trkpt>
      <trkpt lat="47.06351" lon="5.63448">
        <ele>254</ele>
        <time>2012-09-14T12:36:31Z</time>
      </trkpt>
      <trkpt lat="47.06362" lon="5.6344">
        <ele>254</ele>
        <time>2012-09-14T12:36:33Z</time>
      </trkpt>
      <trkpt lat="47.06374" lon="5.63435">
        <ele>254</ele>
        <time>2012-09-14T12:36:35Z</time>
      </trkpt>
      <trkpt lat="47.06386" lon="5.63429">
        <ele>254</ele>
        <time>2012-09-14T12:36:37Z</time>
      </trkpt>
      <trkpt lat="47.06398" lon="5.63423">
        <ele>254</ele>
        <time>2012-09-14T12:36:39Z</time>
      </trkpt>
      <trkpt lat="47.0641" lon="5.63418">
        <ele>254</ele>
        <time>2012-09-14T12:36:41Z</time>
      </trkpt>
      <trkpt lat="47.06422" lon="5.63411">
        <ele>254</ele>
        <time>2012-09-14T12:36:43Z</time>
      </trkpt>
      <trkpt lat="47.06435" lon="5.63405">
        <ele>254</ele>
        <time>2012-09-14T12:36:45Z</time>
      </trkpt>
      <trkpt lat="47.06448" lon="5.63397">
        <ele>254</ele>
        <time>2012-09-14T12:36:47Z</time>
      </trkpt>
      <trkpt lat="47.06461" lon="5.6339">
        <ele>254</ele>
        <time>2012-09-14T12:36:49Z</time>
      </trkpt>
      <trkpt lat="47.06475" lon="5.63385">
        <ele>254</ele>
        <time>2012-09-14T12:36:51Z</time>
      </trkpt>
      <trkpt lat="47.06487" lon="5.63378">
        <ele>254</ele>
        <time>2012-09-14T12:36:53Z</time>
      </trkpt>
      <trkpt lat="47.06498" lon="5.63371">
        <ele>254</ele>
        <time>2012-09-14T12:36:55Z</time>
      </trkpt>
      <trkpt lat="47.06511" lon="5.63365">
        <ele>254</ele>
        <time>2012-09-14T12:36:57Z</time>
      </trkpt>
      <trkpt lat="47.06524" lon="5.63359">
        <ele>254</ele>
        <time>2012-09-14T12:36:59Z</time>
      </trkpt>
      <trkpt lat="47.06537" lon="5.63352">
        <ele>254</ele>
        <time>2012-09-14T12:37:01Z</time>
      </trkpt>
      <trkpt lat="47.06549" lon="5.63346">
        <ele>254</ele>
        <time>2012-09-14T12:37:03Z</time>
      </trkpt>
      <trkpt lat="47.06562" lon="5.6334">
        <ele>254</ele>
        <time>2012-09-14T12:37:05Z</time>
      </trkpt>
      <trkpt lat="47.06575" lon="5.63332">
        <ele>254</ele>
        <time>2012-09-14T12:37:07Z</time>
      </trkpt>
      <trkpt lat="47.06586" lon="5.63324">
        <ele>254</ele>
        <time>2012-09-14T12:37:09Z</time>
      </trkpt>
      <trkpt lat="47.06599" lon="5.63318">
        <ele>254</ele>
        <time>2012-09-14T12:37:11Z</time>
      </trkpt>
      <trkpt lat="47.06611" lon="5.63311">
        <ele>254</ele>
        <time>2012-09-14T12:37:13Z</time>
      </trkpt>
      <trkpt lat="47.06623" lon="5.63305">
        <ele>254</ele>
        <time>2012-09-14T12:37:15Z</time>
      </trkpt>
      <trkpt lat="47.06634" lon="5.63299">
        <ele>260</ele>
        <time>2012-09-14T12:37:17Z</time>
      </trkpt>
      <trkpt lat="47.06646" lon="5.63291">
        <ele>260</ele>
        <time>2012-09-14T12:37:19Z</time>
      </trkpt>
      <trkpt lat="47.06657" lon="5.63285">
        <ele>260</ele>
        <time>2012-09-14T12:37:21Z</time>
      </trkpt>
      <trkpt lat="47.06669" lon="5.63281">
        <ele>260</ele>
        <time>2012-09-14T12:37:23Z</time>
      </trkpt>
      <trkpt lat="47.06681" lon="5.63275">
        <ele>260</ele>
        <time>2012-09-14T12:37:25Z</time>
      </trkpt>
      <trkpt lat="47.06693" lon="5.63268">
        <ele>260</ele>
        <time>2012-09-14T12:37:27Z</time>
      </trkpt>
      <trkpt lat="47.06705" lon="5.63262">
        <ele>260</ele>
        <time>2012-09-14T12:37:29Z</time>
      </trkpt>
      <trkpt lat="47.06717" lon="5.63255">
        <ele>260</ele>
        <time>2012-09-14T12:37:31Z</time>
      </trkpt>
      <trkpt lat="47.0673" lon="5.6325">
        <ele>254</ele>
        <time>2012-09-14T12:37:33Z</time>
      </trkpt>
      <trkpt lat="47.06744" lon="5.63245">
        <ele>254</ele>
        <time>2012-09-14T12:37:35Z</time>
      </trkpt>
      <trkpt lat="47.06757" lon="5.63239">
        <ele>254</ele>
        <time>2012-09-14T12:37:37Z</time>
      </trkpt>
      <trkpt lat="47.06771" lon="5.63234">
        <ele>254</ele>
        <time>2012-09-14T12:37:39Z</time>
      </trkpt>
      <trkpt lat="47.06784" lon="5.63228">
        <ele>254</ele>
        <time>2012-09-14T12:37:41Z</time>
      </trkpt>
      <trkpt lat="47.06797" lon="5.63222">
        <ele>254</ele>
        <time>2012-09-14T12:37:43Z</time>
      </trkpt>
      <trkpt lat="47.0681" lon="5.63214">
        <ele>254</ele>
        <time>2012-09-14T12:37:45Z</time>
      </trkpt>
      <trkpt lat="47.06824" lon="5.63207">
        <ele>254</ele>
        <time>2012-09-14T12:37:47Z</time>
      </trkpt>
      <trkpt lat="47.06838" lon="5.63199">
        <ele>254</ele>
        <time>2012-09-14T12:37:49Z</time>
      </trkpt>
      <trkpt lat="47.06852" lon="5.63193">
        <ele>254</ele>
        <time>2012-09-14T12:37:51Z</time>
      </trkpt>
      <trkpt lat="47.06865" lon="5.63187">
        <ele>249</ele>
        <time>2012-09-14T12:37:53Z</time>
      </trkpt>
      <trkpt lat="47.06879" lon="5.6318">
        <ele>249</ele>
        <time>2012-09-14T12:37:55Z</time>
      </trkpt>
      <trkpt lat="47.06891" lon="5.63171">
        <ele>249</ele>
        <time>2012-09-14T12:37:57Z</time>
      </trkpt>
      <trkpt lat="47.06904" lon="5.63163">
        <ele>249</ele>
        <time>2012-09-14T12:37:59Z</time>
      </trkpt>
      <trkpt lat="47.06915" lon="5.63154">
        <ele>249</ele>
        <time>2012-09-14T12:38:01Z</time>
      </trkpt>
      <trkpt lat="47.06927" lon="5.63147">
        <ele>255</ele>
        <time>2012-09-14T12:38:03Z</time>
      </trkpt>
      <trkpt lat="47.0694" lon="5.63141">
        <ele>255</ele>
        <time>2012-09-14T12:38:05Z</time>
      </trkpt>
      <trkpt lat="47.06953" lon="5.63137">
        <ele>255</ele>
        <time>2012-09-14T12:38:07Z</time>
      </trkpt>
      <trkpt lat="47.06965" lon="5.63131">
        <ele>255</ele>
        <time>2012-09-14T12:38:09Z</time>
      </trkpt>
      <trkpt lat="47.06978" lon="5.63126">
        <ele>255</ele>
        <time>2012-09-14T12:38:11Z</time>
      </trkpt>
      <trkpt lat="47.06991" lon="5.63121">
        <ele>255</ele>
        <time>2012-09-14T12:38:13Z</time>
      </trkpt>
      <trkpt lat="47.07003" lon="5.63115">
        <ele>255</ele>
        <time>2012-09-14T12:38:15Z</time>
      </trkpt>
      <trkpt lat="47.07015" lon="5.63109">
        <ele>260</ele>
        <time>2012-09-14T12:38:17Z</time>
      </trkpt>
      <trkpt lat="47.07026" lon="5.63103">
        <ele>260</ele>
        <time>2012-09-14T12:38:19Z</time>
      </trkpt>
      <trkpt lat="47.07038" lon="5.63096">
        <ele>260</ele>
        <time>2012-09-14T12:38:21Z</time>
      </trkpt>
      <trkpt lat="47.07049" lon="5.63087">
        <ele>260</ele>
        <time>2012-09-14T12:38:23Z</time>
      </trkpt>
      <trkpt lat="47.07062" lon="5.63079">
        <ele>260</ele>
        <time>2012-09-14T12:38:25Z</time>
      </trkpt>
      <trkpt lat="47.07074" lon="5.63073">
        <ele>260</ele>
        <time>2012-09-14T12:38:27Z</time>
      </trkpt>
      <trkpt lat="47.07086" lon="5.63068">
        <ele>260</ele>
        <time>2012-09-14T12:38:29Z</time>
      </trkpt>
      <trkpt lat="47.07097" lon="5.6306">
        <ele>260</ele>
        <time>2012-09-14T12:38:31Z</time>
      </trkpt>
      <trkpt lat="47.07109" lon="5.63053">
        <ele>260</ele>
        <time>2012-09-14T12:38:33Z</time>
      </trkpt>
      <trkpt lat="47.0712" lon="5.63053">
        <ele>260</ele>
        <time>2012-09-14T12:38:35Z</time>
      </trkpt>
      <trkpt lat="47.07128" lon="5.6306">
        <ele>260</ele>
        <time>2012-09-14T12:38:37Z</time>
      </trkpt>
      <trkpt lat="47.07134" lon="5.63074">
        <ele>260</ele>
        <time>2012-09-14T12:38:39Z</time>
      </trkpt>
      <trkpt lat="47.07139" lon="5.63087">
        <ele>254</ele>
        <time>2012-09-14T12:38:41Z</time>
      </trkpt>
      <trkpt lat="47.07142" lon="5.63102">
        <ele>254</ele>
        <time>2012-09-14T12:38:43Z</time>
      </trkpt>
      <trkpt lat="47.07146" lon="5.63116">
        <ele>254</ele>
        <time>2012-09-14T12:38:45Z</time>
      </trkpt>
      <trkpt lat="47.0715" lon="5.63129">
        <ele>254</ele>
        <time>2012-09-14T12:38:47Z</time>
      </trkpt>
      <trkpt lat="47.07153" lon="5.63146">
        <ele>254</ele>
        <time>2012-09-14T12:38:50Z</time>
      </trkpt>
      <trkpt lat="47.07157" lon="5.6316">
        <ele>254</ele>
        <time>2012-09-14T12:38:52Z</time>
      </trkpt>
      <trkpt lat="47.07161" lon="5.63175">
        <ele>254</ele>
        <time>2012-09-14T12:38:54Z</time>
      </trkpt>
      <trkpt lat="47.07166" lon="5.6319">
        <ele>254</ele>
        <time>2012-09-14T12:38:56Z</time>
      </trkpt>
      <trkpt lat="47.07171" lon="5.63204">
        <ele>254</ele>
        <time>2012-09-14T12:38:58Z</time>
      </trkpt>
      <trkpt lat="47.07175" lon="5.63219">
        <ele>254</ele>
        <time>2012-09-14T12:39:00Z</time>
      </trkpt>
      <trkpt lat="47.07179" lon="5.63234">
        <ele>249</ele>
        <time>2012-09-14T12:39:02Z</time>
      </trkpt>
      <trkpt lat="47.07185" lon="5.63248">
        <ele>249</ele>
        <time>2012-09-14T12:39:04Z</time>
      </trkpt>
      <trkpt lat="47.0719" lon="5.63264">
        <ele>249</ele>
        <time>2012-09-14T12:39:06Z</time>
      </trkpt>
      <trkpt lat="47.07192" lon="5.63281">
        <ele>249</ele>
        <time>2012-09-14T12:39:08Z</time>
      </trkpt>
      <trkpt lat="47.07193" lon="5.63299">
        <ele>249</ele>
        <time>2012-09-14T12:39:10Z</time>
      </trkpt>
      <trkpt lat="47.07197" lon="5.63314">
        <ele>249</ele>
        <time>2012-09-14T12:39:12Z</time>
      </trkpt>
      <trkpt lat="47.07201" lon="5.6333">
        <ele>249</ele>
        <time>2012-09-14T12:39:14Z</time>
      </trkpt>
      <trkpt lat="47.07202" lon="5.63346">
        <ele>249</ele>
        <time>2012-09-14T12:39:16Z</time>
      </trkpt>
      <trkpt lat="47.07205" lon="5.63363">
        <ele>249</ele>
        <time>2012-09-14T12:39:18Z</time>
      </trkpt>
      <trkpt lat="47.07209" lon="5.63379">
        <ele>249</ele>
        <time>2012-09-14T12:39:20Z</time>
      </trkpt>
      <trkpt lat="47.07213" lon="5.63396">
        <ele>249</ele>
        <time>2012-09-14T12:39:22Z</time>
      </trkpt>
      <trkpt lat="47.07217" lon="5.63414">
        <ele>249</ele>
        <time>2012-09-14T12:39:24Z</time>
      </trkpt>
      <trkpt lat="47.07221" lon="5.63431">
        <ele>249</ele>
        <time>2012-09-14T12:39:26Z</time>
      </trkpt>
      <trkpt lat="47.07225" lon="5.6345">
        <ele>249</ele>
        <time>2012-09-14T12:39:28Z</time>
      </trkpt>
      <trkpt lat="47.07228" lon="5.6347">
        <ele>249</ele>
        <time>2012-09-14T12:39:30Z</time>
      </trkpt>
      <trkpt lat="47.07232" lon="5.6349">
        <ele>249</ele>
        <time>2012-09-14T12:39:32Z</time>
      </trkpt>
      <trkpt lat="47.07236" lon="5.63511">
        <ele>249</ele>
        <time>2012-09-14T12:39:34Z</time>
      </trkpt>
      <trkpt lat="47.0724" lon="5.63532">
        <ele>249</ele>
        <time>2012-09-14T12:39:36Z</time>
      </trkpt>
      <trkpt lat="47.07244" lon="5.63555">
        <ele>249</ele>
        <time>2012-09-14T12:39:38Z</time>
      </trkpt>
      <trkpt lat="47.07248" lon="5.63577">
        <ele>249</ele>
        <time>2012-09-14T12:39:40Z</time>
      </trkpt>
      <trkpt lat="47.07252" lon="5.63599">
        <ele>249</ele>
        <time>2012-09-14T12:39:42Z</time>
      </trkpt>
      <trkpt lat="47.07256" lon="5.63618">
        <ele>249</ele>
        <time>2012-09-14T12:39:44Z</time>
      </trkpt>
      <trkpt lat="47.07261" lon="5.63638">
        <ele>249</ele>
        <time>2012-09-14T12:39:46Z</time>
      </trkpt>
      <trkpt lat="47.07266" lon="5.63657">
        <ele>249</ele>
        <time>2012-09-14T12:39:48Z</time>
      </trkpt>
      <trkpt lat="47.07271" lon="5.63676">
        <ele>249</ele>
        <time>2012-09-14T12:39:50Z</time>
      </trkpt>
      <trkpt lat="47.07275" lon="5.63694">
        <ele>249</ele>
        <time>2012-09-14T12:39:52Z</time>
      </trkpt>
      <trkpt lat="47.07279" lon="5.63713">
        <ele>249</ele>
        <time>2012-09-14T12:39:54Z</time>
      </trkpt>
      <trkpt lat="47.07284" lon="5.6373">
        <ele>249</ele>
        <time>2012-09-14T12:39:56Z</time>
      </trkpt>
      <trkpt lat="47.07287" lon="5.63748">
        <ele>249</ele>
        <time>2012-09-14T12:39:58Z</time>
      </trkpt>
      <trkpt lat="47.07291" lon="5.63766">
        <ele>249</ele>
        <time>2012-09-14T12:40:00Z</time>
      </trkpt>
      <trkpt lat="47.07293" lon="5.63784">
        <ele>249</ele>
        <time>2012-09-14T12:40:02Z</time>
      </trkpt>
      <trkpt lat="47.07298" lon="5.63802">
        <ele>249</ele>
        <time>2012-09-14T12:40:04Z</time>
      </trkpt>
      <trkpt lat="47.07303" lon="5.63819">
        <ele>249</ele>
        <time>2012-09-14T12:40:06Z</time>
      </trkpt>
      <trkpt lat="47.07308" lon="5.63837">
        <ele>249</ele>
        <time>2012-09-14T12:40:08Z</time>
      </trkpt>
      <trkpt lat="47.07313" lon="5.63854">
        <ele>249</ele>
        <time>2012-09-14T12:40:10Z</time>
      </trkpt>
      <trkpt lat="47.07315" lon="5.63871">
        <ele>249</ele>
        <time>2012-09-14T12:40:12Z</time>
      </trkpt>
      <trkpt lat="47.07317" lon="5.63889">
        <ele>249</ele>
        <time>2012-09-14T12:40:14Z</time>
      </trkpt>
      <trkpt lat="47.07323" lon="5.63907">
        <ele>249</ele>
        <time>2012-09-14T12:40:16Z</time>
      </trkpt>
      <trkpt lat="47.0733" lon="5.63925">
        <ele>249</ele>
        <time>2012-09-14T12:40:18Z</time>
      </trkpt>
      <trkpt lat="47.07334" lon="5.63944">
        <ele>249</ele>
        <time>2012-09-14T12:40:20Z</time>
      </trkpt>
      <trkpt lat="47.07338" lon="5.63963">
        <ele>249</ele>
        <time>2012-09-14T12:40:22Z</time>
      </trkpt>
      <trkpt lat="47.07344" lon="5.63982">
        <ele>249</ele>
        <time>2012-09-14T12:40:24Z</time>
      </trkpt>
      <trkpt lat="47.07347" lon="5.64001">
        <ele>249</ele>
        <time>2012-09-14T12:40:26Z</time>
      </trkpt>
      <trkpt lat="47.07351" lon="5.64022">
        <ele>249</ele>
        <time>2012-09-14T12:40:28Z</time>
      </trkpt>
      <trkpt lat="47.07354" lon="5.64042">
        <ele>249</ele>
        <time>2012-09-14T12:40:30Z</time>
      </trkpt>
      <trkpt lat="47.07358" lon="5.64063">
        <ele>249</ele>
        <time>2012-09-14T12:40:32Z</time>
      </trkpt>
      <trkpt lat="47.07362" lon="5.64084">
        <ele>249</ele>
        <time>2012-09-14T12:40:34Z</time>
      </trkpt>
      <trkpt lat="47.07366" lon="5.64106">
        <ele>244</ele>
        <time>2012-09-14T12:40:36Z</time>
      </trkpt>
      <trkpt lat="47.07369" lon="5.64128">
        <ele>244</ele>
        <time>2012-09-14T12:40:38Z</time>
      </trkpt>
      <trkpt lat="47.07375" lon="5.6415">
        <ele>244</ele>
        <time>2012-09-14T12:40:40Z</time>
      </trkpt>
      <trkpt lat="47.07379" lon="5.64173">
        <ele>244</ele>
        <time>2012-09-14T12:40:42Z</time>
      </trkpt>
      <trkpt lat="47.07384" lon="5.64196">
        <ele>244</ele>
        <time>2012-09-14T12:40:44Z</time>
      </trkpt>
      <trkpt lat="47.0739" lon="5.64218">
        <ele>244</ele>
        <time>2012-09-14T12:40:46Z</time>
      </trkpt>
      <trkpt lat="47.07395" lon="5.6423">
        <ele>244</ele>
        <time>2012-09-14T12:40:47Z</time>
      </trkpt>
      <trkpt lat="47.07403" lon="5.64253">
        <ele>244</ele>
        <time>2012-09-14T12:40:49Z</time>
      </trkpt>
      <trkpt lat="47.0741" lon="5.64277">
        <ele>244</ele>
        <time>2012-09-14T12:40:51Z</time>
      </trkpt>
      <trkpt lat="47.07412" lon="5.64289">
        <ele>244</ele>
        <time>2012-09-14T12:40:52Z</time>
      </trkpt>
      <trkpt lat="47.07415" lon="5.64302">
        <ele>238</ele>
        <time>2012-09-14T12:40:53Z</time>
      </trkpt>
      <trkpt lat="47.07416" lon="5.64315">
        <ele>238</ele>
        <time>2012-09-14T12:40:54Z</time>
      </trkpt>
      <trkpt lat="47.0742" lon="5.64341">
        <ele>238</ele>
        <time>2012-09-14T12:40:56Z</time>
      </trkpt>
      <trkpt lat="47.07423" lon="5.64353">
        <ele>238</ele>
        <time>2012-09-14T12:40:57Z</time>
      </trkpt>
      <trkpt lat="47.07427" lon="5.64366">
        <ele>238</ele>
        <time>2012-09-14T12:40:58Z</time>
      </trkpt>
      <trkpt lat="47.07431" lon="5.64378">
        <ele>238</ele>
        <time>2012-09-14T12:40:59Z</time>
      </trkpt>
      <trkpt lat="47.07437" lon="5.64402">
        <ele>238</ele>
        <time>2012-09-14T12:41:01Z</time>
      </trkpt>
      <trkpt lat="47.07442" lon="5.64423">
        <ele>238</ele>
        <time>2012-09-14T12:41:03Z</time>
      </trkpt>
      <trkpt lat="47.07445" lon="5.64443">
        <ele>238</ele>
        <time>2012-09-14T12:41:05Z</time>
      </trkpt>
      <trkpt lat="47.07451" lon="5.6446">
        <ele>238</ele>
        <time>2012-09-14T12:41:07Z</time>
      </trkpt>
      <trkpt lat="47.07453" lon="5.64476">
        <ele>238</ele>
        <time>2012-09-14T12:41:09Z</time>
      </trkpt>
      <trkpt lat="47.07455" lon="5.64491">
        <ele>238</ele>
        <time>2012-09-14T12:41:11Z</time>
      </trkpt>
      <trkpt lat="47.07457" lon="5.64507">
        <ele>238</ele>
        <time>2012-09-14T12:41:13Z</time>
      </trkpt>
      <trkpt lat="47.07461" lon="5.6452">
        <ele>238</ele>
        <time>2012-09-14T12:41:15Z</time>
      </trkpt>
      <trkpt lat="47.07463" lon="5.64535">
        <ele>238</ele>
        <time>2012-09-14T12:41:17Z</time>
      </trkpt>
      <trkpt lat="47.07467" lon="5.64549">
        <ele>238</ele>
        <time>2012-09-14T12:41:19Z</time>
      </trkpt>
      <trkpt lat="47.07471" lon="5.64564">
        <ele>238</ele>
        <time>2012-09-14T12:41:21Z</time>
      </trkpt>
      <trkpt lat="47.07475" lon="5.6458">
        <ele>238</ele>
        <time>2012-09-14T12:41:23Z</time>
      </trkpt>
      <trkpt lat="47.0748" lon="5.64597">
        <ele>238</ele>
        <time>2012-09-14T12:41:25Z</time>
      </trkpt>
      <trkpt lat="47.07484" lon="5.64613">
        <ele>238</ele>
        <time>2012-09-14T12:41:27Z</time>
      </trkpt>
      <trkpt lat="47.07488" lon="5.64629">
        <ele>238</ele>
        <time>2012-09-14T12:41:29Z</time>
      </trkpt>
      <trkpt lat="47.07493" lon="5.64646">
        <ele>238</ele>
        <time>2012-09-14T12:41:31Z</time>
      </trkpt>
      <trkpt lat="47.07496" lon="5.64662">
        <ele>238</ele>
        <time>2012-09-14T12:41:33Z</time>
      </trkpt>
      <trkpt lat="47.07498" lon="5.64679">
        <ele>238</ele>
        <time>2012-09-14T12:41:35Z</time>
      </trkpt>
      <trkpt lat="47.07501" lon="5.64695">
        <ele>238</ele>
        <time>2012-09-14T12:41:37Z</time>
      </trkpt>
      <trkpt lat="47.07504" lon="5.64712">
        <ele>238</ele>
        <time>2012-09-14T12:41:39Z</time>
      </trkpt>
      <trkpt lat="47.07508" lon="5.64727">
        <ele>238</ele>
        <time>2012-09-14T12:41:41Z</time>
      </trkpt>
      <trkpt lat="47.0751" lon="5.64744">
        <ele>238</ele>
        <time>2012-09-14T12:41:43Z</time>
      </trkpt>
      <trkpt lat="47.07515" lon="5.6476">
        <ele>238</ele>
        <time>2012-09-14T12:41:45Z</time>
      </trkpt>
      <trkpt lat="47.07519" lon="5.64777">
        <ele>243</ele>
        <time>2012-09-14T12:41:47Z</time>
      </trkpt>
      <trkpt lat="47.07522" lon="5.64794">
        <ele>243</ele>
        <time>2012-09-14T12:41:49Z</time>
      </trkpt>
      <trkpt lat="47.07527" lon="5.6481">
        <ele>243</ele>
        <time>2012-09-14T12:41:51Z</time>
      </trkpt>
      <trkpt lat="47.0753" lon="5.64827">
        <ele>243</ele>
        <time>2012-09-14T12:41:53Z</time>
      </trkpt>
      <trkpt lat="47.07534" lon="5.64846">
        <ele>243</ele>
        <time>2012-09-14T12:41:55Z</time>
      </trkpt>
      <trkpt lat="47.07538" lon="5.64864">
        <ele>243</ele>
        <time>2012-09-14T12:41:57Z</time>
      </trkpt>
      <trkpt lat="47.07541" lon="5.64884">
        <ele>243</ele>
        <time>2012-09-14T12:41:59Z</time>
      </trkpt>
      <trkpt lat="47.07548" lon="5.64903">
        <ele>243</ele>
        <time>2012-09-14T12:42:01Z</time>
      </trkpt>
      <trkpt lat="47.07553" lon="5.64923">
        <ele>243</ele>
        <time>2012-09-14T12:42:03Z</time>
      </trkpt>
      <trkpt lat="47.0756" lon="5.64942">
        <ele>243</ele>
        <time>2012-09-14T12:42:05Z</time>
      </trkpt>
      <trkpt lat="47.07564" lon="5.64964">
        <ele>243</ele>
        <time>2012-09-14T12:42:07Z</time>
      </trkpt>
      <trkpt lat="47.07571" lon="5.64984">
        <ele>243</ele>
        <time>2012-09-14T12:42:09Z</time>
      </trkpt>
      <trkpt lat="47.07577" lon="5.65003">
        <ele>243</ele>
        <time>2012-09-14T12:42:11Z</time>
      </trkpt>
      <trkpt lat="47.07582" lon="5.65023">
        <ele>243</ele>
        <time>2012-09-14T12:42:13Z</time>
      </trkpt>
      <trkpt lat="47.07583" lon="5.65046">
        <ele>243</ele>
        <time>2012-09-14T12:42:15Z</time>
      </trkpt>
      <trkpt lat="47.07585" lon="5.65066">
        <ele>243</ele>
        <time>2012-09-14T12:42:17Z</time>
      </trkpt>
      <trkpt lat="47.07588" lon="5.65087">
        <ele>243</ele>
        <time>2012-09-14T12:42:19Z</time>
      </trkpt>
      <trkpt lat="47.07593" lon="5.65109">
        <ele>243</ele>
        <time>2012-09-14T12:42:21Z</time>
      </trkpt>
      <trkpt lat="47.076" lon="5.65132">
        <ele>243</ele>
        <time>2012-09-14T12:42:23Z</time>
      </trkpt>
      <trkpt lat="47.07606" lon="5.65155">
        <ele>243</ele>
        <time>2012-09-14T12:42:25Z</time>
      </trkpt>
      <trkpt lat="47.0761" lon="5.6518">
        <ele>243</ele>
        <time>2012-09-14T12:42:27Z</time>
      </trkpt>
      <trkpt lat="47.07614" lon="5.65203">
        <ele>243</ele>
        <time>2012-09-14T12:42:29Z</time>
      </trkpt>
      <trkpt lat="47.07618" lon="5.65226">
        <ele>243</ele>
        <time>2012-09-14T12:42:31Z</time>
      </trkpt>
      <trkpt lat="47.07622" lon="5.65249">
        <ele>243</ele>
        <time>2012-09-14T12:42:33Z</time>
      </trkpt>
      <trkpt lat="47.07625" lon="5.65269">
        <ele>243</ele>
        <time>2012-09-14T12:42:35Z</time>
      </trkpt>
      <trkpt lat="47.0763" lon="5.65287">
        <ele>243</ele>
        <time>2012-09-14T12:42:37Z</time>
      </trkpt>
      <trkpt lat="47.07633" lon="5.65304">
        <ele>243</ele>
        <time>2012-09-14T12:42:39Z</time>
      </trkpt>
      <trkpt lat="47.07637" lon="5.65322">
        <ele>243</ele>
        <time>2012-09-14T12:42:41Z</time>
      </trkpt>
      <trkpt lat="47.07641" lon="5.65339">
        <ele>243</ele>
        <time>2012-09-14T12:42:43Z</time>
      </trkpt>
      <trkpt lat="47.07643" lon="5.65356">
        <ele>243</ele>
        <time>2012-09-14T12:42:45Z</time>
      </trkpt>
      <trkpt lat="47.07647" lon="5.65374">
        <ele>243</ele>
        <time>2012-09-14T12:42:47Z</time>
      </trkpt>
      <trkpt lat="47.0765" lon="5.6539">
        <ele>243</ele>
        <time>2012-09-14T12:42:49Z</time>
      </trkpt>
      <trkpt lat="47.07654" lon="5.65407">
        <ele>243</ele>
        <time>2012-09-14T12:42:51Z</time>
      </trkpt>
      <trkpt lat="47.07659" lon="5.65422">
        <ele>243</ele>
        <time>2012-09-14T12:42:53Z</time>
      </trkpt>
      <trkpt lat="47.07663" lon="5.65437">
        <ele>243</ele>
        <time>2012-09-14T12:42:55Z</time>
      </trkpt>
      <trkpt lat="47.07666" lon="5.65453">
        <ele>243</ele>
        <time>2012-09-14T12:42:57Z</time>
      </trkpt>
      <trkpt lat="47.07669" lon="5.65468">
        <ele>243</ele>
        <time>2012-09-14T12:42:59Z</time>
      </trkpt>
      <trkpt lat="47.07673" lon="5.65482">
        <ele>243</ele>
        <time>2012-09-14T12:43:01Z</time>
      </trkpt>
      <trkpt lat="47.07676" lon="5.65498">
        <ele>243</ele>
        <time>2012-09-14T12:43:03Z</time>
      </trkpt>
      <trkpt lat="47.0768" lon="5.65512">
        <ele>243</ele>
        <time>2012-09-14T12:43:05Z</time>
      </trkpt>
      <trkpt lat="47.07683" lon="5.65528">
        <ele>243</ele>
        <time>2012-09-14T12:43:07Z</time>
      </trkpt>
      <trkpt lat="47.07687" lon="5.65543">
        <ele>243</ele>
        <time>2012-09-14T12:43:09Z</time>
      </trkpt>
      <trkpt lat="47.07692" lon="5.65559">
        <ele>243</ele>
        <time>2012-09-14T12:43:11Z</time>
      </trkpt>
      <trkpt lat="47.07696" lon="5.65575">
        <ele>243</ele>
        <time>2012-09-14T12:43:13Z</time>
      </trkpt>
      <trkpt lat="47.077" lon="5.65592">
        <ele>243</ele>
        <time>2012-09-14T12:43:15Z</time>
      </trkpt>
      <trkpt lat="47.07706" lon="5.65608">
        <ele>243</ele>
        <time>2012-09-14T12:43:17Z</time>
      </trkpt>
      <trkpt lat="47.07709" lon="5.65624">
        <ele>249</ele>
        <time>2012-09-14T12:43:19Z</time>
      </trkpt>
      <trkpt lat="47.07712" lon="5.6564">
        <ele>249</ele>
        <time>2012-09-14T12:43:21Z</time>
      </trkpt>
      <trkpt lat="47.07716" lon="5.65658">
        <ele>249</ele>
        <time>2012-09-14T12:43:23Z</time>
      </trkpt>
      <trkpt lat="47.07718" lon="5.65675">
        <ele>249</ele>
        <time>2012-09-14T12:43:25Z</time>
      </trkpt>
      <trkpt lat="47.0772" lon="5.65692">
        <ele>249</ele>
        <time>2012-09-14T12:43:27Z</time>
      </trkpt>
      <trkpt lat="47.07722" lon="5.65709">
        <ele>249</ele>
        <time>2012-09-14T12:43:29Z</time>
      </trkpt>
      <trkpt lat="47.07726" lon="5.65727">
        <ele>249</ele>
        <time>2012-09-14T12:43:31Z</time>
      </trkpt>
      <trkpt lat="47.07729" lon="5.65744">
        <ele>249</ele>
        <time>2012-09-14T12:43:33Z</time>
      </trkpt>
      <trkpt lat="47.07732" lon="5.65761">
        <ele>249</ele>
        <time>2012-09-14T12:43:35Z</time>
      </trkpt>
      <trkpt lat="47.07736" lon="5.65778">
        <ele>249</ele>
        <time>2012-09-14T12:43:37Z</time>
      </trkpt>
      <trkpt lat="47.0774" lon="5.65795">
        <ele>249</ele>
        <time>2012-09-14T12:43:39Z</time>
      </trkpt>
      <trkpt lat="47.07745" lon="5.65811">
        <ele>249</ele>
        <time>2012-09-14T12:43:41Z</time>
      </trkpt>
      <trkpt lat="47.07749" lon="5.65827">
        <ele>249</ele>
        <time>2012-09-14T12:43:43Z</time>
      </trkpt>
      <trkpt lat="47.07753" lon="5.65843">
        <ele>249</ele>
        <time>2012-09-14T12:43:45Z</time>
      </trkpt>
      <trkpt lat="47.07757" lon="5.6586">
        <ele>249</ele>
        <time>2012-09-14T12:43:47Z</time>
      </trkpt>
      <trkpt lat="47.0776" lon="5.65877">
        <ele>249</ele>
        <time>2012-09-14T12:43:49Z</time>
      </trkpt>
      <trkpt lat="47.07764" lon="5.65893">
        <ele>249</ele>
        <time>2012-09-14T12:43:51Z</time>
      </trkpt>
      <trkpt lat="47.07768" lon="5.6591">
        <ele>249</ele>
        <time>2012-09-14T12:43:53Z</time>
      </trkpt>
      <trkpt lat="47.07771" lon="5.65926">
        <ele>249</ele>
        <time>2012-09-14T12:43:55Z</time>
      </trkpt>
      <trkpt lat="47.07775" lon="5.65942">
        <ele>249</ele>
        <time>2012-09-14T12:43:57Z</time>
      </trkpt>
      <trkpt lat="47.07779" lon="5.65959">
        <ele>249</ele>
        <time>2012-09-14T12:43:59Z</time>
      </trkpt>
      <trkpt lat="47.07783" lon="5.65976">
        <ele>249</ele>
        <time>2012-09-14T12:44:01Z</time>
      </trkpt>
      <trkpt lat="47.07787" lon="5.65993">
        <ele>249</ele>
        <time>2012-09-14T12:44:03Z</time>
      </trkpt>
      <trkpt lat="47.0779" lon="5.6601">
        <ele>249</ele>
        <time>2012-09-14T12:44:05Z</time>
      </trkpt>
      <trkpt lat="47.07795" lon="5.66027">
        <ele>249</ele>
        <time>2012-09-14T12:44:07Z</time>
      </trkpt>
      <trkpt lat="47.07798" lon="5.66045">
        <ele>249</ele>
        <time>2012-09-14T12:44:09Z</time>
      </trkpt>
      <trkpt lat="47.07803" lon="5.66063">
        <ele>249</ele>
        <time>2012-09-14T12:44:11Z</time>
      </trkpt>
      <trkpt lat="47.07806" lon="5.66081">
        <ele>249</ele>
        <time>2012-09-14T12:44:13Z</time>
      </trkpt>
      <trkpt lat="47.07811" lon="5.66099">
        <ele>249</ele>
        <time>2012-09-14T12:44:15Z</time>
      </trkpt>
      <trkpt lat="47.07815" lon="5.66117">
        <ele>249</ele>
        <time>2012-09-14T12:44:17Z</time>
      </trkpt>
      <trkpt lat="47.07819" lon="5.66136">
        <ele>249</ele>
        <time>2012-09-14T12:44:19Z</time>
      </trkpt>
      <trkpt lat="47.07823" lon="5.66156">
        <ele>249</ele>
        <time>2012-09-14T12:44:21Z</time>
      </trkpt>
      <trkpt lat="47.07828" lon="5.66176">
        <ele>249</ele>
        <time>2012-09-14T12:44:23Z</time>
      </trkpt>
      <trkpt lat="47.07832" lon="5.66196">
        <ele>249</ele>
        <time>2012-09-14T12:44:25Z</time>
      </trkpt>
      <trkpt lat="47.07836" lon="5.66215">
        <ele>249</ele>
        <time>2012-09-14T12:44:27Z</time>
      </trkpt>
      <trkpt lat="47.07841" lon="5.66235">
        <ele>249</ele>
        <time>2012-09-14T12:44:29Z</time>
      </trkpt>
      <trkpt lat="47.07845" lon="5.66256">
        <ele>249</ele>
        <time>2012-09-14T12:44:31Z</time>
      </trkpt>
      <trkpt lat="47.0785" lon="5.66276">
        <ele>249</ele>
        <time>2012-09-14T12:44:33Z</time>
      </trkpt>
      <trkpt lat="47.07855" lon="5.66297">
        <ele>249</ele>
        <time>2012-09-14T12:44:35Z</time>
      </trkpt>
      <trkpt lat="47.0786" lon="5.66319">
        <ele>249</ele>
        <time>2012-09-14T12:44:37Z</time>
      </trkpt>
      <trkpt lat="47.07865" lon="5.66339">
        <ele>249</ele>
        <time>2012-09-14T12:44:39Z</time>
      </trkpt>
      <trkpt lat="47.0787" lon="5.66359">
        <ele>249</ele>
        <time>2012-09-14T12:44:41Z</time>
      </trkpt>
      <trkpt lat="47.07874" lon="5.6638">
        <ele>249</ele>
        <time>2012-09-14T12:44:43Z</time>
      </trkpt>
      <trkpt lat="47.07879" lon="5.664">
        <ele>249</ele>
        <time>2012-09-14T12:44:45Z</time>
      </trkpt>
      <trkpt lat="47.07884" lon="5.66419">
        <ele>249</ele>
        <time>2012-09-14T12:44:47Z</time>
      </trkpt>
      <trkpt lat="47.07889" lon="5.66439">
        <ele>249</ele>
        <time>2012-09-14T12:44:49Z</time>
      </trkpt>
      <trkpt lat="47.07893" lon="5.66459">
        <ele>249</ele>
        <time>2012-09-14T12:44:51Z</time>
      </trkpt>
      <trkpt lat="47.07898" lon="5.66479">
        <ele>249</ele>
        <time>2012-09-14T12:44:53Z</time>
      </trkpt>
      <trkpt lat="47.07902" lon="5.66498">
        <ele>249</ele>
        <time>2012-09-14T12:44:55Z</time>
      </trkpt>
      <trkpt lat="47.07907" lon="5.66517">
        <ele>249</ele>
        <time>2012-09-14T12:44:57Z</time>
      </trkpt>
      <trkpt lat="47.07911" lon="5.66536">
        <ele>249</ele>
        <time>2012-09-14T12:44:59Z</time>
      </trkpt>
      <trkpt lat="47.07915" lon="5.66554">
        <ele>249</ele>
        <time>2012-09-14T12:45:01Z</time>
      </trkpt>
      <trkpt lat="47.07919" lon="5.66572">
        <ele>249</ele>
        <time>2012-09-14T12:45:03Z</time>
      </trkpt>
      <trkpt lat="47.07923" lon="5.6659">
        <ele>249</ele>
        <time>2012-09-14T12:45:05Z</time>
      </trkpt>
      <trkpt lat="47.07928" lon="5.66608">
        <ele>249</ele>
        <time>2012-09-14T12:45:07Z</time>
      </trkpt>
      <trkpt lat="47.07932" lon="5.66626">
        <ele>249</ele>
        <time>2012-09-14T12:45:09Z</time>
      </trkpt>
      <trkpt lat="47.07936" lon="5.66644">
        <ele>249</ele>
        <time>2012-09-14T12:45:11Z</time>
      </trkpt>
      <trkpt lat="47.0794" lon="5.66663">
        <ele>249</ele>
        <time>2012-09-14T12:45:13Z</time>
      </trkpt>
      <trkpt lat="47.07944" lon="5.66682">
        <ele>249</ele>
        <time>2012-09-14T12:45:15Z</time>
      </trkpt>
      <trkpt lat="47.07948" lon="5.66701">
        <ele>249</ele>
        <time>2012-09-14T12:45:17Z</time>
      </trkpt>
      <trkpt lat="47.07952" lon="5.66721">
        <ele>249</ele>
        <time>2012-09-14T12:45:19Z</time>
      </trkpt>
      <trkpt lat="47.07957" lon="5.66742">
        <ele>249</ele>
        <time>2012-09-14T12:45:21Z</time>
      </trkpt>
      <trkpt lat="47.07962" lon="5.66762">
        <ele>249</ele>
        <time>2012-09-14T12:45:23Z</time>
      </trkpt>
      <trkpt lat="47.07967" lon="5.66785">
        <ele>249</ele>
        <time>2012-09-14T12:45:25Z</time>
      </trkpt>
      <trkpt lat="47.07973" lon="5.66806">
        <ele>249</ele>
        <time>2012-09-14T12:45:27Z</time>
      </trkpt>
      <trkpt lat="47.07978" lon="5.66829">
        <ele>249</ele>
        <time>2012-09-14T12:45:29Z</time>
      </trkpt>
      <trkpt lat="47.07983" lon="5.6685">
        <ele>249</ele>
        <time>2012-09-14T12:45:31Z</time>
      </trkpt>
      <trkpt lat="47.07988" lon="5.66871">
        <ele>249</ele>
        <time>2012-09-14T12:45:33Z</time>
      </trkpt>
      <trkpt lat="47.07992" lon="5.66894">
        <ele>249</ele>
        <time>2012-09-14T12:45:35Z</time>
      </trkpt>
      <trkpt lat="47.07999" lon="5.66916">
        <ele>249</ele>
        <time>2012-09-14T12:45:37Z</time>
      </trkpt>
      <trkpt lat="47.08004" lon="5.66939">
        <ele>249</ele>
        <time>2012-09-14T12:45:39Z</time>
      </trkpt>
      <trkpt lat="47.08009" lon="5.66964">
        <ele>243</ele>
        <time>2012-09-14T12:45:41Z</time>
      </trkpt>
      <trkpt lat="47.08014" lon="5.66988">
        <ele>243</ele>
        <time>2012-09-14T12:45:43Z</time>
      </trkpt>
      <trkpt lat="47.08018" lon="5.67013">
        <ele>243</ele>
        <time>2012-09-14T12:45:45Z</time>
      </trkpt>
      <trkpt lat="47.08021" lon="5.67036">
        <ele>243</ele>
        <time>2012-09-14T12:45:47Z</time>
      </trkpt>
      <trkpt lat="47.08025" lon="5.67058">
        <ele>243</ele>
        <time>2012-09-14T12:45:49Z</time>
      </trkpt>
      <trkpt lat="47.08028" lon="5.67077">
        <ele>243</ele>
        <time>2012-09-14T12:45:51Z</time>
      </trkpt>
      <trkpt lat="47.08031" lon="5.67095">
        <ele>243</ele>
        <time>2012-09-14T12:45:53Z</time>
      </trkpt>
      <trkpt lat="47.08032" lon="5.67112">
        <ele>243</ele>
        <time>2012-09-14T12:45:55Z</time>
      </trkpt>
      <trkpt lat="47.08036" lon="5.67125">
        <ele>243</ele>
        <time>2012-09-14T12:45:57Z</time>
      </trkpt>
      <trkpt lat="47.08041" lon="5.6714">
        <ele>243</ele>
        <time>2012-09-14T12:45:59Z</time>
      </trkpt>
      <trkpt lat="47.08044" lon="5.67154">
        <ele>243</ele>
        <time>2012-09-14T12:46:01Z</time>
      </trkpt>
      <trkpt lat="47.08048" lon="5.67168">
        <ele>243</ele>
        <time>2012-09-14T12:46:03Z</time>
      </trkpt>
      <trkpt lat="47.08054" lon="5.67183">
        <ele>243</ele>
        <time>2012-09-14T12:46:05Z</time>
      </trkpt>
      <trkpt lat="47.0806" lon="5.67197">
        <ele>243</ele>
        <time>2012-09-14T12:46:07Z</time>
      </trkpt>
      <trkpt lat="47.08063" lon="5.67212">
        <ele>243</ele>
        <time>2012-09-14T12:46:09Z</time>
      </trkpt>
      <trkpt lat="47.08067" lon="5.67228">
        <ele>243</ele>
        <time>2012-09-14T12:46:11Z</time>
      </trkpt>
      <trkpt lat="47.0807" lon="5.67243">
        <ele>243</ele>
        <time>2012-09-14T12:46:13Z</time>
      </trkpt>
      <trkpt lat="47.08075" lon="5.67258">
        <ele>250</ele>
        <time>2012-09-14T12:46:15Z</time>
      </trkpt>
      <trkpt lat="47.08079" lon="5.67274">
        <ele>250</ele>
        <time>2012-09-14T12:46:17Z</time>
      </trkpt>
      <trkpt lat="47.08081" lon="5.67288">
        <ele>250</ele>
        <time>2012-09-14T12:46:19Z</time>
      </trkpt>
      <trkpt lat="47.08084" lon="5.67303">
        <ele>250</ele>
        <time>2012-09-14T12:46:21Z</time>
      </trkpt>
      <trkpt lat="47.08087" lon="5.67319">
        <ele>250</ele>
        <time>2012-09-14T12:46:23Z</time>
      </trkpt>
      <trkpt lat="47.0809" lon="5.67336">
        <ele>250</ele>
        <time>2012-09-14T12:46:25Z</time>
      </trkpt>
      <trkpt lat="47.08094" lon="5.67353">
        <ele>250</ele>
        <time>2012-09-14T12:46:27Z</time>
      </trkpt>
      <trkpt lat="47.08098" lon="5.6737">
        <ele>250</ele>
        <time>2012-09-14T12:46:29Z</time>
      </trkpt>
      <trkpt lat="47.08102" lon="5.67388">
        <ele>250</ele>
        <time>2012-09-14T12:46:31Z</time>
      </trkpt>
      <trkpt lat="47.08105" lon="5.67405">
        <ele>250</ele>
        <time>2012-09-14T12:46:33Z</time>
      </trkpt>
      <trkpt lat="47.08109" lon="5.67422">
        <ele>250</ele>
        <time>2012-09-14T12:46:35Z</time>
      </trkpt>
      <trkpt lat="47.08113" lon="5.6744">
        <ele>250</ele>
        <time>2012-09-14T12:46:37Z</time>
      </trkpt>
      <trkpt lat="47.08116" lon="5.67456">
        <ele>250</ele>
        <time>2012-09-14T12:46:39Z</time>
      </trkpt>
      <trkpt lat="47.08119" lon="5.67472">
        <ele>250</ele>
        <time>2012-09-14T12:46:41Z</time>
      </trkpt>
      <trkpt lat="47.08122" lon="5.67489">
        <ele>250</ele>
        <time>2012-09-14T12:46:43Z</time>
      </trkpt>
      <trkpt lat="47.08125" lon="5.67504">
        <ele>250</ele>
        <time>2012-09-14T12:46:45Z</time>
      </trkpt>
      <trkpt lat="47.08129" lon="5.67521">
        <ele>250</ele>
        <time>2012-09-14T12:46:47Z</time>
      </trkpt>
      <trkpt lat="47.08132" lon="5.67536">
        <ele>250</ele>
        <time>2012-09-14T12:46:49Z</time>
      </trkpt>
      <trkpt lat="47.08135" lon="5.67552">
        <ele>250</ele>
        <time>2012-09-14T12:46:51Z</time>
      </trkpt>
      <trkpt lat="47.08138" lon="5.67567">
        <ele>250</ele>
        <time>2012-09-14T12:46:53Z</time>
      </trkpt>
      <trkpt lat="47.08142" lon="5.67583">
        <ele>250</ele>
        <time>2012-09-14T12:46:55Z</time>
      </trkpt>
      <trkpt lat="47.08146" lon="5.67601">
        <ele>250</ele>
        <time>2012-09-14T12:46:57Z</time>
      </trkpt>
      <trkpt lat="47.0815" lon="5.67617">
        <ele>250</ele>
        <time>2012-09-14T12:46:59Z</time>
      </trkpt>
      <trkpt lat="47.08154" lon="5.67634">
        <ele>250</ele>
        <time>2012-09-14T12:47:01Z</time>
      </trkpt>
      <trkpt lat="47.08158" lon="5.67652">
        <ele>250</ele>
        <time>2012-09-14T12:47:03Z</time>
      </trkpt>
      <trkpt lat="47.08162" lon="5.67669">
        <ele>250</ele>
        <time>2012-09-14T12:47:05Z</time>
      </trkpt>
      <trkpt lat="47.08165" lon="5.67687">
        <ele>250</ele>
        <time>2012-09-14T12:47:07Z</time>
      </trkpt>
      <trkpt lat="47.0817" lon="5.67705">
        <ele>250</ele>
        <time>2012-09-14T12:47:09Z</time>
      </trkpt>
      <trkpt lat="47.08175" lon="5.67723">
        <ele>250</ele>
        <time>2012-09-14T12:47:11Z</time>
      </trkpt>
      <trkpt lat="47.08179" lon="5.67741">
        <ele>250</ele>
        <time>2012-09-14T12:47:13Z</time>
      </trkpt>
      <trkpt lat="47.08183" lon="5.6776">
        <ele>250</ele>
        <time>2012-09-14T12:47:15Z</time>
      </trkpt>
      <trkpt lat="47.08186" lon="5.67778">
        <ele>250</ele>
        <time>2012-09-14T12:47:17Z</time>
      </trkpt>
      <trkpt lat="47.0819" lon="5.67796">
        <ele>250</ele>
        <time>2012-09-14T12:47:19Z</time>
      </trkpt>
      <trkpt lat="47.08194" lon="5.67815">
        <ele>250</ele>
        <time>2012-09-14T12:47:21Z</time>
      </trkpt>
      <trkpt lat="47.08198" lon="5.67833">
        <ele>250</ele>
        <time>2012-09-14T12:47:23Z</time>
      </trkpt>
      <trkpt lat="47.08202" lon="5.67852">
        <ele>250</ele>
        <time>2012-09-14T12:47:25Z</time>
      </trkpt>
      <trkpt lat="47.08206" lon="5.6787">
        <ele>250</ele>
        <time>2012-09-14T12:47:27Z</time>
      </trkpt>
      <trkpt lat="47.0821" lon="5.6789">
        <ele>250</ele>
        <time>2012-09-14T12:47:29Z</time>
      </trkpt>
      <trkpt lat="47.08214" lon="5.67908">
        <ele>250</ele>
        <time>2012-09-14T12:47:31Z</time>
      </trkpt>
      <trkpt lat="47.0822" lon="5.67927">
        <ele>250</ele>
        <time>2012-09-14T12:47:33Z</time>
      </trkpt>
      <trkpt lat="47.08225" lon="5.67946">
        <ele>250</ele>
        <time>2012-09-14T12:47:35Z</time>
      </trkpt>
      <trkpt lat="47.08229" lon="5.67966">
        <ele>250</ele>
        <time>2012-09-14T12:47:37Z</time>
      </trkpt>
      <trkpt lat="47.08233" lon="5.67987">
        <ele>250</ele>
        <time>2012-09-14T12:47:39Z</time>
      </trkpt>
      <trkpt lat="47.08238" lon="5.68007">
        <ele>250</ele>
        <time>2012-09-14T12:47:41Z</time>
      </trkpt>
      <trkpt lat="47.08242" lon="5.68028">
        <ele>250</ele>
        <time>2012-09-14T12:47:43Z</time>
      </trkpt>
      <trkpt lat="47.08246" lon="5.68047">
        <ele>250</ele>
        <time>2012-09-14T12:47:45Z</time>
      </trkpt>
      <trkpt lat="47.08251" lon="5.68065">
        <ele>250</ele>
        <time>2012-09-14T12:47:47Z</time>
      </trkpt>
      <trkpt lat="47.08254" lon="5.68083">
        <ele>250</ele>
        <time>2012-09-14T12:47:49Z</time>
      </trkpt>
      <trkpt lat="47.08258" lon="5.681">
        <ele>250</ele>
        <time>2012-09-14T12:47:51Z</time>
      </trkpt>
      <trkpt lat="47.08262" lon="5.68117">
        <ele>250</ele>
        <time>2012-09-14T12:47:53Z</time>
      </trkpt>
      <trkpt lat="47.08266" lon="5.68134">
        <ele>250</ele>
        <time>2012-09-14T12:47:55Z</time>
      </trkpt>
      <trkpt lat="47.0827" lon="5.68151">
        <ele>250</ele>
        <time>2012-09-14T12:47:57Z</time>
      </trkpt>
      <trkpt lat="47.08274" lon="5.68168">
        <ele>250</ele>
        <time>2012-09-14T12:47:59Z</time>
      </trkpt>
      <trkpt lat="47.08278" lon="5.68186">
        <ele>250</ele>
        <time>2012-09-14T12:48:01Z</time>
      </trkpt>
      <trkpt lat="47.08283" lon="5.68203">
        <ele>250</ele>
        <time>2012-09-14T12:48:03Z</time>
      </trkpt>
      <trkpt lat="47.08286" lon="5.68221">
        <ele>250</ele>
        <time>2012-09-14T12:48:05Z</time>
      </trkpt>
      <trkpt lat="47.0829" lon="5.68239">
        <ele>250</ele>
        <time>2012-09-14T12:48:07Z</time>
      </trkpt>
      <trkpt lat="47.08294" lon="5.68258">
        <ele>250</ele>
        <time>2012-09-14T12:48:09Z</time>
      </trkpt>
      <trkpt lat="47.083" lon="5.68277">
        <ele>250</ele>
        <time>2012-09-14T12:48:11Z</time>
      </trkpt>
      <trkpt lat="47.08304" lon="5.68296">
        <ele>250</ele>
        <time>2012-09-14T12:48:13Z</time>
      </trkpt>
      <trkpt lat="47.08309" lon="5.68316">
        <ele>250</ele>
        <time>2012-09-14T12:48:15Z</time>
      </trkpt>
      <trkpt lat="47.08313" lon="5.68335">
        <ele>250</ele>
        <time>2012-09-14T12:48:17Z</time>
      </trkpt>
      <trkpt lat="47.08317" lon="5.68355">
        <ele>250</ele>
        <time>2012-09-14T12:48:19Z</time>
      </trkpt>
      <trkpt lat="47.08322" lon="5.68375">
        <ele>250</ele>
        <time>2012-09-14T12:48:21Z</time>
      </trkpt>
      <trkpt lat="47.08326" lon="5.68396">
        <ele>250</ele>
        <time>2012-09-14T12:48:23Z</time>
      </trkpt>
      <trkpt lat="47.08331" lon="5.68416">
        <ele>250</ele>
        <time>2012-09-14T12:48:25Z</time>
      </trkpt>
      <trkpt lat="47.08335" lon="5.68439">
        <ele>250</ele>
        <time>2012-09-14T12:48:27Z</time>
      </trkpt>
      <trkpt lat="47.0834" lon="5.6846">
        <ele>250</ele>
        <time>2012-09-14T12:48:29Z</time>
      </trkpt>
      <trkpt lat="47.08344" lon="5.68482">
        <ele>250</ele>
        <time>2012-09-14T12:48:31Z</time>
      </trkpt>
      <trkpt lat="47.08349" lon="5.68504">
        <ele>250</ele>
        <time>2012-09-14T12:48:33Z</time>
      </trkpt>
      <trkpt lat="47.08355" lon="5.68527">
        <ele>250</ele>
        <time>2012-09-14T12:48:35Z</time>
      </trkpt>
      <trkpt lat="47.0836" lon="5.6855">
        <ele>250</ele>
        <time>2012-09-14T12:48:37Z</time>
      </trkpt>
      <trkpt lat="47.08365" lon="5.68574">
        <ele>250</ele>
        <time>2012-09-14T12:48:39Z</time>
      </trkpt>
      <trkpt lat="47.08369" lon="5.68587">
        <ele>250</ele>
        <time>2012-09-14T12:48:40Z</time>
      </trkpt>
      <trkpt lat="47.08374" lon="5.68611">
        <ele>250</ele>
        <time>2012-09-14T12:48:42Z</time>
      </trkpt>
      <trkpt lat="47.08379" lon="5.68635">
        <ele>250</ele>
        <time>2012-09-14T12:48:44Z</time>
      </trkpt>
      <trkpt lat="47.08386" lon="5.68658">
        <ele>250</ele>
        <time>2012-09-14T12:48:46Z</time>
      </trkpt>
      <trkpt lat="47.08391" lon="5.68679">
        <ele>250</ele>
        <time>2012-09-14T12:48:48Z</time>
      </trkpt>
      <trkpt lat="47.08395" lon="5.68701">
        <ele>250</ele>
        <time>2012-09-14T12:48:50Z</time>
      </trkpt>
      <trkpt lat="47.084" lon="5.68722">
        <ele>250</ele>
        <time>2012-09-14T12:48:52Z</time>
      </trkpt>
      <trkpt lat="47.08404" lon="5.68743">
        <ele>250</ele>
        <time>2012-09-14T12:48:54Z</time>
      </trkpt>
      <trkpt lat="47.08408" lon="5.68765">
        <ele>244</ele>
        <time>2012-09-14T12:48:56Z</time>
      </trkpt>
      <trkpt lat="47.08415" lon="5.68788">
        <ele>244</ele>
        <time>2012-09-14T12:48:58Z</time>
      </trkpt>
      <trkpt lat="47.08423" lon="5.68812">
        <ele>244</ele>
        <time>2012-09-14T12:49:00Z</time>
      </trkpt>
      <trkpt lat="47.08427" lon="5.68825">
        <ele>244</ele>
        <time>2012-09-14T12:49:01Z</time>
      </trkpt>
      <trkpt lat="47.08429" lon="5.68838">
        <ele>244</ele>
        <time>2012-09-14T12:49:02Z</time>
      </trkpt>
      <trkpt lat="47.08432" lon="5.68851">
        <ele>244</ele>
        <time>2012-09-14T12:49:03Z</time>
      </trkpt>
      <trkpt lat="47.08435" lon="5.68864">
        <ele>244</ele>
        <time>2012-09-14T12:49:04Z</time>
      </trkpt>
      <trkpt lat="47.08439" lon="5.68888">
        <ele>244</ele>
        <time>2012-09-14T12:49:06Z</time>
      </trkpt>
      <trkpt lat="47.08443" lon="5.68909">
        <ele>244</ele>
        <time>2012-09-14T12:49:08Z</time>
      </trkpt>
      <trkpt lat="47.08449" lon="5.68929">
        <ele>244</ele>
        <time>2012-09-14T12:49:10Z</time>
      </trkpt>
      <trkpt lat="47.08454" lon="5.68948">
        <ele>244</ele>
        <time>2012-09-14T12:49:12Z</time>
      </trkpt>
      <trkpt lat="47.08458" lon="5.68964">
        <ele>244</ele>
        <time>2012-09-14T12:49:14Z</time>
      </trkpt>
      <trkpt lat="47.08465" lon="5.68979">
        <ele>244</ele>
        <time>2012-09-14T12:49:16Z</time>
      </trkpt>
      <trkpt lat="47.08465" lon="5.68997">
        <ele>244</ele>
        <time>2012-09-14T12:49:18Z</time>
      </trkpt>
      <trkpt lat="47.0847" lon="5.69012">
        <ele>244</ele>
        <time>2012-09-14T12:49:20Z</time>
      </trkpt>
      <trkpt lat="47.08473" lon="5.69027">
        <ele>244</ele>
        <time>2012-09-14T12:49:22Z</time>
      </trkpt>
      <trkpt lat="47.08476" lon="5.69042">
        <ele>251</ele>
        <time>2012-09-14T12:49:24Z</time>
      </trkpt>
      <trkpt lat="47.08481" lon="5.69056">
        <ele>251</ele>
        <time>2012-09-14T12:49:26Z</time>
      </trkpt>
      <trkpt lat="47.08484" lon="5.69069">
        <ele>251</ele>
        <time>2012-09-14T12:49:28Z</time>
      </trkpt>
      <trkpt lat="47.08489" lon="5.69084">
        <ele>251</ele>
        <time>2012-09-14T12:49:30Z</time>
      </trkpt>
      <trkpt lat="47.08494" lon="5.69097">
        <ele>251</ele>
        <time>2012-09-14T12:49:32Z</time>
      </trkpt>
      <trkpt lat="47.08495" lon="5.69112">
        <ele>251</ele>
        <time>2012-09-14T12:49:34Z</time>
      </trkpt>
      <trkpt lat="47.08497" lon="5.69127">
        <ele>256</ele>
        <time>2012-09-14T12:49:36Z</time>
      </trkpt>
      <trkpt lat="47.08499" lon="5.69142">
        <ele>256</ele>
        <time>2012-09-14T12:49:38Z</time>
      </trkpt>
      <trkpt lat="47.08506" lon="5.69157">
        <ele>256</ele>
        <time>2012-09-14T12:49:40Z</time>
      </trkpt>
      <trkpt lat="47.08509" lon="5.69173">
        <ele>256</ele>
        <time>2012-09-14T12:49:42Z</time>
      </trkpt>
      <trkpt lat="47.08514" lon="5.69188">
        <ele>256</ele>
        <time>2012-09-14T12:49:44Z</time>
      </trkpt>
      <trkpt lat="47.08519" lon="5.69205">
        <ele>256</ele>
        <time>2012-09-14T12:49:46Z</time>
      </trkpt>
      <trkpt lat="47.08522" lon="5.69221">
        <ele>256</ele>
        <time>2012-09-14T12:49:48Z</time>
      </trkpt>
      <trkpt lat="47.08524" lon="5.69236">
        <ele>256</ele>
        <time>2012-09-14T12:49:50Z</time>
      </trkpt>
      <trkpt lat="47.08527" lon="5.69252">
        <ele>256</ele>
        <time>2012-09-14T12:49:52Z</time>
      </trkpt>
      <trkpt lat="47.0853" lon="5.69267">
        <ele>256</ele>
        <time>2012-09-14T12:49:54Z</time>
      </trkpt>
      <trkpt lat="47.08532" lon="5.69283">
        <ele>256</ele>
        <time>2012-09-14T12:49:56Z</time>
      </trkpt>
      <trkpt lat="47.08535" lon="5.69299">
        <ele>256</ele>
        <time>2012-09-14T12:49:58Z</time>
      </trkpt>
      <trkpt lat="47.08538" lon="5.69315">
        <ele>256</ele>
        <time>2012-09-14T12:50:00Z</time>
      </trkpt>
      <trkpt lat="47.08541" lon="5.69332">
        <ele>256</ele>
        <time>2012-09-14T12:50:02Z</time>
      </trkpt>
      <trkpt lat="47.08546" lon="5.69348">
        <ele>256</ele>
        <time>2012-09-14T12:50:04Z</time>
      </trkpt>
      <trkpt lat="47.08549" lon="5.69364">
        <ele>256</ele>
        <time>2012-09-14T12:50:06Z</time>
      </trkpt>
      <trkpt lat="47.08553" lon="5.69382">
        <ele>256</ele>
        <time>2012-09-14T12:50:08Z</time>
      </trkpt>
      <trkpt lat="47.08557" lon="5.694">
        <ele>256</ele>
        <time>2012-09-14T12:50:10Z</time>
      </trkpt>
      <trkpt lat="47.08562" lon="5.69418">
        <ele>256</ele>
        <time>2012-09-14T12:50:12Z</time>
      </trkpt>
      <trkpt lat="47.08565" lon="5.69436">
        <ele>256</ele>
        <time>2012-09-14T12:50:14Z</time>
      </trkpt>
      <trkpt lat="47.0857" lon="5.69454">
        <ele>256</ele>
        <time>2012-09-14T12:50:16Z</time>
      </trkpt>
      <trkpt lat="47.08574" lon="5.69473">
        <ele>256</ele>
        <time>2012-09-14T12:50:18Z</time>
      </trkpt>
      <trkpt lat="47.08579" lon="5.69491">
        <ele>256</ele>
        <time>2012-09-14T12:50:20Z</time>
      </trkpt>
      <trkpt lat="47.08583" lon="5.69509">
        <ele>256</ele>
        <time>2012-09-14T12:50:22Z</time>
      </trkpt>
      <trkpt lat="47.08587" lon="5.69527">
        <ele>256</ele>
        <time>2012-09-14T12:50:24Z</time>
      </trkpt>
      <trkpt lat="47.08591" lon="5.69545">
        <ele>256</ele>
        <time>2012-09-14T12:50:26Z</time>
      </trkpt>
      <trkpt lat="47.08594" lon="5.69563">
        <ele>256</ele>
        <time>2012-09-14T12:50:28Z</time>
      </trkpt>
      <trkpt lat="47.08597" lon="5.6958">
        <ele>262</ele>
        <time>2012-09-14T12:50:30Z</time>
      </trkpt>
      <trkpt lat="47.086" lon="5.69598">
        <ele>262</ele>
        <time>2012-09-14T12:50:32Z</time>
      </trkpt>
      <trkpt lat="47.08604" lon="5.69615">
        <ele>262</ele>
        <time>2012-09-14T12:50:34Z</time>
      </trkpt>
      <trkpt lat="47.08609" lon="5.69633">
        <ele>262</ele>
        <time>2012-09-14T12:50:36Z</time>
      </trkpt>
      <trkpt lat="47.08613" lon="5.6965">
        <ele>262</ele>
        <time>2012-09-14T12:50:38Z</time>
      </trkpt>
      <trkpt lat="47.08616" lon="5.69668">
        <ele>262</ele>
        <time>2012-09-14T12:50:40Z</time>
      </trkpt>
      <trkpt lat="47.08621" lon="5.69686">
        <ele>262</ele>
        <time>2012-09-14T12:50:42Z</time>
      </trkpt>
      <trkpt lat="47.08624" lon="5.69704">
        <ele>262</ele>
        <time>2012-09-14T12:50:44Z</time>
      </trkpt>
      <trkpt lat="47.08629" lon="5.69721">
        <ele>262</ele>
        <time>2012-09-14T12:50:46Z</time>
      </trkpt>
      <trkpt lat="47.08632" lon="5.6974">
        <ele>262</ele>
        <time>2012-09-14T12:50:48Z</time>
      </trkpt>
      <trkpt lat="47.08637" lon="5.69758">
        <ele>262</ele>
        <time>2012-09-14T12:50:50Z</time>
      </trkpt>
      <trkpt lat="47.08642" lon="5.69776">
        <ele>262</ele>
        <time>2012-09-14T12:50:52Z</time>
      </trkpt>
      <trkpt lat="47.08646" lon="5.69795">
        <ele>262</ele>
        <time>2012-09-14T12:50:54Z</time>
      </trkpt>
      <trkpt lat="47.08651" lon="5.69814">
        <ele>262</ele>
        <time>2012-09-14T12:50:56Z</time>
      </trkpt>
      <trkpt lat="47.08656" lon="5.69833">
        <ele>262</ele>
        <time>2012-09-14T12:50:58Z</time>
      </trkpt>
      <trkpt lat="47.0866" lon="5.69852">
        <ele>262</ele>
        <time>2012-09-14T12:51:00Z</time>
      </trkpt>
      <trkpt lat="47.08666" lon="5.69871">
        <ele>262</ele>
        <time>2012-09-14T12:51:02Z</time>
      </trkpt>
      <trkpt lat="47.0867" lon="5.6989">
        <ele>262</ele>
        <time>2012-09-14T12:51:04Z</time>
      </trkpt>
      <trkpt lat="47.08675" lon="5.6991">
        <ele>262</ele>
        <time>2012-09-14T12:51:06Z</time>
      </trkpt>
      <trkpt lat="47.0868" lon="5.6993">
        <ele>262</ele>
        <time>2012-09-14T12:51:08Z</time>
      </trkpt>
      <trkpt lat="47.0868" lon="5.6995">
        <ele>255</ele>
        <time>2012-09-14T12:51:10Z</time>
      </trkpt>
      <trkpt lat="47.08683" lon="5.6997">
        <ele>255</ele>
        <time>2012-09-14T12:51:12Z</time>
      </trkpt>
      <trkpt lat="47.08688" lon="5.6999">
        <ele>255</ele>
        <time>2012-09-14T12:51:14Z</time>
      </trkpt>
      <trkpt lat="47.08694" lon="5.7001">
        <ele>255</ele>
        <time>2012-09-14T12:51:16Z</time>
      </trkpt>
      <trkpt lat="47.08698" lon="5.70031">
        <ele>255</ele>
        <time>2012-09-14T12:51:18Z</time>
      </trkpt>
      <trkpt lat="47.08703" lon="5.70051">
        <ele>255</ele>
        <time>2012-09-14T12:51:20Z</time>
      </trkpt>
      <trkpt lat="47.08708" lon="5.70072">
        <ele>255</ele>
        <time>2012-09-14T12:51:22Z</time>
      </trkpt>
      <trkpt lat="47.08711" lon="5.70092">
        <ele>255</ele>
        <time>2012-09-14T12:51:24Z</time>
      </trkpt>
      <trkpt lat="47.08717" lon="5.70112">
        <ele>255</ele>
        <time>2012-09-14T12:51:26Z</time>
      </trkpt>
      <trkpt lat="47.08722" lon="5.7013">
        <ele>255</ele>
        <time>2012-09-14T12:51:28Z</time>
      </trkpt>
      <trkpt lat="47.08725" lon="5.70146">
        <ele>255</ele>
        <time>2012-09-14T12:51:30Z</time>
      </trkpt>
      <trkpt lat="47.0873" lon="5.70162">
        <ele>255</ele>
        <time>2012-09-14T12:51:32Z</time>
      </trkpt>
      <trkpt lat="47.08734" lon="5.70179">
        <ele>255</ele>
        <time>2012-09-14T12:51:34Z</time>
      </trkpt>
      <trkpt lat="47.0874" lon="5.70197">
        <ele>255</ele>
        <time>2012-09-14T12:51:36Z</time>
      </trkpt>
      <trkpt lat="47.08744" lon="5.70216">
        <ele>255</ele>
        <time>2012-09-14T12:51:38Z</time>
      </trkpt>
      <trkpt lat="47.08746" lon="5.70234">
        <ele>255</ele>
        <time>2012-09-14T12:51:40Z</time>
      </trkpt>
      <trkpt lat="47.0875" lon="5.70253">
        <ele>255</ele>
        <time>2012-09-14T12:51:42Z</time>
      </trkpt>
      <trkpt lat="47.08754" lon="5.70273">
        <ele>255</ele>
        <time>2012-09-14T12:51:44Z</time>
      </trkpt>
      <trkpt lat="47.08757" lon="5.70292">
        <ele>255</ele>
        <time>2012-09-14T12:51:46Z</time>
      </trkpt>
      <trkpt lat="47.08762" lon="5.70311">
        <ele>255</ele>
        <time>2012-09-14T12:51:48Z</time>
      </trkpt>
      <trkpt lat="47.08767" lon="5.70331">
        <ele>255</ele>
        <time>2012-09-14T12:51:50Z</time>
      </trkpt>
      <trkpt lat="47.0877" lon="5.7035">
        <ele>255</ele>
        <time>2012-09-14T12:51:52Z</time>
      </trkpt>
      <trkpt lat="47.08775" lon="5.70369">
        <ele>255</ele>
        <time>2012-09-14T12:51:54Z</time>
      </trkpt>
      <trkpt lat="47.0878" lon="5.70389">
        <ele>255</ele>
        <time>2012-09-14T12:51:56Z</time>
      </trkpt>
      <trkpt lat="47.08783" lon="5.70409">
        <ele>255</ele>
        <time>2012-09-14T12:51:58Z</time>
      </trkpt>
      <trkpt lat="47.08787" lon="5.70428">
        <ele>255</ele>
        <time>2012-09-14T12:52:00Z</time>
      </trkpt>
      <trkpt lat="47.08792" lon="5.70447">
        <ele>255</ele>
        <time>2012-09-14T12:52:02Z</time>
      </trkpt>
      <trkpt lat="47.08795" lon="5.70465">
        <ele>255</ele>
        <time>2012-09-14T12:52:04Z</time>
      </trkpt>
      <trkpt lat="47.08799" lon="5.70481">
        <ele>255</ele>
        <time>2012-09-14T12:52:06Z</time>
      </trkpt>
      <trkpt lat="47.08802" lon="5.70497">
        <ele>255</ele>
        <time>2012-09-14T12:52:08Z</time>
      </trkpt>
      <trkpt lat="47.08803" lon="5.70513">
        <ele>255</ele>
        <time>2012-09-14T12:52:10Z</time>
      </trkpt>
      <trkpt lat="47.08808" lon="5.7053">
        <ele>255</ele>
        <time>2012-09-14T12:52:12Z</time>
      </trkpt>
      <trkpt lat="47.08813" lon="5.70549">
        <ele>255</ele>
        <time>2012-09-14T12:52:14Z</time>
      </trkpt>
      <trkpt lat="47.08818" lon="5.70567">
        <ele>255</ele>
        <time>2012-09-14T12:52:16Z</time>
      </trkpt>
      <trkpt lat="47.08822" lon="5.70587">
        <ele>255</ele>
        <time>2012-09-14T12:52:18Z</time>
      </trkpt>
      <trkpt lat="47.08827" lon="5.70605">
        <ele>255</ele>
        <time>2012-09-14T12:52:20Z</time>
      </trkpt>
      <trkpt lat="47.08831" lon="5.70623">
        <ele>255</ele>
        <time>2012-09-14T12:52:22Z</time>
      </trkpt>
      <trkpt lat="47.08835" lon="5.70643">
        <ele>255</ele>
        <time>2012-09-14T12:52:24Z</time>
      </trkpt>
      <trkpt lat="47.08838" lon="5.70663">
        <ele>255</ele>
        <time>2012-09-14T12:52:26Z</time>
      </trkpt>
      <trkpt lat="47.08841" lon="5.70682">
        <ele>255</ele>
        <time>2012-09-14T12:52:28Z</time>
      </trkpt>
      <trkpt lat="47.08847" lon="5.707">
        <ele>255</ele>
        <time>2012-09-14T12:52:30Z</time>
      </trkpt>
      <trkpt lat="47.08851" lon="5.70718">
        <ele>255</ele>
        <time>2012-09-14T12:52:32Z</time>
      </trkpt>
      <trkpt lat="47.08854" lon="5.70736">
        <ele>255</ele>
        <time>2012-09-14T12:52:34Z</time>
      </trkpt>
      <trkpt lat="47.08858" lon="5.70755">
        <ele>255</ele>
        <time>2012-09-14T12:52:36Z</time>
      </trkpt>
      <trkpt lat="47.08862" lon="5.70774">
        <ele>255</ele>
        <time>2012-09-14T12:52:38Z</time>
      </trkpt>
      <trkpt lat="47.08867" lon="5.70794">
        <ele>255</ele>
        <time>2012-09-14T12:52:40Z</time>
      </trkpt>
      <trkpt lat="47.08873" lon="5.70814">
        <ele>255</ele>
        <time>2012-09-14T12:52:42Z</time>
      </trkpt>
      <trkpt lat="47.08878" lon="5.70834">
        <ele>255</ele>
        <time>2012-09-14T12:52:44Z</time>
      </trkpt>
      <trkpt lat="47.08883" lon="5.70855">
        <ele>255</ele>
        <time>2012-09-14T12:52:46Z</time>
      </trkpt>
      <trkpt lat="47.08889" lon="5.70875">
        <ele>255</ele>
        <time>2012-09-14T12:52:48Z</time>
      </trkpt>
      <trkpt lat="47.08894" lon="5.70896">
        <ele>255</ele>
        <time>2012-09-14T12:52:50Z</time>
      </trkpt>
      <trkpt lat="47.08898" lon="5.70915">
        <ele>255</ele>
        <time>2012-09-14T12:52:52Z</time>
      </trkpt>
      <trkpt lat="47.08903" lon="5.70935">
        <ele>255</ele>
        <time>2012-09-14T12:52:54Z</time>
      </trkpt>
      <trkpt lat="47.08909" lon="5.70956">
        <ele>255</ele>
        <time>2012-09-14T12:52:56Z</time>
      </trkpt>
      <trkpt lat="47.08914" lon="5.70976">
        <ele>255</ele>
        <time>2012-09-14T12:52:58Z</time>
      </trkpt>
      <trkpt lat="47.0892" lon="5.70997">
        <ele>255</ele>
        <time>2012-09-14T12:53:00Z</time>
      </trkpt>
      <trkpt lat="47.08927" lon="5.71018">
        <ele>255</ele>
        <time>2012-09-14T12:53:02Z</time>
      </trkpt>
      <trkpt lat="47.08929" lon="5.71037">
        <ele>255</ele>
        <time>2012-09-14T12:53:04Z</time>
      </trkpt>
      <trkpt lat="47.08932" lon="5.71056">
        <ele>255</ele>
        <time>2012-09-14T12:53:06Z</time>
      </trkpt>
      <trkpt lat="47.08938" lon="5.71075">
        <ele>250</ele>
        <time>2012-09-14T12:53:08Z</time>
      </trkpt>
      <trkpt lat="47.08942" lon="5.71096">
        <ele>250</ele>
        <time>2012-09-14T12:53:10Z</time>
      </trkpt>
      <trkpt lat="47.08946" lon="5.71117">
        <ele>250</ele>
        <time>2012-09-14T12:53:12Z</time>
      </trkpt>
      <trkpt lat="47.08952" lon="5.71139">
        <ele>250</ele>
        <time>2012-09-14T12:53:14Z</time>
      </trkpt>
      <trkpt lat="47.08956" lon="5.71161">
        <ele>250</ele>
        <time>2012-09-14T12:53:16Z</time>
      </trkpt>
      <trkpt lat="47.08961" lon="5.71182">
        <ele>250</ele>
        <time>2012-09-14T12:53:18Z</time>
      </trkpt>
      <trkpt lat="47.08967" lon="5.71202">
        <ele>250</ele>
        <time>2012-09-14T12:53:20Z</time>
      </trkpt>
      <trkpt lat="47.08972" lon="5.7122">
        <ele>250</ele>
        <time>2012-09-14T12:53:22Z</time>
      </trkpt>
      <trkpt lat="47.08975" lon="5.71238">
        <ele>250</ele>
        <time>2012-09-14T12:53:24Z</time>
      </trkpt>
      <trkpt lat="47.08978" lon="5.71254">
        <ele>250</ele>
        <time>2012-09-14T12:53:26Z</time>
      </trkpt>
      <trkpt lat="47.08981" lon="5.71271">
        <ele>250</ele>
        <time>2012-09-14T12:53:28Z</time>
      </trkpt>
      <trkpt lat="47.08986" lon="5.71287">
        <ele>250</ele>
        <time>2012-09-14T12:53:30Z</time>
      </trkpt>
      <trkpt lat="47.08989" lon="5.71303">
        <ele>250</ele>
        <time>2012-09-14T12:53:32Z</time>
      </trkpt>
      <trkpt lat="47.08993" lon="5.71319">
        <ele>250</ele>
        <time>2012-09-14T12:53:34Z</time>
      </trkpt>
      <trkpt lat="47.08996" lon="5.71335">
        <ele>250</ele>
        <time>2012-09-14T12:53:36Z</time>
      </trkpt>
      <trkpt lat="47.08999" lon="5.7135">
        <ele>250</ele>
        <time>2012-09-14T12:53:38Z</time>
      </trkpt>
      <trkpt lat="47.09003" lon="5.71366">
        <ele>250</ele>
        <time>2012-09-14T12:53:40Z</time>
      </trkpt>
      <trkpt lat="47.09008" lon="5.71382">
        <ele>250</ele>
        <time>2012-09-14T12:53:42Z</time>
      </trkpt>
      <trkpt lat="47.09013" lon="5.71399">
        <ele>250</ele>
        <time>2012-09-14T12:53:44Z</time>
      </trkpt>
      <trkpt lat="47.09016" lon="5.71416">
        <ele>255</ele>
        <time>2012-09-14T12:53:46Z</time>
      </trkpt>
      <trkpt lat="47.09019" lon="5.71434">
        <ele>255</ele>
        <time>2012-09-14T12:53:48Z</time>
      </trkpt>
      <trkpt lat="47.09024" lon="5.7145">
        <ele>255</ele>
        <time>2012-09-14T12:53:50Z</time>
      </trkpt>
      <trkpt lat="47.09027" lon="5.71466">
        <ele>261</ele>
        <time>2012-09-14T12:53:52Z</time>
      </trkpt>
      <trkpt lat="47.09031" lon="5.71481">
        <ele>261</ele>
        <time>2012-09-14T12:53:54Z</time>
      </trkpt>
      <trkpt lat="47.09034" lon="5.71498">
        <ele>261</ele>
        <time>2012-09-14T12:53:56Z</time>
      </trkpt>
      <trkpt lat="47.09038" lon="5.71515">
        <ele>261</ele>
        <time>2012-09-14T12:53:58Z</time>
      </trkpt>
      <trkpt lat="47.09041" lon="5.71531">
        <ele>261</ele>
        <time>2012-09-14T12:54:00Z</time>
      </trkpt>
      <trkpt lat="47.09044" lon="5.71546">
        <ele>261</ele>
        <time>2012-09-14T12:54:02Z</time>
      </trkpt>
      <trkpt lat="47.09047" lon="5.7156">
        <ele>261</ele>
        <time>2012-09-14T12:54:04Z</time>
      </trkpt>
      <trkpt lat="47.09051" lon="5.71576">
        <ele>261</ele>
        <time>2012-09-14T12:54:06Z</time>
      </trkpt>
      <trkpt lat="47.09054" lon="5.71593">
        <ele>261</ele>
        <time>2012-09-14T12:54:08Z</time>
      </trkpt>
      <trkpt lat="47.09057" lon="5.71611">
        <ele>261</ele>
        <time>2012-09-14T12:54:10Z</time>
      </trkpt>
      <trkpt lat="47.09061" lon="5.7163">
        <ele>261</ele>
        <time>2012-09-14T12:54:12Z</time>
      </trkpt>
      <trkpt lat="47.09065" lon="5.71649">
        <ele>261</ele>
        <time>2012-09-14T12:54:14Z</time>
      </trkpt>
      <trkpt lat="47.0907" lon="5.7167">
        <ele>261</ele>
        <time>2012-09-14T12:54:16Z</time>
      </trkpt>
      <trkpt lat="47.09074" lon="5.71691">
        <ele>261</ele>
        <time>2012-09-14T12:54:18Z</time>
      </trkpt>
      <trkpt lat="47.09078" lon="5.71712">
        <ele>261</ele>
        <time>2012-09-14T12:54:20Z</time>
      </trkpt>
      <trkpt lat="47.09082" lon="5.71736">
        <ele>261</ele>
        <time>2012-09-14T12:54:22Z</time>
      </trkpt>
      <trkpt lat="47.09088" lon="5.71757">
        <ele>261</ele>
        <time>2012-09-14T12:54:24Z</time>
      </trkpt>
      <trkpt lat="47.09094" lon="5.71779">
        <ele>261</ele>
        <time>2012-09-14T12:54:26Z</time>
      </trkpt>
      <trkpt lat="47.091" lon="5.71801">
        <ele>261</ele>
        <time>2012-09-14T12:54:28Z</time>
      </trkpt>
      <trkpt lat="47.09105" lon="5.71823">
        <ele>261</ele>
        <time>2012-09-14T12:54:30Z</time>
      </trkpt>
      <trkpt lat="47.09109" lon="5.71844">
        <ele>261</ele>
        <time>2012-09-14T12:54:32Z</time>
      </trkpt>
      <trkpt lat="47.09111" lon="5.71867">
        <ele>261</ele>
        <time>2012-09-14T12:54:34Z</time>
      </trkpt>
      <trkpt lat="47.09118" lon="5.71889">
        <ele>261</ele>
        <time>2012-09-14T12:54:36Z</time>
      </trkpt>
      <trkpt lat="47.09124" lon="5.71912">
        <ele>261</ele>
        <time>2012-09-14T12:54:38Z</time>
      </trkpt>
      <trkpt lat="47.0913" lon="5.71934">
        <ele>261</ele>
        <time>2012-09-14T12:54:40Z</time>
      </trkpt>
      <trkpt lat="47.09135" lon="5.71956">
        <ele>261</ele>
        <time>2012-09-14T12:54:42Z</time>
      </trkpt>
      <trkpt lat="47.0914" lon="5.71978">
        <ele>261</ele>
        <time>2012-09-14T12:54:44Z</time>
      </trkpt>
      <trkpt lat="47.09144" lon="5.71998">
        <ele>261</ele>
        <time>2012-09-14T12:54:46Z</time>
      </trkpt>
      <trkpt lat="47.09148" lon="5.72017">
        <ele>261</ele>
        <time>2012-09-14T12:54:48Z</time>
      </trkpt>
      <trkpt lat="47.09152" lon="5.72036">
        <ele>261</ele>
        <time>2012-09-14T12:54:50Z</time>
      </trkpt>
      <trkpt lat="47.09156" lon="5.72053">
        <ele>261</ele>
        <time>2012-09-14T12:54:52Z</time>
      </trkpt>
      <trkpt lat="47.0916" lon="5.72071">
        <ele>261</ele>
        <time>2012-09-14T12:54:54Z</time>
      </trkpt>
      <trkpt lat="47.09164" lon="5.72089">
        <ele>261</ele>
        <time>2012-09-14T12:54:56Z</time>
      </trkpt>
      <trkpt lat="47.09168" lon="5.72105">
        <ele>261</ele>
        <time>2012-09-14T12:54:58Z</time>
      </trkpt>
      <trkpt lat="47.09172" lon="5.72122">
        <ele>261</ele>
        <time>2012-09-14T12:55:00Z</time>
      </trkpt>
      <trkpt lat="47.09175" lon="5.72139">
        <ele>261</ele>
        <time>2012-09-14T12:55:02Z</time>
      </trkpt>
      <trkpt lat="47.09178" lon="5.72155">
        <ele>261</ele>
        <time>2012-09-14T12:55:04Z</time>
      </trkpt>
      <trkpt lat="47.09182" lon="5.72171">
        <ele>261</ele>
        <time>2012-09-14T12:55:06Z</time>
      </trkpt>
      <trkpt lat="47.09186" lon="5.72189">
        <ele>261</ele>
        <time>2012-09-14T12:55:08Z</time>
      </trkpt>
      <trkpt lat="47.09189" lon="5.72206">
        <ele>261</ele>
        <time>2012-09-14T12:55:10Z</time>
      </trkpt>
      <trkpt lat="47.09194" lon="5.72223">
        <ele>261</ele>
        <time>2012-09-14T12:55:12Z</time>
      </trkpt>
      <trkpt lat="47.09197" lon="5.72241">
        <ele>261</ele>
        <time>2012-09-14T12:55:14Z</time>
      </trkpt>
      <trkpt lat="47.09202" lon="5.72258">
        <ele>261</ele>
        <time>2012-09-14T12:55:16Z</time>
      </trkpt>
      <trkpt lat="47.09205" lon="5.72275">
        <ele>261</ele>
        <time>2012-09-14T12:55:18Z</time>
      </trkpt>
      <trkpt lat="47.0921" lon="5.72292">
        <ele>261</ele>
        <time>2012-09-14T12:55:20Z</time>
      </trkpt>
      <trkpt lat="47.09213" lon="5.7231">
        <ele>261</ele>
        <time>2012-09-14T12:55:22Z</time>
      </trkpt>
      <trkpt lat="47.09218" lon="5.72327">
        <ele>261</ele>
        <time>2012-09-14T12:55:24Z</time>
      </trkpt>
      <trkpt lat="47.09221" lon="5.72346">
        <ele>261</ele>
        <time>2012-09-14T12:55:26Z</time>
      </trkpt>
      <trkpt lat="47.09225" lon="5.72366">
        <ele>261</ele>
        <time>2012-09-14T12:55:28Z</time>
      </trkpt>
      <trkpt lat="47.09229" lon="5.72386">
        <ele>261</ele>
        <time>2012-09-14T12:55:30Z</time>
      </trkpt>
      <trkpt lat="47.09234" lon="5.72407">
        <ele>261</ele>
        <time>2012-09-14T12:55:32Z</time>
      </trkpt>
      <trkpt lat="47.09239" lon="5.72427">
        <ele>261</ele>
        <time>2012-09-14T12:55:34Z</time>
      </trkpt>
      <trkpt lat="47.09243" lon="5.72447">
        <ele>261</ele>
        <time>2012-09-14T12:55:36Z</time>
      </trkpt>
      <trkpt lat="47.09246" lon="5.72468">
        <ele>261</ele>
        <time>2012-09-14T12:55:38Z</time>
      </trkpt>
      <trkpt lat="47.09252" lon="5.72488">
        <ele>261</ele>
        <time>2012-09-14T12:55:40Z</time>
      </trkpt>
      <trkpt lat="47.09257" lon="5.72509">
        <ele>255</ele>
        <time>2012-09-14T12:55:42Z</time>
      </trkpt>
      <trkpt lat="47.09262" lon="5.7253">
        <ele>255</ele>
        <time>2012-09-14T12:55:44Z</time>
      </trkpt>
      <trkpt lat="47.09267" lon="5.7255">
        <ele>255</ele>
        <time>2012-09-14T12:55:46Z</time>
      </trkpt>
      <trkpt lat="47.09272" lon="5.72573">
        <ele>250</ele>
        <time>2012-09-14T12:55:48Z</time>
      </trkpt>
      <trkpt lat="47.09277" lon="5.72596">
        <ele>250</ele>
        <time>2012-09-14T12:55:50Z</time>
      </trkpt>
      <trkpt lat="47.0928" lon="5.72609">
        <ele>250</ele>
        <time>2012-09-14T12:55:51Z</time>
      </trkpt>
      <trkpt lat="47.09282" lon="5.72621">
        <ele>250</ele>
        <time>2012-09-14T12:55:52Z</time>
      </trkpt>
      <trkpt lat="47.09287" lon="5.72645">
        <ele>250</ele>
        <time>2012-09-14T12:55:54Z</time>
      </trkpt>
      <trkpt lat="47.09292" lon="5.72666">
        <ele>250</ele>
        <time>2012-09-14T12:55:56Z</time>
      </trkpt>
      <trkpt lat="47.09295" lon="5.72686">
        <ele>250</ele>
        <time>2012-09-14T12:55:58Z</time>
      </trkpt>
      <trkpt lat="47.093" lon="5.72704">
        <ele>250</ele>
        <time>2012-09-14T12:56:00Z</time>
      </trkpt>
      <trkpt lat="47.09303" lon="5.72721">
        <ele>250</ele>
        <time>2012-09-14T12:56:02Z</time>
      </trkpt>
      <trkpt lat="47.09308" lon="5.72739">
        <ele>250</ele>
        <time>2012-09-14T12:56:04Z</time>
      </trkpt>
      <trkpt lat="47.09312" lon="5.72758">
        <ele>250</ele>
        <time>2012-09-14T12:56:06Z</time>
      </trkpt>
      <trkpt lat="47.09316" lon="5.72776">
        <ele>250</ele>
        <time>2012-09-14T12:56:08Z</time>
      </trkpt>
      <trkpt lat="47.09319" lon="5.72792">
        <ele>250</ele>
        <time>2012-09-14T12:56:10Z</time>
      </trkpt>
      <trkpt lat="47.09322" lon="5.72809">
        <ele>250</ele>
        <time>2012-09-14T12:56:12Z</time>
      </trkpt>
      <trkpt lat="47.09325" lon="5.72825">
        <ele>256</ele>
        <time>2012-09-14T12:56:14Z</time>
      </trkpt>
      <trkpt lat="47.09329" lon="5.7284">
        <ele>256</ele>
        <time>2012-09-14T12:56:16Z</time>
      </trkpt>
      <trkpt lat="47.09333" lon="5.72856">
        <ele>256</ele>
        <time>2012-09-14T12:56:18Z</time>
      </trkpt>
      <trkpt lat="47.09338" lon="5.7287">
        <ele>256</ele>
        <time>2012-09-14T12:56:20Z</time>
      </trkpt>
      <trkpt lat="47.09343" lon="5.72882">
        <ele>256</ele>
        <time>2012-09-14T12:56:22Z</time>
      </trkpt>
      <trkpt lat="47.09349" lon="5.72899">
        <ele>256</ele>
        <time>2012-09-14T12:56:25Z</time>
      </trkpt>
      <trkpt lat="47.09353" lon="5.72914">
        <ele>256</ele>
        <time>2012-09-14T12:56:27Z</time>
      </trkpt>
      <trkpt lat="47.09359" lon="5.72929">
        <ele>256</ele>
        <time>2012-09-14T12:56:29Z</time>
      </trkpt>
      <trkpt lat="47.09363" lon="5.72947">
        <ele>256</ele>
        <time>2012-09-14T12:56:31Z</time>
      </trkpt>
      <trkpt lat="47.09368" lon="5.72968">
        <ele>256</ele>
        <time>2012-09-14T12:56:33Z</time>
      </trkpt>
      <trkpt lat="47.09374" lon="5.7299">
        <ele>256</ele>
        <time>2012-09-14T12:56:35Z</time>
      </trkpt>
      <trkpt lat="47.09377" lon="5.73015">
        <ele>256</ele>
        <time>2012-09-14T12:56:37Z</time>
      </trkpt>
      <trkpt lat="47.09383" lon="5.73039">
        <ele>256</ele>
        <time>2012-09-14T12:56:39Z</time>
      </trkpt>
      <trkpt lat="47.09386" lon="5.73062">
        <ele>256</ele>
        <time>2012-09-14T12:56:41Z</time>
      </trkpt>
      <trkpt lat="47.09391" lon="5.73086">
        <ele>256</ele>
        <time>2012-09-14T12:56:43Z</time>
      </trkpt>
      <trkpt lat="47.09395" lon="5.73108">
        <ele>262</ele>
        <time>2012-09-14T12:56:45Z</time>
      </trkpt>
      <trkpt lat="47.09399" lon="5.73129">
        <ele>262</ele>
        <time>2012-09-14T12:56:47Z</time>
      </trkpt>
      <trkpt lat="47.09402" lon="5.73147">
        <ele>262</ele>
        <time>2012-09-14T12:56:49Z</time>
      </trkpt>
      <trkpt lat="47.09403" lon="5.73165">
        <ele>262</ele>
        <time>2012-09-14T12:56:51Z</time>
      </trkpt>
      <trkpt lat="47.0941" lon="5.73182">
        <ele>262</ele>
        <time>2012-09-14T12:56:53Z</time>
      </trkpt>
      <trkpt lat="47.09415" lon="5.73198">
        <ele>262</ele>
        <time>2012-09-14T12:56:55Z</time>
      </trkpt>
      <trkpt lat="47.09417" lon="5.73213">
        <ele>262</ele>
        <time>2012-09-14T12:56:57Z</time>
      </trkpt>
      <trkpt lat="47.09421" lon="5.73229">
        <ele>262</ele>
        <time>2012-09-14T12:56:59Z</time>
      </trkpt>
      <trkpt lat="47.09427" lon="5.73244">
        <ele>262</ele>
        <time>2012-09-14T12:57:01Z</time>
      </trkpt>
      <trkpt lat="47.09434" lon="5.73261">
        <ele>262</ele>
        <time>2012-09-14T12:57:03Z</time>
      </trkpt>
      <trkpt lat="47.09441" lon="5.73277">
        <ele>262</ele>
        <time>2012-09-14T12:57:05Z</time>
      </trkpt>
      <trkpt lat="47.09448" lon="5.73295">
        <ele>262</ele>
        <time>2012-09-14T12:57:07Z</time>
      </trkpt>
      <trkpt lat="47.09454" lon="5.73312">
        <ele>262</ele>
        <time>2012-09-14T12:57:09Z</time>
      </trkpt>
      <trkpt lat="47.09457" lon="5.7333">
        <ele>262</ele>
        <time>2012-09-14T12:57:11Z</time>
      </trkpt>
      <trkpt lat="47.09461" lon="5.73348">
        <ele>262</ele>
        <time>2012-09-14T12:57:13Z</time>
      </trkpt>
      <trkpt lat="47.09462" lon="5.73365">
        <ele>262</ele>
        <time>2012-09-14T12:57:15Z</time>
      </trkpt>
      <trkpt lat="47.09464" lon="5.73382">
        <ele>262</ele>
        <time>2012-09-14T12:57:17Z</time>
      </trkpt>
      <trkpt lat="47.09468" lon="5.73399">
        <ele>262</ele>
        <time>2012-09-14T12:57:19Z</time>
      </trkpt>
      <trkpt lat="47.0947" lon="5.73419">
        <ele>262</ele>
        <time>2012-09-14T12:57:21Z</time>
      </trkpt>
      <trkpt lat="47.09473" lon="5.73438">
        <ele>262</ele>
        <time>2012-09-14T12:57:23Z</time>
      </trkpt>
      <trkpt lat="47.09478" lon="5.73458">
        <ele>262</ele>
        <time>2012-09-14T12:57:25Z</time>
      </trkpt>
      <trkpt lat="47.09481" lon="5.73477">
        <ele>262</ele>
        <time>2012-09-14T12:57:27Z</time>
      </trkpt>
      <trkpt lat="47.09485" lon="5.73498">
        <ele>262</ele>
        <time>2012-09-14T12:57:29Z</time>
      </trkpt>
      <trkpt lat="47.09488" lon="5.7352">
        <ele>262</ele>
        <time>2012-09-14T12:57:31Z</time>
      </trkpt>
      <trkpt lat="47.09494" lon="5.73543">
        <ele>262</ele>
        <time>2012-09-14T12:57:33Z</time>
      </trkpt>
      <trkpt lat="47.095" lon="5.73566">
        <ele>262</ele>
        <time>2012-09-14T12:57:35Z</time>
      </trkpt>
      <trkpt lat="47.09506" lon="5.7359">
        <ele>257</ele>
        <time>2012-09-14T12:57:37Z</time>
      </trkpt>
      <trkpt lat="47.09507" lon="5.73613">
        <ele>257</ele>
        <time>2012-09-14T12:57:39Z</time>
      </trkpt>
      <trkpt lat="47.0951" lon="5.73636">
        <ele>257</ele>
        <time>2012-09-14T12:57:41Z</time>
      </trkpt>
      <trkpt lat="47.09511" lon="5.73659">
        <ele>257</ele>
        <time>2012-09-14T12:57:43Z</time>
      </trkpt>
      <trkpt lat="47.09519" lon="5.73681">
        <ele>257</ele>
        <time>2012-09-14T12:57:45Z</time>
      </trkpt>
      <trkpt lat="47.09522" lon="5.73694">
        <ele>257</ele>
        <time>2012-09-14T12:57:46Z</time>
      </trkpt>
      <trkpt lat="47.09526" lon="5.73716">
        <ele>249</ele>
        <time>2012-09-14T12:57:48Z</time>
      </trkpt>
      <trkpt lat="47.09528" lon="5.73739">
        <ele>249</ele>
        <time>2012-09-14T12:57:50Z</time>
      </trkpt>
      <trkpt lat="47.09532" lon="5.7376">
        <ele>249</ele>
        <time>2012-09-14T12:57:52Z</time>
      </trkpt>
      <trkpt lat="47.09537" lon="5.73782">
        <ele>249</ele>
        <time>2012-09-14T12:57:54Z</time>
      </trkpt>
      <trkpt lat="47.0954" lon="5.73803">
        <ele>244</ele>
        <time>2012-09-14T12:57:56Z</time>
      </trkpt>
      <trkpt lat="47.09544" lon="5.73824">
        <ele>244</ele>
        <time>2012-09-14T12:57:58Z</time>
      </trkpt>
      <trkpt lat="47.09548" lon="5.73845">
        <ele>244</ele>
        <time>2012-09-14T12:58:00Z</time>
      </trkpt>
      <trkpt lat="47.09552" lon="5.73864">
        <ele>244</ele>
        <time>2012-09-14T12:58:02Z</time>
      </trkpt>
      <trkpt lat="47.09556" lon="5.73882">
        <ele>244</ele>
        <time>2012-09-14T12:58:04Z</time>
      </trkpt>
      <trkpt lat="47.09562" lon="5.73901">
        <ele>244</ele>
        <time>2012-09-14T12:58:06Z</time>
      </trkpt>
      <trkpt lat="47.0957" lon="5.73918">
        <ele>244</ele>
        <time>2012-09-14T12:58:08Z</time>
      </trkpt>
      <trkpt lat="47.09575" lon="5.73935">
        <ele>244</ele>
        <time>2012-09-14T12:58:10Z</time>
      </trkpt>
      <trkpt lat="47.09579" lon="5.73951">
        <ele>244</ele>
        <time>2012-09-14T12:58:12Z</time>
      </trkpt>
      <trkpt lat="47.09582" lon="5.73966">
        <ele>244</ele>
        <time>2012-09-14T12:58:14Z</time>
      </trkpt>
      <trkpt lat="47.09584" lon="5.73982">
        <ele>244</ele>
        <time>2012-09-14T12:58:16Z</time>
      </trkpt>
      <trkpt lat="47.09588" lon="5.73997">
        <ele>244</ele>
        <time>2012-09-14T12:58:18Z</time>
      </trkpt>
      <trkpt lat="47.09592" lon="5.74011">
        <ele>249</ele>
        <time>2012-09-14T12:58:20Z</time>
      </trkpt>
      <trkpt lat="47.09595" lon="5.74026">
        <ele>249</ele>
        <time>2012-09-14T12:58:22Z</time>
      </trkpt>
      <trkpt lat="47.09599" lon="5.74043">
        <ele>249</ele>
        <time>2012-09-14T12:58:24Z</time>
      </trkpt>
      <trkpt lat="47.09602" lon="5.74062">
        <ele>249</ele>
        <time>2012-09-14T12:58:26Z</time>
      </trkpt>
      <trkpt lat="47.09604" lon="5.7408">
        <ele>249</ele>
        <time>2012-09-14T12:58:28Z</time>
      </trkpt>
      <trkpt lat="47.09609" lon="5.74099">
        <ele>249</ele>
        <time>2012-09-14T12:58:30Z</time>
      </trkpt>
      <trkpt lat="47.09616" lon="5.7412">
        <ele>249</ele>
        <time>2012-09-14T12:58:32Z</time>
      </trkpt>
      <trkpt lat="47.09624" lon="5.74139">
        <ele>249</ele>
        <time>2012-09-14T12:58:34Z</time>
      </trkpt>
      <trkpt lat="47.09629" lon="5.74158">
        <ele>249</ele>
        <time>2012-09-14T12:58:36Z</time>
      </trkpt>
      <trkpt lat="47.09632" lon="5.74179">
        <ele>249</ele>
        <time>2012-09-14T12:58:38Z</time>
      </trkpt>
      <trkpt lat="47.09634" lon="5.74199">
        <ele>249</ele>
        <time>2012-09-14T12:58:40Z</time>
      </trkpt>
      <trkpt lat="47.09638" lon="5.74218">
        <ele>249</ele>
        <time>2012-09-14T12:58:42Z</time>
      </trkpt>
      <trkpt lat="47.09643" lon="5.74237">
        <ele>249</ele>
        <time>2012-09-14T12:58:44Z</time>
      </trkpt>
      <trkpt lat="47.09646" lon="5.74255">
        <ele>249</ele>
        <time>2012-09-14T12:58:46Z</time>
      </trkpt>
      <trkpt lat="47.09649" lon="5.74271">
        <ele>249</ele>
        <time>2012-09-14T12:58:48Z</time>
      </trkpt>
      <trkpt lat="47.09651" lon="5.74286">
        <ele>249</ele>
        <time>2012-09-14T12:58:50Z</time>
      </trkpt>
      <trkpt lat="47.09654" lon="5.74301">
        <ele>249</ele>
        <time>2012-09-14T12:58:52Z</time>
      </trkpt>
      <trkpt lat="47.0966" lon="5.74315">
        <ele>249</ele>
        <time>2012-09-14T12:58:54Z</time>
      </trkpt>
      <trkpt lat="47.09662" lon="5.74327">
        <ele>249</ele>
        <time>2012-09-14T12:58:56Z</time>
      </trkpt>
      <trkpt lat="47.09667" lon="5.74339">
        <ele>249</ele>
        <time>2012-09-14T12:58:59Z</time>
      </trkpt>
      <trkpt lat="47.09678" lon="5.74339">
        <ele>256</ele>
        <time>2012-09-14T12:59:02Z</time>
      </trkpt>
      <trkpt lat="47.09689" lon="5.74336">
        <ele>256</ele>
        <time>2012-09-14T12:59:05Z</time>
      </trkpt>
      <trkpt lat="47.097" lon="5.7433">
        <ele>256</ele>
        <time>2012-09-14T12:59:08Z</time>
      </trkpt>
      <trkpt lat="47.09709" lon="5.74324">
        <ele>262</ele>
        <time>2012-09-14T12:59:10Z</time>
      </trkpt>
      <trkpt lat="47.09719" lon="5.74319">
        <ele>262</ele>
        <time>2012-09-14T12:59:12Z</time>
      </trkpt>
      <trkpt lat="47.09729" lon="5.74315">
        <ele>262</ele>
        <time>2012-09-14T12:59:14Z</time>
      </trkpt>
      <trkpt lat="47.09738" lon="5.74312">
        <ele>262</ele>
        <time>2012-09-14T12:59:16Z</time>
      </trkpt>
      <trkpt lat="47.09747" lon="5.74306">
        <ele>262</ele>
        <time>2012-09-14T12:59:18Z</time>
      </trkpt>
      <trkpt lat="47.09756" lon="5.743">
        <ele>262</ele>
        <time>2012-09-14T12:59:20Z</time>
      </trkpt>
      <trkpt lat="47.09765" lon="5.74296">
        <ele>267</ele>
        <time>2012-09-14T12:59:22Z</time>
      </trkpt>
      <trkpt lat="47.09776" lon="5.74291">
        <ele>267</ele>
        <time>2012-09-14T12:59:24Z</time>
      </trkpt>
      <trkpt lat="47.09786" lon="5.74287">
        <ele>267</ele>
        <time>2012-09-14T12:59:26Z</time>
      </trkpt>
      <trkpt lat="47.09795" lon="5.74281">
        <ele>267</ele>
        <time>2012-09-14T12:59:28Z</time>
      </trkpt>
      <trkpt lat="47.09805" lon="5.74277">
        <ele>267</ele>
        <time>2012-09-14T12:59:30Z</time>
      </trkpt>
      <trkpt lat="47.09814" lon="5.74271">
        <ele>272</ele>
        <time>2012-09-14T12:59:32Z</time>
      </trkpt>
      <trkpt lat="47.09824" lon="5.74264">
        <ele>272</ele>
        <time>2012-09-14T12:59:34Z</time>
      </trkpt>
      <trkpt lat="47.09835" lon="5.7426">
        <ele>272</ele>
        <time>2012-09-14T12:59:36Z</time>
      </trkpt>
      <trkpt lat="47.09847" lon="5.74254">
        <ele>272</ele>
        <time>2012-09-14T12:59:38Z</time>
      </trkpt>
      <trkpt lat="47.09859" lon="5.7425">
        <ele>272</ele>
        <time>2012-09-14T12:59:40Z</time>
      </trkpt>
      <trkpt lat="47.09872" lon="5.74245">
        <ele>272</ele>
        <time>2012-09-14T12:59:42Z</time>
      </trkpt>
      <trkpt lat="47.09883" lon="5.74237">
        <ele>272</ele>
        <time>2012-09-14T12:59:44Z</time>
      </trkpt>
      <trkpt lat="47.09895" lon="5.74232">
        <ele>272</ele>
        <time>2012-09-14T12:59:46Z</time>
      </trkpt>
      <trkpt lat="47.09908" lon="5.74227">
        <ele>272</ele>
        <time>2012-09-14T12:59:48Z</time>
      </trkpt>
      <trkpt lat="47.09921" lon="5.74223">
        <ele>272</ele>
        <time>2012-09-14T12:59:50Z</time>
      </trkpt>
      <trkpt lat="47.09933" lon="5.74218">
        <ele>272</ele>
        <time>2012-09-14T12:59:52Z</time>
      </trkpt>
      <trkpt lat="47.09945" lon="5.74212">
        <ele>272</ele>
        <time>2012-09-14T12:59:54Z</time>
      </trkpt>
      <trkpt lat="47.09957" lon="5.74206">
        <ele>272</ele>
        <time>2012-09-14T12:59:56Z</time>
      </trkpt>
      <trkpt lat="47.09968" lon="5.742">
        <ele>272</ele>
        <time>2012-09-14T12:59:58Z</time>
      </trkpt>
      <trkpt lat="47.09981" lon="5.74194">
        <ele>272</ele>
        <time>2012-09-14T13:00:00Z</time>
      </trkpt>
      <trkpt lat="47.09994" lon="5.7419">
        <ele>272</ele>
        <time>2012-09-14T13:00:02Z</time>
      </trkpt>
      <trkpt lat="47.10007" lon="5.74183">
        <ele>272</ele>
        <time>2012-09-14T13:00:04Z</time>
      </trkpt>
      <trkpt lat="47.10021" lon="5.74177">
        <ele>272</ele>
        <time>2012-09-14T13:00:06Z</time>
      </trkpt>
      <trkpt lat="47.10035" lon="5.74171">
        <ele>272</ele>
        <time>2012-09-14T13:00:08Z</time>
      </trkpt>
      <trkpt lat="47.10048" lon="5.74165">
        <ele>272</ele>
        <time>2012-09-14T13:00:10Z</time>
      </trkpt>
      <trkpt lat="47.10062" lon="5.7416">
        <ele>266</ele>
        <time>2012-09-14T13:00:12Z</time>
      </trkpt>
      <trkpt lat="47.10075" lon="5.74154">
        <ele>266</ele>
        <time>2012-09-14T13:00:14Z</time>
      </trkpt>
      <trkpt lat="47.10089" lon="5.74147">
        <ele>266</ele>
        <time>2012-09-14T13:00:16Z</time>
      </trkpt>
      <trkpt lat="47.10101" lon="5.7414">
        <ele>266</ele>
        <time>2012-09-14T13:00:18Z</time>
      </trkpt>
      <trkpt lat="47.10112" lon="5.74131">
        <ele>266</ele>
        <time>2012-09-14T13:00:20Z</time>
      </trkpt>
      <trkpt lat="47.10125" lon="5.74128">
        <ele>266</ele>
        <time>2012-09-14T13:00:22Z</time>
      </trkpt>
      <trkpt lat="47.10137" lon="5.74121">
        <ele>266</ele>
        <time>2012-09-14T13:00:24Z</time>
      </trkpt>
      <trkpt lat="47.10149" lon="5.74115">
        <ele>266</ele>
        <time>2012-09-14T13:00:26Z</time>
      </trkpt>
      <trkpt lat="47.10162" lon="5.74108">
        <ele>266</ele>
        <time>2012-09-14T13:00:28Z</time>
      </trkpt>
      <trkpt lat="47.10175" lon="5.74102">
        <ele>266</ele>
        <time>2012-09-14T13:00:30Z</time>
      </trkpt>
      <trkpt lat="47.10188" lon="5.74096">
        <ele>266</ele>
        <time>2012-09-14T13:00:32Z</time>
      </trkpt>
      <trkpt lat="47.10202" lon="5.74089">
        <ele>266</ele>
        <time>2012-09-14T13:00:34Z</time>
      </trkpt>
      <trkpt lat="47.10216" lon="5.74084">
        <ele>266</ele>
        <time>2012-09-14T13:00:36Z</time>
      </trkpt>
      <trkpt lat="47.10229" lon="5.74077">
        <ele>266</ele>
        <time>2012-09-14T13:00:38Z</time>
      </trkpt>
      <trkpt lat="47.10241" lon="5.7407">
        <ele>266</ele>
        <time>2012-09-14T13:00:40Z</time>
      </trkpt>
      <trkpt lat="47.10254" lon="5.74065">
        <ele>266</ele>
        <time>2012-09-14T13:00:42Z</time>
      </trkpt>
      <trkpt lat="47.10267" lon="5.7406">
        <ele>266</ele>
        <time>2012-09-14T13:00:44Z</time>
      </trkpt>
      <trkpt lat="47.10281" lon="5.74055">
        <ele>266</ele>
        <time>2012-09-14T13:00:46Z</time>
      </trkpt>
      <trkpt lat="47.10294" lon="5.74049">
        <ele>266</ele>
        <time>2012-09-14T13:00:48Z</time>
      </trkpt>
      <trkpt lat="47.10306" lon="5.74042">
        <ele>266</ele>
        <time>2012-09-14T13:00:50Z</time>
      </trkpt>
      <trkpt lat="47.10319" lon="5.74036">
        <ele>266</ele>
        <time>2012-09-14T13:00:52Z</time>
      </trkpt>
      <trkpt lat="47.10332" lon="5.74031">
        <ele>266</ele>
        <time>2012-09-14T13:00:54Z</time>
      </trkpt>
      <trkpt lat="47.10345" lon="5.74024">
        <ele>266</ele>
        <time>2012-09-14T13:00:56Z</time>
      </trkpt>
      <trkpt lat="47.10359" lon="5.7402">
        <ele>266</ele>
        <time>2012-09-14T13:00:58Z</time>
      </trkpt>
      <trkpt lat="47.10371" lon="5.74015">
        <ele>266</ele>
        <time>2012-09-14T13:01:00Z</time>
      </trkpt>
      <trkpt lat="47.10384" lon="5.7401">
        <ele>266</ele>
        <time>2012-09-14T13:01:02Z</time>
      </trkpt>
      <trkpt lat="47.10397" lon="5.74004">
        <ele>266</ele>
        <time>2012-09-14T13:01:04Z</time>
      </trkpt>
      <trkpt lat="47.10409" lon="5.73998">
        <ele>261</ele>
        <time>2012-09-14T13:01:06Z</time>
      </trkpt>
      <trkpt lat="47.10421" lon="5.73992">
        <ele>261</ele>
        <time>2012-09-14T13:01:08Z</time>
      </trkpt>
      <trkpt lat="47.10434" lon="5.73987">
        <ele>261</ele>
        <time>2012-09-14T13:01:10Z</time>
      </trkpt>
      <trkpt lat="47.10445" lon="5.73979">
        <ele>261</ele>
        <time>2012-09-14T13:01:12Z</time>
      </trkpt>
      <trkpt lat="47.10457" lon="5.73974">
        <ele>261</ele>
        <time>2012-09-14T13:01:14Z</time>
      </trkpt>
      <trkpt lat="47.10468" lon="5.73968">
        <ele>261</ele>
        <time>2012-09-14T13:01:16Z</time>
      </trkpt>
      <trkpt lat="47.10481" lon="5.73963">
        <ele>261</ele>
        <time>2012-09-14T13:01:18Z</time>
      </trkpt>
      <trkpt lat="47.10492" lon="5.73958">
        <ele>261</ele>
        <time>2012-09-14T13:01:20Z</time>
      </trkpt>
      <trkpt lat="47.10504" lon="5.73952">
        <ele>261</ele>
        <time>2012-09-14T13:01:22Z</time>
      </trkpt>
      <trkpt lat="47.10516" lon="5.73947">
        <ele>261</ele>
        <time>2012-09-14T13:01:24Z</time>
      </trkpt>
      <trkpt lat="47.10527" lon="5.73943">
        <ele>261</ele>
        <time>2012-09-14T13:01:26Z</time>
      </trkpt>
      <trkpt lat="47.10538" lon="5.73935">
        <ele>269</ele>
        <time>2012-09-14T13:01:28Z</time>
      </trkpt>
      <trkpt lat="47.10549" lon="5.73928">
        <ele>269</ele>
        <time>2012-09-14T13:01:30Z</time>
      </trkpt>
      <trkpt lat="47.10561" lon="5.73925">
        <ele>269</ele>
        <time>2012-09-14T13:01:32Z</time>
      </trkpt>
      <trkpt lat="47.10574" lon="5.73919">
        <ele>269</ele>
        <time>2012-09-14T13:01:34Z</time>
      </trkpt>
      <trkpt lat="47.10587" lon="5.73915">
        <ele>275</ele>
        <time>2012-09-14T13:01:36Z</time>
      </trkpt>
      <trkpt lat="47.10599" lon="5.7391">
        <ele>275</ele>
        <time>2012-09-14T13:01:38Z</time>
      </trkpt>
      <trkpt lat="47.10609" lon="5.73903">
        <ele>275</ele>
        <time>2012-09-14T13:01:40Z</time>
      </trkpt>
      <trkpt lat="47.1062" lon="5.73898">
        <ele>275</ele>
        <time>2012-09-14T13:01:42Z</time>
      </trkpt>
      <trkpt lat="47.1063" lon="5.73893">
        <ele>275</ele>
        <time>2012-09-14T13:01:44Z</time>
      </trkpt>
      <trkpt lat="47.10641" lon="5.73889">
        <ele>275</ele>
        <time>2012-09-14T13:01:46Z</time>
      </trkpt>
      <trkpt lat="47.10651" lon="5.73884">
        <ele>275</ele>
        <time>2012-09-14T13:01:48Z</time>
      </trkpt>
      <trkpt lat="47.10662" lon="5.73879">
        <ele>275</ele>
        <time>2012-09-14T13:01:50Z</time>
      </trkpt>
      <trkpt lat="47.10673" lon="5.73873">
        <ele>275</ele>
        <time>2012-09-14T13:01:52Z</time>
      </trkpt>
      <trkpt lat="47.10685" lon="5.73867">
        <ele>275</ele>
        <time>2012-09-14T13:01:54Z</time>
      </trkpt>
      <trkpt lat="47.10697" lon="5.73861">
        <ele>275</ele>
        <time>2012-09-14T13:01:56Z</time>
      </trkpt>
      <trkpt lat="47.10709" lon="5.73855">
        <ele>275</ele>
        <time>2012-09-14T13:01:58Z</time>
      </trkpt>
      <trkpt lat="47.10722" lon="5.73848">
        <ele>275</ele>
        <time>2012-09-14T13:02:00Z</time>
      </trkpt>
      <trkpt lat="47.10736" lon="5.73842">
        <ele>269</ele>
        <time>2012-09-14T13:02:02Z</time>
      </trkpt>
      <trkpt lat="47.10751" lon="5.73836">
        <ele>269</ele>
        <time>2012-09-14T13:02:04Z</time>
      </trkpt>
      <trkpt lat="47.10765" lon="5.73829">
        <ele>269</ele>
        <time>2012-09-14T13:02:06Z</time>
      </trkpt>
      <trkpt lat="47.10779" lon="5.73822">
        <ele>269</ele>
        <time>2012-09-14T13:02:08Z</time>
      </trkpt>
      <trkpt lat="47.10795" lon="5.73816">
        <ele>269</ele>
        <time>2012-09-14T13:02:10Z</time>
      </trkpt>
      <trkpt lat="47.10811" lon="5.73809">
        <ele>263</ele>
        <time>2012-09-14T13:02:12Z</time>
      </trkpt>
      <trkpt lat="47.10826" lon="5.738">
        <ele>263</ele>
        <time>2012-09-14T13:02:14Z</time>
      </trkpt>
      <trkpt lat="47.10842" lon="5.73792">
        <ele>263</ele>
        <time>2012-09-14T13:02:16Z</time>
      </trkpt>
      <trkpt lat="47.10859" lon="5.73783">
        <ele>263</ele>
        <time>2012-09-14T13:02:18Z</time>
      </trkpt>
      <trkpt lat="47.10874" lon="5.73776">
        <ele>263</ele>
        <time>2012-09-14T13:02:20Z</time>
      </trkpt>
      <trkpt lat="47.10888" lon="5.73769">
        <ele>263</ele>
        <time>2012-09-14T13:02:22Z</time>
      </trkpt>
      <trkpt lat="47.10902" lon="5.73762">
        <ele>263</ele>
        <time>2012-09-14T13:02:24Z</time>
      </trkpt>
      <trkpt lat="47.10915" lon="5.73754">
        <ele>263</ele>
        <time>2012-09-14T13:02:26Z</time>
      </trkpt>
      <trkpt lat="47.1093" lon="5.73748">
        <ele>263</ele>
        <time>2012-09-14T13:02:28Z</time>
      </trkpt>
      <trkpt lat="47.10943" lon="5.73741">
        <ele>263</ele>
        <time>2012-09-14T13:02:30Z</time>
      </trkpt>
      <trkpt lat="47.10957" lon="5.73734">
        <ele>263</ele>
        <time>2012-09-14T13:02:32Z</time>
      </trkpt>
      <trkpt lat="47.10969" lon="5.73727">
        <ele>263</ele>
        <time>2012-09-14T13:02:34Z</time>
      </trkpt>
      <trkpt lat="47.10982" lon="5.7372">
        <ele>263</ele>
        <time>2012-09-14T13:02:36Z</time>
      </trkpt>
      <trkpt lat="47.10995" lon="5.73714">
        <ele>263</ele>
        <time>2012-09-14T13:02:38Z</time>
      </trkpt>
      <trkpt lat="47.11007" lon="5.73706">
        <ele>263</ele>
        <time>2012-09-14T13:02:40Z</time>
      </trkpt>
      <trkpt lat="47.11021" lon="5.73701">
        <ele>263</ele>
        <time>2012-09-14T13:02:42Z</time>
      </trkpt>
      <trkpt lat="47.11035" lon="5.73697">
        <ele>263</ele>
        <time>2012-09-14T13:02:44Z</time>
      </trkpt>
      <trkpt lat="47.11047" lon="5.73691">
        <ele>263</ele>
        <time>2012-09-14T13:02:46Z</time>
      </trkpt>
      <trkpt lat="47.11061" lon="5.73686">
        <ele>263</ele>
        <time>2012-09-14T13:02:48Z</time>
      </trkpt>
      <trkpt lat="47.11074" lon="5.73681">
        <ele>263</ele>
        <time>2012-09-14T13:02:50Z</time>
      </trkpt>
      <trkpt lat="47.11087" lon="5.73676">
        <ele>263</ele>
        <time>2012-09-14T13:02:52Z</time>
      </trkpt>
      <trkpt lat="47.11098" lon="5.7367">
        <ele>263</ele>
        <time>2012-09-14T13:02:54Z</time>
      </trkpt>
      <trkpt lat="47.1111" lon="5.73665">
        <ele>263</ele>
        <time>2012-09-14T13:02:56Z</time>
      </trkpt>
      <trkpt lat="47.11123" lon="5.73659">
        <ele>263</ele>
        <time>2012-09-14T13:02:58Z</time>
      </trkpt>
      <trkpt lat="47.11137" lon="5.73653">
        <ele>263</ele>
        <time>2012-09-14T13:03:00Z</time>
      </trkpt>
      <trkpt lat="47.1115" lon="5.73646">
        <ele>263</ele>
        <time>2012-09-14T13:03:02Z</time>
      </trkpt>
      <trkpt lat="47.11164" lon="5.73639">
        <ele>263</ele>
        <time>2012-09-14T13:03:04Z</time>
      </trkpt>
      <trkpt lat="47.11178" lon="5.73633">
        <ele>263</ele>
        <time>2012-09-14T13:03:06Z</time>
      </trkpt>
      <trkpt lat="47.11191" lon="5.73626">
        <ele>263</ele>
        <time>2012-09-14T13:03:08Z</time>
      </trkpt>
      <trkpt lat="47.11203" lon="5.7362">
        <ele>257</ele>
        <time>2012-09-14T13:03:10Z</time>
      </trkpt>
      <trkpt lat="47.11214" lon="5.73614">
        <ele>257</ele>
        <time>2012-09-14T13:03:12Z</time>
      </trkpt>
      <trkpt lat="47.11227" lon="5.73608">
        <ele>257</ele>
        <time>2012-09-14T13:03:14Z</time>
      </trkpt>
      <trkpt lat="47.11244" lon="5.73601">
        <ele>257</ele>
        <time>2012-09-14T13:03:16Z</time>
      </trkpt>
      <trkpt lat="47.11259" lon="5.73594">
        <ele>257</ele>
        <time>2012-09-14T13:03:18Z</time>
      </trkpt>
      <trkpt lat="47.11273" lon="5.73588">
        <ele>257</ele>
        <time>2012-09-14T13:03:20Z</time>
      </trkpt>
      <trkpt lat="47.11287" lon="5.73579">
        <ele>257</ele>
        <time>2012-09-14T13:03:22Z</time>
      </trkpt>
      <trkpt lat="47.11302" lon="5.73572">
        <ele>257</ele>
        <time>2012-09-14T13:03:24Z</time>
      </trkpt>
      <trkpt lat="47.1131" lon="5.73567">
        <ele>257</ele>
        <time>2012-09-14T13:03:25Z</time>
      </trkpt>
      <trkpt lat="47.11326" lon="5.7356">
        <ele>257</ele>
        <time>2012-09-14T13:03:27Z</time>
      </trkpt>
      <trkpt lat="47.11334" lon="5.73556">
        <ele>257</ele>
        <time>2012-09-14T13:03:28Z</time>
      </trkpt>
      <trkpt lat="47.11349" lon="5.7355">
        <ele>257</ele>
        <time>2012-09-14T13:03:30Z</time>
      </trkpt>
      <trkpt lat="47.11364" lon="5.73543">
        <ele>257</ele>
        <time>2012-09-14T13:03:32Z</time>
      </trkpt>
      <trkpt lat="47.11378" lon="5.73537">
        <ele>257</ele>
        <time>2012-09-14T13:03:34Z</time>
      </trkpt>
      <trkpt lat="47.11393" lon="5.73531">
        <ele>257</ele>
        <time>2012-09-14T13:03:36Z</time>
      </trkpt>
      <trkpt lat="47.11407" lon="5.73527">
        <ele>257</ele>
        <time>2012-09-14T13:03:38Z</time>
      </trkpt>
      <trkpt lat="47.11421" lon="5.73521">
        <ele>257</ele>
        <time>2012-09-14T13:03:40Z</time>
      </trkpt>
      <trkpt lat="47.11434" lon="5.73514">
        <ele>257</ele>
        <time>2012-09-14T13:03:42Z</time>
      </trkpt>
      <trkpt lat="47.11447" lon="5.73509">
        <ele>257</ele>
        <time>2012-09-14T13:03:44Z</time>
      </trkpt>
      <trkpt lat="47.1146" lon="5.73502">
        <ele>257</ele>
        <time>2012-09-14T13:03:46Z</time>
      </trkpt>
      <trkpt lat="47.11474" lon="5.73496">
        <ele>257</ele>
        <time>2012-09-14T13:03:48Z</time>
      </trkpt>
      <trkpt lat="47.1149" lon="5.73493">
        <ele>257</ele>
        <time>2012-09-14T13:03:50Z</time>
      </trkpt>
      <trkpt lat="47.11505" lon="5.73492">
        <ele>257</ele>
        <time>2012-09-14T13:03:52Z</time>
      </trkpt>
      <trkpt lat="47.11522" lon="5.73494">
        <ele>257</ele>
        <time>2012-09-14T13:03:54Z</time>
      </trkpt>
      <trkpt lat="47.11538" lon="5.73496">
        <ele>257</ele>
        <time>2012-09-14T13:03:56Z</time>
      </trkpt>
      <trkpt lat="47.11552" lon="5.735">
        <ele>257</ele>
        <time>2012-09-14T13:03:58Z</time>
      </trkpt>
      <trkpt lat="47.11568" lon="5.73503">
        <ele>257</ele>
        <time>2012-09-14T13:04:00Z</time>
      </trkpt>
      <trkpt lat="47.11585" lon="5.73508">
        <ele>257</ele>
        <time>2012-09-14T13:04:02Z</time>
      </trkpt>
      <trkpt lat="47.11601" lon="5.73514">
        <ele>257</ele>
        <time>2012-09-14T13:04:04Z</time>
      </trkpt>
      <trkpt lat="47.1161" lon="5.73519">
        <ele>257</ele>
        <time>2012-09-14T13:04:05Z</time>
      </trkpt>
      <trkpt lat="47.11619" lon="5.73524">
        <ele>257</ele>
        <time>2012-09-14T13:04:06Z</time>
      </trkpt>
      <trkpt lat="47.11627" lon="5.73529">
        <ele>257</ele>
        <time>2012-09-14T13:04:07Z</time>
      </trkpt>
      <trkpt lat="47.11644" lon="5.7354">
        <ele>250</ele>
        <time>2012-09-14T13:04:09Z</time>
      </trkpt>
      <trkpt lat="47.11661" lon="5.73551">
        <ele>250</ele>
        <time>2012-09-14T13:04:11Z</time>
      </trkpt>
      <trkpt lat="47.11669" lon="5.73557">
        <ele>250</ele>
        <time>2012-09-14T13:04:12Z</time>
      </trkpt>
      <trkpt lat="47.11678" lon="5.73564">
        <ele>250</ele>
        <time>2012-09-14T13:04:13Z</time>
      </trkpt>
      <trkpt lat="47.11687" lon="5.7357">
        <ele>250</ele>
        <time>2012-09-14T13:04:14Z</time>
      </trkpt>
      <trkpt lat="47.11697" lon="5.73576">
        <ele>250</ele>
        <time>2012-09-14T13:04:15Z</time>
      </trkpt>
      <trkpt lat="47.11706" lon="5.73582">
        <ele>245</ele>
        <time>2012-09-14T13:04:16Z</time>
      </trkpt>
      <trkpt lat="47.11716" lon="5.7359">
        <ele>245</ele>
        <time>2012-09-14T13:04:17Z</time>
      </trkpt>
      <trkpt lat="47.11726" lon="5.73596">
        <ele>245</ele>
        <time>2012-09-14T13:04:18Z</time>
      </trkpt>
      <trkpt lat="47.11736" lon="5.73602">
        <ele>245</ele>
        <time>2012-09-14T13:04:19Z</time>
      </trkpt>
      <trkpt lat="47.11745" lon="5.73608">
        <ele>245</ele>
        <time>2012-09-14T13:04:20Z</time>
      </trkpt>
      <trkpt lat="47.11754" lon="5.73612">
        <ele>245</ele>
        <time>2012-09-14T13:04:21Z</time>
      </trkpt>
      <trkpt lat="47.11764" lon="5.73617">
        <ele>245</ele>
        <time>2012-09-14T13:04:22Z</time>
      </trkpt>
      <trkpt lat="47.11773" lon="5.73624">
        <ele>245</ele>
        <time>2012-09-14T13:04:23Z</time>
      </trkpt>
      <trkpt lat="47.11781" lon="5.73628">
        <ele>245</ele>
        <time>2012-09-14T13:04:24Z</time>
      </trkpt>
      <trkpt lat="47.11791" lon="5.73633">
        <ele>245</ele>
        <time>2012-09-14T13:04:25Z</time>
      </trkpt>
      <trkpt lat="47.118" lon="5.73637">
        <ele>245</ele>
        <time>2012-09-14T13:04:26Z</time>
      </trkpt>
      <trkpt lat="47.1181" lon="5.73642">
        <ele>245</ele>
        <time>2012-09-14T13:04:27Z</time>
      </trkpt>
      <trkpt lat="47.11819" lon="5.73646">
        <ele>239</ele>
        <time>2012-09-14T13:04:28Z</time>
      </trkpt>
      <trkpt lat="47.11829" lon="5.7365">
        <ele>239</ele>
        <time>2012-09-14T13:04:29Z</time>
      </trkpt>
      <trkpt lat="47.11838" lon="5.73654">
        <ele>239</ele>
        <time>2012-09-14T13:04:30Z</time>
      </trkpt>
      <trkpt lat="47.11849" lon="5.73658">
        <ele>239</ele>
        <time>2012-09-14T13:04:31Z</time>
      </trkpt>
      <trkpt lat="47.11859" lon="5.73661">
        <ele>239</ele>
        <time>2012-09-14T13:04:32Z</time>
      </trkpt>
      <trkpt lat="47.1187" lon="5.73663">
        <ele>239</ele>
        <time>2012-09-14T13:04:33Z</time>
      </trkpt>
      <trkpt lat="47.11882" lon="5.73664">
        <ele>239</ele>
        <time>2012-09-14T13:04:34Z</time>
      </trkpt>
      <trkpt lat="47.11894" lon="5.73665">
        <ele>239</ele>
        <time>2012-09-14T13:04:35Z</time>
      </trkpt>
      <trkpt lat="47.11905" lon="5.73665">
        <ele>234</ele>
        <time>2012-09-14T13:04:36Z</time>
      </trkpt>
      <trkpt lat="47.11918" lon="5.73665">
        <ele>234</ele>
        <time>2012-09-14T13:04:37Z</time>
      </trkpt>
      <trkpt lat="47.1193" lon="5.73664">
        <ele>234</ele>
        <time>2012-09-14T13:04:38Z</time>
      </trkpt>
      <trkpt lat="47.1194" lon="5.73663">
        <ele>234</ele>
        <time>2012-09-14T13:04:39Z</time>
      </trkpt>
      <trkpt lat="47.11949" lon="5.73662">
        <ele>234</ele>
        <time>2012-09-14T13:04:40Z</time>
      </trkpt>
      <trkpt lat="47.11968" lon="5.7366">
        <ele>234</ele>
        <time>2012-09-14T13:04:42Z</time>
      </trkpt>
      <trkpt lat="47.11978" lon="5.7366">
        <ele>234</ele>
        <time>2012-09-14T13:04:43Z</time>
      </trkpt>
      <trkpt lat="47.11988" lon="5.73659">
        <ele>229</ele>
        <time>2012-09-14T13:04:44Z</time>
      </trkpt>
      <trkpt lat="47.12004" lon="5.73656">
        <ele>229</ele>
        <time>2012-09-14T13:04:46Z</time>
      </trkpt>
      <trkpt lat="47.12019" lon="5.73655">
        <ele>229</ele>
        <time>2012-09-14T13:04:48Z</time>
      </trkpt>
      <trkpt lat="47.12033" lon="5.73654">
        <ele>229</ele>
        <time>2012-09-14T13:04:50Z</time>
      </trkpt>
      <trkpt lat="47.12046" lon="5.73649">
        <ele>229</ele>
        <time>2012-09-14T13:04:52Z</time>
      </trkpt>
      <trkpt lat="47.12059" lon="5.73644">
        <ele>229</ele>
        <time>2012-09-14T13:04:54Z</time>
      </trkpt>
      <trkpt lat="47.12071" lon="5.73637">
        <ele>229</ele>
        <time>2012-09-14T13:04:56Z</time>
      </trkpt>
      <trkpt lat="47.12084" lon="5.73627">
        <ele>229</ele>
        <time>2012-09-14T13:04:58Z</time>
      </trkpt>
      <trkpt lat="47.12098" lon="5.73617">
        <ele>229</ele>
        <time>2012-09-14T13:05:00Z</time>
      </trkpt>
      <trkpt lat="47.12111" lon="5.73603">
        <ele>229</ele>
        <time>2012-09-14T13:05:02Z</time>
      </trkpt>
      <trkpt lat="47.12125" lon="5.7359">
        <ele>229</ele>
        <time>2012-09-14T13:05:04Z</time>
      </trkpt>
      <trkpt lat="47.12136" lon="5.73573">
        <ele>229</ele>
        <time>2012-09-14T13:05:06Z</time>
      </trkpt>
      <trkpt lat="47.12147" lon="5.73557">
        <ele>229</ele>
        <time>2012-09-14T13:05:08Z</time>
      </trkpt>
      <trkpt lat="47.12159" lon="5.73539">
        <ele>229</ele>
        <time>2012-09-14T13:05:10Z</time>
      </trkpt>
      <trkpt lat="47.1217" lon="5.73521">
        <ele>229</ele>
        <time>2012-09-14T13:05:12Z</time>
      </trkpt>
      <trkpt lat="47.1218" lon="5.73503">
        <ele>229</ele>
        <time>2012-09-14T13:05:14Z</time>
      </trkpt>
      <trkpt lat="47.12191" lon="5.73485">
        <ele>229</ele>
        <time>2012-09-14T13:05:16Z</time>
      </trkpt>
      <trkpt lat="47.12201" lon="5.73469">
        <ele>229</ele>
        <time>2012-09-14T13:05:18Z</time>
      </trkpt>
      <trkpt lat="47.12212" lon="5.73453">
        <ele>229</ele>
        <time>2012-09-14T13:05:20Z</time>
      </trkpt>
      <trkpt lat="47.12222" lon="5.73436">
        <ele>229</ele>
        <time>2012-09-14T13:05:22Z</time>
      </trkpt>
      <trkpt lat="47.12231" lon="5.73419">
        <ele>229</ele>
        <time>2012-09-14T13:05:24Z</time>
      </trkpt>
      <trkpt lat="47.1224" lon="5.73403">
        <ele>229</ele>
        <time>2012-09-14T13:05:26Z</time>
      </trkpt>
      <trkpt lat="47.1225" lon="5.73388">
        <ele>229</ele>
        <time>2012-09-14T13:05:28Z</time>
      </trkpt>
      <trkpt lat="47.1226" lon="5.73373">
        <ele>229</ele>
        <time>2012-09-14T13:05:30Z</time>
      </trkpt>
      <trkpt lat="47.12267" lon="5.73357">
        <ele>229</ele>
        <time>2012-09-14T13:05:32Z</time>
      </trkpt>
      <trkpt lat="47.12274" lon="5.73343">
        <ele>229</ele>
        <time>2012-09-14T13:05:34Z</time>
      </trkpt>
      <trkpt lat="47.12283" lon="5.73329">
        <ele>229</ele>
        <time>2012-09-14T13:05:36Z</time>
      </trkpt>
      <trkpt lat="47.12291" lon="5.73316">
        <ele>229</ele>
        <time>2012-09-14T13:05:38Z</time>
      </trkpt>
      <trkpt lat="47.123" lon="5.73303">
        <ele>229</ele>
        <time>2012-09-14T13:05:40Z</time>
      </trkpt>
      <trkpt lat="47.12308" lon="5.73289">
        <ele>229</ele>
        <time>2012-09-14T13:05:42Z</time>
      </trkpt>
      <trkpt lat="47.12315" lon="5.73274">
        <ele>229</ele>
        <time>2012-09-14T13:05:44Z</time>
      </trkpt>
      <trkpt lat="47.12322" lon="5.73261">
        <ele>229</ele>
        <time>2012-09-14T13:05:46Z</time>
      </trkpt>
      <trkpt lat="47.1233" lon="5.73246">
        <ele>229</ele>
        <time>2012-09-14T13:05:48Z</time>
      </trkpt>
      <trkpt lat="47.12337" lon="5.73233">
        <ele>229</ele>
        <time>2012-09-14T13:05:50Z</time>
      </trkpt>
      <trkpt lat="47.12344" lon="5.7322">
        <ele>229</ele>
        <time>2012-09-14T13:05:52Z</time>
      </trkpt>
      <trkpt lat="47.12352" lon="5.73206">
        <ele>229</ele>
        <time>2012-09-14T13:05:54Z</time>
      </trkpt>
      <trkpt lat="47.1236" lon="5.73193">
        <ele>229</ele>
        <time>2012-09-14T13:05:56Z</time>
      </trkpt>
      <trkpt lat="47.12368" lon="5.7318">
        <ele>229</ele>
        <time>2012-09-14T13:05:58Z</time>
      </trkpt>
      <trkpt lat="47.12376" lon="5.73167">
        <ele>229</ele>
        <time>2012-09-14T13:06:00Z</time>
      </trkpt>
      <trkpt lat="47.12384" lon="5.73153">
        <ele>229</ele>
        <time>2012-09-14T13:06:02Z</time>
      </trkpt>
      <trkpt lat="47.12392" lon="5.7314">
        <ele>229</ele>
        <time>2012-09-14T13:06:04Z</time>
      </trkpt>
      <trkpt lat="47.12399" lon="5.73126">
        <ele>229</ele>
        <time>2012-09-14T13:06:06Z</time>
      </trkpt>
      <trkpt lat="47.12407" lon="5.73112">
        <ele>229</ele>
        <time>2012-09-14T13:06:08Z</time>
      </trkpt>
      <trkpt lat="47.12415" lon="5.73097">
        <ele>229</ele>
        <time>2012-09-14T13:06:10Z</time>
      </trkpt>
      <trkpt lat="47.12423" lon="5.73085">
        <ele>229</ele>
        <time>2012-09-14T13:06:12Z</time>
      </trkpt>
      <trkpt lat="47.1243" lon="5.73071">
        <ele>229</ele>
        <time>2012-09-14T13:06:14Z</time>
      </trkpt>
      <trkpt lat="47.12437" lon="5.73057">
        <ele>229</ele>
        <time>2012-09-14T13:06:16Z</time>
      </trkpt>
      <trkpt lat="47.12445" lon="5.73043">
        <ele>229</ele>
        <time>2012-09-14T13:06:18Z</time>
      </trkpt>
      <trkpt lat="47.12453" lon="5.7303">
        <ele>229</ele>
        <time>2012-09-14T13:06:20Z</time>
      </trkpt>
      <trkpt lat="47.12461" lon="5.73018">
        <ele>234</ele>
        <time>2012-09-14T13:06:22Z</time>
      </trkpt>
      <trkpt lat="47.12467" lon="5.73005">
        <ele>234</ele>
        <time>2012-09-14T13:06:24Z</time>
      </trkpt>
      <trkpt lat="47.12474" lon="5.72993">
        <ele>234</ele>
        <time>2012-09-14T13:06:26Z</time>
      </trkpt>
      <trkpt lat="47.12481" lon="5.72981">
        <ele>234</ele>
        <time>2012-09-14T13:06:28Z</time>
      </trkpt>
      <trkpt lat="47.12488" lon="5.72968">
        <ele>234</ele>
        <time>2012-09-14T13:06:30Z</time>
      </trkpt>
      <trkpt lat="47.12495" lon="5.72955">
        <ele>234</ele>
        <time>2012-09-14T13:06:32Z</time>
      </trkpt>
      <trkpt lat="47.125" lon="5.7294">
        <ele>234</ele>
        <time>2012-09-14T13:06:34Z</time>
      </trkpt>
      <trkpt lat="47.12506" lon="5.72926">
        <ele>234</ele>
        <time>2012-09-14T13:06:36Z</time>
      </trkpt>
      <trkpt lat="47.12512" lon="5.72911">
        <ele>234</ele>
        <time>2012-09-14T13:06:38Z</time>
      </trkpt>
      <trkpt lat="47.12518" lon="5.72896">
        <ele>234</ele>
        <time>2012-09-14T13:06:40Z</time>
      </trkpt>
      <trkpt lat="47.12525" lon="5.72882">
        <ele>234</ele>
        <time>2012-09-14T13:06:42Z</time>
      </trkpt>
      <trkpt lat="47.12531" lon="5.72867">
        <ele>234</ele>
        <time>2012-09-14T13:06:44Z</time>
      </trkpt>
      <trkpt lat="47.1254" lon="5.72855">
        <ele>234</ele>
        <time>2012-09-14T13:06:46Z</time>
      </trkpt>
      <trkpt lat="47.12552" lon="5.72847">
        <ele>234</ele>
        <time>2012-09-14T13:06:48Z</time>
      </trkpt>
      <trkpt lat="47.12563" lon="5.72841">
        <ele>234</ele>
        <time>2012-09-14T13:06:50Z</time>
      </trkpt>
      <trkpt lat="47.12575" lon="5.7284">
        <ele>234</ele>
        <time>2012-09-14T13:06:52Z</time>
      </trkpt>
      <trkpt lat="47.12586" lon="5.72841">
        <ele>234</ele>
        <time>2012-09-14T13:06:54Z</time>
      </trkpt>
      <trkpt lat="47.12598" lon="5.72844">
        <ele>234</ele>
        <time>2012-09-14T13:06:56Z</time>
      </trkpt>
      <trkpt lat="47.12609" lon="5.72846">
        <ele>239</ele>
        <time>2012-09-14T13:06:58Z</time>
      </trkpt>
      <trkpt lat="47.12622" lon="5.72843">
        <ele>239</ele>
        <time>2012-09-14T13:07:00Z</time>
      </trkpt>
      <trkpt lat="47.12636" lon="5.7284">
        <ele>239</ele>
        <time>2012-09-14T13:07:02Z</time>
      </trkpt>
      <trkpt lat="47.1265" lon="5.72838">
        <ele>239</ele>
        <time>2012-09-14T13:07:04Z</time>
      </trkpt>
      <trkpt lat="47.12664" lon="5.72835">
        <ele>239</ele>
        <time>2012-09-14T13:07:06Z</time>
      </trkpt>
      <trkpt lat="47.12678" lon="5.72834">
        <ele>239</ele>
        <time>2012-09-14T13:07:08Z</time>
      </trkpt>
      <trkpt lat="47.12691" lon="5.72837">
        <ele>239</ele>
        <time>2012-09-14T13:07:10Z</time>
      </trkpt>
      <trkpt lat="47.12703" lon="5.7284">
        <ele>239</ele>
        <time>2012-09-14T13:07:12Z</time>
      </trkpt>
      <trkpt lat="47.12713" lon="5.72843">
        <ele>239</ele>
        <time>2012-09-14T13:07:14Z</time>
      </trkpt>
      <trkpt lat="47.12723" lon="5.72846">
        <ele>239</ele>
        <time>2012-09-14T13:07:16Z</time>
      </trkpt>
      <trkpt lat="47.12732" lon="5.72849">
        <ele>239</ele>
        <time>2012-09-14T13:07:18Z</time>
      </trkpt>
      <trkpt lat="47.1274" lon="5.72852">
        <ele>239</ele>
        <time>2012-09-14T13:07:20Z</time>
      </trkpt>
      <trkpt lat="47.12752" lon="5.72856">
        <ele>239</ele>
        <time>2012-09-14T13:07:23Z</time>
      </trkpt>
      <trkpt lat="47.12764" lon="5.72855">
        <ele>239</ele>
        <time>2012-09-14T13:07:26Z</time>
      </trkpt>
      <trkpt lat="47.12777" lon="5.72849">
        <ele>239</ele>
        <time>2012-09-14T13:07:29Z</time>
      </trkpt>
      <trkpt lat="47.12789" lon="5.72846">
        <ele>239</ele>
        <time>2012-09-14T13:07:32Z</time>
      </trkpt>
      <trkpt lat="47.12802" lon="5.72843">
        <ele>244</ele>
        <time>2012-09-14T13:07:35Z</time>
      </trkpt>
      <trkpt lat="47.12811" lon="5.72843">
        <ele>244</ele>
        <time>2012-09-14T13:07:37Z</time>
      </trkpt>
      <trkpt lat="47.12824" lon="5.72846">
        <ele>244</ele>
        <time>2012-09-14T13:07:40Z</time>
      </trkpt>
      <trkpt lat="47.12832" lon="5.72849">
        <ele>244</ele>
        <time>2012-09-14T13:07:42Z</time>
      </trkpt>
      <trkpt lat="47.12844" lon="5.72856">
        <ele>251</ele>
        <time>2012-09-14T13:07:45Z</time>
      </trkpt>
      <trkpt lat="47.12854" lon="5.72861">
        <ele>251</ele>
        <time>2012-09-14T13:07:48Z</time>
      </trkpt>
      <trkpt lat="47.12865" lon="5.72867">
        <ele>258</ele>
        <time>2012-09-14T13:07:51Z</time>
      </trkpt>
      <trkpt lat="47.12875" lon="5.72877">
        <ele>258</ele>
        <time>2012-09-14T13:07:54Z</time>
      </trkpt>
      <trkpt lat="47.12888" lon="5.72884">
        <ele>258</ele>
        <time>2012-09-14T13:07:57Z</time>
      </trkpt>
      <trkpt lat="47.129" lon="5.72885">
        <ele>264</ele>
        <time>2012-09-14T13:08:00Z</time>
      </trkpt>
      <trkpt lat="47.12912" lon="5.72887">
        <ele>264</ele>
        <time>2012-09-14T13:08:03Z</time>
      </trkpt>
      <trkpt lat="47.12924" lon="5.72892">
        <ele>264</ele>
        <time>2012-09-14T13:08:06Z</time>
      </trkpt>
      <trkpt lat="47.12937" lon="5.72895">
        <ele>264</ele>
        <time>2012-09-14T13:08:09Z</time>
      </trkpt>
      <trkpt lat="47.12948" lon="5.72899">
        <ele>264</ele>
        <time>2012-09-14T13:08:12Z</time>
      </trkpt>
      <trkpt lat="47.1296" lon="5.72902">
        <ele>264</ele>
        <time>2012-09-14T13:08:15Z</time>
      </trkpt>
      <trkpt lat="47.12971" lon="5.72905">
        <ele>264</ele>
        <time>2012-09-14T13:08:18Z</time>
      </trkpt>
      <trkpt lat="47.12982" lon="5.72909">
        <ele>264</ele>
        <time>2012-09-14T13:08:21Z</time>
      </trkpt>
      <trkpt lat="47.12994" lon="5.72912">
        <ele>264</ele>
        <time>2012-09-14T13:08:24Z</time>
      </trkpt>
      <trkpt lat="47.13006" lon="5.72915">
        <ele>264</ele>
        <time>2012-09-14T13:08:27Z</time>
      </trkpt>
      <trkpt lat="47.13018" lon="5.72919">
        <ele>264</ele>
        <time>2012-09-14T13:08:30Z</time>
      </trkpt>
      <trkpt lat="47.13031" lon="5.72922">
        <ele>259</ele>
        <time>2012-09-14T13:08:33Z</time>
      </trkpt>
      <trkpt lat="47.13043" lon="5.72926">
        <ele>259</ele>
        <time>2012-09-14T13:08:36Z</time>
      </trkpt>
      <trkpt lat="47.13052" lon="5.72929">
        <ele>259</ele>
        <time>2012-09-14T13:08:38Z</time>
      </trkpt>
      <trkpt lat="47.13061" lon="5.72931">
        <ele>259</ele>
        <time>2012-09-14T13:08:40Z</time>
      </trkpt>
      <trkpt lat="47.13074" lon="5.72932">
        <ele>259</ele>
        <time>2012-09-14T13:08:43Z</time>
      </trkpt>
      <trkpt lat="47.13084" lon="5.72932">
        <ele>259</ele>
        <time>2012-09-14T13:08:45Z</time>
      </trkpt>
      <trkpt lat="47.13093" lon="5.72932">
        <ele>259</ele>
        <time>2012-09-14T13:08:47Z</time>
      </trkpt>
      <trkpt lat="47.13102" lon="5.72929">
        <ele>259</ele>
        <time>2012-09-14T13:08:49Z</time>
      </trkpt>
      <trkpt lat="47.13111" lon="5.72927">
        <ele>259</ele>
        <time>2012-09-14T13:08:51Z</time>
      </trkpt>
      <trkpt lat="47.1312" lon="5.72925">
        <ele>259</ele>
        <time>2012-09-14T13:08:53Z</time>
      </trkpt>
      <trkpt lat="47.1313" lon="5.72922">
        <ele>259</ele>
        <time>2012-09-14T13:08:55Z</time>
      </trkpt>
      <trkpt lat="47.13139" lon="5.72919">
        <ele>259</ele>
        <time>2012-09-14T13:08:57Z</time>
      </trkpt>
      <trkpt lat="47.13148" lon="5.72915">
        <ele>259</ele>
        <time>2012-09-14T13:08:59Z</time>
      </trkpt>
      <trkpt lat="47.13157" lon="5.72909">
        <ele>259</ele>
        <time>2012-09-14T13:09:01Z</time>
      </trkpt>
      <trkpt lat="47.13166" lon="5.729">
        <ele>259</ele>
        <time>2012-09-14T13:09:03Z</time>
      </trkpt>
      <trkpt lat="47.13174" lon="5.72892">
        <ele>259</ele>
        <time>2012-09-14T13:09:05Z</time>
      </trkpt>
      <trkpt lat="47.13184" lon="5.72889">
        <ele>259</ele>
        <time>2012-09-14T13:09:07Z</time>
      </trkpt>
      <trkpt lat="47.13194" lon="5.7289">
        <ele>259</ele>
        <time>2012-09-14T13:09:09Z</time>
      </trkpt>
      <trkpt lat="47.13205" lon="5.72888">
        <ele>264</ele>
        <time>2012-09-14T13:09:11Z</time>
      </trkpt>
      <trkpt lat="47.13216" lon="5.72884">
        <ele>264</ele>
        <time>2012-09-14T13:09:13Z</time>
      </trkpt>
      <trkpt lat="47.13227" lon="5.72879">
        <ele>264</ele>
        <time>2012-09-14T13:09:15Z</time>
      </trkpt>
      <trkpt lat="47.13239" lon="5.72875">
        <ele>264</ele>
        <time>2012-09-14T13:09:17Z</time>
      </trkpt>
      <trkpt lat="47.1325" lon="5.72871">
        <ele>264</ele>
        <time>2012-09-14T13:09:19Z</time>
      </trkpt>
      <trkpt lat="47.13263" lon="5.72866">
        <ele>264</ele>
        <time>2012-09-14T13:09:21Z</time>
      </trkpt>
      <trkpt lat="47.13275" lon="5.72862">
        <ele>264</ele>
        <time>2012-09-14T13:09:23Z</time>
      </trkpt>
      <trkpt lat="47.13287" lon="5.72857">
        <ele>264</ele>
        <time>2012-09-14T13:09:25Z</time>
      </trkpt>
      <trkpt lat="47.133" lon="5.72852">
        <ele>264</ele>
        <time>2012-09-14T13:09:27Z</time>
      </trkpt>
      <trkpt lat="47.13314" lon="5.72848">
        <ele>264</ele>
        <time>2012-09-14T13:09:29Z</time>
      </trkpt>
      <trkpt lat="47.13327" lon="5.72841">
        <ele>264</ele>
        <time>2012-09-14T13:09:31Z</time>
      </trkpt>
      <trkpt lat="47.13341" lon="5.72835">
        <ele>259</ele>
        <time>2012-09-14T13:09:33Z</time>
      </trkpt>
      <trkpt lat="47.13356" lon="5.72829">
        <ele>259</ele>
        <time>2012-09-14T13:09:35Z</time>
      </trkpt>
      <trkpt lat="47.13371" lon="5.72822">
        <ele>259</ele>
        <time>2012-09-14T13:09:37Z</time>
      </trkpt>
      <trkpt lat="47.13388" lon="5.72816">
        <ele>259</ele>
        <time>2012-09-14T13:09:39Z</time>
      </trkpt>
      <trkpt lat="47.13404" lon="5.72811">
        <ele>259</ele>
        <time>2012-09-14T13:09:41Z</time>
      </trkpt>
      <trkpt lat="47.13419" lon="5.72803">
        <ele>253</ele>
        <time>2012-09-14T13:09:43Z</time>
      </trkpt>
      <trkpt lat="47.13431" lon="5.72795">
        <ele>253</ele>
        <time>2012-09-14T13:09:45Z</time>
      </trkpt>
      <trkpt lat="47.1344" lon="5.72795">
        <ele>253</ele>
        <time>2012-09-14T13:09:49Z</time>
      </trkpt>
      <trkpt lat="47.13442" lon="5.7281">
        <ele>253</ele>
        <time>2012-09-14T13:10:50Z</time>
      </trkpt>
      <trkpt lat="47.13453" lon="5.7281">
        <ele>253</ele>
        <time>2012-09-14T13:10:54Z</time>
      </trkpt>
      <trkpt lat="47.13461" lon="5.72806">
        <ele>253</ele>
        <time>2012-09-14T13:10:56Z</time>
      </trkpt>
      <trkpt lat="47.13474" lon="5.728">
        <ele>253</ele>
        <time>2012-09-14T13:10:59Z</time>
      </trkpt>
      <trkpt lat="47.13483" lon="5.72796">
        <ele>253</ele>
        <time>2012-09-14T13:11:01Z</time>
      </trkpt>
      <trkpt lat="47.13493" lon="5.72792">
        <ele>253</ele>
        <time>2012-09-14T13:11:03Z</time>
      </trkpt>
      <trkpt lat="47.13503" lon="5.72787">
        <ele>253</ele>
        <time>2012-09-14T13:11:05Z</time>
      </trkpt>
      <trkpt lat="47.13514" lon="5.72783">
        <ele>253</ele>
        <time>2012-09-14T13:11:07Z</time>
      </trkpt>
      <trkpt lat="47.13525" lon="5.72778">
        <ele>253</ele>
        <time>2012-09-14T13:11:09Z</time>
      </trkpt>
      <trkpt lat="47.13537" lon="5.72773">
        <ele>253</ele>
        <time>2012-09-14T13:11:11Z</time>
      </trkpt>
      <trkpt lat="47.13548" lon="5.72769">
        <ele>253</ele>
        <time>2012-09-14T13:11:13Z</time>
      </trkpt>
      <trkpt lat="47.13561" lon="5.72763">
        <ele>253</ele>
        <time>2012-09-14T13:11:15Z</time>
      </trkpt>
      <trkpt lat="47.13573" lon="5.72758">
        <ele>253</ele>
        <time>2012-09-14T13:11:17Z</time>
      </trkpt>
      <trkpt lat="47.13584" lon="5.72753">
        <ele>253</ele>
        <time>2012-09-14T13:11:19Z</time>
      </trkpt>
      <trkpt lat="47.13596" lon="5.72749">
        <ele>253</ele>
        <time>2012-09-14T13:11:21Z</time>
      </trkpt>
      <trkpt lat="47.13606" lon="5.72745">
        <ele>253</ele>
        <time>2012-09-14T13:11:23Z</time>
      </trkpt>
      <trkpt lat="47.13616" lon="5.72741">
        <ele>253</ele>
        <time>2012-09-14T13:11:25Z</time>
      </trkpt>
      <trkpt lat="47.13627" lon="5.72736">
        <ele>253</ele>
        <time>2012-09-14T13:11:27Z</time>
      </trkpt>
      <trkpt lat="47.13638" lon="5.72732">
        <ele>253</ele>
        <time>2012-09-14T13:11:29Z</time>
      </trkpt>
      <trkpt lat="47.13649" lon="5.72727">
        <ele>253</ele>
        <time>2012-09-14T13:11:31Z</time>
      </trkpt>
      <trkpt lat="47.13659" lon="5.72723">
        <ele>253</ele>
        <time>2012-09-14T13:11:33Z</time>
      </trkpt>
      <trkpt lat="47.13669" lon="5.72717">
        <ele>253</ele>
        <time>2012-09-14T13:11:35Z</time>
      </trkpt>
      <trkpt lat="47.1368" lon="5.72714">
        <ele>253</ele>
        <time>2012-09-14T13:11:37Z</time>
      </trkpt>
      <trkpt lat="47.1369" lon="5.72709">
        <ele>253</ele>
        <time>2012-09-14T13:11:39Z</time>
      </trkpt>
      <trkpt lat="47.137" lon="5.72705">
        <ele>253</ele>
        <time>2012-09-14T13:11:41Z</time>
      </trkpt>
      <trkpt lat="47.1371" lon="5.727">
        <ele>253</ele>
        <time>2012-09-14T13:11:43Z</time>
      </trkpt>
      <trkpt lat="47.13719" lon="5.72697">
        <ele>253</ele>
        <time>2012-09-14T13:11:45Z</time>
      </trkpt>
      <trkpt lat="47.1373" lon="5.72692">
        <ele>253</ele>
        <time>2012-09-14T13:11:47Z</time>
      </trkpt>
      <trkpt lat="47.1374" lon="5.72688">
        <ele>253</ele>
        <time>2012-09-14T13:11:49Z</time>
      </trkpt>
      <trkpt lat="47.13751" lon="5.72682">
        <ele>253</ele>
        <time>2012-09-14T13:11:51Z</time>
      </trkpt>
      <trkpt lat="47.13763" lon="5.72678">
        <ele>253</ele>
        <time>2012-09-14T13:11:53Z</time>
      </trkpt>
      <trkpt lat="47.13775" lon="5.72673">
        <ele>253</ele>
        <time>2012-09-14T13:11:55Z</time>
      </trkpt>
      <trkpt lat="47.13789" lon="5.72671">
        <ele>253</ele>
        <time>2012-09-14T13:11:57Z</time>
      </trkpt>
      <trkpt lat="47.13803" lon="5.72669">
        <ele>253</ele>
        <time>2012-09-14T13:11:59Z</time>
      </trkpt>
      <trkpt lat="47.13818" lon="5.72668">
        <ele>253</ele>
        <time>2012-09-14T13:12:01Z</time>
      </trkpt>
      <trkpt lat="47.13833" lon="5.72667">
        <ele>253</ele>
        <time>2012-09-14T13:12:03Z</time>
      </trkpt>
      <trkpt lat="47.13849" lon="5.72665">
        <ele>253</ele>
        <time>2012-09-14T13:12:05Z</time>
      </trkpt>
      <trkpt lat="47.13865" lon="5.72664">
        <ele>253</ele>
        <time>2012-09-14T13:12:07Z</time>
      </trkpt>
      <trkpt lat="47.1388" lon="5.72663">
        <ele>247</ele>
        <time>2012-09-14T13:12:09Z</time>
      </trkpt>
      <trkpt lat="47.13894" lon="5.72663">
        <ele>247</ele>
        <time>2012-09-14T13:12:11Z</time>
      </trkpt>
      <trkpt lat="47.13909" lon="5.72661">
        <ele>247</ele>
        <time>2012-09-14T13:12:13Z</time>
      </trkpt>
      <trkpt lat="47.13924" lon="5.72659">
        <ele>247</ele>
        <time>2012-09-14T13:12:15Z</time>
      </trkpt>
      <trkpt lat="47.13939" lon="5.72657">
        <ele>247</ele>
        <time>2012-09-14T13:12:17Z</time>
      </trkpt>
      <trkpt lat="47.13954" lon="5.72655">
        <ele>247</ele>
        <time>2012-09-14T13:12:19Z</time>
      </trkpt>
      <trkpt lat="47.13968" lon="5.72655">
        <ele>247</ele>
        <time>2012-09-14T13:12:21Z</time>
      </trkpt>
      <trkpt lat="47.13981" lon="5.72656">
        <ele>242</ele>
        <time>2012-09-14T13:12:23Z</time>
      </trkpt>
      <trkpt lat="47.13995" lon="5.72661">
        <ele>242</ele>
        <time>2012-09-14T13:12:25Z</time>
      </trkpt>
      <trkpt lat="47.1401" lon="5.72666">
        <ele>242</ele>
        <time>2012-09-14T13:12:27Z</time>
      </trkpt>
      <trkpt lat="47.14026" lon="5.72675">
        <ele>242</ele>
        <time>2012-09-14T13:12:29Z</time>
      </trkpt>
      <trkpt lat="47.14035" lon="5.72681">
        <ele>242</ele>
        <time>2012-09-14T13:12:30Z</time>
      </trkpt>
      <trkpt lat="47.14044" lon="5.72687">
        <ele>242</ele>
        <time>2012-09-14T13:12:31Z</time>
      </trkpt>
      <trkpt lat="47.14053" lon="5.72692">
        <ele>242</ele>
        <time>2012-09-14T13:12:32Z</time>
      </trkpt>
      <trkpt lat="47.14062" lon="5.72698">
        <ele>242</ele>
        <time>2012-09-14T13:12:33Z</time>
      </trkpt>
      <trkpt lat="47.14071" lon="5.72701">
        <ele>242</ele>
        <time>2012-09-14T13:12:34Z</time>
      </trkpt>
      <trkpt lat="47.1408" lon="5.72705">
        <ele>242</ele>
        <time>2012-09-14T13:12:35Z</time>
      </trkpt>
      <trkpt lat="47.14095" lon="5.72711">
        <ele>242</ele>
        <time>2012-09-14T13:12:37Z</time>
      </trkpt>
      <trkpt lat="47.14108" lon="5.72716">
        <ele>242</ele>
        <time>2012-09-14T13:12:39Z</time>
      </trkpt>
      <trkpt lat="47.14121" lon="5.72721">
        <ele>242</ele>
        <time>2012-09-14T13:12:41Z</time>
      </trkpt>
      <trkpt lat="47.14133" lon="5.72725">
        <ele>242</ele>
        <time>2012-09-14T13:12:43Z</time>
      </trkpt>
      <trkpt lat="47.14145" lon="5.72729">
        <ele>242</ele>
        <time>2012-09-14T13:12:45Z</time>
      </trkpt>
      <trkpt lat="47.14159" lon="5.72734">
        <ele>242</ele>
        <time>2012-09-14T13:12:47Z</time>
      </trkpt>
      <trkpt lat="47.14173" lon="5.72734">
        <ele>242</ele>
        <time>2012-09-14T13:12:49Z</time>
      </trkpt>
      <trkpt lat="47.14188" lon="5.72734">
        <ele>242</ele>
        <time>2012-09-14T13:12:51Z</time>
      </trkpt>
      <trkpt lat="47.14202" lon="5.72735">
        <ele>237</ele>
        <time>2012-09-14T13:12:53Z</time>
      </trkpt>
      <trkpt lat="47.14219" lon="5.72735">
        <ele>237</ele>
        <time>2012-09-14T13:12:55Z</time>
      </trkpt>
      <trkpt lat="47.14234" lon="5.72737">
        <ele>237</ele>
        <time>2012-09-14T13:12:57Z</time>
      </trkpt>
      <trkpt lat="47.14251" lon="5.72739">
        <ele>237</ele>
        <time>2012-09-14T13:12:59Z</time>
      </trkpt>
      <trkpt lat="47.14269" lon="5.72741">
        <ele>237</ele>
        <time>2012-09-14T13:13:01Z</time>
      </trkpt>
      <trkpt lat="47.14285" lon="5.72741">
        <ele>237</ele>
        <time>2012-09-14T13:13:03Z</time>
      </trkpt>
      <trkpt lat="47.14302" lon="5.7274">
        <ele>231</ele>
        <time>2012-09-14T13:13:05Z</time>
      </trkpt>
      <trkpt lat="47.14319" lon="5.72738">
        <ele>231</ele>
        <time>2012-09-14T13:13:07Z</time>
      </trkpt>
      <trkpt lat="47.14335" lon="5.72736">
        <ele>231</ele>
        <time>2012-09-14T13:13:09Z</time>
      </trkpt>
      <trkpt lat="47.1435" lon="5.72735">
        <ele>231</ele>
        <time>2012-09-14T13:13:11Z</time>
      </trkpt>
      <trkpt lat="47.14365" lon="5.72728">
        <ele>231</ele>
        <time>2012-09-14T13:13:13Z</time>
      </trkpt>
      <trkpt lat="47.14381" lon="5.72716">
        <ele>231</ele>
        <time>2012-09-14T13:13:15Z</time>
      </trkpt>
      <trkpt lat="47.14395" lon="5.72702">
        <ele>224</ele>
        <time>2012-09-14T13:13:17Z</time>
      </trkpt>
      <trkpt lat="47.14409" lon="5.7269">
        <ele>224</ele>
        <time>2012-09-14T13:13:19Z</time>
      </trkpt>
      <trkpt lat="47.1442" lon="5.72675">
        <ele>224</ele>
        <time>2012-09-14T13:13:21Z</time>
      </trkpt>
      <trkpt lat="47.14425" lon="5.72656">
        <ele>218</ele>
        <time>2012-09-14T13:13:23Z</time>
      </trkpt>
      <trkpt lat="47.1443" lon="5.72639">
        <ele>218</ele>
        <time>2012-09-14T13:13:25Z</time>
      </trkpt>
      <trkpt lat="47.14439" lon="5.72623">
        <ele>218</ele>
        <time>2012-09-14T13:13:27Z</time>
      </trkpt>
      <trkpt lat="47.14454" lon="5.72615">
        <ele>213</ele>
        <time>2012-09-14T13:13:29Z</time>
      </trkpt>
      <trkpt lat="47.1447" lon="5.7262">
        <ele>213</ele>
        <time>2012-09-14T13:13:31Z</time>
      </trkpt>
      <trkpt lat="47.14484" lon="5.72635">
        <ele>213</ele>
        <time>2012-09-14T13:13:33Z</time>
      </trkpt>
      <trkpt lat="47.14496" lon="5.7265">
        <ele>213</ele>
        <time>2012-09-14T13:13:35Z</time>
      </trkpt>
      <trkpt lat="47.14508" lon="5.72663">
        <ele>213</ele>
        <time>2012-09-14T13:13:37Z</time>
      </trkpt>
      <trkpt lat="47.14519" lon="5.72664">
        <ele>213</ele>
        <time>2012-09-14T13:13:39Z</time>
      </trkpt>
      <trkpt lat="47.14529" lon="5.72656">
        <ele>213</ele>
        <time>2012-09-14T13:13:41Z</time>
      </trkpt>
      <trkpt lat="47.14538" lon="5.72646">
        <ele>213</ele>
        <time>2012-09-14T13:13:43Z</time>
      </trkpt>
      <trkpt lat="47.14546" lon="5.72635">
        <ele>213</ele>
        <time>2012-09-14T13:13:45Z</time>
      </trkpt>
      <trkpt lat="47.14552" lon="5.72626">
        <ele>213</ele>
        <time>2012-09-14T13:13:47Z</time>
      </trkpt>
      <trkpt lat="47.14562" lon="5.72614">
        <ele>213</ele>
        <time>2012-09-14T13:13:50Z</time>
      </trkpt>
      <trkpt lat="47.1457" lon="5.72602">
        <ele>213</ele>
        <time>2012-09-14T13:13:53Z</time>
      </trkpt>
      <trkpt lat="47.14579" lon="5.72592">
        <ele>213</ele>
        <time>2012-09-14T13:13:56Z</time>
      </trkpt>
      <trkpt lat="47.14587" lon="5.72581">
        <ele>213</ele>
        <time>2012-09-14T13:13:59Z</time>
      </trkpt>
      <trkpt lat="47.14595" lon="5.7257">
        <ele>218</ele>
        <time>2012-09-14T13:14:02Z</time>
      </trkpt>
      <trkpt lat="47.14604" lon="5.72559">
        <ele>218</ele>
        <time>2012-09-14T13:14:05Z</time>
      </trkpt>
      <trkpt lat="47.14612" lon="5.72551">
        <ele>218</ele>
        <time>2012-09-14T13:14:07Z</time>
      </trkpt>
      <trkpt lat="47.14622" lon="5.72539">
        <ele>218</ele>
        <time>2012-09-14T13:14:10Z</time>
      </trkpt>
      <trkpt lat="47.14629" lon="5.72531">
        <ele>218</ele>
        <time>2012-09-14T13:14:12Z</time>
      </trkpt>
      <trkpt lat="47.14637" lon="5.72522">
        <ele>218</ele>
        <time>2012-09-14T13:14:14Z</time>
      </trkpt>
      <trkpt lat="47.14644" lon="5.72512">
        <ele>218</ele>
        <time>2012-09-14T13:14:16Z</time>
      </trkpt>
      <trkpt lat="47.14652" lon="5.72502">
        <ele>218</ele>
        <time>2012-09-14T13:14:18Z</time>
      </trkpt>
      <trkpt lat="47.14661" lon="5.72492">
        <ele>218</ele>
        <time>2012-09-14T13:14:20Z</time>
      </trkpt>
      <trkpt lat="47.14669" lon="5.72481">
        <ele>218</ele>
        <time>2012-09-14T13:14:22Z</time>
      </trkpt>
      <trkpt lat="47.14679" lon="5.7247">
        <ele>218</ele>
        <time>2012-09-14T13:14:24Z</time>
      </trkpt>
      <trkpt lat="47.14688" lon="5.72459">
        <ele>218</ele>
        <time>2012-09-14T13:14:26Z</time>
      </trkpt>
      <trkpt lat="47.14699" lon="5.72445">
        <ele>218</ele>
        <time>2012-09-14T13:14:28Z</time>
      </trkpt>
      <trkpt lat="47.1471" lon="5.72432">
        <ele>218</ele>
        <time>2012-09-14T13:14:30Z</time>
      </trkpt>
      <trkpt lat="47.14723" lon="5.72416">
        <ele>218</ele>
        <time>2012-09-14T13:14:32Z</time>
      </trkpt>
      <trkpt lat="47.14736" lon="5.72399">
        <ele>218</ele>
        <time>2012-09-14T13:14:34Z</time>
      </trkpt>
      <trkpt lat="47.14749" lon="5.72384">
        <ele>218</ele>
        <time>2012-09-14T13:14:36Z</time>
      </trkpt>
      <trkpt lat="47.14761" lon="5.7237">
        <ele>218</ele>
        <time>2012-09-14T13:14:38Z</time>
      </trkpt>
      <trkpt lat="47.14773" lon="5.72355">
        <ele>218</ele>
        <time>2012-09-14T13:14:40Z</time>
      </trkpt>
      <trkpt lat="47.14785" lon="5.72343">
        <ele>218</ele>
        <time>2012-09-14T13:14:42Z</time>
      </trkpt>
      <trkpt lat="47.14796" lon="5.72331">
        <ele>218</ele>
        <time>2012-09-14T13:14:44Z</time>
      </trkpt>
      <trkpt lat="47.14808" lon="5.72319">
        <ele>218</ele>
        <time>2012-09-14T13:14:46Z</time>
      </trkpt>
      <trkpt lat="47.1482" lon="5.72308">
        <ele>218</ele>
        <time>2012-09-14T13:14:48Z</time>
      </trkpt>
      <trkpt lat="47.14831" lon="5.72298">
        <ele>218</ele>
        <time>2012-09-14T13:14:50Z</time>
      </trkpt>
      <trkpt lat="47.14843" lon="5.72288">
        <ele>218</ele>
        <time>2012-09-14T13:14:52Z</time>
      </trkpt>
      <trkpt lat="47.14855" lon="5.72278">
        <ele>218</ele>
        <time>2012-09-14T13:14:54Z</time>
      </trkpt>
      <trkpt lat="47.14866" lon="5.72269">
        <ele>218</ele>
        <time>2012-09-14T13:14:56Z</time>
      </trkpt>
      <trkpt lat="47.14877" lon="5.72259">
        <ele>218</ele>
        <time>2012-09-14T13:14:58Z</time>
      </trkpt>
      <trkpt lat="47.14889" lon="5.72248">
        <ele>218</ele>
        <time>2012-09-14T13:15:00Z</time>
      </trkpt>
      <trkpt lat="47.149" lon="5.72238">
        <ele>218</ele>
        <time>2012-09-14T13:15:02Z</time>
      </trkpt>
      <trkpt lat="47.14911" lon="5.72225">
        <ele>218</ele>
        <time>2012-09-14T13:15:04Z</time>
      </trkpt>
      <trkpt lat="47.14921" lon="5.72213">
        <ele>218</ele>
        <time>2012-09-14T13:15:06Z</time>
      </trkpt>
      <trkpt lat="47.14931" lon="5.72199">
        <ele>218</ele>
        <time>2012-09-14T13:15:08Z</time>
      </trkpt>
      <trkpt lat="47.1494" lon="5.72186">
        <ele>218</ele>
        <time>2012-09-14T13:15:10Z</time>
      </trkpt>
      <trkpt lat="47.14949" lon="5.72172">
        <ele>213</ele>
        <time>2012-09-14T13:15:12Z</time>
      </trkpt>
      <trkpt lat="47.14957" lon="5.72157">
        <ele>213</ele>
        <time>2012-09-14T13:15:14Z</time>
      </trkpt>
      <trkpt lat="47.14964" lon="5.72142">
        <ele>213</ele>
        <time>2012-09-14T13:15:16Z</time>
      </trkpt>
      <trkpt lat="47.14971" lon="5.72126">
        <ele>213</ele>
        <time>2012-09-14T13:15:18Z</time>
      </trkpt>
      <trkpt lat="47.14978" lon="5.72111">
        <ele>213</ele>
        <time>2012-09-14T13:15:20Z</time>
      </trkpt>
      <trkpt lat="47.14984" lon="5.72095">
        <ele>213</ele>
        <time>2012-09-14T13:15:22Z</time>
      </trkpt>
      <trkpt lat="47.14989" lon="5.72079">
        <ele>213</ele>
        <time>2012-09-14T13:15:24Z</time>
      </trkpt>
      <trkpt lat="47.14995" lon="5.72062">
        <ele>213</ele>
        <time>2012-09-14T13:15:26Z</time>
      </trkpt>
      <trkpt lat="47.14999" lon="5.72046">
        <ele>213</ele>
        <time>2012-09-14T13:15:28Z</time>
      </trkpt>
      <trkpt lat="47.15004" lon="5.7203">
        <ele>213</ele>
        <time>2012-09-14T13:15:30Z</time>
      </trkpt>
      <trkpt lat="47.15008" lon="5.72015">
        <ele>213</ele>
        <time>2012-09-14T13:15:32Z</time>
      </trkpt>
      <trkpt lat="47.15012" lon="5.72">
        <ele>213</ele>
        <time>2012-09-14T13:15:34Z</time>
      </trkpt>
      <trkpt lat="47.15016" lon="5.71984">
        <ele>213</ele>
        <time>2012-09-14T13:15:36Z</time>
      </trkpt>
      <trkpt lat="47.15019" lon="5.71969">
        <ele>213</ele>
        <time>2012-09-14T13:15:38Z</time>
      </trkpt>
      <trkpt lat="47.15022" lon="5.71955">
        <ele>213</ele>
        <time>2012-09-14T13:15:40Z</time>
      </trkpt>
      <trkpt lat="47.15025" lon="5.71939">
        <ele>213</ele>
        <time>2012-09-14T13:15:42Z</time>
      </trkpt>
      <trkpt lat="47.15029" lon="5.71925">
        <ele>213</ele>
        <time>2012-09-14T13:15:44Z</time>
      </trkpt>
      <trkpt lat="47.15033" lon="5.71912">
        <ele>213</ele>
        <time>2012-09-14T13:15:46Z</time>
      </trkpt>
      <trkpt lat="47.15037" lon="5.71898">
        <ele>213</ele>
        <time>2012-09-14T13:15:48Z</time>
      </trkpt>
      <trkpt lat="47.1504" lon="5.71886">
        <ele>213</ele>
        <time>2012-09-14T13:15:50Z</time>
      </trkpt>
      <trkpt lat="47.15046" lon="5.71869">
        <ele>219</ele>
        <time>2012-09-14T13:15:53Z</time>
      </trkpt>
      <trkpt lat="47.15052" lon="5.71857">
        <ele>219</ele>
        <time>2012-09-14T13:15:56Z</time>
      </trkpt>
      <trkpt lat="47.15062" lon="5.71848">
        <ele>219</ele>
        <time>2012-09-14T13:15:59Z</time>
      </trkpt>
      <trkpt lat="47.15071" lon="5.71843">
        <ele>219</ele>
        <time>2012-09-14T13:16:02Z</time>
      </trkpt>
      <trkpt lat="47.15081" lon="5.71842">
        <ele>219</ele>
        <time>2012-09-14T13:16:05Z</time>
      </trkpt>
      <trkpt lat="47.1509" lon="5.71845">
        <ele>219</ele>
        <time>2012-09-14T13:16:08Z</time>
      </trkpt>
      <trkpt lat="47.15098" lon="5.71854">
        <ele>225</ele>
        <time>2012-09-14T13:16:11Z</time>
      </trkpt>
      <trkpt lat="47.15108" lon="5.71867">
        <ele>225</ele>
        <time>2012-09-14T13:16:14Z</time>
      </trkpt>
      <trkpt lat="47.15118" lon="5.71872">
        <ele>225</ele>
        <time>2012-09-14T13:16:16Z</time>
      </trkpt>
      <trkpt lat="47.15128" lon="5.71871">
        <ele>225</ele>
        <time>2012-09-14T13:16:18Z</time>
      </trkpt>
      <trkpt lat="47.15137" lon="5.71867">
        <ele>225</ele>
        <time>2012-09-14T13:16:20Z</time>
      </trkpt>
      <trkpt lat="47.15147" lon="5.71866">
        <ele>225</ele>
        <time>2012-09-14T13:16:22Z</time>
      </trkpt>
      <trkpt lat="47.15158" lon="5.71868">
        <ele>225</ele>
        <time>2012-09-14T13:16:24Z</time>
      </trkpt>
      <trkpt lat="47.15168" lon="5.71876">
        <ele>225</ele>
        <time>2012-09-14T13:16:26Z</time>
      </trkpt>
      <trkpt lat="47.15177" lon="5.71885">
        <ele>225</ele>
        <time>2012-09-14T13:16:28Z</time>
      </trkpt>
      <trkpt lat="47.15188" lon="5.71898">
        <ele>225</ele>
        <time>2012-09-14T13:16:31Z</time>
      </trkpt>
      <trkpt lat="47.15196" lon="5.71906">
        <ele>230</ele>
        <time>2012-09-14T13:16:33Z</time>
      </trkpt>
      <trkpt lat="47.15203" lon="5.71914">
        <ele>230</ele>
        <time>2012-09-14T13:16:35Z</time>
      </trkpt>
      <trkpt lat="47.15211" lon="5.71922">
        <ele>230</ele>
        <time>2012-09-14T13:16:37Z</time>
      </trkpt>
      <trkpt lat="47.15219" lon="5.7193">
        <ele>230</ele>
        <time>2012-09-14T13:16:39Z</time>
      </trkpt>
      <trkpt lat="47.15227" lon="5.71938">
        <ele>230</ele>
        <time>2012-09-14T13:16:41Z</time>
      </trkpt>
      <trkpt lat="47.15236" lon="5.71944">
        <ele>230</ele>
        <time>2012-09-14T13:16:43Z</time>
      </trkpt>
      <trkpt lat="47.15244" lon="5.7195">
        <ele>230</ele>
        <time>2012-09-14T13:16:45Z</time>
      </trkpt>
      <trkpt lat="47.15253" lon="5.71955">
        <ele>230</ele>
        <time>2012-09-14T13:16:47Z</time>
      </trkpt>
      <trkpt lat="47.15262" lon="5.71959">
        <ele>230</ele>
        <time>2012-09-14T13:16:49Z</time>
      </trkpt>
      <trkpt lat="47.15272" lon="5.71961">
        <ele>230</ele>
        <time>2012-09-14T13:16:51Z</time>
      </trkpt>
      <trkpt lat="47.15282" lon="5.71963">
        <ele>230</ele>
        <time>2012-09-14T13:16:53Z</time>
      </trkpt>
      <trkpt lat="47.15291" lon="5.71965">
        <ele>230</ele>
        <time>2012-09-14T13:16:55Z</time>
      </trkpt>
      <trkpt lat="47.15304" lon="5.71965">
        <ele>230</ele>
        <time>2012-09-14T13:16:58Z</time>
      </trkpt>
      <trkpt lat="47.15314" lon="5.71967">
        <ele>230</ele>
        <time>2012-09-14T13:17:00Z</time>
      </trkpt>
      <trkpt lat="47.15325" lon="5.71969">
        <ele>230</ele>
        <time>2012-09-14T13:17:02Z</time>
      </trkpt>
      <trkpt lat="47.15335" lon="5.71972">
        <ele>230</ele>
        <time>2012-09-14T13:17:04Z</time>
      </trkpt>
      <trkpt lat="47.15345" lon="5.71974">
        <ele>230</ele>
        <time>2012-09-14T13:17:06Z</time>
      </trkpt>
      <trkpt lat="47.15356" lon="5.71975">
        <ele>230</ele>
        <time>2012-09-14T13:17:08Z</time>
      </trkpt>
      <trkpt lat="47.15366" lon="5.71977">
        <ele>230</ele>
        <time>2012-09-14T13:17:10Z</time>
      </trkpt>
      <trkpt lat="47.15375" lon="5.71979">
        <ele>230</ele>
        <time>2012-09-14T13:17:12Z</time>
      </trkpt>
      <trkpt lat="47.15385" lon="5.71981">
        <ele>230</ele>
        <time>2012-09-14T13:17:14Z</time>
      </trkpt>
      <trkpt lat="47.15394" lon="5.71982">
        <ele>230</ele>
        <time>2012-09-14T13:17:16Z</time>
      </trkpt>
      <trkpt lat="47.15404" lon="5.71982">
        <ele>230</ele>
        <time>2012-09-14T13:17:18Z</time>
      </trkpt>
      <trkpt lat="47.15413" lon="5.71982">
        <ele>230</ele>
        <time>2012-09-14T13:17:20Z</time>
      </trkpt>
      <trkpt lat="47.15423" lon="5.71981">
        <ele>230</ele>
        <time>2012-09-14T13:17:22Z</time>
      </trkpt>
      <trkpt lat="47.15432" lon="5.71979">
        <ele>230</ele>
        <time>2012-09-14T13:17:24Z</time>
      </trkpt>
      <trkpt lat="47.15441" lon="5.71977">
        <ele>230</ele>
        <time>2012-09-14T13:17:26Z</time>
      </trkpt>
      <trkpt lat="47.15453" lon="5.71972">
        <ele>230</ele>
        <time>2012-09-14T13:17:29Z</time>
      </trkpt>
      <trkpt lat="47.15464" lon="5.71965">
        <ele>230</ele>
        <time>2012-09-14T13:17:32Z</time>
      </trkpt>
      <trkpt lat="47.15475" lon="5.71957">
        <ele>236</ele>
        <time>2012-09-14T13:17:35Z</time>
      </trkpt>
      <trkpt lat="47.15484" lon="5.71949">
        <ele>236</ele>
        <time>2012-09-14T13:17:38Z</time>
      </trkpt>
      <trkpt lat="47.15494" lon="5.71941">
        <ele>236</ele>
        <time>2012-09-14T13:17:41Z</time>
      </trkpt>
      <trkpt lat="47.15504" lon="5.71934">
        <ele>236</ele>
        <time>2012-09-14T13:17:44Z</time>
      </trkpt>
      <trkpt lat="47.15513" lon="5.71927">
        <ele>236</ele>
        <time>2012-09-14T13:17:47Z</time>
      </trkpt>
      <trkpt lat="47.15524" lon="5.71921">
        <ele>236</ele>
        <time>2012-09-14T13:17:50Z</time>
      </trkpt>
      <trkpt lat="47.15533" lon="5.71915">
        <ele>236</ele>
        <time>2012-09-14T13:17:53Z</time>
      </trkpt>
      <trkpt lat="47.15544" lon="5.71909">
        <ele>241</ele>
        <time>2012-09-14T13:17:56Z</time>
      </trkpt>
      <trkpt lat="47.15554" lon="5.71903">
        <ele>241</ele>
        <time>2012-09-14T13:17:59Z</time>
      </trkpt>
      <trkpt lat="47.15565" lon="5.71897">
        <ele>241</ele>
        <time>2012-09-14T13:18:02Z</time>
      </trkpt>
      <trkpt lat="47.15573" lon="5.71893">
        <ele>241</ele>
        <time>2012-09-14T13:18:04Z</time>
      </trkpt>
      <trkpt lat="47.15583" lon="5.71888">
        <ele>241</ele>
        <time>2012-09-14T13:18:06Z</time>
      </trkpt>
      <trkpt lat="47.15593" lon="5.71883">
        <ele>241</ele>
        <time>2012-09-14T13:18:08Z</time>
      </trkpt>
      <trkpt lat="47.15604" lon="5.71877">
        <ele>241</ele>
        <time>2012-09-14T13:18:10Z</time>
      </trkpt>
      <trkpt lat="47.15616" lon="5.71872">
        <ele>241</ele>
        <time>2012-09-14T13:18:12Z</time>
      </trkpt>
      <trkpt lat="47.15628" lon="5.71868">
        <ele>241</ele>
        <time>2012-09-14T13:18:14Z</time>
      </trkpt>
      <trkpt lat="47.15643" lon="5.71866">
        <ele>241</ele>
        <time>2012-09-14T13:18:16Z</time>
      </trkpt>
      <trkpt lat="47.15657" lon="5.71862">
        <ele>241</ele>
        <time>2012-09-14T13:18:18Z</time>
      </trkpt>
      <trkpt lat="47.15671" lon="5.71859">
        <ele>241</ele>
        <time>2012-09-14T13:18:20Z</time>
      </trkpt>
      <trkpt lat="47.15685" lon="5.71854">
        <ele>241</ele>
        <time>2012-09-14T13:18:22Z</time>
      </trkpt>
      <trkpt lat="47.15698" lon="5.71848">
        <ele>241</ele>
        <time>2012-09-14T13:18:24Z</time>
      </trkpt>
      <trkpt lat="47.15712" lon="5.71838">
        <ele>241</ele>
        <time>2012-09-14T13:18:26Z</time>
      </trkpt>
      <trkpt lat="47.15726" lon="5.71827">
        <ele>241</ele>
        <time>2012-09-14T13:18:28Z</time>
      </trkpt>
      <trkpt lat="47.15741" lon="5.71814">
        <ele>236</ele>
        <time>2012-09-14T13:18:30Z</time>
      </trkpt>
      <trkpt lat="47.15754" lon="5.71799">
        <ele>236</ele>
        <time>2012-09-14T13:18:32Z</time>
      </trkpt>
      <trkpt lat="47.15767" lon="5.71784">
        <ele>236</ele>
        <time>2012-09-14T13:18:34Z</time>
      </trkpt>
      <trkpt lat="47.15778" lon="5.7177">
        <ele>236</ele>
        <time>2012-09-14T13:18:36Z</time>
      </trkpt>
      <trkpt lat="47.15788" lon="5.71757">
        <ele>236</ele>
        <time>2012-09-14T13:18:38Z</time>
      </trkpt>
      <trkpt lat="47.15796" lon="5.71745">
        <ele>236</ele>
        <time>2012-09-14T13:18:40Z</time>
      </trkpt>
      <trkpt lat="47.15804" lon="5.71736">
        <ele>236</ele>
        <time>2012-09-14T13:18:42Z</time>
      </trkpt>
      <trkpt lat="47.15814" lon="5.71724">
        <ele>236</ele>
        <time>2012-09-14T13:18:45Z</time>
      </trkpt>
      <trkpt lat="47.15823" lon="5.71711">
        <ele>241</ele>
        <time>2012-09-14T13:18:48Z</time>
      </trkpt>
      <trkpt lat="47.15832" lon="5.71699">
        <ele>241</ele>
        <time>2012-09-14T13:18:51Z</time>
      </trkpt>
      <trkpt lat="47.1584" lon="5.71687">
        <ele>241</ele>
        <time>2012-09-14T13:18:54Z</time>
      </trkpt>
      <trkpt lat="47.15848" lon="5.71674">
        <ele>241</ele>
        <time>2012-09-14T13:18:57Z</time>
      </trkpt>
      <trkpt lat="47.15856" lon="5.71663">
        <ele>241</ele>
        <time>2012-09-14T13:19:00Z</time>
      </trkpt>
      <trkpt lat="47.15866" lon="5.7165">
        <ele>241</ele>
        <time>2012-09-14T13:19:03Z</time>
      </trkpt>
      <trkpt lat="47.15875" lon="5.71637">
        <ele>241</ele>
        <time>2012-09-14T13:19:06Z</time>
      </trkpt>
      <trkpt lat="47.1588" lon="5.71626">
        <ele>241</ele>
        <time>2012-09-14T13:19:08Z</time>
      </trkpt>
      <trkpt lat="47.15887" lon="5.71615">
        <ele>241</ele>
        <time>2012-09-14T13:19:10Z</time>
      </trkpt>
      <trkpt lat="47.15893" lon="5.71604">
        <ele>241</ele>
        <time>2012-09-14T13:19:12Z</time>
      </trkpt>
      <trkpt lat="47.15901" lon="5.71594">
        <ele>241</ele>
        <time>2012-09-14T13:19:14Z</time>
      </trkpt>
      <trkpt lat="47.1591" lon="5.71585">
        <ele>241</ele>
        <time>2012-09-14T13:19:16Z</time>
      </trkpt>
      <trkpt lat="47.1592" lon="5.71574">
        <ele>241</ele>
        <time>2012-09-14T13:19:18Z</time>
      </trkpt>
      <trkpt lat="47.15931" lon="5.71564">
        <ele>241</ele>
        <time>2012-09-14T13:19:20Z</time>
      </trkpt>
      <trkpt lat="47.15942" lon="5.71555">
        <ele>241</ele>
        <time>2012-09-14T13:19:22Z</time>
      </trkpt>
      <trkpt lat="47.15952" lon="5.71544">
        <ele>241</ele>
        <time>2012-09-14T13:19:24Z</time>
      </trkpt>
      <trkpt lat="47.15962" lon="5.71534">
        <ele>241</ele>
        <time>2012-09-14T13:19:26Z</time>
      </trkpt>
      <trkpt lat="47.15974" lon="5.71524">
        <ele>241</ele>
        <time>2012-09-14T13:19:28Z</time>
      </trkpt>
      <trkpt lat="47.15986" lon="5.71513">
        <ele>241</ele>
        <time>2012-09-14T13:19:30Z</time>
      </trkpt>
      <trkpt lat="47.15999" lon="5.71502">
        <ele>241</ele>
        <time>2012-09-14T13:19:32Z</time>
      </trkpt>
      <trkpt lat="47.16013" lon="5.71493">
        <ele>241</ele>
        <time>2012-09-14T13:19:34Z</time>
      </trkpt>
      <trkpt lat="47.16029" lon="5.71485">
        <ele>241</ele>
        <time>2012-09-14T13:19:36Z</time>
      </trkpt>
      <trkpt lat="47.16038" lon="5.71481">
        <ele>241</ele>
        <time>2012-09-14T13:19:37Z</time>
      </trkpt>
      <trkpt lat="47.16046" lon="5.71478">
        <ele>241</ele>
        <time>2012-09-14T13:19:38Z</time>
      </trkpt>
      <trkpt lat="47.16064" lon="5.71472">
        <ele>241</ele>
        <time>2012-09-14T13:19:40Z</time>
      </trkpt>
      <trkpt lat="47.16074" lon="5.71471">
        <ele>241</ele>
        <time>2012-09-14T13:19:41Z</time>
      </trkpt>
      <trkpt lat="47.16084" lon="5.7147">
        <ele>241</ele>
        <time>2012-09-14T13:19:42Z</time>
      </trkpt>
      <trkpt lat="47.16094" lon="5.7147">
        <ele>241</ele>
        <time>2012-09-14T13:19:43Z</time>
      </trkpt>
      <trkpt lat="47.16104" lon="5.7147">
        <ele>241</ele>
        <time>2012-09-14T13:19:44Z</time>
      </trkpt>
      <trkpt lat="47.16114" lon="5.7147">
        <ele>241</ele>
        <time>2012-09-14T13:19:45Z</time>
      </trkpt>
      <trkpt lat="47.16124" lon="5.71471">
        <ele>241</ele>
        <time>2012-09-14T13:19:46Z</time>
      </trkpt>
      <trkpt lat="47.16135" lon="5.71475">
        <ele>241</ele>
        <time>2012-09-14T13:19:47Z</time>
      </trkpt>
      <trkpt lat="47.16145" lon="5.71478">
        <ele>241</ele>
        <time>2012-09-14T13:19:48Z</time>
      </trkpt>
      <trkpt lat="47.16155" lon="5.71481">
        <ele>241</ele>
        <time>2012-09-14T13:19:49Z</time>
      </trkpt>
      <trkpt lat="47.16166" lon="5.71485">
        <ele>236</ele>
        <time>2012-09-14T13:19:50Z</time>
      </trkpt>
      <trkpt lat="47.16176" lon="5.71489">
        <ele>236</ele>
        <time>2012-09-14T13:19:51Z</time>
      </trkpt>
      <trkpt lat="47.16187" lon="5.71495">
        <ele>236</ele>
        <time>2012-09-14T13:19:52Z</time>
      </trkpt>
      <trkpt lat="47.16197" lon="5.715">
        <ele>236</ele>
        <time>2012-09-14T13:19:53Z</time>
      </trkpt>
      <trkpt lat="47.16207" lon="5.71505">
        <ele>236</ele>
        <time>2012-09-14T13:19:54Z</time>
      </trkpt>
      <trkpt lat="47.16218" lon="5.7151">
        <ele>236</ele>
        <time>2012-09-14T13:19:55Z</time>
      </trkpt>
      <trkpt lat="47.16228" lon="5.71515">
        <ele>236</ele>
        <time>2012-09-14T13:19:56Z</time>
      </trkpt>
      <trkpt lat="47.16239" lon="5.71521">
        <ele>236</ele>
        <time>2012-09-14T13:19:57Z</time>
      </trkpt>
      <trkpt lat="47.16249" lon="5.71525">
        <ele>236</ele>
        <time>2012-09-14T13:19:58Z</time>
      </trkpt>
      <trkpt lat="47.1626" lon="5.71531">
        <ele>236</ele>
        <time>2012-09-14T13:19:59Z</time>
      </trkpt>
      <trkpt lat="47.1627" lon="5.71536">
        <ele>230</ele>
        <time>2012-09-14T13:20:00Z</time>
      </trkpt>
      <trkpt lat="47.16281" lon="5.71541">
        <ele>230</ele>
        <time>2012-09-14T13:20:01Z</time>
      </trkpt>
      <trkpt lat="47.16291" lon="5.71546">
        <ele>230</ele>
        <time>2012-09-14T13:20:02Z</time>
      </trkpt>
      <trkpt lat="47.16302" lon="5.7155">
        <ele>230</ele>
        <time>2012-09-14T13:20:03Z</time>
      </trkpt>
      <trkpt lat="47.16313" lon="5.71554">
        <ele>230</ele>
        <time>2012-09-14T13:20:04Z</time>
      </trkpt>
      <trkpt lat="47.16325" lon="5.71557">
        <ele>230</ele>
        <time>2012-09-14T13:20:05Z</time>
      </trkpt>
      <trkpt lat="47.16336" lon="5.71559">
        <ele>230</ele>
        <time>2012-09-14T13:20:06Z</time>
      </trkpt>
      <trkpt lat="47.16348" lon="5.71559">
        <ele>230</ele>
        <time>2012-09-14T13:20:07Z</time>
      </trkpt>
      <trkpt lat="47.16359" lon="5.71559">
        <ele>230</ele>
        <time>2012-09-14T13:20:08Z</time>
      </trkpt>
      <trkpt lat="47.16372" lon="5.71558">
        <ele>230</ele>
        <time>2012-09-14T13:20:09Z</time>
      </trkpt>
      <trkpt lat="47.16384" lon="5.71555">
        <ele>225</ele>
        <time>2012-09-14T13:20:10Z</time>
      </trkpt>
      <trkpt lat="47.16396" lon="5.71551">
        <ele>225</ele>
        <time>2012-09-14T13:20:11Z</time>
      </trkpt>
      <trkpt lat="47.16408" lon="5.71547">
        <ele>225</ele>
        <time>2012-09-14T13:20:12Z</time>
      </trkpt>
      <trkpt lat="47.16419" lon="5.71541">
        <ele>225</ele>
        <time>2012-09-14T13:20:13Z</time>
      </trkpt>
      <trkpt lat="47.16431" lon="5.71537">
        <ele>225</ele>
        <time>2012-09-14T13:20:14Z</time>
      </trkpt>
      <trkpt lat="47.16443" lon="5.71532">
        <ele>225</ele>
        <time>2012-09-14T13:20:15Z</time>
      </trkpt>
      <trkpt lat="47.16454" lon="5.71526">
        <ele>225</ele>
        <time>2012-09-14T13:20:16Z</time>
      </trkpt>
      <trkpt lat="47.16465" lon="5.71521">
        <ele>225</ele>
        <time>2012-09-14T13:20:17Z</time>
      </trkpt>
      <trkpt lat="47.16476" lon="5.71516">
        <ele>225</ele>
        <time>2012-09-14T13:20:18Z</time>
      </trkpt>
      <trkpt lat="47.16486" lon="5.71512">
        <ele>225</ele>
        <time>2012-09-14T13:20:19Z</time>
      </trkpt>
      <trkpt lat="47.16496" lon="5.71507">
        <ele>225</ele>
        <time>2012-09-14T13:20:20Z</time>
      </trkpt>
      <trkpt lat="47.16506" lon="5.71505">
        <ele>225</ele>
        <time>2012-09-14T13:20:21Z</time>
      </trkpt>
      <trkpt lat="47.16516" lon="5.71502">
        <ele>225</ele>
        <time>2012-09-14T13:20:22Z</time>
      </trkpt>
      <trkpt lat="47.16525" lon="5.71499">
        <ele>225</ele>
        <time>2012-09-14T13:20:23Z</time>
      </trkpt>
      <trkpt lat="47.16542" lon="5.71496">
        <ele>225</ele>
        <time>2012-09-14T13:20:25Z</time>
      </trkpt>
      <trkpt lat="47.16558" lon="5.71493">
        <ele>225</ele>
        <time>2012-09-14T13:20:27Z</time>
      </trkpt>
      <trkpt lat="47.16572" lon="5.71491">
        <ele>225</ele>
        <time>2012-09-14T13:20:29Z</time>
      </trkpt>
      <trkpt lat="47.16586" lon="5.71491">
        <ele>225</ele>
        <time>2012-09-14T13:20:31Z</time>
      </trkpt>
      <trkpt lat="47.16598" lon="5.71491">
        <ele>225</ele>
        <time>2012-09-14T13:20:33Z</time>
      </trkpt>
      <trkpt lat="47.1661" lon="5.71491">
        <ele>225</ele>
        <time>2012-09-14T13:20:35Z</time>
      </trkpt>
      <trkpt lat="47.16622" lon="5.7149">
        <ele>225</ele>
        <time>2012-09-14T13:20:37Z</time>
      </trkpt>
      <trkpt lat="47.16633" lon="5.71491">
        <ele>225</ele>
        <time>2012-09-14T13:20:39Z</time>
      </trkpt>
      <trkpt lat="47.16645" lon="5.71491">
        <ele>225</ele>
        <time>2012-09-14T13:20:41Z</time>
      </trkpt>
      <trkpt lat="47.16657" lon="5.71491">
        <ele>225</ele>
        <time>2012-09-14T13:20:43Z</time>
      </trkpt>
      <trkpt lat="47.16668" lon="5.71492">
        <ele>225</ele>
        <time>2012-09-14T13:20:45Z</time>
      </trkpt>
      <trkpt lat="47.16679" lon="5.71493">
        <ele>225</ele>
        <time>2012-09-14T13:20:47Z</time>
      </trkpt>
      <trkpt lat="47.16692" lon="5.71494">
        <ele>225</ele>
        <time>2012-09-14T13:20:49Z</time>
      </trkpt>
      <trkpt lat="47.16703" lon="5.71496">
        <ele>231</ele>
        <time>2012-09-14T13:20:51Z</time>
      </trkpt>
      <trkpt lat="47.16714" lon="5.71497">
        <ele>231</ele>
        <time>2012-09-14T13:20:53Z</time>
      </trkpt>
      <trkpt lat="47.16725" lon="5.71498">
        <ele>231</ele>
        <time>2012-09-14T13:20:55Z</time>
      </trkpt>
      <trkpt lat="47.16736" lon="5.715">
        <ele>231</ele>
        <time>2012-09-14T13:20:57Z</time>
      </trkpt>
      <trkpt lat="47.16746" lon="5.71502">
        <ele>231</ele>
        <time>2012-09-14T13:20:59Z</time>
      </trkpt>
      <trkpt lat="47.16756" lon="5.71505">
        <ele>231</ele>
        <time>2012-09-14T13:21:01Z</time>
      </trkpt>
      <trkpt lat="47.16767" lon="5.71507">
        <ele>231</ele>
        <time>2012-09-14T13:21:03Z</time>
      </trkpt>
      <trkpt lat="47.16777" lon="5.7151">
        <ele>231</ele>
        <time>2012-09-14T13:21:05Z</time>
      </trkpt>
      <trkpt lat="47.16786" lon="5.71513">
        <ele>237</ele>
        <time>2012-09-14T13:21:07Z</time>
      </trkpt>
      <trkpt lat="47.16797" lon="5.71515">
        <ele>237</ele>
        <time>2012-09-14T13:21:09Z</time>
      </trkpt>
      <trkpt lat="47.16808" lon="5.71522">
        <ele>237</ele>
        <time>2012-09-14T13:21:11Z</time>
      </trkpt>
      <trkpt lat="47.16818" lon="5.71527">
        <ele>237</ele>
        <time>2012-09-14T13:21:13Z</time>
      </trkpt>
      <trkpt lat="47.16828" lon="5.71532">
        <ele>237</ele>
        <time>2012-09-14T13:21:15Z</time>
      </trkpt>
      <trkpt lat="47.16838" lon="5.71538">
        <ele>237</ele>
        <time>2012-09-14T13:21:17Z</time>
      </trkpt>
      <trkpt lat="47.16847" lon="5.71542">
        <ele>237</ele>
        <time>2012-09-14T13:21:19Z</time>
      </trkpt>
      <trkpt lat="47.16856" lon="5.71548">
        <ele>237</ele>
        <time>2012-09-14T13:21:21Z</time>
      </trkpt>
      <trkpt lat="47.16869" lon="5.71555">
        <ele>243</ele>
        <time>2012-09-14T13:21:24Z</time>
      </trkpt>
      <trkpt lat="47.16877" lon="5.7156">
        <ele>243</ele>
        <time>2012-09-14T13:21:26Z</time>
      </trkpt>
      <trkpt lat="47.16886" lon="5.71566">
        <ele>243</ele>
        <time>2012-09-14T13:21:28Z</time>
      </trkpt>
      <trkpt lat="47.16897" lon="5.71566">
        <ele>252</ele>
        <time>2012-09-14T13:21:31Z</time>
      </trkpt>
      <trkpt lat="47.16907" lon="5.71568">
        <ele>252</ele>
        <time>2012-09-14T13:21:33Z</time>
      </trkpt>
      <trkpt lat="47.16916" lon="5.71571">
        <ele>252</ele>
        <time>2012-09-14T13:21:35Z</time>
      </trkpt>
      <trkpt lat="47.16926" lon="5.71573">
        <ele>252</ele>
        <time>2012-09-14T13:21:37Z</time>
      </trkpt>
      <trkpt lat="47.16935" lon="5.71573">
        <ele>252</ele>
        <time>2012-09-14T13:21:39Z</time>
      </trkpt>
      <trkpt lat="47.16945" lon="5.71573">
        <ele>252</ele>
        <time>2012-09-14T13:21:41Z</time>
      </trkpt>
      <trkpt lat="47.16958" lon="5.7157">
        <ele>252</ele>
        <time>2012-09-14T13:21:44Z</time>
      </trkpt>
      <trkpt lat="47.16968" lon="5.71567">
        <ele>252</ele>
        <time>2012-09-14T13:21:46Z</time>
      </trkpt>
      <trkpt lat="47.16978" lon="5.71562">
        <ele>252</ele>
        <time>2012-09-14T13:21:48Z</time>
      </trkpt>
      <trkpt lat="47.16989" lon="5.71558">
        <ele>246</ele>
        <time>2012-09-14T13:21:50Z</time>
      </trkpt>
      <trkpt lat="47.16998" lon="5.71553">
        <ele>246</ele>
        <time>2012-09-14T13:21:52Z</time>
      </trkpt>
      <trkpt lat="47.17008" lon="5.71549">
        <ele>246</ele>
        <time>2012-09-14T13:21:54Z</time>
      </trkpt>
      <trkpt lat="47.17018" lon="5.71544">
        <ele>246</ele>
        <time>2012-09-14T13:21:56Z</time>
      </trkpt>
      <trkpt lat="47.17028" lon="5.71541">
        <ele>246</ele>
        <time>2012-09-14T13:21:58Z</time>
      </trkpt>
      <trkpt lat="47.17039" lon="5.71539">
        <ele>246</ele>
        <time>2012-09-14T13:22:00Z</time>
      </trkpt>
      <trkpt lat="47.17049" lon="5.71537">
        <ele>246</ele>
        <time>2012-09-14T13:22:02Z</time>
      </trkpt>
      <trkpt lat="47.17058" lon="5.71534">
        <ele>246</ele>
        <time>2012-09-14T13:22:04Z</time>
      </trkpt>
      <trkpt lat="47.17067" lon="5.71532">
        <ele>246</ele>
        <time>2012-09-14T13:22:06Z</time>
      </trkpt>
      <trkpt lat="47.17076" lon="5.7153">
        <ele>246</ele>
        <time>2012-09-14T13:22:08Z</time>
      </trkpt>
      <trkpt lat="47.17085" lon="5.71528">
        <ele>246</ele>
        <time>2012-09-14T13:22:10Z</time>
      </trkpt>
      <trkpt lat="47.17095" lon="5.71526">
        <ele>246</ele>
        <time>2012-09-14T13:22:12Z</time>
      </trkpt>
      <trkpt lat="47.17104" lon="5.71524">
        <ele>246</ele>
        <time>2012-09-14T13:22:14Z</time>
      </trkpt>
      <trkpt lat="47.17117" lon="5.71521">
        <ele>246</ele>
        <time>2012-09-14T13:22:17Z</time>
      </trkpt>
      <trkpt lat="47.17127" lon="5.71521">
        <ele>246</ele>
        <time>2012-09-14T13:22:19Z</time>
      </trkpt>
      <trkpt lat="47.17141" lon="5.71517">
        <ele>246</ele>
        <time>2012-09-14T13:22:22Z</time>
      </trkpt>
      <trkpt lat="47.17153" lon="5.71515">
        <ele>246</ele>
        <time>2012-09-14T13:22:25Z</time>
      </trkpt>
      <trkpt lat="47.17162" lon="5.71511">
        <ele>246</ele>
        <time>2012-09-14T13:22:27Z</time>
      </trkpt>
      <trkpt lat="47.17171" lon="5.71509">
        <ele>252</ele>
        <time>2012-09-14T13:22:29Z</time>
      </trkpt>
      <trkpt lat="47.17183" lon="5.71507">
        <ele>252</ele>
        <time>2012-09-14T13:22:32Z</time>
      </trkpt>
      <trkpt lat="47.17195" lon="5.71505">
        <ele>252</ele>
        <time>2012-09-14T13:22:35Z</time>
      </trkpt>
      <trkpt lat="47.17208" lon="5.71501">
        <ele>252</ele>
        <time>2012-09-14T13:22:38Z</time>
      </trkpt>
      <trkpt lat="47.17221" lon="5.71498">
        <ele>252</ele>
        <time>2012-09-14T13:22:41Z</time>
      </trkpt>
      <trkpt lat="47.17233" lon="5.71497">
        <ele>252</ele>
        <time>2012-09-14T13:22:44Z</time>
      </trkpt>
      <trkpt lat="47.17245" lon="5.71496">
        <ele>252</ele>
        <time>2012-09-14T13:22:47Z</time>
      </trkpt>
      <trkpt lat="47.17258" lon="5.71495">
        <ele>258</ele>
        <time>2012-09-14T13:22:50Z</time>
      </trkpt>
      <trkpt lat="47.17269" lon="5.71491">
        <ele>258</ele>
        <time>2012-09-14T13:22:53Z</time>
      </trkpt>
      <trkpt lat="47.17281" lon="5.71487">
        <ele>258</ele>
        <time>2012-09-14T13:22:56Z</time>
      </trkpt>
      <trkpt lat="47.17294" lon="5.71485">
        <ele>258</ele>
        <time>2012-09-14T13:22:59Z</time>
      </trkpt>
      <trkpt lat="47.17304" lon="5.71481">
        <ele>258</ele>
        <time>2012-09-14T13:23:02Z</time>
      </trkpt>
      <trkpt lat="47.17315" lon="5.71479">
        <ele>258</ele>
        <time>2012-09-14T13:23:05Z</time>
      </trkpt>
      <trkpt lat="47.17328" lon="5.71478">
        <ele>258</ele>
        <time>2012-09-14T13:23:08Z</time>
      </trkpt>
      <trkpt lat="47.1734" lon="5.71474">
        <ele>258</ele>
        <time>2012-09-14T13:23:11Z</time>
      </trkpt>
      <trkpt lat="47.17353" lon="5.71471">
        <ele>258</ele>
        <time>2012-09-14T13:23:14Z</time>
      </trkpt>
      <trkpt lat="47.17365" lon="5.71466">
        <ele>258</ele>
        <time>2012-09-14T13:23:17Z</time>
      </trkpt>
      <trkpt lat="47.17375" lon="5.71465">
        <ele>258</ele>
        <time>2012-09-14T13:23:19Z</time>
      </trkpt>
      <trkpt lat="47.17387" lon="5.71463">
        <ele>258</ele>
        <time>2012-09-14T13:23:22Z</time>
      </trkpt>
      <trkpt lat="47.174" lon="5.7146">
        <ele>258</ele>
        <time>2012-09-14T13:23:25Z</time>
      </trkpt>
      <trkpt lat="47.17409" lon="5.71456">
        <ele>258</ele>
        <time>2012-09-14T13:23:27Z</time>
      </trkpt>
      <trkpt lat="47.17418" lon="5.71454">
        <ele>258</ele>
        <time>2012-09-14T13:23:29Z</time>
      </trkpt>
      <trkpt lat="47.17428" lon="5.71451">
        <ele>258</ele>
        <time>2012-09-14T13:23:31Z</time>
      </trkpt>
      <trkpt lat="47.17439" lon="5.71449">
        <ele>258</ele>
        <time>2012-09-14T13:23:33Z</time>
      </trkpt>
      <trkpt lat="47.17448" lon="5.71444">
        <ele>258</ele>
        <time>2012-09-14T13:23:35Z</time>
      </trkpt>
      <trkpt lat="47.17458" lon="5.7144">
        <ele>258</ele>
        <time>2012-09-14T13:23:37Z</time>
      </trkpt>
      <trkpt lat="47.17467" lon="5.71435">
        <ele>258</ele>
        <time>2012-09-14T13:23:39Z</time>
      </trkpt>
      <trkpt lat="47.17476" lon="5.71429">
        <ele>258</ele>
        <time>2012-09-14T13:23:41Z</time>
      </trkpt>
      <trkpt lat="47.17484" lon="5.71424">
        <ele>258</ele>
        <time>2012-09-14T13:23:43Z</time>
      </trkpt>
      <trkpt lat="47.17493" lon="5.71418">
        <ele>258</ele>
        <time>2012-09-14T13:23:45Z</time>
      </trkpt>
      <trkpt lat="47.17501" lon="5.71411">
        <ele>258</ele>
        <time>2012-09-14T13:23:47Z</time>
      </trkpt>
      <trkpt lat="47.1751" lon="5.71404">
        <ele>258</ele>
        <time>2012-09-14T13:23:49Z</time>
      </trkpt>
      <trkpt lat="47.17518" lon="5.71398">
        <ele>258</ele>
        <time>2012-09-14T13:23:51Z</time>
      </trkpt>
      <trkpt lat="47.17528" lon="5.71391">
        <ele>258</ele>
        <time>2012-09-14T13:23:53Z</time>
      </trkpt>
      <trkpt lat="47.17536" lon="5.71382">
        <ele>258</ele>
        <time>2012-09-14T13:23:55Z</time>
      </trkpt>
      <trkpt lat="47.17545" lon="5.71373">
        <ele>258</ele>
        <time>2012-09-14T13:23:57Z</time>
      </trkpt>
      <trkpt lat="47.17554" lon="5.71365">
        <ele>258</ele>
        <time>2012-09-14T13:23:59Z</time>
      </trkpt>
      <trkpt lat="47.17564" lon="5.71356">
        <ele>258</ele>
        <time>2012-09-14T13:24:01Z</time>
      </trkpt>
      <trkpt lat="47.17574" lon="5.71347">
        <ele>258</ele>
        <time>2012-09-14T13:24:03Z</time>
      </trkpt>
      <trkpt lat="47.17584" lon="5.71338">
        <ele>258</ele>
        <time>2012-09-14T13:24:05Z</time>
      </trkpt>
      <trkpt lat="47.17594" lon="5.71331">
        <ele>258</ele>
        <time>2012-09-14T13:24:07Z</time>
      </trkpt>
      <trkpt lat="47.17604" lon="5.71322">
        <ele>258</ele>
        <time>2012-09-14T13:24:09Z</time>
      </trkpt>
      <trkpt lat="47.17614" lon="5.71312">
        <ele>258</ele>
        <time>2012-09-14T13:24:11Z</time>
      </trkpt>
      <trkpt lat="47.17623" lon="5.71302">
        <ele>258</ele>
        <time>2012-09-14T13:24:13Z</time>
      </trkpt>
      <trkpt lat="47.17634" lon="5.71292">
        <ele>258</ele>
        <time>2012-09-14T13:24:15Z</time>
      </trkpt>
      <trkpt lat="47.17645" lon="5.71284">
        <ele>258</ele>
        <time>2012-09-14T13:24:17Z</time>
      </trkpt>
      <trkpt lat="47.17655" lon="5.71274">
        <ele>258</ele>
        <time>2012-09-14T13:24:19Z</time>
      </trkpt>
      <trkpt lat="47.17666" lon="5.71265">
        <ele>258</ele>
        <time>2012-09-14T13:24:21Z</time>
      </trkpt>
      <trkpt lat="47.17677" lon="5.71256">
        <ele>253</ele>
        <time>2012-09-14T13:24:23Z</time>
      </trkpt>
      <trkpt lat="47.17688" lon="5.71246">
        <ele>253</ele>
        <time>2012-09-14T13:24:25Z</time>
      </trkpt>
      <trkpt lat="47.177" lon="5.71235">
        <ele>253</ele>
        <time>2012-09-14T13:24:27Z</time>
      </trkpt>
      <trkpt lat="47.17711" lon="5.71226">
        <ele>253</ele>
        <time>2012-09-14T13:24:29Z</time>
      </trkpt>
      <trkpt lat="47.17723" lon="5.71216">
        <ele>253</ele>
        <time>2012-09-14T13:24:31Z</time>
      </trkpt>
      <trkpt lat="47.17734" lon="5.71206">
        <ele>253</ele>
        <time>2012-09-14T13:24:33Z</time>
      </trkpt>
      <trkpt lat="47.17745" lon="5.71197">
        <ele>253</ele>
        <time>2012-09-14T13:24:35Z</time>
      </trkpt>
      <trkpt lat="47.17755" lon="5.71188">
        <ele>253</ele>
        <time>2012-09-14T13:24:37Z</time>
      </trkpt>
      <trkpt lat="47.17766" lon="5.71179">
        <ele>253</ele>
        <time>2012-09-14T13:24:39Z</time>
      </trkpt>
      <trkpt lat="47.17776" lon="5.7117">
        <ele>253</ele>
        <time>2012-09-14T13:24:41Z</time>
      </trkpt>
      <trkpt lat="47.17786" lon="5.71161">
        <ele>253</ele>
        <time>2012-09-14T13:24:43Z</time>
      </trkpt>
      <trkpt lat="47.17797" lon="5.71152">
        <ele>253</ele>
        <time>2012-09-14T13:24:45Z</time>
      </trkpt>
      <trkpt lat="47.17808" lon="5.71142">
        <ele>253</ele>
        <time>2012-09-14T13:24:47Z</time>
      </trkpt>
      <trkpt lat="47.17818" lon="5.71133">
        <ele>253</ele>
        <time>2012-09-14T13:24:49Z</time>
      </trkpt>
      <trkpt lat="47.17828" lon="5.71124">
        <ele>253</ele>
        <time>2012-09-14T13:24:51Z</time>
      </trkpt>
      <trkpt lat="47.17839" lon="5.71115">
        <ele>253</ele>
        <time>2012-09-14T13:24:53Z</time>
      </trkpt>
      <trkpt lat="47.17849" lon="5.71106">
        <ele>253</ele>
        <time>2012-09-14T13:24:55Z</time>
      </trkpt>
      <trkpt lat="47.1786" lon="5.71096">
        <ele>253</ele>
        <time>2012-09-14T13:24:57Z</time>
      </trkpt>
      <trkpt lat="47.17871" lon="5.71087">
        <ele>253</ele>
        <time>2012-09-14T13:24:59Z</time>
      </trkpt>
      <trkpt lat="47.17882" lon="5.71078">
        <ele>253</ele>
        <time>2012-09-14T13:25:01Z</time>
      </trkpt>
      <trkpt lat="47.17893" lon="5.71067">
        <ele>253</ele>
        <time>2012-09-14T13:25:03Z</time>
      </trkpt>
      <trkpt lat="47.17903" lon="5.71058">
        <ele>253</ele>
        <time>2012-09-14T13:25:05Z</time>
      </trkpt>
      <trkpt lat="47.17914" lon="5.71049">
        <ele>253</ele>
        <time>2012-09-14T13:25:07Z</time>
      </trkpt>
      <trkpt lat="47.17924" lon="5.7104">
        <ele>253</ele>
        <time>2012-09-14T13:25:09Z</time>
      </trkpt>
      <trkpt lat="47.17934" lon="5.71031">
        <ele>253</ele>
        <time>2012-09-14T13:25:11Z</time>
      </trkpt>
      <trkpt lat="47.17944" lon="5.71022">
        <ele>253</ele>
        <time>2012-09-14T13:25:13Z</time>
      </trkpt>
      <trkpt lat="47.17954" lon="5.71013">
        <ele>253</ele>
        <time>2012-09-14T13:25:15Z</time>
      </trkpt>
      <trkpt lat="47.17964" lon="5.71003">
        <ele>253</ele>
        <time>2012-09-14T13:25:17Z</time>
      </trkpt>
      <trkpt lat="47.17975" lon="5.70996">
        <ele>253</ele>
        <time>2012-09-14T13:25:19Z</time>
      </trkpt>
      <trkpt lat="47.17985" lon="5.70985">
        <ele>253</ele>
        <time>2012-09-14T13:25:21Z</time>
      </trkpt>
      <trkpt lat="47.17994" lon="5.70976">
        <ele>253</ele>
        <time>2012-09-14T13:25:23Z</time>
      </trkpt>
      <trkpt lat="47.18005" lon="5.70967">
        <ele>253</ele>
        <time>2012-09-14T13:25:25Z</time>
      </trkpt>
      <trkpt lat="47.18016" lon="5.70958">
        <ele>253</ele>
        <time>2012-09-14T13:25:27Z</time>
      </trkpt>
      <trkpt lat="47.18026" lon="5.70949">
        <ele>253</ele>
        <time>2012-09-14T13:25:29Z</time>
      </trkpt>
      <trkpt lat="47.18037" lon="5.70939">
        <ele>253</ele>
        <time>2012-09-14T13:25:31Z</time>
      </trkpt>
      <trkpt lat="47.18048" lon="5.70929">
        <ele>253</ele>
        <time>2012-09-14T13:25:33Z</time>
      </trkpt>
      <trkpt lat="47.1806" lon="5.7092">
        <ele>253</ele>
        <time>2012-09-14T13:25:35Z</time>
      </trkpt>
      <trkpt lat="47.18072" lon="5.7091">
        <ele>253</ele>
        <time>2012-09-14T13:25:37Z</time>
      </trkpt>
      <trkpt lat="47.18083" lon="5.70898">
        <ele>253</ele>
        <time>2012-09-14T13:25:39Z</time>
      </trkpt>
      <trkpt lat="47.18093" lon="5.70885">
        <ele>253</ele>
        <time>2012-09-14T13:25:41Z</time>
      </trkpt>
      <trkpt lat="47.18105" lon="5.70871">
        <ele>253</ele>
        <time>2012-09-14T13:25:43Z</time>
      </trkpt>
      <trkpt lat="47.18116" lon="5.70856">
        <ele>253</ele>
        <time>2012-09-14T13:25:45Z</time>
      </trkpt>
      <trkpt lat="47.18127" lon="5.70841">
        <ele>253</ele>
        <time>2012-09-14T13:25:47Z</time>
      </trkpt>
      <trkpt lat="47.1814" lon="5.70825">
        <ele>253</ele>
        <time>2012-09-14T13:25:49Z</time>
      </trkpt>
      <trkpt lat="47.18152" lon="5.70809">
        <ele>253</ele>
        <time>2012-09-14T13:25:51Z</time>
      </trkpt>
      <trkpt lat="47.18165" lon="5.70792">
        <ele>253</ele>
        <time>2012-09-14T13:25:53Z</time>
      </trkpt>
      <trkpt lat="47.18176" lon="5.70774">
        <ele>253</ele>
        <time>2012-09-14T13:25:55Z</time>
      </trkpt>
      <trkpt lat="47.18187" lon="5.70755">
        <ele>247</ele>
        <time>2012-09-14T13:25:57Z</time>
      </trkpt>
      <trkpt lat="47.18197" lon="5.70734">
        <ele>247</ele>
        <time>2012-09-14T13:25:59Z</time>
      </trkpt>
      <trkpt lat="47.18203" lon="5.70722">
        <ele>247</ele>
        <time>2012-09-14T13:26:00Z</time>
      </trkpt>
      <trkpt lat="47.18208" lon="5.70711">
        <ele>247</ele>
        <time>2012-09-14T13:26:01Z</time>
      </trkpt>
      <trkpt lat="47.18212" lon="5.70699">
        <ele>247</ele>
        <time>2012-09-14T13:26:02Z</time>
      </trkpt>
      <trkpt lat="47.18217" lon="5.70687">
        <ele>247</ele>
        <time>2012-09-14T13:26:03Z</time>
      </trkpt>
      <trkpt lat="47.18222" lon="5.70675">
        <ele>247</ele>
        <time>2012-09-14T13:26:04Z</time>
      </trkpt>
      <trkpt lat="47.18227" lon="5.70663">
        <ele>247</ele>
        <time>2012-09-14T13:26:05Z</time>
      </trkpt>
      <trkpt lat="47.18232" lon="5.7065">
        <ele>247</ele>
        <time>2012-09-14T13:26:06Z</time>
      </trkpt>
      <trkpt lat="47.18237" lon="5.70637">
        <ele>247</ele>
        <time>2012-09-14T13:26:07Z</time>
      </trkpt>
      <trkpt lat="47.18242" lon="5.70624">
        <ele>242</ele>
        <time>2012-09-14T13:26:08Z</time>
      </trkpt>
      <trkpt lat="47.18247" lon="5.70612">
        <ele>242</ele>
        <time>2012-09-14T13:26:09Z</time>
      </trkpt>
      <trkpt lat="47.18253" lon="5.70599">
        <ele>242</ele>
        <time>2012-09-14T13:26:10Z</time>
      </trkpt>
      <trkpt lat="47.18258" lon="5.70587">
        <ele>242</ele>
        <time>2012-09-14T13:26:11Z</time>
      </trkpt>
      <trkpt lat="47.18265" lon="5.70574">
        <ele>242</ele>
        <time>2012-09-14T13:26:12Z</time>
      </trkpt>
      <trkpt lat="47.18271" lon="5.70562">
        <ele>242</ele>
        <time>2012-09-14T13:26:13Z</time>
      </trkpt>
      <trkpt lat="47.18279" lon="5.70551">
        <ele>242</ele>
        <time>2012-09-14T13:26:14Z</time>
      </trkpt>
      <trkpt lat="47.18285" lon="5.7054">
        <ele>242</ele>
        <time>2012-09-14T13:26:15Z</time>
      </trkpt>
      <trkpt lat="47.18292" lon="5.7053">
        <ele>242</ele>
        <time>2012-09-14T13:26:16Z</time>
      </trkpt>
      <trkpt lat="47.18299" lon="5.7052">
        <ele>242</ele>
        <time>2012-09-14T13:26:17Z</time>
      </trkpt>
      <trkpt lat="47.18307" lon="5.70512">
        <ele>242</ele>
        <time>2012-09-14T13:26:18Z</time>
      </trkpt>
      <trkpt lat="47.18315" lon="5.70506">
        <ele>242</ele>
        <time>2012-09-14T13:26:19Z</time>
      </trkpt>
      <trkpt lat="47.18329" lon="5.70494">
        <ele>242</ele>
        <time>2012-09-14T13:26:21Z</time>
      </trkpt>
      <trkpt lat="47.18342" lon="5.70484">
        <ele>242</ele>
        <time>2012-09-14T13:26:23Z</time>
      </trkpt>
      <trkpt lat="47.18354" lon="5.70476">
        <ele>242</ele>
        <time>2012-09-14T13:26:25Z</time>
      </trkpt>
      <trkpt lat="47.18366" lon="5.70469">
        <ele>242</ele>
        <time>2012-09-14T13:26:27Z</time>
      </trkpt>
      <trkpt lat="47.18378" lon="5.70461">
        <ele>242</ele>
        <time>2012-09-14T13:26:29Z</time>
      </trkpt>
      <trkpt lat="47.18389" lon="5.70454">
        <ele>242</ele>
        <time>2012-09-14T13:26:31Z</time>
      </trkpt>
      <trkpt lat="47.18399" lon="5.70446">
        <ele>242</ele>
        <time>2012-09-14T13:26:33Z</time>
      </trkpt>
      <trkpt lat="47.1841" lon="5.70439">
        <ele>242</ele>
        <time>2012-09-14T13:26:35Z</time>
      </trkpt>
      <trkpt lat="47.18422" lon="5.70433">
        <ele>242</ele>
        <time>2012-09-14T13:26:37Z</time>
      </trkpt>
      <trkpt lat="47.18433" lon="5.70425">
        <ele>242</ele>
        <time>2012-09-14T13:26:39Z</time>
      </trkpt>
      <trkpt lat="47.18444" lon="5.70418">
        <ele>242</ele>
        <time>2012-09-14T13:26:41Z</time>
      </trkpt>
      <trkpt lat="47.18454" lon="5.7041">
        <ele>242</ele>
        <time>2012-09-14T13:26:43Z</time>
      </trkpt>
      <trkpt lat="47.18465" lon="5.70403">
        <ele>242</ele>
        <time>2012-09-14T13:26:45Z</time>
      </trkpt>
      <trkpt lat="47.18476" lon="5.70396">
        <ele>242</ele>
        <time>2012-09-14T13:26:47Z</time>
      </trkpt>
      <trkpt lat="47.18486" lon="5.70388">
        <ele>242</ele>
        <time>2012-09-14T13:26:49Z</time>
      </trkpt>
      <trkpt lat="47.18497" lon="5.7038">
        <ele>242</ele>
        <time>2012-09-14T13:26:51Z</time>
      </trkpt>
      <trkpt lat="47.18508" lon="5.70371">
        <ele>242</ele>
        <time>2012-09-14T13:26:53Z</time>
      </trkpt>
      <trkpt lat="47.18519" lon="5.70363">
        <ele>242</ele>
        <time>2012-09-14T13:26:55Z</time>
      </trkpt>
      <trkpt lat="47.18529" lon="5.70354">
        <ele>242</ele>
        <time>2012-09-14T13:26:57Z</time>
      </trkpt>
      <trkpt lat="47.1854" lon="5.70344">
        <ele>242</ele>
        <time>2012-09-14T13:26:59Z</time>
      </trkpt>
      <trkpt lat="47.18551" lon="5.70335">
        <ele>242</ele>
        <time>2012-09-14T13:27:01Z</time>
      </trkpt>
      <trkpt lat="47.18562" lon="5.70326">
        <ele>242</ele>
        <time>2012-09-14T13:27:03Z</time>
      </trkpt>
      <trkpt lat="47.18574" lon="5.70316">
        <ele>242</ele>
        <time>2012-09-14T13:27:05Z</time>
      </trkpt>
      <trkpt lat="47.18585" lon="5.70306">
        <ele>242</ele>
        <time>2012-09-14T13:27:07Z</time>
      </trkpt>
      <trkpt lat="47.18597" lon="5.70296">
        <ele>242</ele>
        <time>2012-09-14T13:27:09Z</time>
      </trkpt>
      <trkpt lat="47.18609" lon="5.70287">
        <ele>242</ele>
        <time>2012-09-14T13:27:11Z</time>
      </trkpt>
      <trkpt lat="47.18621" lon="5.70278">
        <ele>242</ele>
        <time>2012-09-14T13:27:13Z</time>
      </trkpt>
      <trkpt lat="47.18633" lon="5.70268">
        <ele>242</ele>
        <time>2012-09-14T13:27:15Z</time>
      </trkpt>
      <trkpt lat="47.18645" lon="5.70258">
        <ele>242</ele>
        <time>2012-09-14T13:27:17Z</time>
      </trkpt>
      <trkpt lat="47.18658" lon="5.70248">
        <ele>242</ele>
        <time>2012-09-14T13:27:19Z</time>
      </trkpt>
      <trkpt lat="47.18671" lon="5.70236">
        <ele>242</ele>
        <time>2012-09-14T13:27:21Z</time>
      </trkpt>
      <trkpt lat="47.18685" lon="5.70225">
        <ele>242</ele>
        <time>2012-09-14T13:27:23Z</time>
      </trkpt>
      <trkpt lat="47.18699" lon="5.70214">
        <ele>242</ele>
        <time>2012-09-14T13:27:25Z</time>
      </trkpt>
      <trkpt lat="47.18713" lon="5.702">
        <ele>242</ele>
        <time>2012-09-14T13:27:27Z</time>
      </trkpt>
      <trkpt lat="47.18721" lon="5.70194">
        <ele>242</ele>
        <time>2012-09-14T13:27:28Z</time>
      </trkpt>
      <trkpt lat="47.18729" lon="5.70187">
        <ele>242</ele>
        <time>2012-09-14T13:27:29Z</time>
      </trkpt>
      <trkpt lat="47.18737" lon="5.7018">
        <ele>242</ele>
        <time>2012-09-14T13:27:30Z</time>
      </trkpt>
      <trkpt lat="47.18745" lon="5.70172">
        <ele>242</ele>
        <time>2012-09-14T13:27:31Z</time>
      </trkpt>
      <trkpt lat="47.18754" lon="5.70163">
        <ele>242</ele>
        <time>2012-09-14T13:27:32Z</time>
      </trkpt>
      <trkpt lat="47.18762" lon="5.70155">
        <ele>242</ele>
        <time>2012-09-14T13:27:33Z</time>
      </trkpt>
      <trkpt lat="47.1877" lon="5.70145">
        <ele>242</ele>
        <time>2012-09-14T13:27:34Z</time>
      </trkpt>
      <trkpt lat="47.18778" lon="5.70136">
        <ele>242</ele>
        <time>2012-09-14T13:27:35Z</time>
      </trkpt>
      <trkpt lat="47.18786" lon="5.70125">
        <ele>236</ele>
        <time>2012-09-14T13:27:36Z</time>
      </trkpt>
      <trkpt lat="47.18794" lon="5.70114">
        <ele>236</ele>
        <time>2012-09-14T13:27:37Z</time>
      </trkpt>
      <trkpt lat="47.18802" lon="5.70102">
        <ele>236</ele>
        <time>2012-09-14T13:27:38Z</time>
      </trkpt>
      <trkpt lat="47.1881" lon="5.70092">
        <ele>236</ele>
        <time>2012-09-14T13:27:39Z</time>
      </trkpt>
      <trkpt lat="47.18818" lon="5.70081">
        <ele>236</ele>
        <time>2012-09-14T13:27:40Z</time>
      </trkpt>
      <trkpt lat="47.18825" lon="5.70069">
        <ele>236</ele>
        <time>2012-09-14T13:27:41Z</time>
      </trkpt>
      <trkpt lat="47.18832" lon="5.70058">
        <ele>236</ele>
        <time>2012-09-14T13:27:42Z</time>
      </trkpt>
      <trkpt lat="47.1884" lon="5.70047">
        <ele>236</ele>
        <time>2012-09-14T13:27:43Z</time>
      </trkpt>
      <trkpt lat="47.18846" lon="5.70035">
        <ele>236</ele>
        <time>2012-09-14T13:27:44Z</time>
      </trkpt>
      <trkpt lat="47.18853" lon="5.70024">
        <ele>236</ele>
        <time>2012-09-14T13:27:45Z</time>
      </trkpt>
      <trkpt lat="47.18859" lon="5.70013">
        <ele>236</ele>
        <time>2012-09-14T13:27:46Z</time>
      </trkpt>
      <trkpt lat="47.18866" lon="5.70003">
        <ele>236</ele>
        <time>2012-09-14T13:27:47Z</time>
      </trkpt>
      <trkpt lat="47.18872" lon="5.69993">
        <ele>236</ele>
        <time>2012-09-14T13:27:48Z</time>
      </trkpt>
      <trkpt lat="47.18878" lon="5.69983">
        <ele>236</ele>
        <time>2012-09-14T13:27:49Z</time>
      </trkpt>
      <trkpt lat="47.1889" lon="5.69963">
        <ele>236</ele>
        <time>2012-09-14T13:27:51Z</time>
      </trkpt>
      <trkpt lat="47.18901" lon="5.69946">
        <ele>236</ele>
        <time>2012-09-14T13:27:53Z</time>
      </trkpt>
      <trkpt lat="47.18912" lon="5.6993">
        <ele>236</ele>
        <time>2012-09-14T13:27:55Z</time>
      </trkpt>
      <trkpt lat="47.18923" lon="5.69916">
        <ele>236</ele>
        <time>2012-09-14T13:27:57Z</time>
      </trkpt>
      <trkpt lat="47.18934" lon="5.69903">
        <ele>236</ele>
        <time>2012-09-14T13:27:59Z</time>
      </trkpt>
      <trkpt lat="47.18945" lon="5.69892">
        <ele>236</ele>
        <time>2012-09-14T13:28:01Z</time>
      </trkpt>
      <trkpt lat="47.18955" lon="5.69881">
        <ele>236</ele>
        <time>2012-09-14T13:28:03Z</time>
      </trkpt>
      <trkpt lat="47.18965" lon="5.69872">
        <ele>236</ele>
        <time>2012-09-14T13:28:05Z</time>
      </trkpt>
      <trkpt lat="47.18974" lon="5.69863">
        <ele>236</ele>
        <time>2012-09-14T13:28:07Z</time>
      </trkpt>
      <trkpt lat="47.18984" lon="5.69854">
        <ele>236</ele>
        <time>2012-09-14T13:28:09Z</time>
      </trkpt>
      <trkpt lat="47.18995" lon="5.69848">
        <ele>236</ele>
        <time>2012-09-14T13:28:11Z</time>
      </trkpt>
      <trkpt lat="47.19003" lon="5.69841">
        <ele>236</ele>
        <time>2012-09-14T13:28:13Z</time>
      </trkpt>
      <trkpt lat="47.19012" lon="5.69835">
        <ele>236</ele>
        <time>2012-09-14T13:28:15Z</time>
      </trkpt>
      <trkpt lat="47.1902" lon="5.69828">
        <ele>236</ele>
        <time>2012-09-14T13:28:17Z</time>
      </trkpt>
      <trkpt lat="47.19028" lon="5.69823">
        <ele>236</ele>
        <time>2012-09-14T13:28:19Z</time>
      </trkpt>
      <trkpt lat="47.19037" lon="5.69818">
        <ele>241</ele>
        <time>2012-09-14T13:28:21Z</time>
      </trkpt>
      <trkpt lat="47.19048" lon="5.6981">
        <ele>241</ele>
        <time>2012-09-14T13:28:24Z</time>
      </trkpt>
      <trkpt lat="47.1906" lon="5.69802">
        <ele>241</ele>
        <time>2012-09-14T13:28:27Z</time>
      </trkpt>
      <trkpt lat="47.19072" lon="5.69794">
        <ele>241</ele>
        <time>2012-09-14T13:28:30Z</time>
      </trkpt>
      <trkpt lat="47.1908" lon="5.69788">
        <ele>241</ele>
        <time>2012-09-14T13:28:32Z</time>
      </trkpt>
      <trkpt lat="47.19092" lon="5.6978">
        <ele>241</ele>
        <time>2012-09-14T13:28:35Z</time>
      </trkpt>
      <trkpt lat="47.19104" lon="5.69772">
        <ele>241</ele>
        <time>2012-09-14T13:28:38Z</time>
      </trkpt>
      <trkpt lat="47.19115" lon="5.69764">
        <ele>241</ele>
        <time>2012-09-14T13:28:41Z</time>
      </trkpt>
      <trkpt lat="47.19127" lon="5.69756">
        <ele>246</ele>
        <time>2012-09-14T13:28:44Z</time>
      </trkpt>
      <trkpt lat="47.19138" lon="5.69748">
        <ele>246</ele>
        <time>2012-09-14T13:28:47Z</time>
      </trkpt>
      <trkpt lat="47.19149" lon="5.69739">
        <ele>246</ele>
        <time>2012-09-14T13:28:50Z</time>
      </trkpt>
      <trkpt lat="47.19162" lon="5.6973">
        <ele>246</ele>
        <time>2012-09-14T13:28:53Z</time>
      </trkpt>
      <trkpt lat="47.19173" lon="5.69722">
        <ele>246</ele>
        <time>2012-09-14T13:28:56Z</time>
      </trkpt>
      <trkpt lat="47.19182" lon="5.69717">
        <ele>246</ele>
        <time>2012-09-14T13:28:58Z</time>
      </trkpt>
      <trkpt lat="47.19194" lon="5.69708">
        <ele>246</ele>
        <time>2012-09-14T13:29:01Z</time>
      </trkpt>
      <trkpt lat="47.19206" lon="5.69699">
        <ele>246</ele>
        <time>2012-09-14T13:29:04Z</time>
      </trkpt>
      <trkpt lat="47.19215" lon="5.69693">
        <ele>246</ele>
        <time>2012-09-14T13:29:06Z</time>
      </trkpt>
      <trkpt lat="47.19223" lon="5.69686">
        <ele>246</ele>
        <time>2012-09-14T13:29:08Z</time>
      </trkpt>
      <trkpt lat="47.19231" lon="5.69681">
        <ele>252</ele>
        <time>2012-09-14T13:29:10Z</time>
      </trkpt>
      <trkpt lat="47.19239" lon="5.69675">
        <ele>252</ele>
        <time>2012-09-14T13:29:12Z</time>
      </trkpt>
      <trkpt lat="47.19249" lon="5.6967">
        <ele>252</ele>
        <time>2012-09-14T13:29:14Z</time>
      </trkpt>
      <trkpt lat="47.19261" lon="5.69661">
        <ele>252</ele>
        <time>2012-09-14T13:29:17Z</time>
      </trkpt>
      <trkpt lat="47.19269" lon="5.69655">
        <ele>252</ele>
        <time>2012-09-14T13:29:19Z</time>
      </trkpt>
      <trkpt lat="47.19277" lon="5.69649">
        <ele>252</ele>
        <time>2012-09-14T13:29:21Z</time>
      </trkpt>
      <trkpt lat="47.19285" lon="5.69642">
        <ele>252</ele>
        <time>2012-09-14T13:29:23Z</time>
      </trkpt>
      <trkpt lat="47.19293" lon="5.69636">
        <ele>252</ele>
        <time>2012-09-14T13:29:25Z</time>
      </trkpt>
      <trkpt lat="47.19305" lon="5.69629">
        <ele>252</ele>
        <time>2012-09-14T13:29:28Z</time>
      </trkpt>
      <trkpt lat="47.19317" lon="5.69622">
        <ele>252</ele>
        <time>2012-09-14T13:29:31Z</time>
      </trkpt>
      <trkpt lat="47.19328" lon="5.69615">
        <ele>257</ele>
        <time>2012-09-14T13:29:34Z</time>
      </trkpt>
      <trkpt lat="47.19339" lon="5.69607">
        <ele>257</ele>
        <time>2012-09-14T13:29:37Z</time>
      </trkpt>
      <trkpt lat="47.1935" lon="5.69599">
        <ele>257</ele>
        <time>2012-09-14T13:29:40Z</time>
      </trkpt>
      <trkpt lat="47.19361" lon="5.69592">
        <ele>257</ele>
        <time>2012-09-14T13:29:43Z</time>
      </trkpt>
      <trkpt lat="47.19371" lon="5.69584">
        <ele>257</ele>
        <time>2012-09-14T13:29:46Z</time>
      </trkpt>
      <trkpt lat="47.19382" lon="5.69577">
        <ele>257</ele>
        <time>2012-09-14T13:29:49Z</time>
      </trkpt>
      <trkpt lat="47.19392" lon="5.6957">
        <ele>257</ele>
        <time>2012-09-14T13:29:52Z</time>
      </trkpt>
      <trkpt lat="47.19403" lon="5.69562">
        <ele>257</ele>
        <time>2012-09-14T13:29:55Z</time>
      </trkpt>
      <trkpt lat="47.19413" lon="5.69555">
        <ele>263</ele>
        <time>2012-09-14T13:29:58Z</time>
      </trkpt>
      <trkpt lat="47.19424" lon="5.69548">
        <ele>263</ele>
        <time>2012-09-14T13:30:01Z</time>
      </trkpt>
      <trkpt lat="47.19435" lon="5.69541">
        <ele>263</ele>
        <time>2012-09-14T13:30:04Z</time>
      </trkpt>
      <trkpt lat="47.19445" lon="5.69534">
        <ele>263</ele>
        <time>2012-09-14T13:30:07Z</time>
      </trkpt>
      <trkpt lat="47.19455" lon="5.69527">
        <ele>263</ele>
        <time>2012-09-14T13:30:10Z</time>
      </trkpt>
      <trkpt lat="47.19465" lon="5.69519">
        <ele>263</ele>
        <time>2012-09-14T13:30:13Z</time>
      </trkpt>
      <trkpt lat="47.19476" lon="5.69512">
        <ele>263</ele>
        <time>2012-09-14T13:30:16Z</time>
      </trkpt>
      <trkpt lat="47.19486" lon="5.69506">
        <ele>263</ele>
        <time>2012-09-14T13:30:19Z</time>
      </trkpt>
      <trkpt lat="47.19496" lon="5.69498">
        <ele>268</ele>
        <time>2012-09-14T13:30:22Z</time>
      </trkpt>
      <trkpt lat="47.19506" lon="5.69491">
        <ele>268</ele>
        <time>2012-09-14T13:30:25Z</time>
      </trkpt>
      <trkpt lat="47.19516" lon="5.69484">
        <ele>268</ele>
        <time>2012-09-14T13:30:28Z</time>
      </trkpt>
      <trkpt lat="47.19526" lon="5.69477">
        <ele>268</ele>
        <time>2012-09-14T13:30:31Z</time>
      </trkpt>
      <trkpt lat="47.19536" lon="5.6947">
        <ele>268</ele>
        <time>2012-09-14T13:30:34Z</time>
      </trkpt>
      <trkpt lat="47.19547" lon="5.69463">
        <ele>268</ele>
        <time>2012-09-14T13:30:37Z</time>
      </trkpt>
      <trkpt lat="47.19557" lon="5.69456">
        <ele>268</ele>
        <time>2012-09-14T13:30:40Z</time>
      </trkpt>
      <trkpt lat="47.19566" lon="5.69448">
        <ele>268</ele>
        <time>2012-09-14T13:30:43Z</time>
      </trkpt>
      <trkpt lat="47.19577" lon="5.69441">
        <ele>268</ele>
        <time>2012-09-14T13:30:46Z</time>
      </trkpt>
      <trkpt lat="47.19587" lon="5.69434">
        <ele>273</ele>
        <time>2012-09-14T13:30:49Z</time>
      </trkpt>
      <trkpt lat="47.19597" lon="5.69427">
        <ele>273</ele>
        <time>2012-09-14T13:30:52Z</time>
      </trkpt>
      <trkpt lat="47.19607" lon="5.6942">
        <ele>273</ele>
        <time>2012-09-14T13:30:55Z</time>
      </trkpt>
      <trkpt lat="47.19617" lon="5.69413">
        <ele>273</ele>
        <time>2012-09-14T13:30:58Z</time>
      </trkpt>
      <trkpt lat="47.19628" lon="5.69406">
        <ele>273</ele>
        <time>2012-09-14T13:31:01Z</time>
      </trkpt>
      <trkpt lat="47.19637" lon="5.69399">
        <ele>273</ele>
        <time>2012-09-14T13:31:04Z</time>
      </trkpt>
      <trkpt lat="47.19647" lon="5.69392">
        <ele>273</ele>
        <time>2012-09-14T13:31:07Z</time>
      </trkpt>
      <trkpt lat="47.19656" lon="5.69385">
        <ele>273</ele>
        <time>2012-09-14T13:31:10Z</time>
      </trkpt>
      <trkpt lat="47.19667" lon="5.69378">
        <ele>273</ele>
        <time>2012-09-14T13:31:13Z</time>
      </trkpt>
      <trkpt lat="47.19677" lon="5.69372">
        <ele>278</ele>
        <time>2012-09-14T13:31:16Z</time>
      </trkpt>
      <trkpt lat="47.19687" lon="5.69366">
        <ele>278</ele>
        <time>2012-09-14T13:31:19Z</time>
      </trkpt>
      <trkpt lat="47.19697" lon="5.6936">
        <ele>278</ele>
        <time>2012-09-14T13:31:22Z</time>
      </trkpt>
      <trkpt lat="47.19708" lon="5.69356">
        <ele>278</ele>
        <time>2012-09-14T13:31:25Z</time>
      </trkpt>
      <trkpt lat="47.19718" lon="5.69352">
        <ele>278</ele>
        <time>2012-09-14T13:31:28Z</time>
      </trkpt>
      <trkpt lat="47.19729" lon="5.6935">
        <ele>278</ele>
        <time>2012-09-14T13:31:31Z</time>
      </trkpt>
      <trkpt lat="47.1974" lon="5.69351">
        <ele>278</ele>
        <time>2012-09-14T13:31:34Z</time>
      </trkpt>
      <trkpt lat="47.1975" lon="5.69352">
        <ele>278</ele>
        <time>2012-09-14T13:31:37Z</time>
      </trkpt>
      <trkpt lat="47.19761" lon="5.69355">
        <ele>278</ele>
        <time>2012-09-14T13:31:40Z</time>
      </trkpt>
      <trkpt lat="47.19772" lon="5.69358">
        <ele>278</ele>
        <time>2012-09-14T13:31:43Z</time>
      </trkpt>
      <trkpt lat="47.19782" lon="5.69362">
        <ele>283</ele>
        <time>2012-09-14T13:31:46Z</time>
      </trkpt>
      <trkpt lat="47.19793" lon="5.69367">
        <ele>283</ele>
        <time>2012-09-14T13:31:49Z</time>
      </trkpt>
      <trkpt lat="47.19803" lon="5.6937">
        <ele>283</ele>
        <time>2012-09-14T13:31:52Z</time>
      </trkpt>
      <trkpt lat="47.19813" lon="5.69373">
        <ele>283</ele>
        <time>2012-09-14T13:31:55Z</time>
      </trkpt>
      <trkpt lat="47.19822" lon="5.69376">
        <ele>283</ele>
        <time>2012-09-14T13:31:58Z</time>
      </trkpt>
      <trkpt lat="47.19832" lon="5.69378">
        <ele>283</ele>
        <time>2012-09-14T13:32:01Z</time>
      </trkpt>
      <trkpt lat="47.19842" lon="5.69383">
        <ele>283</ele>
        <time>2012-09-14T13:32:04Z</time>
      </trkpt>
      <trkpt lat="47.19853" lon="5.69386">
        <ele>283</ele>
        <time>2012-09-14T13:32:07Z</time>
      </trkpt>
      <trkpt lat="47.19864" lon="5.69387">
        <ele>283</ele>
        <time>2012-09-14T13:32:10Z</time>
      </trkpt>
      <trkpt lat="47.19875" lon="5.69389">
        <ele>283</ele>
        <time>2012-09-14T13:32:13Z</time>
      </trkpt>
      <trkpt lat="47.19885" lon="5.69391">
        <ele>289</ele>
        <time>2012-09-14T13:32:16Z</time>
      </trkpt>
      <trkpt lat="47.19896" lon="5.69391">
        <ele>289</ele>
        <time>2012-09-14T13:32:19Z</time>
      </trkpt>
      <trkpt lat="47.19907" lon="5.6939">
        <ele>289</ele>
        <time>2012-09-14T13:32:22Z</time>
      </trkpt>
      <trkpt lat="47.19919" lon="5.69388">
        <ele>289</ele>
        <time>2012-09-14T13:32:25Z</time>
      </trkpt>
      <trkpt lat="47.1993" lon="5.69386">
        <ele>289</ele>
        <time>2012-09-14T13:32:28Z</time>
      </trkpt>
      <trkpt lat="47.19941" lon="5.69383">
        <ele>289</ele>
        <time>2012-09-14T13:32:31Z</time>
      </trkpt>
      <trkpt lat="47.19953" lon="5.69379">
        <ele>289</ele>
        <time>2012-09-14T13:32:34Z</time>
      </trkpt>
      <trkpt lat="47.19964" lon="5.69375">
        <ele>289</ele>
        <time>2012-09-14T13:32:37Z</time>
      </trkpt>
      <trkpt lat="47.19975" lon="5.69368">
        <ele>289</ele>
        <time>2012-09-14T13:32:40Z</time>
      </trkpt>
      <trkpt lat="47.19985" lon="5.6936">
        <ele>289</ele>
        <time>2012-09-14T13:32:43Z</time>
      </trkpt>
      <trkpt lat="47.19994" lon="5.6935">
        <ele>294</ele>
        <time>2012-09-14T13:32:46Z</time>
      </trkpt>
      <trkpt lat="47.20004" lon="5.69341">
        <ele>294</ele>
        <time>2012-09-14T13:32:49Z</time>
      </trkpt>
      <trkpt lat="47.20012" lon="5.69329">
        <ele>294</ele>
        <time>2012-09-14T13:32:52Z</time>
      </trkpt>
      <trkpt lat="47.20019" lon="5.69316">
        <ele>294</ele>
        <time>2012-09-14T13:32:55Z</time>
      </trkpt>
      <trkpt lat="47.20026" lon="5.69304">
        <ele>294</ele>
        <time>2012-09-14T13:32:58Z</time>
      </trkpt>
      <trkpt lat="47.20033" lon="5.6929">
        <ele>294</ele>
        <time>2012-09-14T13:33:01Z</time>
      </trkpt>
      <trkpt lat="47.20039" lon="5.69277">
        <ele>294</ele>
        <time>2012-09-14T13:33:04Z</time>
      </trkpt>
      <trkpt lat="47.20046" lon="5.69263">
        <ele>294</ele>
        <time>2012-09-14T13:33:07Z</time>
      </trkpt>
      <trkpt lat="47.20052" lon="5.6925">
        <ele>299</ele>
        <time>2012-09-14T13:33:10Z</time>
      </trkpt>
      <trkpt lat="47.20059" lon="5.69236">
        <ele>299</ele>
        <time>2012-09-14T13:33:13Z</time>
      </trkpt>
      <trkpt lat="47.20065" lon="5.69223">
        <ele>299</ele>
        <time>2012-09-14T13:33:16Z</time>
      </trkpt>
      <trkpt lat="47.20073" lon="5.69208">
        <ele>299</ele>
        <time>2012-09-14T13:33:19Z</time>
      </trkpt>
      <trkpt lat="47.2008" lon="5.69191">
        <ele>299</ele>
        <time>2012-09-14T13:33:22Z</time>
      </trkpt>
      <trkpt lat="47.20086" lon="5.6918">
        <ele>299</ele>
        <time>2012-09-14T13:33:24Z</time>
      </trkpt>
      <trkpt lat="47.20092" lon="5.69168">
        <ele>299</ele>
        <time>2012-09-14T13:33:26Z</time>
      </trkpt>
      <trkpt lat="47.20097" lon="5.69156">
        <ele>299</ele>
        <time>2012-09-14T13:33:28Z</time>
      </trkpt>
      <trkpt lat="47.20103" lon="5.69143">
        <ele>299</ele>
        <time>2012-09-14T13:33:30Z</time>
      </trkpt>
      <trkpt lat="47.2011" lon="5.69131">
        <ele>299</ele>
        <time>2012-09-14T13:33:32Z</time>
      </trkpt>
      <trkpt lat="47.20117" lon="5.69118">
        <ele>299</ele>
        <time>2012-09-14T13:33:34Z</time>
      </trkpt>
      <trkpt lat="47.20124" lon="5.69103">
        <ele>299</ele>
        <time>2012-09-14T13:33:36Z</time>
      </trkpt>
      <trkpt lat="47.20131" lon="5.69089">
        <ele>299</ele>
        <time>2012-09-14T13:33:38Z</time>
      </trkpt>
      <trkpt lat="47.20138" lon="5.69075">
        <ele>299</ele>
        <time>2012-09-14T13:33:40Z</time>
      </trkpt>
      <trkpt lat="47.20146" lon="5.69059">
        <ele>299</ele>
        <time>2012-09-14T13:33:42Z</time>
      </trkpt>
      <trkpt lat="47.20153" lon="5.69044">
        <ele>299</ele>
        <time>2012-09-14T13:33:44Z</time>
      </trkpt>
      <trkpt lat="47.20161" lon="5.69028">
        <ele>299</ele>
        <time>2012-09-14T13:33:46Z</time>
      </trkpt>
      <trkpt lat="47.20168" lon="5.69012">
        <ele>299</ele>
        <time>2012-09-14T13:33:48Z</time>
      </trkpt>
      <trkpt lat="47.20176" lon="5.68997">
        <ele>299</ele>
        <time>2012-09-14T13:33:50Z</time>
      </trkpt>
      <trkpt lat="47.20182" lon="5.68981">
        <ele>294</ele>
        <time>2012-09-14T13:33:52Z</time>
      </trkpt>
      <trkpt lat="47.20188" lon="5.68966">
        <ele>294</ele>
        <time>2012-09-14T13:33:54Z</time>
      </trkpt>
      <trkpt lat="47.20195" lon="5.68953">
        <ele>294</ele>
        <time>2012-09-14T13:33:56Z</time>
      </trkpt>
      <trkpt lat="47.202" lon="5.68943">
        <ele>294</ele>
        <time>2012-09-14T13:33:58Z</time>
      </trkpt>
      <trkpt lat="47.20204" lon="5.6893">
        <ele>294</ele>
        <time>2012-09-14T13:34:01Z</time>
      </trkpt>
      <trkpt lat="47.20197" lon="5.68921">
        <ele>294</ele>
        <time>2012-09-14T13:34:15Z</time>
      </trkpt>
      <trkpt lat="47.20207" lon="5.68922">
        <ele>280</ele>
        <time>2012-09-14T13:34:52Z</time>
      </trkpt>
      <trkpt lat="47.20198" lon="5.68922">
        <ele>280</ele>
        <time>2012-09-14T13:36:47Z</time>
      </trkpt>
      <trkpt lat="47.20207" lon="5.6892">
        <ele>285</ele>
        <time>2012-09-14T13:39:01Z</time>
      </trkpt>
      <trkpt lat="47.20198" lon="5.68919">
        <ele>285</ele>
        <time>2012-09-14T13:39:42Z</time>
      </trkpt>
      <trkpt lat="47.20207" lon="5.68919">
        <ele>292</ele>
        <time>2012-09-14T13:42:09Z</time>
      </trkpt>
      <trkpt lat="47.20201" lon="5.6893">
        <ele>281</ele>
        <time>2012-09-14T13:42:56Z</time>
      </trkpt>
      <trkpt lat="47.2019" lon="5.68923">
        <ele>281</ele>
        <time>2012-09-14T13:43:00Z</time>
      </trkpt>
      <trkpt lat="47.2018" lon="5.68917">
        <ele>287</ele>
        <time>2012-09-14T13:43:03Z</time>
      </trkpt>
      <trkpt lat="47.20168" lon="5.6891">
        <ele>287</ele>
        <time>2012-09-14T13:43:06Z</time>
      </trkpt>
      <trkpt lat="47.20158" lon="5.68906">
        <ele>287</ele>
        <time>2012-09-14T13:43:08Z</time>
      </trkpt>
      <trkpt lat="47.20149" lon="5.689">
        <ele>287</ele>
        <time>2012-09-14T13:43:10Z</time>
      </trkpt>
      <trkpt lat="47.2014" lon="5.68896">
        <ele>287</ele>
        <time>2012-09-14T13:43:12Z</time>
      </trkpt>
      <trkpt lat="47.20131" lon="5.68889">
        <ele>287</ele>
        <time>2012-09-14T13:43:15Z</time>
      </trkpt>
      <trkpt lat="47.20122" lon="5.68887">
        <ele>287</ele>
        <time>2012-09-14T13:43:18Z</time>
      </trkpt>
      <trkpt lat="47.20111" lon="5.68895">
        <ele>287</ele>
        <time>2012-09-14T13:43:21Z</time>
      </trkpt>
      <trkpt lat="47.20102" lon="5.68908">
        <ele>287</ele>
        <time>2012-09-14T13:43:24Z</time>
      </trkpt>
      <trkpt lat="47.20092" lon="5.68921">
        <ele>287</ele>
        <time>2012-09-14T13:43:27Z</time>
      </trkpt>
      <trkpt lat="47.20084" lon="5.68929">
        <ele>287</ele>
        <time>2012-09-14T13:43:29Z</time>
      </trkpt>
      <trkpt lat="47.20076" lon="5.68938">
        <ele>287</ele>
        <time>2012-09-14T13:43:31Z</time>
      </trkpt>
      <trkpt lat="47.20069" lon="5.68947">
        <ele>287</ele>
        <time>2012-09-14T13:43:33Z</time>
      </trkpt>
      <trkpt lat="47.20061" lon="5.68955">
        <ele>287</ele>
        <time>2012-09-14T13:43:35Z</time>
      </trkpt>
      <trkpt lat="47.20053" lon="5.68964">
        <ele>287</ele>
        <time>2012-09-14T13:43:37Z</time>
      </trkpt>
      <trkpt lat="47.20046" lon="5.68974">
        <ele>292</ele>
        <time>2012-09-14T13:43:39Z</time>
      </trkpt>
      <trkpt lat="47.20039" lon="5.68984">
        <ele>292</ele>
        <time>2012-09-14T13:43:41Z</time>
      </trkpt>
      <trkpt lat="47.20031" lon="5.68993">
        <ele>292</ele>
        <time>2012-09-14T13:43:43Z</time>
      </trkpt>
      <trkpt lat="47.20022" lon="5.69">
        <ele>292</ele>
        <time>2012-09-14T13:43:45Z</time>
      </trkpt>
      <trkpt lat="47.20009" lon="5.69009">
        <ele>292</ele>
        <time>2012-09-14T13:43:48Z</time>
      </trkpt>
      <trkpt lat="47.19998" lon="5.69013">
        <ele>292</ele>
        <time>2012-09-14T13:43:50Z</time>
      </trkpt>
      <trkpt lat="47.19987" lon="5.69015">
        <ele>292</ele>
        <time>2012-09-14T13:43:52Z</time>
      </trkpt>
      <trkpt lat="47.19975" lon="5.69014">
        <ele>292</ele>
        <time>2012-09-14T13:43:54Z</time>
      </trkpt>
      <trkpt lat="47.19964" lon="5.69013">
        <ele>292</ele>
        <time>2012-09-14T13:43:56Z</time>
      </trkpt>
      <trkpt lat="47.19953" lon="5.69009">
        <ele>292</ele>
        <time>2012-09-14T13:43:58Z</time>
      </trkpt>
      <trkpt lat="47.19943" lon="5.69004">
        <ele>292</ele>
        <time>2012-09-14T13:44:00Z</time>
      </trkpt>
      <trkpt lat="47.19933" lon="5.68998">
        <ele>292</ele>
        <time>2012-09-14T13:44:02Z</time>
      </trkpt>
      <trkpt lat="47.19924" lon="5.6899">
        <ele>292</ele>
        <time>2012-09-14T13:44:04Z</time>
      </trkpt>
      <trkpt lat="47.19915" lon="5.68981">
        <ele>292</ele>
        <time>2012-09-14T13:44:06Z</time>
      </trkpt>
      <trkpt lat="47.19906" lon="5.68972">
        <ele>292</ele>
        <time>2012-09-14T13:44:08Z</time>
      </trkpt>
      <trkpt lat="47.19897" lon="5.68963">
        <ele>292</ele>
        <time>2012-09-14T13:44:10Z</time>
      </trkpt>
      <trkpt lat="47.19887" lon="5.68954">
        <ele>292</ele>
        <time>2012-09-14T13:44:12Z</time>
      </trkpt>
      <trkpt lat="47.19877" lon="5.68945">
        <ele>292</ele>
        <time>2012-09-14T13:44:14Z</time>
      </trkpt>
      <trkpt lat="47.19868" lon="5.68935">
        <ele>292</ele>
        <time>2012-09-14T13:44:16Z</time>
      </trkpt>
      <trkpt lat="47.19857" lon="5.68926">
        <ele>292</ele>
        <time>2012-09-14T13:44:18Z</time>
      </trkpt>
      <trkpt lat="47.19846" lon="5.68917">
        <ele>292</ele>
        <time>2012-09-14T13:44:20Z</time>
      </trkpt>
      <trkpt lat="47.19836" lon="5.68907">
        <ele>292</ele>
        <time>2012-09-14T13:44:22Z</time>
      </trkpt>
      <trkpt lat="47.19825" lon="5.68899">
        <ele>292</ele>
        <time>2012-09-14T13:44:24Z</time>
      </trkpt>
      <trkpt lat="47.19814" lon="5.68891">
        <ele>292</ele>
        <time>2012-09-14T13:44:26Z</time>
      </trkpt>
      <trkpt lat="47.19802" lon="5.68883">
        <ele>292</ele>
        <time>2012-09-14T13:44:28Z</time>
      </trkpt>
      <trkpt lat="47.19791" lon="5.68877">
        <ele>292</ele>
        <time>2012-09-14T13:44:30Z</time>
      </trkpt>
      <trkpt lat="47.1978" lon="5.68872">
        <ele>292</ele>
        <time>2012-09-14T13:44:32Z</time>
      </trkpt>
      <trkpt lat="47.19769" lon="5.68866">
        <ele>292</ele>
        <time>2012-09-14T13:44:34Z</time>
      </trkpt>
      <trkpt lat="47.19757" lon="5.68862">
        <ele>292</ele>
        <time>2012-09-14T13:44:36Z</time>
      </trkpt>
      <trkpt lat="47.19746" lon="5.68856">
        <ele>292</ele>
        <time>2012-09-14T13:44:38Z</time>
      </trkpt>
      <trkpt lat="47.19734" lon="5.68848">
        <ele>292</ele>
        <time>2012-09-14T13:44:40Z</time>
      </trkpt>
      <trkpt lat="47.19722" lon="5.68841">
        <ele>292</ele>
        <time>2012-09-14T13:44:42Z</time>
      </trkpt>
      <trkpt lat="47.1971" lon="5.68833">
        <ele>292</ele>
        <time>2012-09-14T13:44:44Z</time>
      </trkpt>
      <trkpt lat="47.19697" lon="5.68825">
        <ele>292</ele>
        <time>2012-09-14T13:44:46Z</time>
      </trkpt>
      <trkpt lat="47.19685" lon="5.68816">
        <ele>292</ele>
        <time>2012-09-14T13:44:48Z</time>
      </trkpt>
      <trkpt lat="47.19671" lon="5.68807">
        <ele>292</ele>
        <time>2012-09-14T13:44:50Z</time>
      </trkpt>
      <trkpt lat="47.19658" lon="5.68798">
        <ele>292</ele>
        <time>2012-09-14T13:44:52Z</time>
      </trkpt>
      <trkpt lat="47.19645" lon="5.68789">
        <ele>292</ele>
        <time>2012-09-14T13:44:54Z</time>
      </trkpt>
      <trkpt lat="47.19633" lon="5.68781">
        <ele>292</ele>
        <time>2012-09-14T13:44:56Z</time>
      </trkpt>
      <trkpt lat="47.19621" lon="5.68772">
        <ele>292</ele>
        <time>2012-09-14T13:44:58Z</time>
      </trkpt>
      <trkpt lat="47.19609" lon="5.68763">
        <ele>292</ele>
        <time>2012-09-14T13:45:00Z</time>
      </trkpt>
      <trkpt lat="47.19597" lon="5.68755">
        <ele>292</ele>
        <time>2012-09-14T13:45:02Z</time>
      </trkpt>
      <trkpt lat="47.19585" lon="5.68747">
        <ele>292</ele>
        <time>2012-09-14T13:45:04Z</time>
      </trkpt>
      <trkpt lat="47.19574" lon="5.68739">
        <ele>292</ele>
        <time>2012-09-14T13:45:06Z</time>
      </trkpt>
      <trkpt lat="47.19563" lon="5.6873">
        <ele>292</ele>
        <time>2012-09-14T13:45:08Z</time>
      </trkpt>
      <trkpt lat="47.19552" lon="5.68722">
        <ele>292</ele>
        <time>2012-09-14T13:45:10Z</time>
      </trkpt>
      <trkpt lat="47.19541" lon="5.68714">
        <ele>292</ele>
        <time>2012-09-14T13:45:12Z</time>
      </trkpt>
      <trkpt lat="47.1953" lon="5.68706">
        <ele>292</ele>
        <time>2012-09-14T13:45:14Z</time>
      </trkpt>
      <trkpt lat="47.19519" lon="5.68698">
        <ele>292</ele>
        <time>2012-09-14T13:45:16Z</time>
      </trkpt>
      <trkpt lat="47.19508" lon="5.6869">
        <ele>292</ele>
        <time>2012-09-14T13:45:18Z</time>
      </trkpt>
      <trkpt lat="47.19497" lon="5.68683">
        <ele>292</ele>
        <time>2012-09-14T13:45:20Z</time>
      </trkpt>
      <trkpt lat="47.19486" lon="5.68675">
        <ele>292</ele>
        <time>2012-09-14T13:45:22Z</time>
      </trkpt>
      <trkpt lat="47.19475" lon="5.68667">
        <ele>292</ele>
        <time>2012-09-14T13:45:24Z</time>
      </trkpt>
      <trkpt lat="47.19466" lon="5.68658">
        <ele>286</ele>
        <time>2012-09-14T13:45:26Z</time>
      </trkpt>
      <trkpt lat="47.19461" lon="5.68645">
        <ele>286</ele>
        <time>2012-09-14T13:45:28Z</time>
      </trkpt>
      <trkpt lat="47.19465" lon="5.68629">
        <ele>286</ele>
        <time>2012-09-14T13:45:30Z</time>
      </trkpt>
      <trkpt lat="47.19471" lon="5.68614">
        <ele>286</ele>
        <time>2012-09-14T13:45:32Z</time>
      </trkpt>
      <trkpt lat="47.19475" lon="5.68597">
        <ele>286</ele>
        <time>2012-09-14T13:45:34Z</time>
      </trkpt>
      <trkpt lat="47.19477" lon="5.6858">
        <ele>286</ele>
        <time>2012-09-14T13:45:36Z</time>
      </trkpt>
      <trkpt lat="47.19479" lon="5.68562">
        <ele>286</ele>
        <time>2012-09-14T13:45:38Z</time>
      </trkpt>
      <trkpt lat="47.19482" lon="5.68544">
        <ele>286</ele>
        <time>2012-09-14T13:45:40Z</time>
      </trkpt>
      <trkpt lat="47.19484" lon="5.68527">
        <ele>286</ele>
        <time>2012-09-14T13:45:42Z</time>
      </trkpt>
      <trkpt lat="47.19487" lon="5.68509">
        <ele>286</ele>
        <time>2012-09-14T13:45:44Z</time>
      </trkpt>
      <trkpt lat="47.19491" lon="5.6849">
        <ele>286</ele>
        <time>2012-09-14T13:45:46Z</time>
      </trkpt>
      <trkpt lat="47.19494" lon="5.68472">
        <ele>286</ele>
        <time>2012-09-14T13:45:48Z</time>
      </trkpt>
      <trkpt lat="47.19497" lon="5.68452">
        <ele>286</ele>
        <time>2012-09-14T13:45:50Z</time>
      </trkpt>
      <trkpt lat="47.195" lon="5.68433">
        <ele>286</ele>
        <time>2012-09-14T13:45:52Z</time>
      </trkpt>
      <trkpt lat="47.19503" lon="5.68414">
        <ele>281</ele>
        <time>2012-09-14T13:45:54Z</time>
      </trkpt>
      <trkpt lat="47.19506" lon="5.68394">
        <ele>281</ele>
        <time>2012-09-14T13:45:56Z</time>
      </trkpt>
      <trkpt lat="47.19509" lon="5.68375">
        <ele>281</ele>
        <time>2012-09-14T13:45:58Z</time>
      </trkpt>
      <trkpt lat="47.19513" lon="5.68355">
        <ele>281</ele>
        <time>2012-09-14T13:46:00Z</time>
      </trkpt>
      <trkpt lat="47.19516" lon="5.68334">
        <ele>281</ele>
        <time>2012-09-14T13:46:02Z</time>
      </trkpt>
      <trkpt lat="47.19519" lon="5.68314">
        <ele>281</ele>
        <time>2012-09-14T13:46:04Z</time>
      </trkpt>
      <trkpt lat="47.19523" lon="5.68291">
        <ele>281</ele>
        <time>2012-09-14T13:46:06Z</time>
      </trkpt>
      <trkpt lat="47.19527" lon="5.68269">
        <ele>281</ele>
        <time>2012-09-14T13:46:08Z</time>
      </trkpt>
      <trkpt lat="47.1953" lon="5.68246">
        <ele>281</ele>
        <time>2012-09-14T13:46:10Z</time>
      </trkpt>
      <trkpt lat="47.19533" lon="5.68224">
        <ele>276</ele>
        <time>2012-09-14T13:46:12Z</time>
      </trkpt>
      <trkpt lat="47.19534" lon="5.68201">
        <ele>276</ele>
        <time>2012-09-14T13:46:14Z</time>
      </trkpt>
      <trkpt lat="47.19535" lon="5.68176">
        <ele>276</ele>
        <time>2012-09-14T13:46:16Z</time>
      </trkpt>
      <trkpt lat="47.19536" lon="5.68155">
        <ele>276</ele>
        <time>2012-09-14T13:46:18Z</time>
      </trkpt>
      <trkpt lat="47.19537" lon="5.68131">
        <ele>276</ele>
        <time>2012-09-14T13:46:20Z</time>
      </trkpt>
      <trkpt lat="47.19538" lon="5.6811">
        <ele>276</ele>
        <time>2012-09-14T13:46:22Z</time>
      </trkpt>
      <trkpt lat="47.19539" lon="5.68087">
        <ele>276</ele>
        <time>2012-09-14T13:46:24Z</time>
      </trkpt>
      <trkpt lat="47.1954" lon="5.68064">
        <ele>276</ele>
        <time>2012-09-14T13:46:26Z</time>
      </trkpt>
      <trkpt lat="47.19541" lon="5.68041">
        <ele>276</ele>
        <time>2012-09-14T13:46:28Z</time>
      </trkpt>
      <trkpt lat="47.19543" lon="5.68017">
        <ele>276</ele>
        <time>2012-09-14T13:46:30Z</time>
      </trkpt>
      <trkpt lat="47.19544" lon="5.67993">
        <ele>271</ele>
        <time>2012-09-14T13:46:32Z</time>
      </trkpt>
      <trkpt lat="47.19545" lon="5.6797">
        <ele>271</ele>
        <time>2012-09-14T13:46:34Z</time>
      </trkpt>
      <trkpt lat="47.19546" lon="5.67946">
        <ele>271</ele>
        <time>2012-09-14T13:46:36Z</time>
      </trkpt>
      <trkpt lat="47.19547" lon="5.67922">
        <ele>271</ele>
        <time>2012-09-14T13:46:38Z</time>
      </trkpt>
      <trkpt lat="47.19549" lon="5.679">
        <ele>271</ele>
        <time>2012-09-14T13:46:40Z</time>
      </trkpt>
      <trkpt lat="47.19548" lon="5.67877">
        <ele>271</ele>
        <time>2012-09-14T13:46:42Z</time>
      </trkpt>
      <trkpt lat="47.19547" lon="5.67856">
        <ele>265</ele>
        <time>2012-09-14T13:46:44Z</time>
      </trkpt>
      <trkpt lat="47.19542" lon="5.67834">
        <ele>265</ele>
        <time>2012-09-14T13:46:46Z</time>
      </trkpt>
      <trkpt lat="47.19532" lon="5.67814">
        <ele>265</ele>
        <time>2012-09-14T13:46:48Z</time>
      </trkpt>
      <trkpt lat="47.19521" lon="5.67798">
        <ele>265</ele>
        <time>2012-09-14T13:46:50Z</time>
      </trkpt>
      <trkpt lat="47.1951" lon="5.67785">
        <ele>265</ele>
        <time>2012-09-14T13:46:52Z</time>
      </trkpt>
      <trkpt lat="47.195" lon="5.67772">
        <ele>265</ele>
        <time>2012-09-14T13:46:54Z</time>
      </trkpt>
      <trkpt lat="47.1949" lon="5.6776">
        <ele>265</ele>
        <time>2012-09-14T13:46:56Z</time>
      </trkpt>
      <trkpt lat="47.19481" lon="5.6775">
        <ele>265</ele>
        <time>2012-09-14T13:46:58Z</time>
      </trkpt>
      <trkpt lat="47.19473" lon="5.67739">
        <ele>265</ele>
        <time>2012-09-14T13:47:00Z</time>
      </trkpt>
      <trkpt lat="47.19467" lon="5.67726">
        <ele>270</ele>
        <time>2012-09-14T13:47:02Z</time>
      </trkpt>
      <trkpt lat="47.19463" lon="5.67713">
        <ele>270</ele>
        <time>2012-09-14T13:47:04Z</time>
      </trkpt>
      <trkpt lat="47.1946" lon="5.67698">
        <ele>270</ele>
        <time>2012-09-14T13:47:06Z</time>
      </trkpt>
      <trkpt lat="47.19459" lon="5.67682">
        <ele>270</ele>
        <time>2012-09-14T13:47:08Z</time>
      </trkpt>
      <trkpt lat="47.19459" lon="5.67668">
        <ele>270</ele>
        <time>2012-09-14T13:47:10Z</time>
      </trkpt>
      <trkpt lat="47.19459" lon="5.67653">
        <ele>270</ele>
        <time>2012-09-14T13:47:12Z</time>
      </trkpt>
      <trkpt lat="47.19459" lon="5.67637">
        <ele>270</ele>
        <time>2012-09-14T13:47:14Z</time>
      </trkpt>
      <trkpt lat="47.19458" lon="5.67622">
        <ele>270</ele>
        <time>2012-09-14T13:47:16Z</time>
      </trkpt>
      <trkpt lat="47.19455" lon="5.67608">
        <ele>270</ele>
        <time>2012-09-14T13:47:18Z</time>
      </trkpt>
      <trkpt lat="47.19449" lon="5.67595">
        <ele>270</ele>
        <time>2012-09-14T13:47:20Z</time>
      </trkpt>
      <trkpt lat="47.19442" lon="5.67585">
        <ele>270</ele>
        <time>2012-09-14T13:47:22Z</time>
      </trkpt>
      <trkpt lat="47.19433" lon="5.67577">
        <ele>276</ele>
        <time>2012-09-14T13:47:24Z</time>
      </trkpt>
      <trkpt lat="47.19424" lon="5.67571">
        <ele>276</ele>
        <time>2012-09-14T13:47:26Z</time>
      </trkpt>
      <trkpt lat="47.19415" lon="5.67564">
        <ele>276</ele>
        <time>2012-09-14T13:47:28Z</time>
      </trkpt>
      <trkpt lat="47.19405" lon="5.67557">
        <ele>276</ele>
        <time>2012-09-14T13:47:30Z</time>
      </trkpt>
      <trkpt lat="47.19396" lon="5.67549">
        <ele>276</ele>
        <time>2012-09-14T13:47:32Z</time>
      </trkpt>
      <trkpt lat="47.19386" lon="5.67542">
        <ele>276</ele>
        <time>2012-09-14T13:47:34Z</time>
      </trkpt>
      <trkpt lat="47.19377" lon="5.67535">
        <ele>276</ele>
        <time>2012-09-14T13:47:36Z</time>
      </trkpt>
      <trkpt lat="47.19367" lon="5.67528">
        <ele>276</ele>
        <time>2012-09-14T13:47:38Z</time>
      </trkpt>
      <trkpt lat="47.19358" lon="5.67521">
        <ele>276</ele>
        <time>2012-09-14T13:47:40Z</time>
      </trkpt>
      <trkpt lat="47.19348" lon="5.67514">
        <ele>276</ele>
        <time>2012-09-14T13:47:42Z</time>
      </trkpt>
      <trkpt lat="47.19339" lon="5.6751">
        <ele>276</ele>
        <time>2012-09-14T13:47:44Z</time>
      </trkpt>
      <trkpt lat="47.19329" lon="5.67507">
        <ele>276</ele>
        <time>2012-09-14T13:47:46Z</time>
      </trkpt>
      <trkpt lat="47.19318" lon="5.67504">
        <ele>276</ele>
        <time>2012-09-14T13:47:48Z</time>
      </trkpt>
      <trkpt lat="47.19309" lon="5.67503">
        <ele>276</ele>
        <time>2012-09-14T13:47:50Z</time>
      </trkpt>
      <trkpt lat="47.19298" lon="5.67501">
        <ele>276</ele>
        <time>2012-09-14T13:47:52Z</time>
      </trkpt>
      <trkpt lat="47.19288" lon="5.675">
        <ele>276</ele>
        <time>2012-09-14T13:47:54Z</time>
      </trkpt>
      <trkpt lat="47.19277" lon="5.67498">
        <ele>276</ele>
        <time>2012-09-14T13:47:56Z</time>
      </trkpt>
      <trkpt lat="47.19267" lon="5.67497">
        <ele>276</ele>
        <time>2012-09-14T13:47:58Z</time>
      </trkpt>
      <trkpt lat="47.19257" lon="5.67495">
        <ele>276</ele>
        <time>2012-09-14T13:48:00Z</time>
      </trkpt>
      <trkpt lat="47.19246" lon="5.67494">
        <ele>276</ele>
        <time>2012-09-14T13:48:02Z</time>
      </trkpt>
      <trkpt lat="47.19235" lon="5.67493">
        <ele>276</ele>
        <time>2012-09-14T13:48:04Z</time>
      </trkpt>
      <trkpt lat="47.19224" lon="5.67491">
        <ele>276</ele>
        <time>2012-09-14T13:48:06Z</time>
      </trkpt>
      <trkpt lat="47.19213" lon="5.67489">
        <ele>276</ele>
        <time>2012-09-14T13:48:08Z</time>
      </trkpt>
      <trkpt lat="47.19201" lon="5.67486">
        <ele>276</ele>
        <time>2012-09-14T13:48:10Z</time>
      </trkpt>
      <trkpt lat="47.19189" lon="5.67484">
        <ele>276</ele>
        <time>2012-09-14T13:48:12Z</time>
      </trkpt>
      <trkpt lat="47.19177" lon="5.67479">
        <ele>276</ele>
        <time>2012-09-14T13:48:14Z</time>
      </trkpt>
      <trkpt lat="47.19165" lon="5.67474">
        <ele>276</ele>
        <time>2012-09-14T13:48:16Z</time>
      </trkpt>
      <trkpt lat="47.19154" lon="5.67468">
        <ele>276</ele>
        <time>2012-09-14T13:48:18Z</time>
      </trkpt>
      <trkpt lat="47.19142" lon="5.6746">
        <ele>276</ele>
        <time>2012-09-14T13:48:20Z</time>
      </trkpt>
      <trkpt lat="47.19131" lon="5.67453">
        <ele>276</ele>
        <time>2012-09-14T13:48:22Z</time>
      </trkpt>
      <trkpt lat="47.19119" lon="5.67445">
        <ele>276</ele>
        <time>2012-09-14T13:48:24Z</time>
      </trkpt>
      <trkpt lat="47.19107" lon="5.67437">
        <ele>276</ele>
        <time>2012-09-14T13:48:26Z</time>
      </trkpt>
      <trkpt lat="47.19095" lon="5.67429">
        <ele>276</ele>
        <time>2012-09-14T13:48:28Z</time>
      </trkpt>
      <trkpt lat="47.19083" lon="5.67422">
        <ele>276</ele>
        <time>2012-09-14T13:48:30Z</time>
      </trkpt>
      <trkpt lat="47.1907" lon="5.67414">
        <ele>276</ele>
        <time>2012-09-14T13:48:32Z</time>
      </trkpt>
      <trkpt lat="47.19059" lon="5.67407">
        <ele>276</ele>
        <time>2012-09-14T13:48:34Z</time>
      </trkpt>
      <trkpt lat="47.19047" lon="5.67398">
        <ele>276</ele>
        <time>2012-09-14T13:48:36Z</time>
      </trkpt>
      <trkpt lat="47.19035" lon="5.67391">
        <ele>276</ele>
        <time>2012-09-14T13:48:38Z</time>
      </trkpt>
      <trkpt lat="47.19024" lon="5.67384">
        <ele>276</ele>
        <time>2012-09-14T13:48:40Z</time>
      </trkpt>
      <trkpt lat="47.19012" lon="5.67377">
        <ele>276</ele>
        <time>2012-09-14T13:48:42Z</time>
      </trkpt>
      <trkpt lat="47.19001" lon="5.6737">
        <ele>276</ele>
        <time>2012-09-14T13:48:44Z</time>
      </trkpt>
      <trkpt lat="47.1899" lon="5.67363">
        <ele>276</ele>
        <time>2012-09-14T13:48:46Z</time>
      </trkpt>
      <trkpt lat="47.18979" lon="5.67356">
        <ele>276</ele>
        <time>2012-09-14T13:48:48Z</time>
      </trkpt>
      <trkpt lat="47.18968" lon="5.67349">
        <ele>276</ele>
        <time>2012-09-14T13:48:50Z</time>
      </trkpt>
      <trkpt lat="47.18958" lon="5.67342">
        <ele>276</ele>
        <time>2012-09-14T13:48:52Z</time>
      </trkpt>
      <trkpt lat="47.18947" lon="5.67336">
        <ele>276</ele>
        <time>2012-09-14T13:48:54Z</time>
      </trkpt>
      <trkpt lat="47.18935" lon="5.67329">
        <ele>276</ele>
        <time>2012-09-14T13:48:56Z</time>
      </trkpt>
      <trkpt lat="47.18924" lon="5.67322">
        <ele>276</ele>
        <time>2012-09-14T13:48:58Z</time>
      </trkpt>
      <trkpt lat="47.18912" lon="5.67316">
        <ele>276</ele>
        <time>2012-09-14T13:49:00Z</time>
      </trkpt>
      <trkpt lat="47.189" lon="5.6731">
        <ele>276</ele>
        <time>2012-09-14T13:49:02Z</time>
      </trkpt>
      <trkpt lat="47.18888" lon="5.67302">
        <ele>276</ele>
        <time>2012-09-14T13:49:04Z</time>
      </trkpt>
      <trkpt lat="47.18875" lon="5.67295">
        <ele>276</ele>
        <time>2012-09-14T13:49:06Z</time>
      </trkpt>
      <trkpt lat="47.18862" lon="5.67288">
        <ele>276</ele>
        <time>2012-09-14T13:49:08Z</time>
      </trkpt>
      <trkpt lat="47.18848" lon="5.6728">
        <ele>270</ele>
        <time>2012-09-14T13:49:10Z</time>
      </trkpt>
      <trkpt lat="47.18834" lon="5.67272">
        <ele>270</ele>
        <time>2012-09-14T13:49:12Z</time>
      </trkpt>
      <trkpt lat="47.18821" lon="5.67264">
        <ele>270</ele>
        <time>2012-09-14T13:49:14Z</time>
      </trkpt>
      <trkpt lat="47.18808" lon="5.67256">
        <ele>270</ele>
        <time>2012-09-14T13:49:16Z</time>
      </trkpt>
      <trkpt lat="47.18794" lon="5.67252">
        <ele>270</ele>
        <time>2012-09-14T13:49:18Z</time>
      </trkpt>
      <trkpt lat="47.1878" lon="5.67256">
        <ele>270</ele>
        <time>2012-09-14T13:49:20Z</time>
      </trkpt>
      <trkpt lat="47.18767" lon="5.67265">
        <ele>270</ele>
        <time>2012-09-14T13:49:22Z</time>
      </trkpt>
      <trkpt lat="47.18757" lon="5.67279">
        <ele>270</ele>
        <time>2012-09-14T13:49:24Z</time>
      </trkpt>
      <trkpt lat="47.18746" lon="5.67292">
        <ele>265</ele>
        <time>2012-09-14T13:49:26Z</time>
      </trkpt>
      <trkpt lat="47.18732" lon="5.673">
        <ele>265</ele>
        <time>2012-09-14T13:49:28Z</time>
      </trkpt>
      <trkpt lat="47.18716" lon="5.673">
        <ele>265</ele>
        <time>2012-09-14T13:49:30Z</time>
      </trkpt>
      <trkpt lat="47.18701" lon="5.67291">
        <ele>265</ele>
        <time>2012-09-14T13:49:32Z</time>
      </trkpt>
      <trkpt lat="47.18687" lon="5.67274">
        <ele>265</ele>
        <time>2012-09-14T13:49:34Z</time>
      </trkpt>
      <trkpt lat="47.18674" lon="5.6726">
        <ele>265</ele>
        <time>2012-09-14T13:49:36Z</time>
      </trkpt>
      <trkpt lat="47.18659" lon="5.67253">
        <ele>265</ele>
        <time>2012-09-14T13:49:38Z</time>
      </trkpt>
      <trkpt lat="47.18643" lon="5.67254">
        <ele>259</ele>
        <time>2012-09-14T13:49:40Z</time>
      </trkpt>
      <trkpt lat="47.18628" lon="5.67259">
        <ele>259</ele>
        <time>2012-09-14T13:49:42Z</time>
      </trkpt>
      <trkpt lat="47.18614" lon="5.67269">
        <ele>259</ele>
        <time>2012-09-14T13:49:44Z</time>
      </trkpt>
      <trkpt lat="47.186" lon="5.6728">
        <ele>259</ele>
        <time>2012-09-14T13:49:46Z</time>
      </trkpt>
      <trkpt lat="47.18587" lon="5.6729">
        <ele>259</ele>
        <time>2012-09-14T13:49:48Z</time>
      </trkpt>
      <trkpt lat="47.18574" lon="5.67299">
        <ele>259</ele>
        <time>2012-09-14T13:49:50Z</time>
      </trkpt>
      <trkpt lat="47.18561" lon="5.67306">
        <ele>259</ele>
        <time>2012-09-14T13:49:52Z</time>
      </trkpt>
      <trkpt lat="47.18549" lon="5.67312">
        <ele>259</ele>
        <time>2012-09-14T13:49:54Z</time>
      </trkpt>
      <trkpt lat="47.18536" lon="5.67317">
        <ele>259</ele>
        <time>2012-09-14T13:49:56Z</time>
      </trkpt>
      <trkpt lat="47.18524" lon="5.6732">
        <ele>259</ele>
        <time>2012-09-14T13:49:58Z</time>
      </trkpt>
      <trkpt lat="47.18512" lon="5.67325">
        <ele>259</ele>
        <time>2012-09-14T13:50:00Z</time>
      </trkpt>
      <trkpt lat="47.18499" lon="5.67327">
        <ele>259</ele>
        <time>2012-09-14T13:50:02Z</time>
      </trkpt>
      <trkpt lat="47.18488" lon="5.6733">
        <ele>259</ele>
        <time>2012-09-14T13:50:04Z</time>
      </trkpt>
      <trkpt lat="47.18477" lon="5.67334">
        <ele>259</ele>
        <time>2012-09-14T13:50:06Z</time>
      </trkpt>
      <trkpt lat="47.18466" lon="5.67337">
        <ele>259</ele>
        <time>2012-09-14T13:50:08Z</time>
      </trkpt>
      <trkpt lat="47.18454" lon="5.67341">
        <ele>259</ele>
        <time>2012-09-14T13:50:10Z</time>
      </trkpt>
      <trkpt lat="47.18442" lon="5.67344">
        <ele>259</ele>
        <time>2012-09-14T13:50:12Z</time>
      </trkpt>
      <trkpt lat="47.18429" lon="5.67347">
        <ele>259</ele>
        <time>2012-09-14T13:50:14Z</time>
      </trkpt>
      <trkpt lat="47.18415" lon="5.67351">
        <ele>259</ele>
        <time>2012-09-14T13:50:16Z</time>
      </trkpt>
      <trkpt lat="47.18401" lon="5.67355">
        <ele>259</ele>
        <time>2012-09-14T13:50:18Z</time>
      </trkpt>
      <trkpt lat="47.18386" lon="5.6736">
        <ele>259</ele>
        <time>2012-09-14T13:50:20Z</time>
      </trkpt>
      <trkpt lat="47.1837" lon="5.67365">
        <ele>259</ele>
        <time>2012-09-14T13:50:22Z</time>
      </trkpt>
      <trkpt lat="47.18355" lon="5.6737">
        <ele>259</ele>
        <time>2012-09-14T13:50:24Z</time>
      </trkpt>
      <trkpt lat="47.18337" lon="5.67374">
        <ele>259</ele>
        <time>2012-09-14T13:50:26Z</time>
      </trkpt>
      <trkpt lat="47.18322" lon="5.67378">
        <ele>259</ele>
        <time>2012-09-14T13:50:28Z</time>
      </trkpt>
      <trkpt lat="47.18307" lon="5.6738">
        <ele>259</ele>
        <time>2012-09-14T13:50:30Z</time>
      </trkpt>
      <trkpt lat="47.18293" lon="5.67384">
        <ele>259</ele>
        <time>2012-09-14T13:50:32Z</time>
      </trkpt>
      <trkpt lat="47.18279" lon="5.67388">
        <ele>259</ele>
        <time>2012-09-14T13:50:34Z</time>
      </trkpt>
      <trkpt lat="47.18265" lon="5.6739">
        <ele>259</ele>
        <time>2012-09-14T13:50:36Z</time>
      </trkpt>
      <trkpt lat="47.18251" lon="5.67393">
        <ele>259</ele>
        <time>2012-09-14T13:50:38Z</time>
      </trkpt>
      <trkpt lat="47.18238" lon="5.67396">
        <ele>259</ele>
        <time>2012-09-14T13:50:40Z</time>
      </trkpt>
      <trkpt lat="47.18223" lon="5.67396">
        <ele>259</ele>
        <time>2012-09-14T13:50:42Z</time>
      </trkpt>
      <trkpt lat="47.1821" lon="5.67395">
        <ele>259</ele>
        <time>2012-09-14T13:50:44Z</time>
      </trkpt>
      <trkpt lat="47.18198" lon="5.67392">
        <ele>259</ele>
        <time>2012-09-14T13:50:46Z</time>
      </trkpt>
      <trkpt lat="47.18186" lon="5.67388">
        <ele>259</ele>
        <time>2012-09-14T13:50:48Z</time>
      </trkpt>
      <trkpt lat="47.18174" lon="5.67383">
        <ele>259</ele>
        <time>2012-09-14T13:50:50Z</time>
      </trkpt>
      <trkpt lat="47.18162" lon="5.67379">
        <ele>259</ele>
        <time>2012-09-14T13:50:52Z</time>
      </trkpt>
      <trkpt lat="47.18151" lon="5.67373">
        <ele>259</ele>
        <time>2012-09-14T13:50:54Z</time>
      </trkpt>
      <trkpt lat="47.18139" lon="5.67366">
        <ele>259</ele>
        <time>2012-09-14T13:50:56Z</time>
      </trkpt>
      <trkpt lat="47.18127" lon="5.6736">
        <ele>259</ele>
        <time>2012-09-14T13:50:58Z</time>
      </trkpt>
      <trkpt lat="47.18116" lon="5.67352">
        <ele>254</ele>
        <time>2012-09-14T13:51:00Z</time>
      </trkpt>
      <trkpt lat="47.18105" lon="5.67344">
        <ele>254</ele>
        <time>2012-09-14T13:51:02Z</time>
      </trkpt>
      <trkpt lat="47.18093" lon="5.67335">
        <ele>254</ele>
        <time>2012-09-14T13:51:04Z</time>
      </trkpt>
      <trkpt lat="47.18081" lon="5.67326">
        <ele>254</ele>
        <time>2012-09-14T13:51:06Z</time>
      </trkpt>
      <trkpt lat="47.18069" lon="5.67317">
        <ele>254</ele>
        <time>2012-09-14T13:51:08Z</time>
      </trkpt>
      <trkpt lat="47.18056" lon="5.67307">
        <ele>254</ele>
        <time>2012-09-14T13:51:10Z</time>
      </trkpt>
      <trkpt lat="47.18043" lon="5.67295">
        <ele>254</ele>
        <time>2012-09-14T13:51:12Z</time>
      </trkpt>
      <trkpt lat="47.18029" lon="5.67283">
        <ele>254</ele>
        <time>2012-09-14T13:51:14Z</time>
      </trkpt>
      <trkpt lat="47.18014" lon="5.67272">
        <ele>254</ele>
        <time>2012-09-14T13:51:16Z</time>
      </trkpt>
      <trkpt lat="47.17999" lon="5.67259">
        <ele>248</ele>
        <time>2012-09-14T13:51:18Z</time>
      </trkpt>
      <trkpt lat="47.17984" lon="5.67247">
        <ele>248</ele>
        <time>2012-09-14T13:51:20Z</time>
      </trkpt>
      <trkpt lat="47.17971" lon="5.67231">
        <ele>248</ele>
        <time>2012-09-14T13:51:22Z</time>
      </trkpt>
      <trkpt lat="47.17957" lon="5.67215">
        <ele>248</ele>
        <time>2012-09-14T13:51:24Z</time>
      </trkpt>
      <trkpt lat="47.1795" lon="5.67206">
        <ele>248</ele>
        <time>2012-09-14T13:51:25Z</time>
      </trkpt>
      <trkpt lat="47.17939" lon="5.67189">
        <ele>248</ele>
        <time>2012-09-14T13:51:27Z</time>
      </trkpt>
      <trkpt lat="47.17926" lon="5.67171">
        <ele>242</ele>
        <time>2012-09-14T13:51:29Z</time>
      </trkpt>
      <trkpt lat="47.17919" lon="5.67163">
        <ele>242</ele>
        <time>2012-09-14T13:51:30Z</time>
      </trkpt>
      <trkpt lat="47.17912" lon="5.67155">
        <ele>242</ele>
        <time>2012-09-14T13:51:31Z</time>
      </trkpt>
      <trkpt lat="47.17904" lon="5.67148">
        <ele>242</ele>
        <time>2012-09-14T13:51:32Z</time>
      </trkpt>
      <trkpt lat="47.17895" lon="5.67142">
        <ele>242</ele>
        <time>2012-09-14T13:51:33Z</time>
      </trkpt>
      <trkpt lat="47.17887" lon="5.67134">
        <ele>242</ele>
        <time>2012-09-14T13:51:34Z</time>
      </trkpt>
      <trkpt lat="47.17879" lon="5.67128">
        <ele>242</ele>
        <time>2012-09-14T13:51:35Z</time>
      </trkpt>
      <trkpt lat="47.1787" lon="5.6712">
        <ele>242</ele>
        <time>2012-09-14T13:51:36Z</time>
      </trkpt>
      <trkpt lat="47.17862" lon="5.67112">
        <ele>242</ele>
        <time>2012-09-14T13:51:37Z</time>
      </trkpt>
      <trkpt lat="47.17853" lon="5.67103">
        <ele>237</ele>
        <time>2012-09-14T13:51:38Z</time>
      </trkpt>
      <trkpt lat="47.17844" lon="5.67094">
        <ele>237</ele>
        <time>2012-09-14T13:51:39Z</time>
      </trkpt>
      <trkpt lat="47.17837" lon="5.67084">
        <ele>237</ele>
        <time>2012-09-14T13:51:40Z</time>
      </trkpt>
      <trkpt lat="47.17829" lon="5.67074">
        <ele>237</ele>
        <time>2012-09-14T13:51:41Z</time>
      </trkpt>
      <trkpt lat="47.17821" lon="5.67064">
        <ele>237</ele>
        <time>2012-09-14T13:51:42Z</time>
      </trkpt>
      <trkpt lat="47.17814" lon="5.67054">
        <ele>237</ele>
        <time>2012-09-14T13:51:43Z</time>
      </trkpt>
      <trkpt lat="47.17807" lon="5.67044">
        <ele>237</ele>
        <time>2012-09-14T13:51:44Z</time>
      </trkpt>
      <trkpt lat="47.178" lon="5.67033">
        <ele>237</ele>
        <time>2012-09-14T13:51:45Z</time>
      </trkpt>
      <trkpt lat="47.17794" lon="5.67022">
        <ele>231</ele>
        <time>2012-09-14T13:51:46Z</time>
      </trkpt>
      <trkpt lat="47.17789" lon="5.67011">
        <ele>231</ele>
        <time>2012-09-14T13:51:47Z</time>
      </trkpt>
      <trkpt lat="47.17784" lon="5.67">
        <ele>231</ele>
        <time>2012-09-14T13:51:48Z</time>
      </trkpt>
      <trkpt lat="47.17779" lon="5.66987">
        <ele>231</ele>
        <time>2012-09-14T13:51:49Z</time>
      </trkpt>
      <trkpt lat="47.17776" lon="5.66974">
        <ele>231</ele>
        <time>2012-09-14T13:51:50Z</time>
      </trkpt>
      <trkpt lat="47.17773" lon="5.66961">
        <ele>231</ele>
        <time>2012-09-14T13:51:51Z</time>
      </trkpt>
      <trkpt lat="47.17767" lon="5.66937">
        <ele>231</ele>
        <time>2012-09-14T13:51:53Z</time>
      </trkpt>
      <trkpt lat="47.17763" lon="5.66912">
        <ele>231</ele>
        <time>2012-09-14T13:51:55Z</time>
      </trkpt>
      <trkpt lat="47.17759" lon="5.66889">
        <ele>231</ele>
        <time>2012-09-14T13:51:57Z</time>
      </trkpt>
      <trkpt lat="47.17756" lon="5.66866">
        <ele>231</ele>
        <time>2012-09-14T13:51:59Z</time>
      </trkpt>
      <trkpt lat="47.17754" lon="5.66844">
        <ele>231</ele>
        <time>2012-09-14T13:52:01Z</time>
      </trkpt>
      <trkpt lat="47.17752" lon="5.66824">
        <ele>231</ele>
        <time>2012-09-14T13:52:03Z</time>
      </trkpt>
      <trkpt lat="47.17751" lon="5.66806">
        <ele>231</ele>
        <time>2012-09-14T13:52:05Z</time>
      </trkpt>
      <trkpt lat="47.1775" lon="5.66788">
        <ele>231</ele>
        <time>2012-09-14T13:52:07Z</time>
      </trkpt>
      <trkpt lat="47.17749" lon="5.66771">
        <ele>231</ele>
        <time>2012-09-14T13:52:09Z</time>
      </trkpt>
      <trkpt lat="47.1775" lon="5.66755">
        <ele>231</ele>
        <time>2012-09-14T13:52:11Z</time>
      </trkpt>
      <trkpt lat="47.17752" lon="5.66742">
        <ele>231</ele>
        <time>2012-09-14T13:52:13Z</time>
      </trkpt>
      <trkpt lat="47.17753" lon="5.66728">
        <ele>231</ele>
        <time>2012-09-14T13:52:15Z</time>
      </trkpt>
      <trkpt lat="47.17756" lon="5.66716">
        <ele>238</ele>
        <time>2012-09-14T13:52:17Z</time>
      </trkpt>
      <trkpt lat="47.17758" lon="5.66703">
        <ele>238</ele>
        <time>2012-09-14T13:52:19Z</time>
      </trkpt>
      <trkpt lat="47.17762" lon="5.66686">
        <ele>238</ele>
        <time>2012-09-14T13:52:22Z</time>
      </trkpt>
      <trkpt lat="47.17764" lon="5.66669">
        <ele>238</ele>
        <time>2012-09-14T13:52:25Z</time>
      </trkpt>
      <trkpt lat="47.17764" lon="5.66653">
        <ele>238</ele>
        <time>2012-09-14T13:52:28Z</time>
      </trkpt>
      <trkpt lat="47.17764" lon="5.66634">
        <ele>238</ele>
        <time>2012-09-14T13:52:31Z</time>
      </trkpt>
      <trkpt lat="47.17762" lon="5.66621">
        <ele>238</ele>
        <time>2012-09-14T13:52:33Z</time>
      </trkpt>
      <trkpt lat="47.1776" lon="5.66607">
        <ele>238</ele>
        <time>2012-09-14T13:52:35Z</time>
      </trkpt>
      <trkpt lat="47.17758" lon="5.66593">
        <ele>238</ele>
        <time>2012-09-14T13:52:37Z</time>
      </trkpt>
      <trkpt lat="47.17754" lon="5.66578">
        <ele>238</ele>
        <time>2012-09-14T13:52:39Z</time>
      </trkpt>
      <trkpt lat="47.17748" lon="5.66564">
        <ele>238</ele>
        <time>2012-09-14T13:52:41Z</time>
      </trkpt>
      <trkpt lat="47.17741" lon="5.6655">
        <ele>238</ele>
        <time>2012-09-14T13:52:43Z</time>
      </trkpt>
      <trkpt lat="47.17734" lon="5.66535">
        <ele>238</ele>
        <time>2012-09-14T13:52:45Z</time>
      </trkpt>
      <trkpt lat="47.17726" lon="5.66519">
        <ele>238</ele>
        <time>2012-09-14T13:52:47Z</time>
      </trkpt>
      <trkpt lat="47.17718" lon="5.66501">
        <ele>238</ele>
        <time>2012-09-14T13:52:49Z</time>
      </trkpt>
      <trkpt lat="47.1771" lon="5.66482">
        <ele>238</ele>
        <time>2012-09-14T13:52:51Z</time>
      </trkpt>
      <trkpt lat="47.17702" lon="5.66462">
        <ele>238</ele>
        <time>2012-09-14T13:52:53Z</time>
      </trkpt>
      <trkpt lat="47.17693" lon="5.66443">
        <ele>238</ele>
        <time>2012-09-14T13:52:55Z</time>
      </trkpt>
      <trkpt lat="47.17684" lon="5.66421">
        <ele>238</ele>
        <time>2012-09-14T13:52:57Z</time>
      </trkpt>
      <trkpt lat="47.17676" lon="5.664">
        <ele>238</ele>
        <time>2012-09-14T13:52:59Z</time>
      </trkpt>
      <trkpt lat="47.17667" lon="5.66378">
        <ele>238</ele>
        <time>2012-09-14T13:53:01Z</time>
      </trkpt>
      <trkpt lat="47.1766" lon="5.66358">
        <ele>238</ele>
        <time>2012-09-14T13:53:03Z</time>
      </trkpt>
      <trkpt lat="47.17651" lon="5.66338">
        <ele>232</ele>
        <time>2012-09-14T13:53:05Z</time>
      </trkpt>
      <trkpt lat="47.17642" lon="5.66315">
        <ele>232</ele>
        <time>2012-09-14T13:53:07Z</time>
      </trkpt>
      <trkpt lat="47.17637" lon="5.66304">
        <ele>232</ele>
        <time>2012-09-14T13:53:08Z</time>
      </trkpt>
      <trkpt lat="47.17631" lon="5.66293">
        <ele>232</ele>
        <time>2012-09-14T13:53:09Z</time>
      </trkpt>
      <trkpt lat="47.17624" lon="5.66282">
        <ele>232</ele>
        <time>2012-09-14T13:53:10Z</time>
      </trkpt>
      <trkpt lat="47.17617" lon="5.66271">
        <ele>232</ele>
        <time>2012-09-14T13:53:11Z</time>
      </trkpt>
      <trkpt lat="47.17611" lon="5.66261">
        <ele>232</ele>
        <time>2012-09-14T13:53:12Z</time>
      </trkpt>
      <trkpt lat="47.17604" lon="5.66251">
        <ele>232</ele>
        <time>2012-09-14T13:53:13Z</time>
      </trkpt>
      <trkpt lat="47.17598" lon="5.66241">
        <ele>232</ele>
        <time>2012-09-14T13:53:14Z</time>
      </trkpt>
      <trkpt lat="47.17585" lon="5.66223">
        <ele>232</ele>
        <time>2012-09-14T13:53:16Z</time>
      </trkpt>
      <trkpt lat="47.17573" lon="5.66206">
        <ele>232</ele>
        <time>2012-09-14T13:53:18Z</time>
      </trkpt>
      <trkpt lat="47.17562" lon="5.66191">
        <ele>232</ele>
        <time>2012-09-14T13:53:20Z</time>
      </trkpt>
      <trkpt lat="47.17552" lon="5.66177">
        <ele>232</ele>
        <time>2012-09-14T13:53:22Z</time>
      </trkpt>
      <trkpt lat="47.17544" lon="5.66161">
        <ele>232</ele>
        <time>2012-09-14T13:53:24Z</time>
      </trkpt>
      <trkpt lat="47.17536" lon="5.66147">
        <ele>232</ele>
        <time>2012-09-14T13:53:26Z</time>
      </trkpt>
      <trkpt lat="47.17528" lon="5.66132">
        <ele>232</ele>
        <time>2012-09-14T13:53:28Z</time>
      </trkpt>
      <trkpt lat="47.17523" lon="5.66116">
        <ele>232</ele>
        <time>2012-09-14T13:53:30Z</time>
      </trkpt>
      <trkpt lat="47.17519" lon="5.66099">
        <ele>232</ele>
        <time>2012-09-14T13:53:32Z</time>
      </trkpt>
      <trkpt lat="47.17515" lon="5.66084">
        <ele>232</ele>
        <time>2012-09-14T13:53:34Z</time>
      </trkpt>
      <trkpt lat="47.17512" lon="5.66069">
        <ele>232</ele>
        <time>2012-09-14T13:53:36Z</time>
      </trkpt>
      <trkpt lat="47.17509" lon="5.66053">
        <ele>232</ele>
        <time>2012-09-14T13:53:38Z</time>
      </trkpt>
      <trkpt lat="47.17508" lon="5.66037">
        <ele>232</ele>
        <time>2012-09-14T13:53:40Z</time>
      </trkpt>
      <trkpt lat="47.17508" lon="5.66021">
        <ele>232</ele>
        <time>2012-09-14T13:53:42Z</time>
      </trkpt>
      <trkpt lat="47.17508" lon="5.66005">
        <ele>232</ele>
        <time>2012-09-14T13:53:44Z</time>
      </trkpt>
      <trkpt lat="47.17509" lon="5.65988">
        <ele>237</ele>
        <time>2012-09-14T13:53:46Z</time>
      </trkpt>
      <trkpt lat="47.17509" lon="5.65972">
        <ele>237</ele>
        <time>2012-09-14T13:53:48Z</time>
      </trkpt>
      <trkpt lat="47.17508" lon="5.65955">
        <ele>237</ele>
        <time>2012-09-14T13:53:50Z</time>
      </trkpt>
      <trkpt lat="47.17507" lon="5.65939">
        <ele>237</ele>
        <time>2012-09-14T13:53:52Z</time>
      </trkpt>
      <trkpt lat="47.17505" lon="5.65922">
        <ele>237</ele>
        <time>2012-09-14T13:53:54Z</time>
      </trkpt>
      <trkpt lat="47.17503" lon="5.65905">
        <ele>237</ele>
        <time>2012-09-14T13:53:56Z</time>
      </trkpt>
      <trkpt lat="47.175" lon="5.65889">
        <ele>237</ele>
        <time>2012-09-14T13:53:58Z</time>
      </trkpt>
      <trkpt lat="47.17497" lon="5.65874">
        <ele>237</ele>
        <time>2012-09-14T13:54:00Z</time>
      </trkpt>
      <trkpt lat="47.17493" lon="5.6586">
        <ele>237</ele>
        <time>2012-09-14T13:54:02Z</time>
      </trkpt>
      <trkpt lat="47.17488" lon="5.65845">
        <ele>237</ele>
        <time>2012-09-14T13:54:04Z</time>
      </trkpt>
      <trkpt lat="47.17484" lon="5.65831">
        <ele>237</ele>
        <time>2012-09-14T13:54:06Z</time>
      </trkpt>
      <trkpt lat="47.1748" lon="5.65817">
        <ele>237</ele>
        <time>2012-09-14T13:54:08Z</time>
      </trkpt>
      <trkpt lat="47.17474" lon="5.65802">
        <ele>237</ele>
        <time>2012-09-14T13:54:10Z</time>
      </trkpt>
      <trkpt lat="47.17469" lon="5.65787">
        <ele>237</ele>
        <time>2012-09-14T13:54:12Z</time>
      </trkpt>
      <trkpt lat="47.17463" lon="5.65772">
        <ele>237</ele>
        <time>2012-09-14T13:54:14Z</time>
      </trkpt>
      <trkpt lat="47.17457" lon="5.65757">
        <ele>237</ele>
        <time>2012-09-14T13:54:16Z</time>
      </trkpt>
      <trkpt lat="47.17451" lon="5.65742">
        <ele>237</ele>
        <time>2012-09-14T13:54:18Z</time>
      </trkpt>
      <trkpt lat="47.17443" lon="5.65726">
        <ele>237</ele>
        <time>2012-09-14T13:54:20Z</time>
      </trkpt>
      <trkpt lat="47.17436" lon="5.6571">
        <ele>237</ele>
        <time>2012-09-14T13:54:22Z</time>
      </trkpt>
      <trkpt lat="47.17428" lon="5.65693">
        <ele>237</ele>
        <time>2012-09-14T13:54:24Z</time>
      </trkpt>
      <trkpt lat="47.1742" lon="5.65677">
        <ele>237</ele>
        <time>2012-09-14T13:54:26Z</time>
      </trkpt>
      <trkpt lat="47.17412" lon="5.6566">
        <ele>237</ele>
        <time>2012-09-14T13:54:28Z</time>
      </trkpt>
      <trkpt lat="47.17404" lon="5.65642">
        <ele>237</ele>
        <time>2012-09-14T13:54:30Z</time>
      </trkpt>
      <trkpt lat="47.17397" lon="5.65624">
        <ele>237</ele>
        <time>2012-09-14T13:54:32Z</time>
      </trkpt>
      <trkpt lat="47.1739" lon="5.65608">
        <ele>237</ele>
        <time>2012-09-14T13:54:34Z</time>
      </trkpt>
      <trkpt lat="47.17384" lon="5.65596">
        <ele>237</ele>
        <time>2012-09-14T13:54:36Z</time>
      </trkpt>
      <trkpt lat="47.17379" lon="5.65583">
        <ele>237</ele>
        <time>2012-09-14T13:54:39Z</time>
      </trkpt>
      <trkpt lat="47.17376" lon="5.65569">
        <ele>237</ele>
        <time>2012-09-14T13:54:44Z</time>
      </trkpt>
      <trkpt lat="47.17373" lon="5.65552">
        <ele>237</ele>
        <time>2012-09-14T13:54:48Z</time>
      </trkpt>
      <trkpt lat="47.17371" lon="5.65534">
        <ele>237</ele>
        <time>2012-09-14T13:54:51Z</time>
      </trkpt>
      <trkpt lat="47.17368" lon="5.65516">
        <ele>237</ele>
        <time>2012-09-14T13:54:54Z</time>
      </trkpt>
      <trkpt lat="47.17367" lon="5.65496">
        <ele>237</ele>
        <time>2012-09-14T13:54:57Z</time>
      </trkpt>
      <trkpt lat="47.1737" lon="5.65481">
        <ele>237</ele>
        <time>2012-09-14T13:54:59Z</time>
      </trkpt>
      <trkpt lat="47.17371" lon="5.65468">
        <ele>237</ele>
        <time>2012-09-14T13:55:01Z</time>
      </trkpt>
      <trkpt lat="47.17375" lon="5.65454">
        <ele>237</ele>
        <time>2012-09-14T13:55:03Z</time>
      </trkpt>
      <trkpt lat="47.17379" lon="5.65441">
        <ele>231</ele>
        <time>2012-09-14T13:55:05Z</time>
      </trkpt>
      <trkpt lat="47.17383" lon="5.65428">
        <ele>231</ele>
        <time>2012-09-14T13:55:07Z</time>
      </trkpt>
      <trkpt lat="47.17386" lon="5.65415">
        <ele>231</ele>
        <time>2012-09-14T13:55:09Z</time>
      </trkpt>
      <trkpt lat="47.17389" lon="5.65401">
        <ele>231</ele>
        <time>2012-09-14T13:55:11Z</time>
      </trkpt>
      <trkpt lat="47.17392" lon="5.65387">
        <ele>231</ele>
        <time>2012-09-14T13:55:13Z</time>
      </trkpt>
      <trkpt lat="47.17396" lon="5.65371">
        <ele>231</ele>
        <time>2012-09-14T13:55:15Z</time>
      </trkpt>
      <trkpt lat="47.174" lon="5.65356">
        <ele>231</ele>
        <time>2012-09-14T13:55:17Z</time>
      </trkpt>
      <trkpt lat="47.17403" lon="5.6534">
        <ele>231</ele>
        <time>2012-09-14T13:55:19Z</time>
      </trkpt>
      <trkpt lat="47.17406" lon="5.65326">
        <ele>226</ele>
        <time>2012-09-14T13:55:21Z</time>
      </trkpt>
      <trkpt lat="47.17409" lon="5.65311">
        <ele>226</ele>
        <time>2012-09-14T13:55:23Z</time>
      </trkpt>
      <trkpt lat="47.17411" lon="5.65295">
        <ele>226</ele>
        <time>2012-09-14T13:55:25Z</time>
      </trkpt>
      <trkpt lat="47.17413" lon="5.65281">
        <ele>226</ele>
        <time>2012-09-14T13:55:27Z</time>
      </trkpt>
      <trkpt lat="47.17414" lon="5.65266">
        <ele>226</ele>
        <time>2012-09-14T13:55:29Z</time>
      </trkpt>
      <trkpt lat="47.17415" lon="5.6525">
        <ele>226</ele>
        <time>2012-09-14T13:55:31Z</time>
      </trkpt>
      <trkpt lat="47.17416" lon="5.65233">
        <ele>226</ele>
        <time>2012-09-14T13:55:33Z</time>
      </trkpt>
      <trkpt lat="47.17417" lon="5.65216">
        <ele>226</ele>
        <time>2012-09-14T13:55:35Z</time>
      </trkpt>
      <trkpt lat="47.17419" lon="5.65199">
        <ele>226</ele>
        <time>2012-09-14T13:55:37Z</time>
      </trkpt>
      <trkpt lat="47.17419" lon="5.65184">
        <ele>226</ele>
        <time>2012-09-14T13:55:39Z</time>
      </trkpt>
      <trkpt lat="47.17419" lon="5.6517">
        <ele>226</ele>
        <time>2012-09-14T13:55:41Z</time>
      </trkpt>
      <trkpt lat="47.17417" lon="5.65154">
        <ele>226</ele>
        <time>2012-09-14T13:55:43Z</time>
      </trkpt>
      <trkpt lat="47.17413" lon="5.65141">
        <ele>226</ele>
        <time>2012-09-14T13:55:45Z</time>
      </trkpt>
      <trkpt lat="47.17409" lon="5.65129">
        <ele>226</ele>
        <time>2012-09-14T13:55:47Z</time>
      </trkpt>
      <trkpt lat="47.17404" lon="5.65115">
        <ele>226</ele>
        <time>2012-09-14T13:55:49Z</time>
      </trkpt>
      <trkpt lat="47.17399" lon="5.65101">
        <ele>226</ele>
        <time>2012-09-14T13:55:51Z</time>
      </trkpt>
      <trkpt lat="47.17395" lon="5.65086">
        <ele>226</ele>
        <time>2012-09-14T13:55:53Z</time>
      </trkpt>
      <trkpt lat="47.17392" lon="5.65072">
        <ele>226</ele>
        <time>2012-09-14T13:55:55Z</time>
      </trkpt>
      <trkpt lat="47.17389" lon="5.65057">
        <ele>226</ele>
        <time>2012-09-14T13:55:57Z</time>
      </trkpt>
      <trkpt lat="47.17389" lon="5.65043">
        <ele>226</ele>
        <time>2012-09-14T13:55:59Z</time>
      </trkpt>
      <trkpt lat="47.17387" lon="5.6503">
        <ele>226</ele>
        <time>2012-09-14T13:56:01Z</time>
      </trkpt>
      <trkpt lat="47.17385" lon="5.65015">
        <ele>226</ele>
        <time>2012-09-14T13:56:03Z</time>
      </trkpt>
      <trkpt lat="47.17383" lon="5.64999">
        <ele>226</ele>
        <time>2012-09-14T13:56:05Z</time>
      </trkpt>
      <trkpt lat="47.17387" lon="5.64985">
        <ele>226</ele>
        <time>2012-09-14T13:56:07Z</time>
      </trkpt>
      <trkpt lat="47.17395" lon="5.64972">
        <ele>226</ele>
        <time>2012-09-14T13:56:10Z</time>
      </trkpt>
      <trkpt lat="47.17397" lon="5.64959">
        <ele>226</ele>
        <time>2012-09-14T13:56:13Z</time>
      </trkpt>
      <trkpt lat="47.17389" lon="5.64947">
        <ele>226</ele>
        <time>2012-09-14T13:56:16Z</time>
      </trkpt>
      <trkpt lat="47.17379" lon="5.64933">
        <ele>231</ele>
        <time>2012-09-14T13:56:19Z</time>
      </trkpt>
      <trkpt lat="47.1737" lon="5.64918">
        <ele>231</ele>
        <time>2012-09-14T13:56:22Z</time>
      </trkpt>
      <trkpt lat="47.17362" lon="5.64902">
        <ele>231</ele>
        <time>2012-09-14T13:56:25Z</time>
      </trkpt>
      <trkpt lat="47.17356" lon="5.64891">
        <ele>231</ele>
        <time>2012-09-14T13:56:27Z</time>
      </trkpt>
      <trkpt lat="47.1735" lon="5.6488">
        <ele>231</ele>
        <time>2012-09-14T13:56:29Z</time>
      </trkpt>
      <trkpt lat="47.17345" lon="5.64868">
        <ele>231</ele>
        <time>2012-09-14T13:56:31Z</time>
      </trkpt>
      <trkpt lat="47.17338" lon="5.64856">
        <ele>231</ele>
        <time>2012-09-14T13:56:33Z</time>
      </trkpt>
      <trkpt lat="47.17332" lon="5.64845">
        <ele>231</ele>
        <time>2012-09-14T13:56:35Z</time>
      </trkpt>
      <trkpt lat="47.17327" lon="5.64833">
        <ele>231</ele>
        <time>2012-09-14T13:56:37Z</time>
      </trkpt>
      <trkpt lat="47.17321" lon="5.64822">
        <ele>237</ele>
        <time>2012-09-14T13:56:39Z</time>
      </trkpt>
      <trkpt lat="47.17315" lon="5.64811">
        <ele>237</ele>
        <time>2012-09-14T13:56:41Z</time>
      </trkpt>
      <trkpt lat="47.17309" lon="5.648">
        <ele>237</ele>
        <time>2012-09-14T13:56:43Z</time>
      </trkpt>
      <trkpt lat="47.17302" lon="5.64786">
        <ele>237</ele>
        <time>2012-09-14T13:56:45Z</time>
      </trkpt>
      <trkpt lat="47.17296" lon="5.64774">
        <ele>237</ele>
        <time>2012-09-14T13:56:47Z</time>
      </trkpt>
      <trkpt lat="47.17288" lon="5.64762">
        <ele>237</ele>
        <time>2012-09-14T13:56:49Z</time>
      </trkpt>
      <trkpt lat="47.1728" lon="5.64749">
        <ele>237</ele>
        <time>2012-09-14T13:56:51Z</time>
      </trkpt>
      <trkpt lat="47.17272" lon="5.64736">
        <ele>237</ele>
        <time>2012-09-14T13:56:53Z</time>
      </trkpt>
      <trkpt lat="47.17264" lon="5.64724">
        <ele>237</ele>
        <time>2012-09-14T13:56:55Z</time>
      </trkpt>
      <trkpt lat="47.17255" lon="5.64712">
        <ele>237</ele>
        <time>2012-09-14T13:56:57Z</time>
      </trkpt>
      <trkpt lat="47.17245" lon="5.64701">
        <ele>237</ele>
        <time>2012-09-14T13:56:59Z</time>
      </trkpt>
      <trkpt lat="47.17235" lon="5.64692">
        <ele>237</ele>
        <time>2012-09-14T13:57:01Z</time>
      </trkpt>
      <trkpt lat="47.17226" lon="5.64682">
        <ele>230</ele>
        <time>2012-09-14T13:57:03Z</time>
      </trkpt>
      <trkpt lat="47.17217" lon="5.64673">
        <ele>230</ele>
        <time>2012-09-14T13:57:05Z</time>
      </trkpt>
      <trkpt lat="47.17207" lon="5.64661">
        <ele>230</ele>
        <time>2012-09-14T13:57:07Z</time>
      </trkpt>
      <trkpt lat="47.17201" lon="5.64645">
        <ele>230</ele>
        <time>2012-09-14T13:57:09Z</time>
      </trkpt>
      <trkpt lat="47.17196" lon="5.64629">
        <ele>230</ele>
        <time>2012-09-14T13:57:11Z</time>
      </trkpt>
      <trkpt lat="47.17192" lon="5.64611">
        <ele>230</ele>
        <time>2012-09-14T13:57:13Z</time>
      </trkpt>
      <trkpt lat="47.17187" lon="5.64592">
        <ele>230</ele>
        <time>2012-09-14T13:57:15Z</time>
      </trkpt>
      <trkpt lat="47.17183" lon="5.64573">
        <ele>230</ele>
        <time>2012-09-14T13:57:17Z</time>
      </trkpt>
      <trkpt lat="47.17181" lon="5.64553">
        <ele>230</ele>
        <time>2012-09-14T13:57:19Z</time>
      </trkpt>
      <trkpt lat="47.17179" lon="5.64532">
        <ele>230</ele>
        <time>2012-09-14T13:57:21Z</time>
      </trkpt>
      <trkpt lat="47.17177" lon="5.64511">
        <ele>230</ele>
        <time>2012-09-14T13:57:23Z</time>
      </trkpt>
      <trkpt lat="47.17172" lon="5.64492">
        <ele>230</ele>
        <time>2012-09-14T13:57:25Z</time>
      </trkpt>
      <trkpt lat="47.17166" lon="5.64477">
        <ele>230</ele>
        <time>2012-09-14T13:57:27Z</time>
      </trkpt>
      <trkpt lat="47.1716" lon="5.64463">
        <ele>230</ele>
        <time>2012-09-14T13:57:29Z</time>
      </trkpt>
      <trkpt lat="47.17156" lon="5.64446">
        <ele>230</ele>
        <time>2012-09-14T13:57:31Z</time>
      </trkpt>
      <trkpt lat="47.1715" lon="5.6443">
        <ele>230</ele>
        <time>2012-09-14T13:57:33Z</time>
      </trkpt>
      <trkpt lat="47.17144" lon="5.64413">
        <ele>230</ele>
        <time>2012-09-14T13:57:35Z</time>
      </trkpt>
      <trkpt lat="47.17139" lon="5.64394">
        <ele>230</ele>
        <time>2012-09-14T13:57:37Z</time>
      </trkpt>
      <trkpt lat="47.17133" lon="5.64377">
        <ele>230</ele>
        <time>2012-09-14T13:57:39Z</time>
      </trkpt>
      <trkpt lat="47.17128" lon="5.64359">
        <ele>230</ele>
        <time>2012-09-14T13:57:41Z</time>
      </trkpt>
      <trkpt lat="47.17123" lon="5.64341">
        <ele>230</ele>
        <time>2012-09-14T13:57:43Z</time>
      </trkpt>
      <trkpt lat="47.17118" lon="5.64324">
        <ele>230</ele>
        <time>2012-09-14T13:57:45Z</time>
      </trkpt>
      <trkpt lat="47.17113" lon="5.64306">
        <ele>230</ele>
        <time>2012-09-14T13:57:47Z</time>
      </trkpt>
      <trkpt lat="47.17109" lon="5.64288">
        <ele>230</ele>
        <time>2012-09-14T13:57:49Z</time>
      </trkpt>
      <trkpt lat="47.17104" lon="5.64271">
        <ele>230</ele>
        <time>2012-09-14T13:57:51Z</time>
      </trkpt>
      <trkpt lat="47.171" lon="5.64254">
        <ele>235</ele>
        <time>2012-09-14T13:57:53Z</time>
      </trkpt>
      <trkpt lat="47.17095" lon="5.64237">
        <ele>235</ele>
        <time>2012-09-14T13:57:55Z</time>
      </trkpt>
      <trkpt lat="47.17091" lon="5.64222">
        <ele>235</ele>
        <time>2012-09-14T13:57:57Z</time>
      </trkpt>
      <trkpt lat="47.17087" lon="5.64206">
        <ele>235</ele>
        <time>2012-09-14T13:57:59Z</time>
      </trkpt>
      <trkpt lat="47.17083" lon="5.64191">
        <ele>235</ele>
        <time>2012-09-14T13:58:01Z</time>
      </trkpt>
      <trkpt lat="47.17077" lon="5.64178">
        <ele>235</ele>
        <time>2012-09-14T13:58:03Z</time>
      </trkpt>
      <trkpt lat="47.1707" lon="5.64165">
        <ele>235</ele>
        <time>2012-09-14T13:58:05Z</time>
      </trkpt>
      <trkpt lat="47.17062" lon="5.64152">
        <ele>235</ele>
        <time>2012-09-14T13:58:07Z</time>
      </trkpt>
      <trkpt lat="47.17053" lon="5.64141">
        <ele>235</ele>
        <time>2012-09-14T13:58:09Z</time>
      </trkpt>
      <trkpt lat="47.17044" lon="5.64133">
        <ele>235</ele>
        <time>2012-09-14T13:58:11Z</time>
      </trkpt>
      <trkpt lat="47.17035" lon="5.64125">
        <ele>235</ele>
        <time>2012-09-14T13:58:13Z</time>
      </trkpt>
      <trkpt lat="47.17027" lon="5.64117">
        <ele>235</ele>
        <time>2012-09-14T13:58:15Z</time>
      </trkpt>
      <trkpt lat="47.17019" lon="5.64109">
        <ele>235</ele>
        <time>2012-09-14T13:58:17Z</time>
      </trkpt>
      <trkpt lat="47.17009" lon="5.64101">
        <ele>229</ele>
        <time>2012-09-14T13:58:20Z</time>
      </trkpt>
      <trkpt lat="47.17" lon="5.6409">
        <ele>229</ele>
        <time>2012-09-14T13:58:23Z</time>
      </trkpt>
      <trkpt lat="47.1699" lon="5.64082">
        <ele>229</ele>
        <time>2012-09-14T13:58:26Z</time>
      </trkpt>
      <trkpt lat="47.16981" lon="5.64072">
        <ele>229</ele>
        <time>2012-09-14T13:58:29Z</time>
      </trkpt>
      <trkpt lat="47.16971" lon="5.6406">
        <ele>229</ele>
        <time>2012-09-14T13:58:32Z</time>
      </trkpt>
      <trkpt lat="47.16962" lon="5.64047">
        <ele>229</ele>
        <time>2012-09-14T13:58:35Z</time>
      </trkpt>
      <trkpt lat="47.16953" lon="5.64032">
        <ele>235</ele>
        <time>2012-09-14T13:58:38Z</time>
      </trkpt>
      <trkpt lat="47.16945" lon="5.64018">
        <ele>235</ele>
        <time>2012-09-14T13:58:41Z</time>
      </trkpt>
      <trkpt lat="47.16937" lon="5.64003">
        <ele>235</ele>
        <time>2012-09-14T13:58:44Z</time>
      </trkpt>
      <trkpt lat="47.1693" lon="5.63992">
        <ele>235</ele>
        <time>2012-09-14T13:58:46Z</time>
      </trkpt>
      <trkpt lat="47.16922" lon="5.63978">
        <ele>235</ele>
        <time>2012-09-14T13:58:49Z</time>
      </trkpt>
      <trkpt lat="47.16916" lon="5.63961">
        <ele>235</ele>
        <time>2012-09-14T13:58:52Z</time>
      </trkpt>
      <trkpt lat="47.16912" lon="5.63949">
        <ele>235</ele>
        <time>2012-09-14T13:58:54Z</time>
      </trkpt>
      <trkpt lat="47.16909" lon="5.63935">
        <ele>235</ele>
        <time>2012-09-14T13:58:56Z</time>
      </trkpt>
      <trkpt lat="47.16907" lon="5.63923">
        <ele>235</ele>
        <time>2012-09-14T13:58:58Z</time>
      </trkpt>
      <trkpt lat="47.16903" lon="5.6391">
        <ele>235</ele>
        <time>2012-09-14T13:59:00Z</time>
      </trkpt>
      <trkpt lat="47.16901" lon="5.63891">
        <ele>235</ele>
        <time>2012-09-14T13:59:03Z</time>
      </trkpt>
      <trkpt lat="47.16899" lon="5.63877">
        <ele>241</ele>
        <time>2012-09-14T13:59:05Z</time>
      </trkpt>
      <trkpt lat="47.16895" lon="5.63858">
        <ele>241</ele>
        <time>2012-09-14T13:59:08Z</time>
      </trkpt>
      <trkpt lat="47.16892" lon="5.63846">
        <ele>241</ele>
        <time>2012-09-14T13:59:10Z</time>
      </trkpt>
      <trkpt lat="47.16888" lon="5.63833">
        <ele>241</ele>
        <time>2012-09-14T13:59:12Z</time>
      </trkpt>
      <trkpt lat="47.16884" lon="5.63819">
        <ele>241</ele>
        <time>2012-09-14T13:59:14Z</time>
      </trkpt>
      <trkpt lat="47.1688" lon="5.63805">
        <ele>241</ele>
        <time>2012-09-14T13:59:16Z</time>
      </trkpt>
      <trkpt lat="47.16873" lon="5.63794">
        <ele>241</ele>
        <time>2012-09-14T13:59:18Z</time>
      </trkpt>
      <trkpt lat="47.16865" lon="5.63786">
        <ele>241</ele>
        <time>2012-09-14T13:59:20Z</time>
      </trkpt>
      <trkpt lat="47.16857" lon="5.63778">
        <ele>241</ele>
        <time>2012-09-14T13:59:22Z</time>
      </trkpt>
      <trkpt lat="47.16848" lon="5.63771">
        <ele>241</ele>
        <time>2012-09-14T13:59:24Z</time>
      </trkpt>
      <trkpt lat="47.16839" lon="5.63766">
        <ele>236</ele>
        <time>2012-09-14T13:59:26Z</time>
      </trkpt>
      <trkpt lat="47.16829" lon="5.63761">
        <ele>236</ele>
        <time>2012-09-14T13:59:28Z</time>
      </trkpt>
      <trkpt lat="47.1682" lon="5.63757">
        <ele>236</ele>
        <time>2012-09-14T13:59:30Z</time>
      </trkpt>
      <trkpt lat="47.1681" lon="5.63751">
        <ele>236</ele>
        <time>2012-09-14T13:59:32Z</time>
      </trkpt>
      <trkpt lat="47.168" lon="5.63747">
        <ele>236</ele>
        <time>2012-09-14T13:59:34Z</time>
      </trkpt>
      <trkpt lat="47.1679" lon="5.63741">
        <ele>236</ele>
        <time>2012-09-14T13:59:36Z</time>
      </trkpt>
      <trkpt lat="47.16781" lon="5.63735">
        <ele>236</ele>
        <time>2012-09-14T13:59:38Z</time>
      </trkpt>
      <trkpt lat="47.16771" lon="5.63727">
        <ele>236</ele>
        <time>2012-09-14T13:59:40Z</time>
      </trkpt>
      <trkpt lat="47.16762" lon="5.63717">
        <ele>236</ele>
        <time>2012-09-14T13:59:42Z</time>
      </trkpt>
      <trkpt lat="47.16752" lon="5.63705">
        <ele>230</ele>
        <time>2012-09-14T13:59:44Z</time>
      </trkpt>
      <trkpt lat="47.16742" lon="5.63694">
        <ele>230</ele>
        <time>2012-09-14T13:59:46Z</time>
      </trkpt>
      <trkpt lat="47.16732" lon="5.63681">
        <ele>230</ele>
        <time>2012-09-14T13:59:48Z</time>
      </trkpt>
      <trkpt lat="47.16722" lon="5.6367">
        <ele>230</ele>
        <time>2012-09-14T13:59:50Z</time>
      </trkpt>
      <trkpt lat="47.16712" lon="5.63657">
        <ele>230</ele>
        <time>2012-09-14T13:59:52Z</time>
      </trkpt>
      <trkpt lat="47.16702" lon="5.63646">
        <ele>230</ele>
        <time>2012-09-14T13:59:54Z</time>
      </trkpt>
      <trkpt lat="47.16692" lon="5.63635">
        <ele>230</ele>
        <time>2012-09-14T13:59:56Z</time>
      </trkpt>
      <trkpt lat="47.16683" lon="5.63626">
        <ele>230</ele>
        <time>2012-09-14T13:59:58Z</time>
      </trkpt>
      <trkpt lat="47.16673" lon="5.63617">
        <ele>230</ele>
        <time>2012-09-14T14:00:00Z</time>
      </trkpt>
      <trkpt lat="47.16663" lon="5.63611">
        <ele>230</ele>
        <time>2012-09-14T14:00:02Z</time>
      </trkpt>
      <trkpt lat="47.16652" lon="5.63606">
        <ele>230</ele>
        <time>2012-09-14T14:00:04Z</time>
      </trkpt>
      <trkpt lat="47.16642" lon="5.63601">
        <ele>230</ele>
        <time>2012-09-14T14:00:06Z</time>
      </trkpt>
      <trkpt lat="47.16633" lon="5.63597">
        <ele>230</ele>
        <time>2012-09-14T14:00:08Z</time>
      </trkpt>
      <trkpt lat="47.16624" lon="5.63592">
        <ele>230</ele>
        <time>2012-09-14T14:00:10Z</time>
      </trkpt>
      <trkpt lat="47.16614" lon="5.63588">
        <ele>230</ele>
        <time>2012-09-14T14:00:12Z</time>
      </trkpt>
      <trkpt lat="47.16605" lon="5.63584">
        <ele>230</ele>
        <time>2012-09-14T14:00:14Z</time>
      </trkpt>
      <trkpt lat="47.16595" lon="5.6358">
        <ele>230</ele>
        <time>2012-09-14T14:00:16Z</time>
      </trkpt>
      <trkpt lat="47.16586" lon="5.63576">
        <ele>230</ele>
        <time>2012-09-14T14:00:18Z</time>
      </trkpt>
      <trkpt lat="47.16577" lon="5.63572">
        <ele>230</ele>
        <time>2012-09-14T14:00:20Z</time>
      </trkpt>
      <trkpt lat="47.16568" lon="5.63568">
        <ele>230</ele>
        <time>2012-09-14T14:00:22Z</time>
      </trkpt>
      <trkpt lat="47.16559" lon="5.63564">
        <ele>230</ele>
        <time>2012-09-14T14:00:24Z</time>
      </trkpt>
      <trkpt lat="47.16549" lon="5.6356">
        <ele>230</ele>
        <time>2012-09-14T14:00:26Z</time>
      </trkpt>
      <trkpt lat="47.16539" lon="5.63555">
        <ele>230</ele>
        <time>2012-09-14T14:00:28Z</time>
      </trkpt>
      <trkpt lat="47.16529" lon="5.6355">
        <ele>230</ele>
        <time>2012-09-14T14:00:30Z</time>
      </trkpt>
      <trkpt lat="47.16519" lon="5.63544">
        <ele>230</ele>
        <time>2012-09-14T14:00:32Z</time>
      </trkpt>
      <trkpt lat="47.16509" lon="5.63535">
        <ele>230</ele>
        <time>2012-09-14T14:00:34Z</time>
      </trkpt>
      <trkpt lat="47.165" lon="5.63523">
        <ele>230</ele>
        <time>2012-09-14T14:00:36Z</time>
      </trkpt>
      <trkpt lat="47.1649" lon="5.63507">
        <ele>230</ele>
        <time>2012-09-14T14:00:38Z</time>
      </trkpt>
      <trkpt lat="47.16481" lon="5.63489">
        <ele>230</ele>
        <time>2012-09-14T14:00:40Z</time>
      </trkpt>
      <trkpt lat="47.16473" lon="5.63469">
        <ele>230</ele>
        <time>2012-09-14T14:00:42Z</time>
      </trkpt>
      <trkpt lat="47.16466" lon="5.63446">
        <ele>230</ele>
        <time>2012-09-14T14:00:44Z</time>
      </trkpt>
      <trkpt lat="47.16462" lon="5.63434">
        <ele>230</ele>
        <time>2012-09-14T14:00:45Z</time>
      </trkpt>
      <trkpt lat="47.16453" lon="5.63411">
        <ele>230</ele>
        <time>2012-09-14T14:00:47Z</time>
      </trkpt>
      <trkpt lat="47.16448" lon="5.63399">
        <ele>230</ele>
        <time>2012-09-14T14:00:48Z</time>
      </trkpt>
      <trkpt lat="47.16442" lon="5.63388">
        <ele>230</ele>
        <time>2012-09-14T14:00:49Z</time>
      </trkpt>
      <trkpt lat="47.16436" lon="5.63378">
        <ele>230</ele>
        <time>2012-09-14T14:00:50Z</time>
      </trkpt>
      <trkpt lat="47.16429" lon="5.63369">
        <ele>230</ele>
        <time>2012-09-14T14:00:51Z</time>
      </trkpt>
      <trkpt lat="47.16421" lon="5.63361">
        <ele>230</ele>
        <time>2012-09-14T14:00:52Z</time>
      </trkpt>
      <trkpt lat="47.16408" lon="5.63346">
        <ele>230</ele>
        <time>2012-09-14T14:00:54Z</time>
      </trkpt>
      <trkpt lat="47.16396" lon="5.63334">
        <ele>230</ele>
        <time>2012-09-14T14:00:56Z</time>
      </trkpt>
      <trkpt lat="47.16385" lon="5.63322">
        <ele>230</ele>
        <time>2012-09-14T14:00:58Z</time>
      </trkpt>
      <trkpt lat="47.16372" lon="5.63309">
        <ele>225</ele>
        <time>2012-09-14T14:01:00Z</time>
      </trkpt>
      <trkpt lat="47.16361" lon="5.63294">
        <ele>225</ele>
        <time>2012-09-14T14:01:02Z</time>
      </trkpt>
      <trkpt lat="47.16349" lon="5.63278">
        <ele>225</ele>
        <time>2012-09-14T14:01:04Z</time>
      </trkpt>
      <trkpt lat="47.16338" lon="5.63259">
        <ele>225</ele>
        <time>2012-09-14T14:01:06Z</time>
      </trkpt>
      <trkpt lat="47.16329" lon="5.63238">
        <ele>225</ele>
        <time>2012-09-14T14:01:08Z</time>
      </trkpt>
      <trkpt lat="47.1632" lon="5.63219">
        <ele>225</ele>
        <time>2012-09-14T14:01:10Z</time>
      </trkpt>
      <trkpt lat="47.16309" lon="5.63203">
        <ele>225</ele>
        <time>2012-09-14T14:01:12Z</time>
      </trkpt>
      <trkpt lat="47.16298" lon="5.63189">
        <ele>225</ele>
        <time>2012-09-14T14:01:14Z</time>
      </trkpt>
      <trkpt lat="47.16285" lon="5.63178">
        <ele>225</ele>
        <time>2012-09-14T14:01:16Z</time>
      </trkpt>
      <trkpt lat="47.16274" lon="5.6317">
        <ele>225</ele>
        <time>2012-09-14T14:01:18Z</time>
      </trkpt>
      <trkpt lat="47.16263" lon="5.63163">
        <ele>225</ele>
        <time>2012-09-14T14:01:20Z</time>
      </trkpt>
      <trkpt lat="47.16252" lon="5.63157">
        <ele>225</ele>
        <time>2012-09-14T14:01:22Z</time>
      </trkpt>
      <trkpt lat="47.16242" lon="5.6315">
        <ele>225</ele>
        <time>2012-09-14T14:01:24Z</time>
      </trkpt>
      <trkpt lat="47.16234" lon="5.63143">
        <ele>225</ele>
        <time>2012-09-14T14:01:26Z</time>
      </trkpt>
      <trkpt lat="47.16224" lon="5.63134">
        <ele>225</ele>
        <time>2012-09-14T14:01:29Z</time>
      </trkpt>
      <trkpt lat="47.16214" lon="5.63124">
        <ele>225</ele>
        <time>2012-09-14T14:01:32Z</time>
      </trkpt>
      <trkpt lat="47.16204" lon="5.63113">
        <ele>225</ele>
        <time>2012-09-14T14:01:35Z</time>
      </trkpt>
      <trkpt lat="47.16194" lon="5.63102">
        <ele>225</ele>
        <time>2012-09-14T14:01:38Z</time>
      </trkpt>
      <trkpt lat="47.16184" lon="5.63091">
        <ele>225</ele>
        <time>2012-09-14T14:01:41Z</time>
      </trkpt>
      <trkpt lat="47.16176" lon="5.63083">
        <ele>225</ele>
        <time>2012-09-14T14:01:43Z</time>
      </trkpt>
      <trkpt lat="47.16166" lon="5.63072">
        <ele>225</ele>
        <time>2012-09-14T14:01:46Z</time>
      </trkpt>
      <trkpt lat="47.16155" lon="5.63061">
        <ele>225</ele>
        <time>2012-09-14T14:01:49Z</time>
      </trkpt>
      <trkpt lat="47.16147" lon="5.63054">
        <ele>225</ele>
        <time>2012-09-14T14:01:51Z</time>
      </trkpt>
      <trkpt lat="47.16138" lon="5.63047">
        <ele>225</ele>
        <time>2012-09-14T14:01:53Z</time>
      </trkpt>
      <trkpt lat="47.1613" lon="5.6304">
        <ele>225</ele>
        <time>2012-09-14T14:01:55Z</time>
      </trkpt>
      <trkpt lat="47.1612" lon="5.63034">
        <ele>225</ele>
        <time>2012-09-14T14:01:57Z</time>
      </trkpt>
      <trkpt lat="47.16112" lon="5.63026">
        <ele>225</ele>
        <time>2012-09-14T14:01:59Z</time>
      </trkpt>
      <trkpt lat="47.16103" lon="5.63019">
        <ele>225</ele>
        <time>2012-09-14T14:02:01Z</time>
      </trkpt>
      <trkpt lat="47.16094" lon="5.63011">
        <ele>225</ele>
        <time>2012-09-14T14:02:03Z</time>
      </trkpt>
      <trkpt lat="47.16086" lon="5.63003">
        <ele>225</ele>
        <time>2012-09-14T14:02:05Z</time>
      </trkpt>
      <trkpt lat="47.16076" lon="5.62995">
        <ele>225</ele>
        <time>2012-09-14T14:02:07Z</time>
      </trkpt>
      <trkpt lat="47.16067" lon="5.62987">
        <ele>225</ele>
        <time>2012-09-14T14:02:09Z</time>
      </trkpt>
      <trkpt lat="47.16057" lon="5.62981">
        <ele>225</ele>
        <time>2012-09-14T14:02:11Z</time>
      </trkpt>
      <trkpt lat="47.16048" lon="5.62973">
        <ele>225</ele>
        <time>2012-09-14T14:02:13Z</time>
      </trkpt>
      <trkpt lat="47.16038" lon="5.62967">
        <ele>225</ele>
        <time>2012-09-14T14:02:15Z</time>
      </trkpt>
      <trkpt lat="47.16028" lon="5.62961">
        <ele>225</ele>
        <time>2012-09-14T14:02:17Z</time>
      </trkpt>
      <trkpt lat="47.16019" lon="5.62954">
        <ele>225</ele>
        <time>2012-09-14T14:02:19Z</time>
      </trkpt>
      <trkpt lat="47.16009" lon="5.62948">
        <ele>225</ele>
        <time>2012-09-14T14:02:21Z</time>
      </trkpt>
      <trkpt lat="47.16" lon="5.62942">
        <ele>225</ele>
        <time>2012-09-14T14:02:23Z</time>
      </trkpt>
      <trkpt lat="47.15991" lon="5.62937">
        <ele>225</ele>
        <time>2012-09-14T14:02:25Z</time>
      </trkpt>
      <trkpt lat="47.15981" lon="5.6293">
        <ele>225</ele>
        <time>2012-09-14T14:02:27Z</time>
      </trkpt>
      <trkpt lat="47.15972" lon="5.62924">
        <ele>225</ele>
        <time>2012-09-14T14:02:29Z</time>
      </trkpt>
      <trkpt lat="47.15963" lon="5.62919">
        <ele>225</ele>
        <time>2012-09-14T14:02:31Z</time>
      </trkpt>
      <trkpt lat="47.15954" lon="5.62915">
        <ele>225</ele>
        <time>2012-09-14T14:02:33Z</time>
      </trkpt>
      <trkpt lat="47.15942" lon="5.6291">
        <ele>230</ele>
        <time>2012-09-14T14:02:36Z</time>
      </trkpt>
      <trkpt lat="47.15932" lon="5.62909">
        <ele>230</ele>
        <time>2012-09-14T14:02:38Z</time>
      </trkpt>
      <trkpt lat="47.15923" lon="5.62908">
        <ele>230</ele>
        <time>2012-09-14T14:02:40Z</time>
      </trkpt>
      <trkpt lat="47.1591" lon="5.62906">
        <ele>230</ele>
        <time>2012-09-14T14:02:43Z</time>
      </trkpt>
      <trkpt lat="47.15898" lon="5.62905">
        <ele>230</ele>
        <time>2012-09-14T14:02:46Z</time>
      </trkpt>
      <trkpt lat="47.15887" lon="5.62904">
        <ele>230</ele>
        <time>2012-09-14T14:02:49Z</time>
      </trkpt>
      <trkpt lat="47.15877" lon="5.62904">
        <ele>230</ele>
        <time>2012-09-14T14:02:52Z</time>
      </trkpt>
      <trkpt lat="47.15867" lon="5.62903">
        <ele>230</ele>
        <time>2012-09-14T14:02:55Z</time>
      </trkpt>
      <trkpt lat="47.15856" lon="5.62902">
        <ele>230</ele>
        <time>2012-09-14T14:02:58Z</time>
      </trkpt>
      <trkpt lat="47.15844" lon="5.62901">
        <ele>230</ele>
        <time>2012-09-14T14:03:01Z</time>
      </trkpt>
      <trkpt lat="47.15834" lon="5.62899">
        <ele>230</ele>
        <time>2012-09-14T14:03:03Z</time>
      </trkpt>
      <trkpt lat="47.15824" lon="5.62897">
        <ele>230</ele>
        <time>2012-09-14T14:03:05Z</time>
      </trkpt>
      <trkpt lat="47.15812" lon="5.62894">
        <ele>230</ele>
        <time>2012-09-14T14:03:07Z</time>
      </trkpt>
      <trkpt lat="47.15799" lon="5.62892">
        <ele>230</ele>
        <time>2012-09-14T14:03:09Z</time>
      </trkpt>
      <trkpt lat="47.15786" lon="5.6289">
        <ele>230</ele>
        <time>2012-09-14T14:03:11Z</time>
      </trkpt>
      <trkpt lat="47.15771" lon="5.62885">
        <ele>230</ele>
        <time>2012-09-14T14:03:13Z</time>
      </trkpt>
      <trkpt lat="47.15756" lon="5.6288">
        <ele>224</ele>
        <time>2012-09-14T14:03:15Z</time>
      </trkpt>
      <trkpt lat="47.15741" lon="5.6287">
        <ele>224</ele>
        <time>2012-09-14T14:03:17Z</time>
      </trkpt>
      <trkpt lat="47.15728" lon="5.62857">
        <ele>224</ele>
        <time>2012-09-14T14:03:19Z</time>
      </trkpt>
      <trkpt lat="47.15715" lon="5.62841">
        <ele>224</ele>
        <time>2012-09-14T14:03:21Z</time>
      </trkpt>
      <trkpt lat="47.15704" lon="5.62827">
        <ele>224</ele>
        <time>2012-09-14T14:03:23Z</time>
      </trkpt>
      <trkpt lat="47.15693" lon="5.62813">
        <ele>224</ele>
        <time>2012-09-14T14:03:25Z</time>
      </trkpt>
      <trkpt lat="47.15683" lon="5.628">
        <ele>224</ele>
        <time>2012-09-14T14:03:27Z</time>
      </trkpt>
      <trkpt lat="47.15672" lon="5.62786">
        <ele>224</ele>
        <time>2012-09-14T14:03:29Z</time>
      </trkpt>
      <trkpt lat="47.15662" lon="5.62773">
        <ele>224</ele>
        <time>2012-09-14T14:03:31Z</time>
      </trkpt>
      <trkpt lat="47.15651" lon="5.6276">
        <ele>224</ele>
        <time>2012-09-14T14:03:33Z</time>
      </trkpt>
      <trkpt lat="47.15641" lon="5.62746">
        <ele>224</ele>
        <time>2012-09-14T14:03:35Z</time>
      </trkpt>
      <trkpt lat="47.15633" lon="5.62732">
        <ele>224</ele>
        <time>2012-09-14T14:03:37Z</time>
      </trkpt>
      <trkpt lat="47.15626" lon="5.62718">
        <ele>224</ele>
        <time>2012-09-14T14:03:39Z</time>
      </trkpt>
      <trkpt lat="47.15619" lon="5.62705">
        <ele>224</ele>
        <time>2012-09-14T14:03:41Z</time>
      </trkpt>
      <trkpt lat="47.15609" lon="5.62692">
        <ele>230</ele>
        <time>2012-09-14T14:03:43Z</time>
      </trkpt>
      <trkpt lat="47.156" lon="5.6268">
        <ele>230</ele>
        <time>2012-09-14T14:03:45Z</time>
      </trkpt>
      <trkpt lat="47.15594" lon="5.62669">
        <ele>230</ele>
        <time>2012-09-14T14:03:47Z</time>
      </trkpt>
      <trkpt lat="47.15586" lon="5.62659">
        <ele>230</ele>
        <time>2012-09-14T14:03:50Z</time>
      </trkpt>
      <trkpt lat="47.15578" lon="5.62652">
        <ele>230</ele>
        <time>2012-09-14T14:03:56Z</time>
      </trkpt>
      <trkpt lat="47.15568" lon="5.62653">
        <ele>220</ele>
        <time>2012-09-14T14:04:41Z</time>
      </trkpt>
      <trkpt lat="47.1556" lon="5.62666">
        <ele>220</ele>
        <time>2012-09-14T14:04:45Z</time>
      </trkpt>
      <trkpt lat="47.15554" lon="5.62676">
        <ele>220</ele>
        <time>2012-09-14T14:04:47Z</time>
      </trkpt>
      <trkpt lat="47.15548" lon="5.62687">
        <ele>220</ele>
        <time>2012-09-14T14:04:49Z</time>
      </trkpt>
      <trkpt lat="47.15541" lon="5.62698">
        <ele>220</ele>
        <time>2012-09-14T14:04:51Z</time>
      </trkpt>
      <trkpt lat="47.15535" lon="5.62711">
        <ele>220</ele>
        <time>2012-09-14T14:04:53Z</time>
      </trkpt>
      <trkpt lat="47.15529" lon="5.62725">
        <ele>220</ele>
        <time>2012-09-14T14:04:55Z</time>
      </trkpt>
      <trkpt lat="47.15522" lon="5.62739">
        <ele>220</ele>
        <time>2012-09-14T14:04:57Z</time>
      </trkpt>
      <trkpt lat="47.15515" lon="5.62752">
        <ele>220</ele>
        <time>2012-09-14T14:04:59Z</time>
      </trkpt>
      <trkpt lat="47.15508" lon="5.62767">
        <ele>220</ele>
        <time>2012-09-14T14:05:01Z</time>
      </trkpt>
      <trkpt lat="47.15501" lon="5.6278">
        <ele>220</ele>
        <time>2012-09-14T14:05:03Z</time>
      </trkpt>
      <trkpt lat="47.15494" lon="5.62794">
        <ele>220</ele>
        <time>2012-09-14T14:05:05Z</time>
      </trkpt>
      <trkpt lat="47.15486" lon="5.62807">
        <ele>220</ele>
        <time>2012-09-14T14:05:07Z</time>
      </trkpt>
      <trkpt lat="47.15479" lon="5.62819">
        <ele>220</ele>
        <time>2012-09-14T14:05:09Z</time>
      </trkpt>
      <trkpt lat="47.15472" lon="5.62831">
        <ele>220</ele>
        <time>2012-09-14T14:05:11Z</time>
      </trkpt>
      <trkpt lat="47.15464" lon="5.62843">
        <ele>220</ele>
        <time>2012-09-14T14:05:13Z</time>
      </trkpt>
      <trkpt lat="47.15457" lon="5.62855">
        <ele>220</ele>
        <time>2012-09-14T14:05:15Z</time>
      </trkpt>
      <trkpt lat="47.1545" lon="5.62867">
        <ele>220</ele>
        <time>2012-09-14T14:05:17Z</time>
      </trkpt>
      <trkpt lat="47.15443" lon="5.62879">
        <ele>220</ele>
        <time>2012-09-14T14:05:19Z</time>
      </trkpt>
      <trkpt lat="47.15435" lon="5.62891">
        <ele>220</ele>
        <time>2012-09-14T14:05:21Z</time>
      </trkpt>
      <trkpt lat="47.15427" lon="5.62903">
        <ele>220</ele>
        <time>2012-09-14T14:05:23Z</time>
      </trkpt>
      <trkpt lat="47.15419" lon="5.62915">
        <ele>220</ele>
        <time>2012-09-14T14:05:25Z</time>
      </trkpt>
      <trkpt lat="47.15409" lon="5.62926">
        <ele>220</ele>
        <time>2012-09-14T14:05:27Z</time>
      </trkpt>
      <trkpt lat="47.15399" lon="5.62936">
        <ele>220</ele>
        <time>2012-09-14T14:05:29Z</time>
      </trkpt>
      <trkpt lat="47.15388" lon="5.62945">
        <ele>220</ele>
        <time>2012-09-14T14:05:31Z</time>
      </trkpt>
      <trkpt lat="47.15376" lon="5.62954">
        <ele>220</ele>
        <time>2012-09-14T14:05:33Z</time>
      </trkpt>
      <trkpt lat="47.15364" lon="5.62962">
        <ele>220</ele>
        <time>2012-09-14T14:05:35Z</time>
      </trkpt>
      <trkpt lat="47.15353" lon="5.62969">
        <ele>220</ele>
        <time>2012-09-14T14:05:37Z</time>
      </trkpt>
      <trkpt lat="47.15342" lon="5.62977">
        <ele>220</ele>
        <time>2012-09-14T14:05:39Z</time>
      </trkpt>
      <trkpt lat="47.15331" lon="5.62985">
        <ele>220</ele>
        <time>2012-09-14T14:05:41Z</time>
      </trkpt>
      <trkpt lat="47.1532" lon="5.62991">
        <ele>220</ele>
        <time>2012-09-14T14:05:43Z</time>
      </trkpt>
      <trkpt lat="47.1531" lon="5.62998">
        <ele>220</ele>
        <time>2012-09-14T14:05:45Z</time>
      </trkpt>
      <trkpt lat="47.15299" lon="5.63006">
        <ele>220</ele>
        <time>2012-09-14T14:05:47Z</time>
      </trkpt>
      <trkpt lat="47.15289" lon="5.63013">
        <ele>220</ele>
        <time>2012-09-14T14:05:49Z</time>
      </trkpt>
      <trkpt lat="47.15279" lon="5.63018">
        <ele>220</ele>
        <time>2012-09-14T14:05:51Z</time>
      </trkpt>
      <trkpt lat="47.15268" lon="5.63023">
        <ele>220</ele>
        <time>2012-09-14T14:05:53Z</time>
      </trkpt>
      <trkpt lat="47.15257" lon="5.63025">
        <ele>220</ele>
        <time>2012-09-14T14:05:55Z</time>
      </trkpt>
      <trkpt lat="47.15247" lon="5.63024">
        <ele>220</ele>
        <time>2012-09-14T14:05:57Z</time>
      </trkpt>
      <trkpt lat="47.15237" lon="5.6302">
        <ele>220</ele>
        <time>2012-09-14T14:05:59Z</time>
      </trkpt>
      <trkpt lat="47.15227" lon="5.63016">
        <ele>220</ele>
        <time>2012-09-14T14:06:01Z</time>
      </trkpt>
      <trkpt lat="47.15219" lon="5.63011">
        <ele>220</ele>
        <time>2012-09-14T14:06:03Z</time>
      </trkpt>
      <trkpt lat="47.1521" lon="5.63004">
        <ele>220</ele>
        <time>2012-09-14T14:06:05Z</time>
      </trkpt>
      <trkpt lat="47.15203" lon="5.62996">
        <ele>220</ele>
        <time>2012-09-14T14:06:07Z</time>
      </trkpt>
      <trkpt lat="47.15193" lon="5.62984">
        <ele>220</ele>
        <time>2012-09-14T14:06:10Z</time>
      </trkpt>
      <trkpt lat="47.15185" lon="5.62976">
        <ele>220</ele>
        <time>2012-09-14T14:06:12Z</time>
      </trkpt>
      <trkpt lat="47.15176" lon="5.62965">
        <ele>220</ele>
        <time>2012-09-14T14:06:15Z</time>
      </trkpt>
      <trkpt lat="47.15165" lon="5.62954">
        <ele>220</ele>
        <time>2012-09-14T14:06:18Z</time>
      </trkpt>
      <trkpt lat="47.15155" lon="5.62945">
        <ele>226</ele>
        <time>2012-09-14T14:06:21Z</time>
      </trkpt>
      <trkpt lat="47.15144" lon="5.62938">
        <ele>226</ele>
        <time>2012-09-14T14:06:24Z</time>
      </trkpt>
      <trkpt lat="47.15133" lon="5.62932">
        <ele>226</ele>
        <time>2012-09-14T14:06:27Z</time>
      </trkpt>
      <trkpt lat="47.15124" lon="5.62927">
        <ele>226</ele>
        <time>2012-09-14T14:06:30Z</time>
      </trkpt>
      <trkpt lat="47.15114" lon="5.62922">
        <ele>226</ele>
        <time>2012-09-14T14:06:33Z</time>
      </trkpt>
      <trkpt lat="47.15105" lon="5.62919">
        <ele>231</ele>
        <time>2012-09-14T14:06:36Z</time>
      </trkpt>
      <trkpt lat="47.15096" lon="5.62915">
        <ele>231</ele>
        <time>2012-09-14T14:06:39Z</time>
      </trkpt>
      <trkpt lat="47.15087" lon="5.6291">
        <ele>231</ele>
        <time>2012-09-14T14:06:42Z</time>
      </trkpt>
      <trkpt lat="47.15078" lon="5.62907">
        <ele>231</ele>
        <time>2012-09-14T14:06:45Z</time>
      </trkpt>
      <trkpt lat="47.15067" lon="5.62902">
        <ele>231</ele>
        <time>2012-09-14T14:06:49Z</time>
      </trkpt>
      <trkpt lat="47.15056" lon="5.62899">
        <ele>231</ele>
        <time>2012-09-14T14:06:53Z</time>
      </trkpt>
      <trkpt lat="47.15045" lon="5.62896">
        <ele>231</ele>
        <time>2012-09-14T14:06:57Z</time>
      </trkpt>
      <trkpt lat="47.15035" lon="5.62892">
        <ele>231</ele>
        <time>2012-09-14T14:07:01Z</time>
      </trkpt>
      <trkpt lat="47.15024" lon="5.62889">
        <ele>231</ele>
        <time>2012-09-14T14:07:05Z</time>
      </trkpt>
      <trkpt lat="47.15014" lon="5.62886">
        <ele>231</ele>
        <time>2012-09-14T14:07:09Z</time>
      </trkpt>
      <trkpt lat="47.15003" lon="5.62884">
        <ele>231</ele>
        <time>2012-09-14T14:07:13Z</time>
      </trkpt>
      <trkpt lat="47.14992" lon="5.62881">
        <ele>231</ele>
        <time>2012-09-14T14:07:17Z</time>
      </trkpt>
      <trkpt lat="47.14981" lon="5.6288">
        <ele>238</ele>
        <time>2012-09-14T14:07:21Z</time>
      </trkpt>
      <trkpt lat="47.14971" lon="5.62878">
        <ele>238</ele>
        <time>2012-09-14T14:07:25Z</time>
      </trkpt>
      <trkpt lat="47.1496" lon="5.62878">
        <ele>238</ele>
        <time>2012-09-14T14:07:29Z</time>
      </trkpt>
      <trkpt lat="47.1495" lon="5.62878">
        <ele>238</ele>
        <time>2012-09-14T14:07:33Z</time>
      </trkpt>
      <trkpt lat="47.1494" lon="5.62879">
        <ele>243</ele>
        <time>2012-09-14T14:07:37Z</time>
      </trkpt>
      <trkpt lat="47.14929" lon="5.62881">
        <ele>243</ele>
        <time>2012-09-14T14:07:41Z</time>
      </trkpt>
      <trkpt lat="47.14919" lon="5.62882">
        <ele>243</ele>
        <time>2012-09-14T14:07:45Z</time>
      </trkpt>
      <trkpt lat="47.1491" lon="5.62884">
        <ele>243</ele>
        <time>2012-09-14T14:07:49Z</time>
      </trkpt>
      <trkpt lat="47.149" lon="5.62885">
        <ele>243</ele>
        <time>2012-09-14T14:07:53Z</time>
      </trkpt>
      <trkpt lat="47.14889" lon="5.62886">
        <ele>248</ele>
        <time>2012-09-14T14:07:57Z</time>
      </trkpt>
      <trkpt lat="47.14878" lon="5.62888">
        <ele>248</ele>
        <time>2012-09-14T14:08:01Z</time>
      </trkpt>
      <trkpt lat="47.14867" lon="5.6289">
        <ele>248</ele>
        <time>2012-09-14T14:08:05Z</time>
      </trkpt>
      <trkpt lat="47.14858" lon="5.62891">
        <ele>248</ele>
        <time>2012-09-14T14:08:08Z</time>
      </trkpt>
      <trkpt lat="47.14847" lon="5.62892">
        <ele>248</ele>
        <time>2012-09-14T14:08:11Z</time>
      </trkpt>
      <trkpt lat="47.14836" lon="5.62894">
        <ele>248</ele>
        <time>2012-09-14T14:08:14Z</time>
      </trkpt>
      <trkpt lat="47.14823" lon="5.62896">
        <ele>248</ele>
        <time>2012-09-14T14:08:17Z</time>
      </trkpt>
      <trkpt lat="47.14814" lon="5.62898">
        <ele>248</ele>
        <time>2012-09-14T14:08:19Z</time>
      </trkpt>
      <trkpt lat="47.14804" lon="5.62899">
        <ele>248</ele>
        <time>2012-09-14T14:08:21Z</time>
      </trkpt>
      <trkpt lat="47.14793" lon="5.62901">
        <ele>248</ele>
        <time>2012-09-14T14:08:23Z</time>
      </trkpt>
      <trkpt lat="47.1478" lon="5.62902">
        <ele>248</ele>
        <time>2012-09-14T14:08:25Z</time>
      </trkpt>
      <trkpt lat="47.14766" lon="5.62904">
        <ele>248</ele>
        <time>2012-09-14T14:08:27Z</time>
      </trkpt>
      <trkpt lat="47.1475" lon="5.62906">
        <ele>248</ele>
        <time>2012-09-14T14:08:29Z</time>
      </trkpt>
      <trkpt lat="47.14734" lon="5.62909">
        <ele>248</ele>
        <time>2012-09-14T14:08:31Z</time>
      </trkpt>
      <trkpt lat="47.14718" lon="5.62912">
        <ele>243</ele>
        <time>2012-09-14T14:08:33Z</time>
      </trkpt>
      <trkpt lat="47.14704" lon="5.62917">
        <ele>243</ele>
        <time>2012-09-14T14:08:35Z</time>
      </trkpt>
      <trkpt lat="47.14693" lon="5.6292">
        <ele>243</ele>
        <time>2012-09-14T14:08:37Z</time>
      </trkpt>
      <trkpt lat="47.14684" lon="5.62924">
        <ele>243</ele>
        <time>2012-09-14T14:08:39Z</time>
      </trkpt>
      <trkpt lat="47.14671" lon="5.62928">
        <ele>237</ele>
        <time>2012-09-14T14:08:42Z</time>
      </trkpt>
      <trkpt lat="47.14661" lon="5.6293">
        <ele>237</ele>
        <time>2012-09-14T14:08:44Z</time>
      </trkpt>
      <trkpt lat="47.14652" lon="5.6293">
        <ele>237</ele>
        <time>2012-09-14T14:08:47Z</time>
      </trkpt>
      <trkpt lat="47.14642" lon="5.62931">
        <ele>237</ele>
        <time>2012-09-14T14:08:52Z</time>
      </trkpt>
      <trkpt lat="47.14631" lon="5.62933">
        <ele>237</ele>
        <time>2012-09-14T14:09:13Z</time>
      </trkpt>
      <trkpt lat="47.14621" lon="5.62939">
        <ele>237</ele>
        <time>2012-09-14T14:09:16Z</time>
      </trkpt>
      <trkpt lat="47.14612" lon="5.62943">
        <ele>237</ele>
        <time>2012-09-14T14:09:18Z</time>
      </trkpt>
      <trkpt lat="47.14602" lon="5.62945">
        <ele>237</ele>
        <time>2012-09-14T14:09:20Z</time>
      </trkpt>
      <trkpt lat="47.14593" lon="5.62941">
        <ele>237</ele>
        <time>2012-09-14T14:09:22Z</time>
      </trkpt>
      <trkpt lat="47.14584" lon="5.62927">
        <ele>237</ele>
        <time>2012-09-14T14:09:24Z</time>
      </trkpt>
      <trkpt lat="47.14576" lon="5.62907">
        <ele>237</ele>
        <time>2012-09-14T14:09:26Z</time>
      </trkpt>
      <trkpt lat="47.14568" lon="5.62883">
        <ele>237</ele>
        <time>2012-09-14T14:09:28Z</time>
      </trkpt>
      <trkpt lat="47.14563" lon="5.62868">
        <ele>237</ele>
        <time>2012-09-14T14:09:29Z</time>
      </trkpt>
      <trkpt lat="47.14558" lon="5.62854">
        <ele>237</ele>
        <time>2012-09-14T14:09:30Z</time>
      </trkpt>
      <trkpt lat="47.14553" lon="5.62838">
        <ele>237</ele>
        <time>2012-09-14T14:09:31Z</time>
      </trkpt>
      <trkpt lat="47.14547" lon="5.62822">
        <ele>231</ele>
        <time>2012-09-14T14:09:32Z</time>
      </trkpt>
      <trkpt lat="47.14543" lon="5.62807">
        <ele>231</ele>
        <time>2012-09-14T14:09:33Z</time>
      </trkpt>
      <trkpt lat="47.14539" lon="5.62792">
        <ele>231</ele>
        <time>2012-09-14T14:09:34Z</time>
      </trkpt>
      <trkpt lat="47.14535" lon="5.62777">
        <ele>231</ele>
        <time>2012-09-14T14:09:35Z</time>
      </trkpt>
      <trkpt lat="47.1453" lon="5.62762">
        <ele>231</ele>
        <time>2012-09-14T14:09:36Z</time>
      </trkpt>
      <trkpt lat="47.14527" lon="5.6275">
        <ele>226</ele>
        <time>2012-09-14T14:09:37Z</time>
      </trkpt>
      <trkpt lat="47.14524" lon="5.62737">
        <ele>226</ele>
        <time>2012-09-14T14:09:38Z</time>
      </trkpt>
      <trkpt lat="47.14517" lon="5.62716">
        <ele>226</ele>
        <time>2012-09-14T14:09:40Z</time>
      </trkpt>
      <trkpt lat="47.14514" lon="5.62698">
        <ele>221</ele>
        <time>2012-09-14T14:09:42Z</time>
      </trkpt>
      <trkpt lat="47.14509" lon="5.62683">
        <ele>221</ele>
        <time>2012-09-14T14:09:44Z</time>
      </trkpt>
      <trkpt lat="47.14501" lon="5.62673">
        <ele>221</ele>
        <time>2012-09-14T14:09:46Z</time>
      </trkpt>
      <trkpt lat="47.14489" lon="5.62669">
        <ele>221</ele>
        <time>2012-09-14T14:09:48Z</time>
      </trkpt>
      <trkpt lat="47.14478" lon="5.62672">
        <ele>221</ele>
        <time>2012-09-14T14:09:50Z</time>
      </trkpt>
      <trkpt lat="47.14468" lon="5.62679">
        <ele>221</ele>
        <time>2012-09-14T14:09:52Z</time>
      </trkpt>
      <trkpt lat="47.14457" lon="5.62686">
        <ele>221</ele>
        <time>2012-09-14T14:09:54Z</time>
      </trkpt>
      <trkpt lat="47.14447" lon="5.62691">
        <ele>221</ele>
        <time>2012-09-14T14:09:56Z</time>
      </trkpt>
      <trkpt lat="47.14437" lon="5.62697">
        <ele>221</ele>
        <time>2012-09-14T14:09:58Z</time>
      </trkpt>
      <trkpt lat="47.14427" lon="5.62703">
        <ele>221</ele>
        <time>2012-09-14T14:10:00Z</time>
      </trkpt>
      <trkpt lat="47.14417" lon="5.62708">
        <ele>221</ele>
        <time>2012-09-14T14:10:02Z</time>
      </trkpt>
      <trkpt lat="47.14408" lon="5.62714">
        <ele>221</ele>
        <time>2012-09-14T14:10:04Z</time>
      </trkpt>
      <trkpt lat="47.14397" lon="5.62723">
        <ele>221</ele>
        <time>2012-09-14T14:10:07Z</time>
      </trkpt>
      <trkpt lat="47.14388" lon="5.62725">
        <ele>221</ele>
        <time>2012-09-14T14:10:11Z</time>
      </trkpt>
      <trkpt lat="47.14381" lon="5.62708">
        <ele>221</ele>
        <time>2012-09-14T14:10:15Z</time>
      </trkpt>
      <trkpt lat="47.14377" lon="5.62693">
        <ele>221</ele>
        <time>2012-09-14T14:10:17Z</time>
      </trkpt>
      <trkpt lat="47.14373" lon="5.62673">
        <ele>221</ele>
        <time>2012-09-14T14:10:19Z</time>
      </trkpt>
      <trkpt lat="47.14369" lon="5.62654">
        <ele>221</ele>
        <time>2012-09-14T14:10:21Z</time>
      </trkpt>
      <trkpt lat="47.14365" lon="5.62634">
        <ele>221</ele>
        <time>2012-09-14T14:10:23Z</time>
      </trkpt>
      <trkpt lat="47.14362" lon="5.62615">
        <ele>221</ele>
        <time>2012-09-14T14:10:25Z</time>
      </trkpt>
      <trkpt lat="47.14359" lon="5.62596">
        <ele>221</ele>
        <time>2012-09-14T14:10:27Z</time>
      </trkpt>
      <trkpt lat="47.14356" lon="5.62578">
        <ele>227</ele>
        <time>2012-09-14T14:10:29Z</time>
      </trkpt>
      <trkpt lat="47.14352" lon="5.62561">
        <ele>227</ele>
        <time>2012-09-14T14:10:31Z</time>
      </trkpt>
      <trkpt lat="47.14348" lon="5.62542">
        <ele>227</ele>
        <time>2012-09-14T14:10:33Z</time>
      </trkpt>
      <trkpt lat="47.14342" lon="5.62525">
        <ele>236</ele>
        <time>2012-09-14T14:10:35Z</time>
      </trkpt>
      <trkpt lat="47.14338" lon="5.62507">
        <ele>236</ele>
        <time>2012-09-14T14:10:37Z</time>
      </trkpt>
      <trkpt lat="47.14334" lon="5.62489">
        <ele>236</ele>
        <time>2012-09-14T14:10:39Z</time>
      </trkpt>
      <trkpt lat="47.14329" lon="5.62471">
        <ele>242</ele>
        <time>2012-09-14T14:10:41Z</time>
      </trkpt>
      <trkpt lat="47.14327" lon="5.62453">
        <ele>242</ele>
        <time>2012-09-14T14:10:43Z</time>
      </trkpt>
      <trkpt lat="47.14323" lon="5.62436">
        <ele>242</ele>
        <time>2012-09-14T14:10:45Z</time>
      </trkpt>
      <trkpt lat="47.14319" lon="5.6242">
        <ele>242</ele>
        <time>2012-09-14T14:10:47Z</time>
      </trkpt>
      <trkpt lat="47.14316" lon="5.62403">
        <ele>247</ele>
        <time>2012-09-14T14:10:49Z</time>
      </trkpt>
      <trkpt lat="47.14313" lon="5.62385">
        <ele>247</ele>
        <time>2012-09-14T14:10:51Z</time>
      </trkpt>
      <trkpt lat="47.1431" lon="5.62365">
        <ele>247</ele>
        <time>2012-09-14T14:10:53Z</time>
      </trkpt>
      <trkpt lat="47.14309" lon="5.62346">
        <ele>247</ele>
        <time>2012-09-14T14:10:55Z</time>
      </trkpt>
      <trkpt lat="47.14307" lon="5.62328">
        <ele>247</ele>
        <time>2012-09-14T14:10:57Z</time>
      </trkpt>
      <trkpt lat="47.14305" lon="5.62311">
        <ele>247</ele>
        <time>2012-09-14T14:10:59Z</time>
      </trkpt>
      <trkpt lat="47.143" lon="5.62298">
        <ele>247</ele>
        <time>2012-09-14T14:11:01Z</time>
      </trkpt>
      <trkpt lat="47.14298" lon="5.62283">
        <ele>247</ele>
        <time>2012-09-14T14:11:03Z</time>
      </trkpt>
      <trkpt lat="47.14296" lon="5.62265">
        <ele>247</ele>
        <time>2012-09-14T14:11:05Z</time>
      </trkpt>
      <trkpt lat="47.14293" lon="5.62248">
        <ele>247</ele>
        <time>2012-09-14T14:11:07Z</time>
      </trkpt>
      <trkpt lat="47.14291" lon="5.62228">
        <ele>247</ele>
        <time>2012-09-14T14:11:09Z</time>
      </trkpt>
      <trkpt lat="47.14288" lon="5.62211">
        <ele>247</ele>
        <time>2012-09-14T14:11:11Z</time>
      </trkpt>
      <trkpt lat="47.14285" lon="5.62192">
        <ele>247</ele>
        <time>2012-09-14T14:11:13Z</time>
      </trkpt>
      <trkpt lat="47.14283" lon="5.62172">
        <ele>247</ele>
        <time>2012-09-14T14:11:15Z</time>
      </trkpt>
      <trkpt lat="47.14282" lon="5.62154">
        <ele>240</ele>
        <time>2012-09-14T14:11:17Z</time>
      </trkpt>
      <trkpt lat="47.1428" lon="5.62136">
        <ele>240</ele>
        <time>2012-09-14T14:11:19Z</time>
      </trkpt>
      <trkpt lat="47.14276" lon="5.62121">
        <ele>240</ele>
        <time>2012-09-14T14:11:21Z</time>
      </trkpt>
      <trkpt lat="47.14272" lon="5.62107">
        <ele>240</ele>
        <time>2012-09-14T14:11:23Z</time>
      </trkpt>
      <trkpt lat="47.1427" lon="5.62092">
        <ele>240</ele>
        <time>2012-09-14T14:11:25Z</time>
      </trkpt>
      <trkpt lat="47.14267" lon="5.62076">
        <ele>240</ele>
        <time>2012-09-14T14:11:27Z</time>
      </trkpt>
      <trkpt lat="47.14264" lon="5.6206">
        <ele>240</ele>
        <time>2012-09-14T14:11:29Z</time>
      </trkpt>
      <trkpt lat="47.14261" lon="5.62042">
        <ele>240</ele>
        <time>2012-09-14T14:11:31Z</time>
      </trkpt>
      <trkpt lat="47.1426" lon="5.62021">
        <ele>235</ele>
        <time>2012-09-14T14:11:33Z</time>
      </trkpt>
      <trkpt lat="47.14258" lon="5.62002">
        <ele>235</ele>
        <time>2012-09-14T14:11:35Z</time>
      </trkpt>
      <trkpt lat="47.14256" lon="5.61985">
        <ele>235</ele>
        <time>2012-09-14T14:11:37Z</time>
      </trkpt>
      <trkpt lat="47.14253" lon="5.61968">
        <ele>235</ele>
        <time>2012-09-14T14:11:39Z</time>
      </trkpt>
      <trkpt lat="47.14251" lon="5.61951">
        <ele>235</ele>
        <time>2012-09-14T14:11:41Z</time>
      </trkpt>
      <trkpt lat="47.14249" lon="5.61933">
        <ele>230</ele>
        <time>2012-09-14T14:11:43Z</time>
      </trkpt>
      <trkpt lat="47.14247" lon="5.61914">
        <ele>230</ele>
        <time>2012-09-14T14:11:45Z</time>
      </trkpt>
      <trkpt lat="47.14243" lon="5.61897">
        <ele>230</ele>
        <time>2012-09-14T14:11:47Z</time>
      </trkpt>
      <trkpt lat="47.14241" lon="5.61879">
        <ele>230</ele>
        <time>2012-09-14T14:11:49Z</time>
      </trkpt>
      <trkpt lat="47.14238" lon="5.61865">
        <ele>230</ele>
        <time>2012-09-14T14:11:51Z</time>
      </trkpt>
      <trkpt lat="47.14234" lon="5.6185">
        <ele>230</ele>
        <time>2012-09-14T14:11:53Z</time>
      </trkpt>
      <trkpt lat="47.14232" lon="5.61834">
        <ele>230</ele>
        <time>2012-09-14T14:11:55Z</time>
      </trkpt>
      <trkpt lat="47.14229" lon="5.61817">
        <ele>230</ele>
        <time>2012-09-14T14:11:57Z</time>
      </trkpt>
      <trkpt lat="47.14226" lon="5.618">
        <ele>230</ele>
        <time>2012-09-14T14:11:59Z</time>
      </trkpt>
      <trkpt lat="47.14224" lon="5.61781">
        <ele>230</ele>
        <time>2012-09-14T14:12:01Z</time>
      </trkpt>
      <trkpt lat="47.14221" lon="5.61763">
        <ele>230</ele>
        <time>2012-09-14T14:12:03Z</time>
      </trkpt>
      <trkpt lat="47.14218" lon="5.61746">
        <ele>230</ele>
        <time>2012-09-14T14:12:05Z</time>
      </trkpt>
      <trkpt lat="47.14214" lon="5.61728">
        <ele>230</ele>
        <time>2012-09-14T14:12:07Z</time>
      </trkpt>
      <trkpt lat="47.1421" lon="5.61712">
        <ele>230</ele>
        <time>2012-09-14T14:12:09Z</time>
      </trkpt>
      <trkpt lat="47.14207" lon="5.61692">
        <ele>230</ele>
        <time>2012-09-14T14:12:11Z</time>
      </trkpt>
      <trkpt lat="47.14205" lon="5.61674">
        <ele>230</ele>
        <time>2012-09-14T14:12:13Z</time>
      </trkpt>
      <trkpt lat="47.14204" lon="5.61657">
        <ele>230</ele>
        <time>2012-09-14T14:12:15Z</time>
      </trkpt>
      <trkpt lat="47.14202" lon="5.61637">
        <ele>221</ele>
        <time>2012-09-14T14:12:17Z</time>
      </trkpt>
      <trkpt lat="47.14201" lon="5.61618">
        <ele>221</ele>
        <time>2012-09-14T14:12:19Z</time>
      </trkpt>
      <trkpt lat="47.14198" lon="5.61599">
        <ele>216</ele>
        <time>2012-09-14T14:12:21Z</time>
      </trkpt>
      <trkpt lat="47.14195" lon="5.61581">
        <ele>216</ele>
        <time>2012-09-14T14:12:23Z</time>
      </trkpt>
      <trkpt lat="47.14192" lon="5.61562">
        <ele>216</ele>
        <time>2012-09-14T14:12:25Z</time>
      </trkpt>
      <trkpt lat="47.14188" lon="5.61544">
        <ele>216</ele>
        <time>2012-09-14T14:12:27Z</time>
      </trkpt>
      <trkpt lat="47.14185" lon="5.61526">
        <ele>216</ele>
        <time>2012-09-14T14:12:29Z</time>
      </trkpt>
      <trkpt lat="47.14182" lon="5.61508">
        <ele>216</ele>
        <time>2012-09-14T14:12:31Z</time>
      </trkpt>
      <trkpt lat="47.14178" lon="5.61489">
        <ele>216</ele>
        <time>2012-09-14T14:12:33Z</time>
      </trkpt>
      <trkpt lat="47.14176" lon="5.61472">
        <ele>216</ele>
        <time>2012-09-14T14:12:35Z</time>
      </trkpt>
      <trkpt lat="47.14172" lon="5.61453">
        <ele>216</ele>
        <time>2012-09-14T14:12:37Z</time>
      </trkpt>
      <trkpt lat="47.14169" lon="5.61435">
        <ele>216</ele>
        <time>2012-09-14T14:12:39Z</time>
      </trkpt>
      <trkpt lat="47.14166" lon="5.61416">
        <ele>216</ele>
        <time>2012-09-14T14:12:41Z</time>
      </trkpt>
      <trkpt lat="47.14163" lon="5.61397">
        <ele>216</ele>
        <time>2012-09-14T14:12:43Z</time>
      </trkpt>
      <trkpt lat="47.14159" lon="5.61377">
        <ele>216</ele>
        <time>2012-09-14T14:12:45Z</time>
      </trkpt>
      <trkpt lat="47.14156" lon="5.61357">
        <ele>216</ele>
        <time>2012-09-14T14:12:47Z</time>
      </trkpt>
      <trkpt lat="47.14153" lon="5.61339">
        <ele>222</ele>
        <time>2012-09-14T14:12:49Z</time>
      </trkpt>
      <trkpt lat="47.1415" lon="5.6132">
        <ele>222</ele>
        <time>2012-09-14T14:12:51Z</time>
      </trkpt>
      <trkpt lat="47.14147" lon="5.61301">
        <ele>222</ele>
        <time>2012-09-14T14:12:53Z</time>
      </trkpt>
      <trkpt lat="47.14144" lon="5.61282">
        <ele>222</ele>
        <time>2012-09-14T14:12:55Z</time>
      </trkpt>
      <trkpt lat="47.14141" lon="5.61263">
        <ele>222</ele>
        <time>2012-09-14T14:12:57Z</time>
      </trkpt>
      <trkpt lat="47.14137" lon="5.61245">
        <ele>222</ele>
        <time>2012-09-14T14:12:59Z</time>
      </trkpt>
      <trkpt lat="47.14134" lon="5.61227">
        <ele>222</ele>
        <time>2012-09-14T14:13:01Z</time>
      </trkpt>
      <trkpt lat="47.14131" lon="5.61209">
        <ele>222</ele>
        <time>2012-09-14T14:13:03Z</time>
      </trkpt>
      <trkpt lat="47.14128" lon="5.6119">
        <ele>222</ele>
        <time>2012-09-14T14:13:05Z</time>
      </trkpt>
      <trkpt lat="47.14124" lon="5.61171">
        <ele>222</ele>
        <time>2012-09-14T14:13:07Z</time>
      </trkpt>
      <trkpt lat="47.14121" lon="5.61152">
        <ele>222</ele>
        <time>2012-09-14T14:13:09Z</time>
      </trkpt>
      <trkpt lat="47.14117" lon="5.61132">
        <ele>222</ele>
        <time>2012-09-14T14:13:11Z</time>
      </trkpt>
      <trkpt lat="47.14112" lon="5.61112">
        <ele>228</ele>
        <time>2012-09-14T14:13:13Z</time>
      </trkpt>
      <trkpt lat="47.14109" lon="5.61091">
        <ele>228</ele>
        <time>2012-09-14T14:13:15Z</time>
      </trkpt>
      <trkpt lat="47.14104" lon="5.61072">
        <ele>228</ele>
        <time>2012-09-14T14:13:17Z</time>
      </trkpt>
      <trkpt lat="47.14101" lon="5.61051">
        <ele>228</ele>
        <time>2012-09-14T14:13:19Z</time>
      </trkpt>
      <trkpt lat="47.14098" lon="5.61032">
        <ele>228</ele>
        <time>2012-09-14T14:13:21Z</time>
      </trkpt>
      <trkpt lat="47.14096" lon="5.61011">
        <ele>228</ele>
        <time>2012-09-14T14:13:23Z</time>
      </trkpt>
      <trkpt lat="47.14093" lon="5.60991">
        <ele>228</ele>
        <time>2012-09-14T14:13:25Z</time>
      </trkpt>
      <trkpt lat="47.14089" lon="5.60971">
        <ele>228</ele>
        <time>2012-09-14T14:13:27Z</time>
      </trkpt>
      <trkpt lat="47.14086" lon="5.6095">
        <ele>228</ele>
        <time>2012-09-14T14:13:29Z</time>
      </trkpt>
      <trkpt lat="47.14082" lon="5.60931">
        <ele>228</ele>
        <time>2012-09-14T14:13:31Z</time>
      </trkpt>
      <trkpt lat="47.14079" lon="5.60912">
        <ele>228</ele>
        <time>2012-09-14T14:13:33Z</time>
      </trkpt>
      <trkpt lat="47.14075" lon="5.60891">
        <ele>228</ele>
        <time>2012-09-14T14:13:35Z</time>
      </trkpt>
      <trkpt lat="47.14072" lon="5.60869">
        <ele>228</ele>
        <time>2012-09-14T14:13:37Z</time>
      </trkpt>
      <trkpt lat="47.14068" lon="5.60849">
        <ele>228</ele>
        <time>2012-09-14T14:13:39Z</time>
      </trkpt>
      <trkpt lat="47.14065" lon="5.60829">
        <ele>228</ele>
        <time>2012-09-14T14:13:41Z</time>
      </trkpt>
      <trkpt lat="47.14062" lon="5.6081">
        <ele>228</ele>
        <time>2012-09-14T14:13:43Z</time>
      </trkpt>
      <trkpt lat="47.14059" lon="5.60793">
        <ele>228</ele>
        <time>2012-09-14T14:13:45Z</time>
      </trkpt>
      <trkpt lat="47.14057" lon="5.60776">
        <ele>228</ele>
        <time>2012-09-14T14:13:47Z</time>
      </trkpt>
      <trkpt lat="47.14052" lon="5.60758">
        <ele>228</ele>
        <time>2012-09-14T14:13:49Z</time>
      </trkpt>
      <trkpt lat="47.14048" lon="5.60739">
        <ele>228</ele>
        <time>2012-09-14T14:13:51Z</time>
      </trkpt>
      <trkpt lat="47.14044" lon="5.6072">
        <ele>235</ele>
        <time>2012-09-14T14:13:53Z</time>
      </trkpt>
      <trkpt lat="47.14039" lon="5.60702">
        <ele>235</ele>
        <time>2012-09-14T14:13:55Z</time>
      </trkpt>
      <trkpt lat="47.14035" lon="5.60683">
        <ele>235</ele>
        <time>2012-09-14T14:13:57Z</time>
      </trkpt>
      <trkpt lat="47.14032" lon="5.60663">
        <ele>235</ele>
        <time>2012-09-14T14:13:59Z</time>
      </trkpt>
      <trkpt lat="47.14028" lon="5.60644">
        <ele>235</ele>
        <time>2012-09-14T14:14:01Z</time>
      </trkpt>
      <trkpt lat="47.14025" lon="5.60627">
        <ele>235</ele>
        <time>2012-09-14T14:14:03Z</time>
      </trkpt>
      <trkpt lat="47.14021" lon="5.60609">
        <ele>235</ele>
        <time>2012-09-14T14:14:05Z</time>
      </trkpt>
      <trkpt lat="47.1402" lon="5.60588">
        <ele>227</ele>
        <time>2012-09-14T14:14:07Z</time>
      </trkpt>
      <trkpt lat="47.14022" lon="5.60568">
        <ele>227</ele>
        <time>2012-09-14T14:14:09Z</time>
      </trkpt>
      <trkpt lat="47.14019" lon="5.60551">
        <ele>222</ele>
        <time>2012-09-14T14:14:11Z</time>
      </trkpt>
      <trkpt lat="47.14015" lon="5.6053">
        <ele>222</ele>
        <time>2012-09-14T14:14:13Z</time>
      </trkpt>
      <trkpt lat="47.14013" lon="5.60508">
        <ele>222</ele>
        <time>2012-09-14T14:14:15Z</time>
      </trkpt>
      <trkpt lat="47.14011" lon="5.60486">
        <ele>222</ele>
        <time>2012-09-14T14:14:17Z</time>
      </trkpt>
      <trkpt lat="47.14011" lon="5.60463">
        <ele>217</ele>
        <time>2012-09-14T14:14:19Z</time>
      </trkpt>
      <trkpt lat="47.14011" lon="5.60442">
        <ele>217</ele>
        <time>2012-09-14T14:14:21Z</time>
      </trkpt>
      <trkpt lat="47.14011" lon="5.60421">
        <ele>217</ele>
        <time>2012-09-14T14:14:23Z</time>
      </trkpt>
      <trkpt lat="47.14007" lon="5.60402">
        <ele>217</ele>
        <time>2012-09-14T14:14:25Z</time>
      </trkpt>
      <trkpt lat="47.14003" lon="5.60383">
        <ele>217</ele>
        <time>2012-09-14T14:14:27Z</time>
      </trkpt>
      <trkpt lat="47.13996" lon="5.60365">
        <ele>217</ele>
        <time>2012-09-14T14:14:29Z</time>
      </trkpt>
      <trkpt lat="47.13992" lon="5.60345">
        <ele>217</ele>
        <time>2012-09-14T14:14:31Z</time>
      </trkpt>
      <trkpt lat="47.13986" lon="5.60325">
        <ele>217</ele>
        <time>2012-09-14T14:14:33Z</time>
      </trkpt>
      <trkpt lat="47.13981" lon="5.60305">
        <ele>217</ele>
        <time>2012-09-14T14:14:35Z</time>
      </trkpt>
      <trkpt lat="47.13975" lon="5.60286">
        <ele>217</ele>
        <time>2012-09-14T14:14:37Z</time>
      </trkpt>
      <trkpt lat="47.13968" lon="5.60266">
        <ele>217</ele>
        <time>2012-09-14T14:14:39Z</time>
      </trkpt>
      <trkpt lat="47.13962" lon="5.60246">
        <ele>217</ele>
        <time>2012-09-14T14:14:41Z</time>
      </trkpt>
      <trkpt lat="47.13957" lon="5.60226">
        <ele>217</ele>
        <time>2012-09-14T14:14:43Z</time>
      </trkpt>
      <trkpt lat="47.13952" lon="5.60206">
        <ele>217</ele>
        <time>2012-09-14T14:14:45Z</time>
      </trkpt>
      <trkpt lat="47.13947" lon="5.60186">
        <ele>217</ele>
        <time>2012-09-14T14:14:47Z</time>
      </trkpt>
      <trkpt lat="47.13941" lon="5.60166">
        <ele>217</ele>
        <time>2012-09-14T14:14:49Z</time>
      </trkpt>
      <trkpt lat="47.13936" lon="5.60146">
        <ele>217</ele>
        <time>2012-09-14T14:14:51Z</time>
      </trkpt>
      <trkpt lat="47.1393" lon="5.60127">
        <ele>217</ele>
        <time>2012-09-14T14:14:53Z</time>
      </trkpt>
      <trkpt lat="47.13924" lon="5.6011">
        <ele>217</ele>
        <time>2012-09-14T14:14:55Z</time>
      </trkpt>
      <trkpt lat="47.13917" lon="5.60092">
        <ele>217</ele>
        <time>2012-09-14T14:14:57Z</time>
      </trkpt>
      <trkpt lat="47.13911" lon="5.60073">
        <ele>217</ele>
        <time>2012-09-14T14:14:59Z</time>
      </trkpt>
      <trkpt lat="47.13903" lon="5.60057">
        <ele>217</ele>
        <time>2012-09-14T14:15:01Z</time>
      </trkpt>
      <trkpt lat="47.13896" lon="5.60041">
        <ele>217</ele>
        <time>2012-09-14T14:15:03Z</time>
      </trkpt>
      <trkpt lat="47.13888" lon="5.60026">
        <ele>224</ele>
        <time>2012-09-14T14:15:05Z</time>
      </trkpt>
      <trkpt lat="47.13882" lon="5.60009">
        <ele>224</ele>
        <time>2012-09-14T14:15:07Z</time>
      </trkpt>
      <trkpt lat="47.13875" lon="5.59992">
        <ele>224</ele>
        <time>2012-09-14T14:15:09Z</time>
      </trkpt>
      <trkpt lat="47.13868" lon="5.59975">
        <ele>224</ele>
        <time>2012-09-14T14:15:11Z</time>
      </trkpt>
      <trkpt lat="47.13861" lon="5.59958">
        <ele>224</ele>
        <time>2012-09-14T14:15:13Z</time>
      </trkpt>
      <trkpt lat="47.13854" lon="5.5994">
        <ele>224</ele>
        <time>2012-09-14T14:15:15Z</time>
      </trkpt>
      <trkpt lat="47.13847" lon="5.59923">
        <ele>224</ele>
        <time>2012-09-14T14:15:17Z</time>
      </trkpt>
      <trkpt lat="47.13839" lon="5.59905">
        <ele>224</ele>
        <time>2012-09-14T14:15:19Z</time>
      </trkpt>
      <trkpt lat="47.13832" lon="5.59888">
        <ele>224</ele>
        <time>2012-09-14T14:15:21Z</time>
      </trkpt>
      <trkpt lat="47.13824" lon="5.5987">
        <ele>224</ele>
        <time>2012-09-14T14:15:23Z</time>
      </trkpt>
      <trkpt lat="47.13816" lon="5.59853">
        <ele>224</ele>
        <time>2012-09-14T14:15:25Z</time>
      </trkpt>
      <trkpt lat="47.13809" lon="5.59836">
        <ele>224</ele>
        <time>2012-09-14T14:15:27Z</time>
      </trkpt>
      <trkpt lat="47.13802" lon="5.59819">
        <ele>224</ele>
        <time>2012-09-14T14:15:29Z</time>
      </trkpt>
      <trkpt lat="47.13793" lon="5.59802">
        <ele>224</ele>
        <time>2012-09-14T14:15:31Z</time>
      </trkpt>
      <trkpt lat="47.13784" lon="5.59787">
        <ele>224</ele>
        <time>2012-09-14T14:15:33Z</time>
      </trkpt>
      <trkpt lat="47.13775" lon="5.59772">
        <ele>224</ele>
        <time>2012-09-14T14:15:35Z</time>
      </trkpt>
      <trkpt lat="47.13765" lon="5.59756">
        <ele>224</ele>
        <time>2012-09-14T14:15:37Z</time>
      </trkpt>
      <trkpt lat="47.13756" lon="5.5974">
        <ele>224</ele>
        <time>2012-09-14T14:15:39Z</time>
      </trkpt>
      <trkpt lat="47.13747" lon="5.59725">
        <ele>224</ele>
        <time>2012-09-14T14:15:41Z</time>
      </trkpt>
      <trkpt lat="47.13737" lon="5.59711">
        <ele>224</ele>
        <time>2012-09-14T14:15:43Z</time>
      </trkpt>
      <trkpt lat="47.13727" lon="5.59695">
        <ele>224</ele>
        <time>2012-09-14T14:15:45Z</time>
      </trkpt>
      <trkpt lat="47.13718" lon="5.59679">
        <ele>224</ele>
        <time>2012-09-14T14:15:47Z</time>
      </trkpt>
      <trkpt lat="47.13708" lon="5.59665">
        <ele>224</ele>
        <time>2012-09-14T14:15:49Z</time>
      </trkpt>
      <trkpt lat="47.13699" lon="5.59649">
        <ele>224</ele>
        <time>2012-09-14T14:15:51Z</time>
      </trkpt>
      <trkpt lat="47.1369" lon="5.59633">
        <ele>224</ele>
        <time>2012-09-14T14:15:53Z</time>
      </trkpt>
      <trkpt lat="47.13681" lon="5.59618">
        <ele>224</ele>
        <time>2012-09-14T14:15:55Z</time>
      </trkpt>
      <trkpt lat="47.13672" lon="5.59604">
        <ele>224</ele>
        <time>2012-09-14T14:15:57Z</time>
      </trkpt>
      <trkpt lat="47.13664" lon="5.59588">
        <ele>224</ele>
        <time>2012-09-14T14:15:59Z</time>
      </trkpt>
      <trkpt lat="47.13656" lon="5.59572">
        <ele>224</ele>
        <time>2012-09-14T14:16:01Z</time>
      </trkpt>
      <trkpt lat="47.13648" lon="5.59556">
        <ele>224</ele>
        <time>2012-09-14T14:16:03Z</time>
      </trkpt>
      <trkpt lat="47.13639" lon="5.5954">
        <ele>224</ele>
        <time>2012-09-14T14:16:05Z</time>
      </trkpt>
      <trkpt lat="47.13631" lon="5.59525">
        <ele>224</ele>
        <time>2012-09-14T14:16:07Z</time>
      </trkpt>
      <trkpt lat="47.13623" lon="5.59509">
        <ele>224</ele>
        <time>2012-09-14T14:16:09Z</time>
      </trkpt>
      <trkpt lat="47.13613" lon="5.59493">
        <ele>224</ele>
        <time>2012-09-14T14:16:11Z</time>
      </trkpt>
      <trkpt lat="47.13605" lon="5.59478">
        <ele>224</ele>
        <time>2012-09-14T14:16:13Z</time>
      </trkpt>
      <trkpt lat="47.13596" lon="5.59463">
        <ele>224</ele>
        <time>2012-09-14T14:16:15Z</time>
      </trkpt>
      <trkpt lat="47.13588" lon="5.59447">
        <ele>224</ele>
        <time>2012-09-14T14:16:17Z</time>
      </trkpt>
      <trkpt lat="47.13581" lon="5.59429">
        <ele>224</ele>
        <time>2012-09-14T14:16:19Z</time>
      </trkpt>
      <trkpt lat="47.13574" lon="5.59412">
        <ele>224</ele>
        <time>2012-09-14T14:16:21Z</time>
      </trkpt>
      <trkpt lat="47.13569" lon="5.59393">
        <ele>224</ele>
        <time>2012-09-14T14:16:23Z</time>
      </trkpt>
      <trkpt lat="47.13563" lon="5.59377">
        <ele>224</ele>
        <time>2012-09-14T14:16:25Z</time>
      </trkpt>
      <trkpt lat="47.13559" lon="5.59361">
        <ele>224</ele>
        <time>2012-09-14T14:16:27Z</time>
      </trkpt>
      <trkpt lat="47.13553" lon="5.59348">
        <ele>224</ele>
        <time>2012-09-14T14:16:29Z</time>
      </trkpt>
      <trkpt lat="47.13546" lon="5.59337">
        <ele>224</ele>
        <time>2012-09-14T14:16:31Z</time>
      </trkpt>
      <trkpt lat="47.13539" lon="5.59328">
        <ele>224</ele>
        <time>2012-09-14T14:16:33Z</time>
      </trkpt>
      <trkpt lat="47.13534" lon="5.59315">
        <ele>224</ele>
        <time>2012-09-14T14:16:35Z</time>
      </trkpt>
      <trkpt lat="47.13528" lon="5.593">
        <ele>224</ele>
        <time>2012-09-14T14:16:37Z</time>
      </trkpt>
      <trkpt lat="47.13521" lon="5.59283">
        <ele>224</ele>
        <time>2012-09-14T14:16:39Z</time>
      </trkpt>
      <trkpt lat="47.13513" lon="5.59265">
        <ele>224</ele>
        <time>2012-09-14T14:16:41Z</time>
      </trkpt>
      <trkpt lat="47.13505" lon="5.59247">
        <ele>224</ele>
        <time>2012-09-14T14:16:43Z</time>
      </trkpt>
      <trkpt lat="47.13498" lon="5.59228">
        <ele>224</ele>
        <time>2012-09-14T14:16:45Z</time>
      </trkpt>
      <trkpt lat="47.13491" lon="5.5921">
        <ele>224</ele>
        <time>2012-09-14T14:16:47Z</time>
      </trkpt>
      <trkpt lat="47.13483" lon="5.59192">
        <ele>224</ele>
        <time>2012-09-14T14:16:49Z</time>
      </trkpt>
      <trkpt lat="47.13476" lon="5.59175">
        <ele>224</ele>
        <time>2012-09-14T14:16:51Z</time>
      </trkpt>
      <trkpt lat="47.13469" lon="5.59158">
        <ele>224</ele>
        <time>2012-09-14T14:16:53Z</time>
      </trkpt>
      <trkpt lat="47.13461" lon="5.59142">
        <ele>224</ele>
        <time>2012-09-14T14:16:55Z</time>
      </trkpt>
      <trkpt lat="47.13453" lon="5.59128">
        <ele>229</ele>
        <time>2012-09-14T14:16:57Z</time>
      </trkpt>
      <trkpt lat="47.13444" lon="5.59112">
        <ele>229</ele>
        <time>2012-09-14T14:16:59Z</time>
      </trkpt>
      <trkpt lat="47.13439" lon="5.59097">
        <ele>229</ele>
        <time>2012-09-14T14:17:01Z</time>
      </trkpt>
      <trkpt lat="47.13433" lon="5.59085">
        <ele>229</ele>
        <time>2012-09-14T14:17:03Z</time>
      </trkpt>
      <trkpt lat="47.13426" lon="5.59067">
        <ele>229</ele>
        <time>2012-09-14T14:17:06Z</time>
      </trkpt>
      <trkpt lat="47.1342" lon="5.59052">
        <ele>229</ele>
        <time>2012-09-14T14:17:09Z</time>
      </trkpt>
      <trkpt lat="47.13412" lon="5.59036">
        <ele>235</ele>
        <time>2012-09-14T14:17:12Z</time>
      </trkpt>
      <trkpt lat="47.13406" lon="5.59023">
        <ele>235</ele>
        <time>2012-09-14T14:17:14Z</time>
      </trkpt>
      <trkpt lat="47.13399" lon="5.59007">
        <ele>235</ele>
        <time>2012-09-14T14:17:16Z</time>
      </trkpt>
      <trkpt lat="47.13392" lon="5.58991">
        <ele>235</ele>
        <time>2012-09-14T14:17:18Z</time>
      </trkpt>
      <trkpt lat="47.13385" lon="5.58975">
        <ele>235</ele>
        <time>2012-09-14T14:17:20Z</time>
      </trkpt>
      <trkpt lat="47.13379" lon="5.58959">
        <ele>235</ele>
        <time>2012-09-14T14:17:22Z</time>
      </trkpt>
      <trkpt lat="47.13372" lon="5.58942">
        <ele>235</ele>
        <time>2012-09-14T14:17:24Z</time>
      </trkpt>
      <trkpt lat="47.13365" lon="5.58923">
        <ele>235</ele>
        <time>2012-09-14T14:17:26Z</time>
      </trkpt>
      <trkpt lat="47.13358" lon="5.58905">
        <ele>235</ele>
        <time>2012-09-14T14:17:28Z</time>
      </trkpt>
      <trkpt lat="47.1335" lon="5.58887">
        <ele>235</ele>
        <time>2012-09-14T14:17:30Z</time>
      </trkpt>
      <trkpt lat="47.13342" lon="5.58868">
        <ele>235</ele>
        <time>2012-09-14T14:17:32Z</time>
      </trkpt>
      <trkpt lat="47.13334" lon="5.58849">
        <ele>235</ele>
        <time>2012-09-14T14:17:34Z</time>
      </trkpt>
      <trkpt lat="47.13329" lon="5.58829">
        <ele>235</ele>
        <time>2012-09-14T14:17:36Z</time>
      </trkpt>
      <trkpt lat="47.13325" lon="5.58807">
        <ele>235</ele>
        <time>2012-09-14T14:17:38Z</time>
      </trkpt>
      <trkpt lat="47.13322" lon="5.58784">
        <ele>235</ele>
        <time>2012-09-14T14:17:40Z</time>
      </trkpt>
      <trkpt lat="47.13321" lon="5.58763">
        <ele>235</ele>
        <time>2012-09-14T14:17:42Z</time>
      </trkpt>
      <trkpt lat="47.13321" lon="5.5874">
        <ele>235</ele>
        <time>2012-09-14T14:17:44Z</time>
      </trkpt>
      <trkpt lat="47.13325" lon="5.58715">
        <ele>228</ele>
        <time>2012-09-14T14:17:46Z</time>
      </trkpt>
      <trkpt lat="47.1333" lon="5.58692">
        <ele>228</ele>
        <time>2012-09-14T14:17:48Z</time>
      </trkpt>
      <trkpt lat="47.13333" lon="5.58668">
        <ele>220</ele>
        <time>2012-09-14T14:17:50Z</time>
      </trkpt>
      <trkpt lat="47.13336" lon="5.58645">
        <ele>220</ele>
        <time>2012-09-14T14:17:52Z</time>
      </trkpt>
      <trkpt lat="47.13339" lon="5.58624">
        <ele>220</ele>
        <time>2012-09-14T14:17:54Z</time>
      </trkpt>
      <trkpt lat="47.13342" lon="5.58601">
        <ele>220</ele>
        <time>2012-09-14T14:17:56Z</time>
      </trkpt>
      <trkpt lat="47.13345" lon="5.58579">
        <ele>220</ele>
        <time>2012-09-14T14:17:58Z</time>
      </trkpt>
      <trkpt lat="47.13348" lon="5.58558">
        <ele>220</ele>
        <time>2012-09-14T14:18:00Z</time>
      </trkpt>
      <trkpt lat="47.1335" lon="5.58537">
        <ele>220</ele>
        <time>2012-09-14T14:18:02Z</time>
      </trkpt>
      <trkpt lat="47.13353" lon="5.58517">
        <ele>220</ele>
        <time>2012-09-14T14:18:04Z</time>
      </trkpt>
      <trkpt lat="47.13355" lon="5.58496">
        <ele>220</ele>
        <time>2012-09-14T14:18:06Z</time>
      </trkpt>
      <trkpt lat="47.13357" lon="5.58477">
        <ele>220</ele>
        <time>2012-09-14T14:18:08Z</time>
      </trkpt>
      <trkpt lat="47.1336" lon="5.58458">
        <ele>220</ele>
        <time>2012-09-14T14:18:10Z</time>
      </trkpt>
      <trkpt lat="47.13363" lon="5.58439">
        <ele>220</ele>
        <time>2012-09-14T14:18:12Z</time>
      </trkpt>
      <trkpt lat="47.13366" lon="5.5842">
        <ele>220</ele>
        <time>2012-09-14T14:18:14Z</time>
      </trkpt>
      <trkpt lat="47.13368" lon="5.58401">
        <ele>220</ele>
        <time>2012-09-14T14:18:16Z</time>
      </trkpt>
      <trkpt lat="47.13371" lon="5.58382">
        <ele>220</ele>
        <time>2012-09-14T14:18:18Z</time>
      </trkpt>
      <trkpt lat="47.13373" lon="5.58363">
        <ele>220</ele>
        <time>2012-09-14T14:18:20Z</time>
      </trkpt>
      <trkpt lat="47.13375" lon="5.58346">
        <ele>220</ele>
        <time>2012-09-14T14:18:22Z</time>
      </trkpt>
      <trkpt lat="47.13378" lon="5.58328">
        <ele>220</ele>
        <time>2012-09-14T14:18:24Z</time>
      </trkpt>
      <trkpt lat="47.13381" lon="5.58308">
        <ele>220</ele>
        <time>2012-09-14T14:18:26Z</time>
      </trkpt>
      <trkpt lat="47.13383" lon="5.5829">
        <ele>220</ele>
        <time>2012-09-14T14:18:28Z</time>
      </trkpt>
      <trkpt lat="47.13386" lon="5.58271">
        <ele>220</ele>
        <time>2012-09-14T14:18:30Z</time>
      </trkpt>
      <trkpt lat="47.13388" lon="5.58252">
        <ele>220</ele>
        <time>2012-09-14T14:18:32Z</time>
      </trkpt>
      <trkpt lat="47.1339" lon="5.58232">
        <ele>220</ele>
        <time>2012-09-14T14:18:34Z</time>
      </trkpt>
      <trkpt lat="47.13393" lon="5.58213">
        <ele>220</ele>
        <time>2012-09-14T14:18:36Z</time>
      </trkpt>
      <trkpt lat="47.13394" lon="5.58194">
        <ele>220</ele>
        <time>2012-09-14T14:18:38Z</time>
      </trkpt>
      <trkpt lat="47.13397" lon="5.58176">
        <ele>220</ele>
        <time>2012-09-14T14:18:40Z</time>
      </trkpt>
      <trkpt lat="47.13399" lon="5.58158">
        <ele>220</ele>
        <time>2012-09-14T14:18:42Z</time>
      </trkpt>
      <trkpt lat="47.13401" lon="5.5814">
        <ele>220</ele>
        <time>2012-09-14T14:18:44Z</time>
      </trkpt>
      <trkpt lat="47.13402" lon="5.58122">
        <ele>220</ele>
        <time>2012-09-14T14:18:46Z</time>
      </trkpt>
      <trkpt lat="47.13404" lon="5.58102">
        <ele>220</ele>
        <time>2012-09-14T14:18:48Z</time>
      </trkpt>
      <trkpt lat="47.13407" lon="5.58083">
        <ele>220</ele>
        <time>2012-09-14T14:18:50Z</time>
      </trkpt>
      <trkpt lat="47.13411" lon="5.58063">
        <ele>220</ele>
        <time>2012-09-14T14:18:52Z</time>
      </trkpt>
      <trkpt lat="47.13414" lon="5.58045">
        <ele>214</ele>
        <time>2012-09-14T14:18:54Z</time>
      </trkpt>
      <trkpt lat="47.13416" lon="5.58027">
        <ele>214</ele>
        <time>2012-09-14T14:18:56Z</time>
      </trkpt>
      <trkpt lat="47.13418" lon="5.5801">
        <ele>214</ele>
        <time>2012-09-14T14:18:58Z</time>
      </trkpt>
      <trkpt lat="47.1342" lon="5.57991">
        <ele>214</ele>
        <time>2012-09-14T14:19:00Z</time>
      </trkpt>
      <trkpt lat="47.13421" lon="5.57973">
        <ele>214</ele>
        <time>2012-09-14T14:19:02Z</time>
      </trkpt>
      <trkpt lat="47.13423" lon="5.57956">
        <ele>214</ele>
        <time>2012-09-14T14:19:04Z</time>
      </trkpt>
      <trkpt lat="47.13424" lon="5.57938">
        <ele>214</ele>
        <time>2012-09-14T14:19:06Z</time>
      </trkpt>
      <trkpt lat="47.13425" lon="5.57921">
        <ele>214</ele>
        <time>2012-09-14T14:19:08Z</time>
      </trkpt>
      <trkpt lat="47.13426" lon="5.57903">
        <ele>214</ele>
        <time>2012-09-14T14:19:10Z</time>
      </trkpt>
      <trkpt lat="47.13426" lon="5.57884">
        <ele>214</ele>
        <time>2012-09-14T14:19:12Z</time>
      </trkpt>
      <trkpt lat="47.13426" lon="5.57866">
        <ele>214</ele>
        <time>2012-09-14T14:19:14Z</time>
      </trkpt>
      <trkpt lat="47.13426" lon="5.57847">
        <ele>214</ele>
        <time>2012-09-14T14:19:16Z</time>
      </trkpt>
      <trkpt lat="47.13424" lon="5.57828">
        <ele>214</ele>
        <time>2012-09-14T14:19:18Z</time>
      </trkpt>
      <trkpt lat="47.13421" lon="5.5781">
        <ele>214</ele>
        <time>2012-09-14T14:19:20Z</time>
      </trkpt>
      <trkpt lat="47.13416" lon="5.57793">
        <ele>214</ele>
        <time>2012-09-14T14:19:22Z</time>
      </trkpt>
      <trkpt lat="47.1341" lon="5.57776">
        <ele>214</ele>
        <time>2012-09-14T14:19:24Z</time>
      </trkpt>
      <trkpt lat="47.13405" lon="5.57759">
        <ele>214</ele>
        <time>2012-09-14T14:19:26Z</time>
      </trkpt>
      <trkpt lat="47.13399" lon="5.57742">
        <ele>214</ele>
        <time>2012-09-14T14:19:28Z</time>
      </trkpt>
      <trkpt lat="47.13393" lon="5.57725">
        <ele>214</ele>
        <time>2012-09-14T14:19:30Z</time>
      </trkpt>
      <trkpt lat="47.13385" lon="5.5771">
        <ele>214</ele>
        <time>2012-09-14T14:19:32Z</time>
      </trkpt>
      <trkpt lat="47.13377" lon="5.57697">
        <ele>214</ele>
        <time>2012-09-14T14:19:34Z</time>
      </trkpt>
      <trkpt lat="47.13368" lon="5.57684">
        <ele>214</ele>
        <time>2012-09-14T14:19:36Z</time>
      </trkpt>
      <trkpt lat="47.13358" lon="5.57672">
        <ele>214</ele>
        <time>2012-09-14T14:19:38Z</time>
      </trkpt>
      <trkpt lat="47.13348" lon="5.57662">
        <ele>214</ele>
        <time>2012-09-14T14:19:40Z</time>
      </trkpt>
      <trkpt lat="47.13338" lon="5.57651">
        <ele>214</ele>
        <time>2012-09-14T14:19:42Z</time>
      </trkpt>
      <trkpt lat="47.1333" lon="5.57641">
        <ele>214</ele>
        <time>2012-09-14T14:19:44Z</time>
      </trkpt>
      <trkpt lat="47.1332" lon="5.57632">
        <ele>214</ele>
        <time>2012-09-14T14:19:46Z</time>
      </trkpt>
      <trkpt lat="47.13311" lon="5.57622">
        <ele>214</ele>
        <time>2012-09-14T14:19:48Z</time>
      </trkpt>
      <trkpt lat="47.13301" lon="5.57612">
        <ele>214</ele>
        <time>2012-09-14T14:19:50Z</time>
      </trkpt>
      <trkpt lat="47.13292" lon="5.57602">
        <ele>214</ele>
        <time>2012-09-14T14:19:52Z</time>
      </trkpt>
      <trkpt lat="47.13283" lon="5.57592">
        <ele>214</ele>
        <time>2012-09-14T14:19:54Z</time>
      </trkpt>
      <trkpt lat="47.13275" lon="5.5758">
        <ele>214</ele>
        <time>2012-09-14T14:19:56Z</time>
      </trkpt>
      <trkpt lat="47.13266" lon="5.57568">
        <ele>214</ele>
        <time>2012-09-14T14:19:58Z</time>
      </trkpt>
      <trkpt lat="47.13258" lon="5.57557">
        <ele>222</ele>
        <time>2012-09-14T14:20:00Z</time>
      </trkpt>
      <trkpt lat="47.1325" lon="5.57546">
        <ele>222</ele>
        <time>2012-09-14T14:20:02Z</time>
      </trkpt>
      <trkpt lat="47.13242" lon="5.57533">
        <ele>222</ele>
        <time>2012-09-14T14:20:04Z</time>
      </trkpt>
      <trkpt lat="47.13234" lon="5.57521">
        <ele>222</ele>
        <time>2012-09-14T14:20:06Z</time>
      </trkpt>
      <trkpt lat="47.13227" lon="5.57509">
        <ele>222</ele>
        <time>2012-09-14T14:20:08Z</time>
      </trkpt>
      <trkpt lat="47.13219" lon="5.57496">
        <ele>222</ele>
        <time>2012-09-14T14:20:10Z</time>
      </trkpt>
      <trkpt lat="47.13212" lon="5.57484">
        <ele>222</ele>
        <time>2012-09-14T14:20:12Z</time>
      </trkpt>
      <trkpt lat="47.13204" lon="5.57469">
        <ele>222</ele>
        <time>2012-09-14T14:20:14Z</time>
      </trkpt>
      <trkpt lat="47.13198" lon="5.57455">
        <ele>222</ele>
        <time>2012-09-14T14:20:16Z</time>
      </trkpt>
      <trkpt lat="47.13192" lon="5.5744">
        <ele>222</ele>
        <time>2012-09-14T14:20:18Z</time>
      </trkpt>
      <trkpt lat="47.13185" lon="5.57425">
        <ele>222</ele>
        <time>2012-09-14T14:20:20Z</time>
      </trkpt>
      <trkpt lat="47.1318" lon="5.5741">
        <ele>222</ele>
        <time>2012-09-14T14:20:22Z</time>
      </trkpt>
      <trkpt lat="47.13174" lon="5.57397">
        <ele>222</ele>
        <time>2012-09-14T14:20:24Z</time>
      </trkpt>
      <trkpt lat="47.1317" lon="5.57381">
        <ele>222</ele>
        <time>2012-09-14T14:20:26Z</time>
      </trkpt>
      <trkpt lat="47.13164" lon="5.57368">
        <ele>222</ele>
        <time>2012-09-14T14:20:28Z</time>
      </trkpt>
      <trkpt lat="47.13158" lon="5.57353">
        <ele>222</ele>
        <time>2012-09-14T14:20:30Z</time>
      </trkpt>
      <trkpt lat="47.13153" lon="5.57337">
        <ele>222</ele>
        <time>2012-09-14T14:20:32Z</time>
      </trkpt>
      <trkpt lat="47.13147" lon="5.57321">
        <ele>222</ele>
        <time>2012-09-14T14:20:34Z</time>
      </trkpt>
      <trkpt lat="47.13143" lon="5.57304">
        <ele>222</ele>
        <time>2012-09-14T14:20:36Z</time>
      </trkpt>
      <trkpt lat="47.13137" lon="5.57288">
        <ele>222</ele>
        <time>2012-09-14T14:20:38Z</time>
      </trkpt>
      <trkpt lat="47.13132" lon="5.57273">
        <ele>222</ele>
        <time>2012-09-14T14:20:40Z</time>
      </trkpt>
      <trkpt lat="47.13126" lon="5.57256">
        <ele>222</ele>
        <time>2012-09-14T14:20:42Z</time>
      </trkpt>
      <trkpt lat="47.1312" lon="5.57241">
        <ele>222</ele>
        <time>2012-09-14T14:20:44Z</time>
      </trkpt>
      <trkpt lat="47.13114" lon="5.57227">
        <ele>222</ele>
        <time>2012-09-14T14:20:46Z</time>
      </trkpt>
      <trkpt lat="47.13107" lon="5.57212">
        <ele>222</ele>
        <time>2012-09-14T14:20:48Z</time>
      </trkpt>
      <trkpt lat="47.131" lon="5.57198">
        <ele>222</ele>
        <time>2012-09-14T14:20:50Z</time>
      </trkpt>
      <trkpt lat="47.13093" lon="5.57185">
        <ele>222</ele>
        <time>2012-09-14T14:20:52Z</time>
      </trkpt>
      <trkpt lat="47.13086" lon="5.57171">
        <ele>222</ele>
        <time>2012-09-14T14:20:54Z</time>
      </trkpt>
      <trkpt lat="47.13078" lon="5.57159">
        <ele>222</ele>
        <time>2012-09-14T14:20:56Z</time>
      </trkpt>
      <trkpt lat="47.13071" lon="5.57146">
        <ele>222</ele>
        <time>2012-09-14T14:20:58Z</time>
      </trkpt>
      <trkpt lat="47.13063" lon="5.57133">
        <ele>222</ele>
        <time>2012-09-14T14:21:00Z</time>
      </trkpt>
      <trkpt lat="47.13053" lon="5.57123">
        <ele>222</ele>
        <time>2012-09-14T14:21:02Z</time>
      </trkpt>
      <trkpt lat="47.13044" lon="5.57111">
        <ele>222</ele>
        <time>2012-09-14T14:21:04Z</time>
      </trkpt>
      <trkpt lat="47.13035" lon="5.57099">
        <ele>216</ele>
        <time>2012-09-14T14:21:06Z</time>
      </trkpt>
      <trkpt lat="47.13026" lon="5.57086">
        <ele>216</ele>
        <time>2012-09-14T14:21:08Z</time>
      </trkpt>
      <trkpt lat="47.13019" lon="5.57071">
        <ele>216</ele>
        <time>2012-09-14T14:21:10Z</time>
      </trkpt>
      <trkpt lat="47.13013" lon="5.57057">
        <ele>216</ele>
        <time>2012-09-14T14:21:12Z</time>
      </trkpt>
      <trkpt lat="47.13007" lon="5.57042">
        <ele>216</ele>
        <time>2012-09-14T14:21:14Z</time>
      </trkpt>
      <trkpt lat="47.13002" lon="5.57027">
        <ele>216</ele>
        <time>2012-09-14T14:21:16Z</time>
      </trkpt>
      <trkpt lat="47.12996" lon="5.57012">
        <ele>216</ele>
        <time>2012-09-14T14:21:18Z</time>
      </trkpt>
      <trkpt lat="47.12989" lon="5.56998">
        <ele>216</ele>
        <time>2012-09-14T14:21:20Z</time>
      </trkpt>
      <trkpt lat="47.12983" lon="5.56983">
        <ele>216</ele>
        <time>2012-09-14T14:21:22Z</time>
      </trkpt>
      <trkpt lat="47.12975" lon="5.5697">
        <ele>216</ele>
        <time>2012-09-14T14:21:24Z</time>
      </trkpt>
      <trkpt lat="47.12968" lon="5.56956">
        <ele>216</ele>
        <time>2012-09-14T14:21:26Z</time>
      </trkpt>
      <trkpt lat="47.1296" lon="5.56941">
        <ele>216</ele>
        <time>2012-09-14T14:21:28Z</time>
      </trkpt>
      <trkpt lat="47.12952" lon="5.56928">
        <ele>216</ele>
        <time>2012-09-14T14:21:30Z</time>
      </trkpt>
      <trkpt lat="47.12945" lon="5.56912">
        <ele>216</ele>
        <time>2012-09-14T14:21:32Z</time>
      </trkpt>
      <trkpt lat="47.12937" lon="5.56898">
        <ele>216</ele>
        <time>2012-09-14T14:21:34Z</time>
      </trkpt>
      <trkpt lat="47.12929" lon="5.56884">
        <ele>216</ele>
        <time>2012-09-14T14:21:36Z</time>
      </trkpt>
      <trkpt lat="47.12922" lon="5.56868">
        <ele>216</ele>
        <time>2012-09-14T14:21:38Z</time>
      </trkpt>
      <trkpt lat="47.12914" lon="5.56854">
        <ele>216</ele>
        <time>2012-09-14T14:21:40Z</time>
      </trkpt>
      <trkpt lat="47.12905" lon="5.5684">
        <ele>216</ele>
        <time>2012-09-14T14:21:42Z</time>
      </trkpt>
      <trkpt lat="47.12897" lon="5.56826">
        <ele>216</ele>
        <time>2012-09-14T14:21:44Z</time>
      </trkpt>
      <trkpt lat="47.12888" lon="5.56813">
        <ele>216</ele>
        <time>2012-09-14T14:21:46Z</time>
      </trkpt>
      <trkpt lat="47.1288" lon="5.56798">
        <ele>216</ele>
        <time>2012-09-14T14:21:48Z</time>
      </trkpt>
      <trkpt lat="47.12871" lon="5.56785">
        <ele>216</ele>
        <time>2012-09-14T14:21:50Z</time>
      </trkpt>
      <trkpt lat="47.12862" lon="5.56771">
        <ele>216</ele>
        <time>2012-09-14T14:21:52Z</time>
      </trkpt>
      <trkpt lat="47.12853" lon="5.5676">
        <ele>216</ele>
        <time>2012-09-14T14:21:54Z</time>
      </trkpt>
      <trkpt lat="47.12844" lon="5.56749">
        <ele>216</ele>
        <time>2012-09-14T14:21:56Z</time>
      </trkpt>
      <trkpt lat="47.12834" lon="5.56737">
        <ele>216</ele>
        <time>2012-09-14T14:21:58Z</time>
      </trkpt>
      <trkpt lat="47.12824" lon="5.56726">
        <ele>216</ele>
        <time>2012-09-14T14:22:00Z</time>
      </trkpt>
      <trkpt lat="47.12815" lon="5.56715">
        <ele>216</ele>
        <time>2012-09-14T14:22:02Z</time>
      </trkpt>
      <trkpt lat="47.12805" lon="5.56703">
        <ele>216</ele>
        <time>2012-09-14T14:22:04Z</time>
      </trkpt>
      <trkpt lat="47.12796" lon="5.56691">
        <ele>216</ele>
        <time>2012-09-14T14:22:06Z</time>
      </trkpt>
      <trkpt lat="47.12788" lon="5.56677">
        <ele>216</ele>
        <time>2012-09-14T14:22:08Z</time>
      </trkpt>
      <trkpt lat="47.1278" lon="5.56663">
        <ele>216</ele>
        <time>2012-09-14T14:22:10Z</time>
      </trkpt>
      <trkpt lat="47.12773" lon="5.56648">
        <ele>216</ele>
        <time>2012-09-14T14:22:12Z</time>
      </trkpt>
      <trkpt lat="47.12766" lon="5.56633">
        <ele>216</ele>
        <time>2012-09-14T14:22:14Z</time>
      </trkpt>
      <trkpt lat="47.12759" lon="5.56618">
        <ele>216</ele>
        <time>2012-09-14T14:22:16Z</time>
      </trkpt>
      <trkpt lat="47.12751" lon="5.56604">
        <ele>216</ele>
        <time>2012-09-14T14:22:18Z</time>
      </trkpt>
      <trkpt lat="47.12743" lon="5.56591">
        <ele>223</ele>
        <time>2012-09-14T14:22:20Z</time>
      </trkpt>
      <trkpt lat="47.12735" lon="5.56579">
        <ele>223</ele>
        <time>2012-09-14T14:22:22Z</time>
      </trkpt>
      <trkpt lat="47.12728" lon="5.56567">
        <ele>223</ele>
        <time>2012-09-14T14:22:24Z</time>
      </trkpt>
      <trkpt lat="47.1272" lon="5.56554">
        <ele>223</ele>
        <time>2012-09-14T14:22:26Z</time>
      </trkpt>
      <trkpt lat="47.1271" lon="5.56544">
        <ele>223</ele>
        <time>2012-09-14T14:22:28Z</time>
      </trkpt>
      <trkpt lat="47.12699" lon="5.56535">
        <ele>223</ele>
        <time>2012-09-14T14:22:30Z</time>
      </trkpt>
      <trkpt lat="47.12689" lon="5.56523">
        <ele>228</ele>
        <time>2012-09-14T14:22:32Z</time>
      </trkpt>
      <trkpt lat="47.1268" lon="5.56511">
        <ele>228</ele>
        <time>2012-09-14T14:22:34Z</time>
      </trkpt>
      <trkpt lat="47.12669" lon="5.56499">
        <ele>228</ele>
        <time>2012-09-14T14:22:36Z</time>
      </trkpt>
      <trkpt lat="47.12658" lon="5.56488">
        <ele>228</ele>
        <time>2012-09-14T14:22:38Z</time>
      </trkpt>
      <trkpt lat="47.12646" lon="5.5648">
        <ele>228</ele>
        <time>2012-09-14T14:22:40Z</time>
      </trkpt>
      <trkpt lat="47.12636" lon="5.56471">
        <ele>228</ele>
        <time>2012-09-14T14:22:42Z</time>
      </trkpt>
      <trkpt lat="47.12627" lon="5.56461">
        <ele>228</ele>
        <time>2012-09-14T14:22:44Z</time>
      </trkpt>
      <trkpt lat="47.12617" lon="5.56454">
        <ele>221</ele>
        <time>2012-09-14T14:22:46Z</time>
      </trkpt>
      <trkpt lat="47.12607" lon="5.56446">
        <ele>221</ele>
        <time>2012-09-14T14:22:48Z</time>
      </trkpt>
      <trkpt lat="47.12597" lon="5.56437">
        <ele>221</ele>
        <time>2012-09-14T14:22:50Z</time>
      </trkpt>
      <trkpt lat="47.12586" lon="5.56428">
        <ele>221</ele>
        <time>2012-09-14T14:22:52Z</time>
      </trkpt>
      <trkpt lat="47.12576" lon="5.56417">
        <ele>215</ele>
        <time>2012-09-14T14:22:54Z</time>
      </trkpt>
      <trkpt lat="47.12565" lon="5.56407">
        <ele>215</ele>
        <time>2012-09-14T14:22:56Z</time>
      </trkpt>
      <trkpt lat="47.12553" lon="5.56395">
        <ele>215</ele>
        <time>2012-09-14T14:22:58Z</time>
      </trkpt>
      <trkpt lat="47.12542" lon="5.56382">
        <ele>215</ele>
        <time>2012-09-14T14:23:00Z</time>
      </trkpt>
      <trkpt lat="47.12533" lon="5.56371">
        <ele>215</ele>
        <time>2012-09-14T14:23:02Z</time>
      </trkpt>
      <trkpt lat="47.12524" lon="5.56358">
        <ele>215</ele>
        <time>2012-09-14T14:23:04Z</time>
      </trkpt>
      <trkpt lat="47.12514" lon="5.56346">
        <ele>215</ele>
        <time>2012-09-14T14:23:06Z</time>
      </trkpt>
      <trkpt lat="47.12503" lon="5.56338">
        <ele>215</ele>
        <time>2012-09-14T14:23:08Z</time>
      </trkpt>
      <trkpt lat="47.12493" lon="5.56333">
        <ele>215</ele>
        <time>2012-09-14T14:23:10Z</time>
      </trkpt>
      <trkpt lat="47.12482" lon="5.5633">
        <ele>221</ele>
        <time>2012-09-14T14:23:12Z</time>
      </trkpt>
      <trkpt lat="47.12472" lon="5.56321">
        <ele>221</ele>
        <time>2012-09-14T14:23:15Z</time>
      </trkpt>
      <trkpt lat="47.12463" lon="5.56323">
        <ele>229</ele>
        <time>2012-09-14T14:23:50Z</time>
      </trkpt>
      <trkpt lat="47.12461" lon="5.56338">
        <ele>221</ele>
        <time>2012-09-14T14:23:56Z</time>
      </trkpt>
      <trkpt lat="47.12458" lon="5.56355">
        <ele>221</ele>
        <time>2012-09-14T14:23:59Z</time>
      </trkpt>
      <trkpt lat="47.12455" lon="5.56368">
        <ele>221</ele>
        <time>2012-09-14T14:24:01Z</time>
      </trkpt>
      <trkpt lat="47.12449" lon="5.56381">
        <ele>221</ele>
        <time>2012-09-14T14:24:03Z</time>
      </trkpt>
      <trkpt lat="47.12442" lon="5.56393">
        <ele>221</ele>
        <time>2012-09-14T14:24:05Z</time>
      </trkpt>
      <trkpt lat="47.12436" lon="5.56405">
        <ele>221</ele>
        <time>2012-09-14T14:24:07Z</time>
      </trkpt>
      <trkpt lat="47.12429" lon="5.56416">
        <ele>221</ele>
        <time>2012-09-14T14:24:09Z</time>
      </trkpt>
      <trkpt lat="47.12421" lon="5.56426">
        <ele>221</ele>
        <time>2012-09-14T14:24:11Z</time>
      </trkpt>
      <trkpt lat="47.12414" lon="5.56438">
        <ele>221</ele>
        <time>2012-09-14T14:24:13Z</time>
      </trkpt>
      <trkpt lat="47.12405" lon="5.5645">
        <ele>221</ele>
        <time>2012-09-14T14:24:15Z</time>
      </trkpt>
      <trkpt lat="47.12398" lon="5.56461">
        <ele>221</ele>
        <time>2012-09-14T14:24:17Z</time>
      </trkpt>
      <trkpt lat="47.1239" lon="5.56473">
        <ele>221</ele>
        <time>2012-09-14T14:24:19Z</time>
      </trkpt>
      <trkpt lat="47.12382" lon="5.56484">
        <ele>221</ele>
        <time>2012-09-14T14:24:21Z</time>
      </trkpt>
      <trkpt lat="47.12374" lon="5.56496">
        <ele>221</ele>
        <time>2012-09-14T14:24:23Z</time>
      </trkpt>
      <trkpt lat="47.12367" lon="5.56506">
        <ele>221</ele>
        <time>2012-09-14T14:24:25Z</time>
      </trkpt>
      <trkpt lat="47.12359" lon="5.56518">
        <ele>221</ele>
        <time>2012-09-14T14:24:27Z</time>
      </trkpt>
      <trkpt lat="47.12351" lon="5.5653">
        <ele>221</ele>
        <time>2012-09-14T14:24:29Z</time>
      </trkpt>
      <trkpt lat="47.12342" lon="5.56541">
        <ele>221</ele>
        <time>2012-09-14T14:24:31Z</time>
      </trkpt>
      <trkpt lat="47.12334" lon="5.56553">
        <ele>221</ele>
        <time>2012-09-14T14:24:33Z</time>
      </trkpt>
      <trkpt lat="47.12327" lon="5.56566">
        <ele>221</ele>
        <time>2012-09-14T14:24:35Z</time>
      </trkpt>
      <trkpt lat="47.12318" lon="5.5658">
        <ele>221</ele>
        <time>2012-09-14T14:24:37Z</time>
      </trkpt>
      <trkpt lat="47.12312" lon="5.56597">
        <ele>221</ele>
        <time>2012-09-14T14:24:39Z</time>
      </trkpt>
      <trkpt lat="47.12308" lon="5.56617">
        <ele>216</ele>
        <time>2012-09-14T14:24:41Z</time>
      </trkpt>
      <trkpt lat="47.12306" lon="5.56637">
        <ele>216</ele>
        <time>2012-09-14T14:24:43Z</time>
      </trkpt>
      <trkpt lat="47.12305" lon="5.56657">
        <ele>216</ele>
        <time>2012-09-14T14:24:45Z</time>
      </trkpt>
      <trkpt lat="47.12304" lon="5.56679">
        <ele>216</ele>
        <time>2012-09-14T14:24:47Z</time>
      </trkpt>
      <trkpt lat="47.12305" lon="5.56701">
        <ele>216</ele>
        <time>2012-09-14T14:24:49Z</time>
      </trkpt>
      <trkpt lat="47.12304" lon="5.56722">
        <ele>216</ele>
        <time>2012-09-14T14:24:51Z</time>
      </trkpt>
      <trkpt lat="47.12304" lon="5.56744">
        <ele>216</ele>
        <time>2012-09-14T14:24:53Z</time>
      </trkpt>
      <trkpt lat="47.12304" lon="5.56764">
        <ele>216</ele>
        <time>2012-09-14T14:24:55Z</time>
      </trkpt>
      <trkpt lat="47.12304" lon="5.56784">
        <ele>216</ele>
        <time>2012-09-14T14:24:57Z</time>
      </trkpt>
      <trkpt lat="47.12305" lon="5.56804">
        <ele>216</ele>
        <time>2012-09-14T14:24:59Z</time>
      </trkpt>
      <trkpt lat="47.12305" lon="5.56823">
        <ele>216</ele>
        <time>2012-09-14T14:25:01Z</time>
      </trkpt>
      <trkpt lat="47.12305" lon="5.5684">
        <ele>216</ele>
        <time>2012-09-14T14:25:03Z</time>
      </trkpt>
      <trkpt lat="47.12305" lon="5.56856">
        <ele>216</ele>
        <time>2012-09-14T14:25:05Z</time>
      </trkpt>
      <trkpt lat="47.12301" lon="5.56871">
        <ele>216</ele>
        <time>2012-09-14T14:25:07Z</time>
      </trkpt>
      <trkpt lat="47.12292" lon="5.56881">
        <ele>216</ele>
        <time>2012-09-14T14:25:09Z</time>
      </trkpt>
      <trkpt lat="47.12278" lon="5.56884">
        <ele>216</ele>
        <time>2012-09-14T14:25:11Z</time>
      </trkpt>
      <trkpt lat="47.12263" lon="5.56882">
        <ele>216</ele>
        <time>2012-09-14T14:25:13Z</time>
      </trkpt>
      <trkpt lat="47.12249" lon="5.56878">
        <ele>216</ele>
        <time>2012-09-14T14:25:15Z</time>
      </trkpt>
      <trkpt lat="47.12235" lon="5.56872">
        <ele>216</ele>
        <time>2012-09-14T14:25:17Z</time>
      </trkpt>
      <trkpt lat="47.1222" lon="5.56867">
        <ele>216</ele>
        <time>2012-09-14T14:25:19Z</time>
      </trkpt>
      <trkpt lat="47.12208" lon="5.56859">
        <ele>216</ele>
        <time>2012-09-14T14:25:21Z</time>
      </trkpt>
      <trkpt lat="47.12196" lon="5.56852">
        <ele>216</ele>
        <time>2012-09-14T14:25:23Z</time>
      </trkpt>
      <trkpt lat="47.12184" lon="5.56842">
        <ele>216</ele>
        <time>2012-09-14T14:25:25Z</time>
      </trkpt>
      <trkpt lat="47.12174" lon="5.56831">
        <ele>216</ele>
        <time>2012-09-14T14:25:27Z</time>
      </trkpt>
      <trkpt lat="47.12165" lon="5.56816">
        <ele>216</ele>
        <time>2012-09-14T14:25:29Z</time>
      </trkpt>
      <trkpt lat="47.12156" lon="5.56801">
        <ele>216</ele>
        <time>2012-09-14T14:25:31Z</time>
      </trkpt>
      <trkpt lat="47.12149" lon="5.56786">
        <ele>216</ele>
        <time>2012-09-14T14:25:33Z</time>
      </trkpt>
      <trkpt lat="47.12141" lon="5.5677">
        <ele>216</ele>
        <time>2012-09-14T14:25:35Z</time>
      </trkpt>
      <trkpt lat="47.12135" lon="5.56753">
        <ele>216</ele>
        <time>2012-09-14T14:25:37Z</time>
      </trkpt>
      <trkpt lat="47.12128" lon="5.56738">
        <ele>216</ele>
        <time>2012-09-14T14:25:39Z</time>
      </trkpt>
      <trkpt lat="47.12122" lon="5.56723">
        <ele>216</ele>
        <time>2012-09-14T14:25:41Z</time>
      </trkpt>
      <trkpt lat="47.12116" lon="5.56708">
        <ele>216</ele>
        <time>2012-09-14T14:25:43Z</time>
      </trkpt>
      <trkpt lat="47.12109" lon="5.56694">
        <ele>222</ele>
        <time>2012-09-14T14:25:45Z</time>
      </trkpt>
      <trkpt lat="47.121" lon="5.5668">
        <ele>222</ele>
        <time>2012-09-14T14:25:47Z</time>
      </trkpt>
      <trkpt lat="47.1209" lon="5.56668">
        <ele>222</ele>
        <time>2012-09-14T14:25:49Z</time>
      </trkpt>
      <trkpt lat="47.12078" lon="5.56664">
        <ele>222</ele>
        <time>2012-09-14T14:25:51Z</time>
      </trkpt>
      <trkpt lat="47.12066" lon="5.56667">
        <ele>222</ele>
        <time>2012-09-14T14:25:53Z</time>
      </trkpt>
      <trkpt lat="47.12055" lon="5.56676">
        <ele>222</ele>
        <time>2012-09-14T14:25:55Z</time>
      </trkpt>
      <trkpt lat="47.12044" lon="5.56687">
        <ele>222</ele>
        <time>2012-09-14T14:25:57Z</time>
      </trkpt>
      <trkpt lat="47.12033" lon="5.56699">
        <ele>222</ele>
        <time>2012-09-14T14:25:59Z</time>
      </trkpt>
      <trkpt lat="47.12023" lon="5.5671">
        <ele>222</ele>
        <time>2012-09-14T14:26:01Z</time>
      </trkpt>
      <trkpt lat="47.12013" lon="5.56721">
        <ele>216</ele>
        <time>2012-09-14T14:26:03Z</time>
      </trkpt>
      <trkpt lat="47.12002" lon="5.56732">
        <ele>216</ele>
        <time>2012-09-14T14:26:05Z</time>
      </trkpt>
      <trkpt lat="47.11991" lon="5.56743">
        <ele>216</ele>
        <time>2012-09-14T14:26:07Z</time>
      </trkpt>
      <trkpt lat="47.1198" lon="5.56753">
        <ele>216</ele>
        <time>2012-09-14T14:26:09Z</time>
      </trkpt>
      <trkpt lat="47.11969" lon="5.56763">
        <ele>216</ele>
        <time>2012-09-14T14:26:11Z</time>
      </trkpt>
      <trkpt lat="47.11958" lon="5.56774">
        <ele>216</ele>
        <time>2012-09-14T14:26:13Z</time>
      </trkpt>
      <trkpt lat="47.11947" lon="5.56784">
        <ele>216</ele>
        <time>2012-09-14T14:26:15Z</time>
      </trkpt>
      <trkpt lat="47.11937" lon="5.56795">
        <ele>216</ele>
        <time>2012-09-14T14:26:17Z</time>
      </trkpt>
      <trkpt lat="47.11926" lon="5.56805">
        <ele>211</ele>
        <time>2012-09-14T14:26:19Z</time>
      </trkpt>
      <trkpt lat="47.11916" lon="5.56814">
        <ele>211</ele>
        <time>2012-09-14T14:26:21Z</time>
      </trkpt>
      <trkpt lat="47.11905" lon="5.56824">
        <ele>211</ele>
        <time>2012-09-14T14:26:23Z</time>
      </trkpt>
      <trkpt lat="47.11895" lon="5.56835">
        <ele>211</ele>
        <time>2012-09-14T14:26:25Z</time>
      </trkpt>
      <trkpt lat="47.11884" lon="5.56846">
        <ele>211</ele>
        <time>2012-09-14T14:26:27Z</time>
      </trkpt>
      <trkpt lat="47.11873" lon="5.56856">
        <ele>211</ele>
        <time>2012-09-14T14:26:29Z</time>
      </trkpt>
      <trkpt lat="47.11863" lon="5.56866">
        <ele>211</ele>
        <time>2012-09-14T14:26:31Z</time>
      </trkpt>
      <trkpt lat="47.11852" lon="5.56876">
        <ele>211</ele>
        <time>2012-09-14T14:26:33Z</time>
      </trkpt>
      <trkpt lat="47.11841" lon="5.56887">
        <ele>211</ele>
        <time>2012-09-14T14:26:35Z</time>
      </trkpt>
      <trkpt lat="47.11831" lon="5.56899">
        <ele>211</ele>
        <time>2012-09-14T14:26:37Z</time>
      </trkpt>
      <trkpt lat="47.11822" lon="5.56912">
        <ele>211</ele>
        <time>2012-09-14T14:26:39Z</time>
      </trkpt>
      <trkpt lat="47.11815" lon="5.56927">
        <ele>211</ele>
        <time>2012-09-14T14:26:41Z</time>
      </trkpt>
      <trkpt lat="47.11808" lon="5.56943">
        <ele>211</ele>
        <time>2012-09-14T14:26:43Z</time>
      </trkpt>
      <trkpt lat="47.11803" lon="5.56959">
        <ele>211</ele>
        <time>2012-09-14T14:26:45Z</time>
      </trkpt>
      <trkpt lat="47.11797" lon="5.56976">
        <ele>211</ele>
        <time>2012-09-14T14:26:47Z</time>
      </trkpt>
      <trkpt lat="47.11791" lon="5.56992">
        <ele>211</ele>
        <time>2012-09-14T14:26:49Z</time>
      </trkpt>
      <trkpt lat="47.11785" lon="5.57009">
        <ele>211</ele>
        <time>2012-09-14T14:26:51Z</time>
      </trkpt>
      <trkpt lat="47.11778" lon="5.57025">
        <ele>211</ele>
        <time>2012-09-14T14:26:53Z</time>
      </trkpt>
      <trkpt lat="47.11772" lon="5.5704">
        <ele>211</ele>
        <time>2012-09-14T14:26:55Z</time>
      </trkpt>
      <trkpt lat="47.11765" lon="5.57055">
        <ele>211</ele>
        <time>2012-09-14T14:26:57Z</time>
      </trkpt>
      <trkpt lat="47.11759" lon="5.57071">
        <ele>211</ele>
        <time>2012-09-14T14:26:59Z</time>
      </trkpt>
      <trkpt lat="47.11753" lon="5.57086">
        <ele>211</ele>
        <time>2012-09-14T14:27:01Z</time>
      </trkpt>
      <trkpt lat="47.11746" lon="5.571">
        <ele>211</ele>
        <time>2012-09-14T14:27:03Z</time>
      </trkpt>
      <trkpt lat="47.11739" lon="5.57115">
        <ele>211</ele>
        <time>2012-09-14T14:27:05Z</time>
      </trkpt>
      <trkpt lat="47.11732" lon="5.57128">
        <ele>211</ele>
        <time>2012-09-14T14:27:07Z</time>
      </trkpt>
      <trkpt lat="47.11726" lon="5.57141">
        <ele>211</ele>
        <time>2012-09-14T14:27:09Z</time>
      </trkpt>
      <trkpt lat="47.1172" lon="5.57154">
        <ele>217</ele>
        <time>2012-09-14T14:27:11Z</time>
      </trkpt>
      <trkpt lat="47.11713" lon="5.57167">
        <ele>217</ele>
        <time>2012-09-14T14:27:13Z</time>
      </trkpt>
      <trkpt lat="47.11707" lon="5.5718">
        <ele>217</ele>
        <time>2012-09-14T14:27:15Z</time>
      </trkpt>
      <trkpt lat="47.11701" lon="5.57193">
        <ele>217</ele>
        <time>2012-09-14T14:27:17Z</time>
      </trkpt>
      <trkpt lat="47.11694" lon="5.57205">
        <ele>217</ele>
        <time>2012-09-14T14:27:19Z</time>
      </trkpt>
      <trkpt lat="47.11688" lon="5.57217">
        <ele>217</ele>
        <time>2012-09-14T14:27:21Z</time>
      </trkpt>
      <trkpt lat="47.11681" lon="5.5723">
        <ele>217</ele>
        <time>2012-09-14T14:27:23Z</time>
      </trkpt>
      <trkpt lat="47.11675" lon="5.57243">
        <ele>217</ele>
        <time>2012-09-14T14:27:25Z</time>
      </trkpt>
      <trkpt lat="47.11669" lon="5.57256">
        <ele>217</ele>
        <time>2012-09-14T14:27:27Z</time>
      </trkpt>
      <trkpt lat="47.11662" lon="5.57269">
        <ele>217</ele>
        <time>2012-09-14T14:27:29Z</time>
      </trkpt>
      <trkpt lat="47.11656" lon="5.57283">
        <ele>217</ele>
        <time>2012-09-14T14:27:31Z</time>
      </trkpt>
      <trkpt lat="47.1165" lon="5.57295">
        <ele>217</ele>
        <time>2012-09-14T14:27:33Z</time>
      </trkpt>
      <trkpt lat="47.11643" lon="5.57309">
        <ele>222</ele>
        <time>2012-09-14T14:27:35Z</time>
      </trkpt>
      <trkpt lat="47.11637" lon="5.57321">
        <ele>222</ele>
        <time>2012-09-14T14:27:37Z</time>
      </trkpt>
      <trkpt lat="47.11631" lon="5.57334">
        <ele>222</ele>
        <time>2012-09-14T14:27:39Z</time>
      </trkpt>
      <trkpt lat="47.11624" lon="5.57347">
        <ele>222</ele>
        <time>2012-09-14T14:27:41Z</time>
      </trkpt>
      <trkpt lat="47.11617" lon="5.5736">
        <ele>222</ele>
        <time>2012-09-14T14:27:43Z</time>
      </trkpt>
      <trkpt lat="47.11611" lon="5.57373">
        <ele>222</ele>
        <time>2012-09-14T14:27:45Z</time>
      </trkpt>
      <trkpt lat="47.11605" lon="5.57387">
        <ele>222</ele>
        <time>2012-09-14T14:27:47Z</time>
      </trkpt>
      <trkpt lat="47.11597" lon="5.57399">
        <ele>222</ele>
        <time>2012-09-14T14:27:49Z</time>
      </trkpt>
      <trkpt lat="47.11589" lon="5.5741">
        <ele>222</ele>
        <time>2012-09-14T14:27:51Z</time>
      </trkpt>
      <trkpt lat="47.1158" lon="5.57419">
        <ele>222</ele>
        <time>2012-09-14T14:27:53Z</time>
      </trkpt>
      <trkpt lat="47.11569" lon="5.57424">
        <ele>227</ele>
        <time>2012-09-14T14:27:55Z</time>
      </trkpt>
      <trkpt lat="47.11558" lon="5.57424">
        <ele>227</ele>
        <time>2012-09-14T14:27:57Z</time>
      </trkpt>
      <trkpt lat="47.11547" lon="5.57423">
        <ele>227</ele>
        <time>2012-09-14T14:27:59Z</time>
      </trkpt>
      <trkpt lat="47.11535" lon="5.57417">
        <ele>227</ele>
        <time>2012-09-14T14:28:01Z</time>
      </trkpt>
      <trkpt lat="47.11525" lon="5.57412">
        <ele>227</ele>
        <time>2012-09-14T14:28:03Z</time>
      </trkpt>
      <trkpt lat="47.11514" lon="5.57405">
        <ele>227</ele>
        <time>2012-09-14T14:28:05Z</time>
      </trkpt>
      <trkpt lat="47.11504" lon="5.57398">
        <ele>227</ele>
        <time>2012-09-14T14:28:07Z</time>
      </trkpt>
      <trkpt lat="47.11494" lon="5.57391">
        <ele>233</ele>
        <time>2012-09-14T14:28:09Z</time>
      </trkpt>
      <trkpt lat="47.11483" lon="5.57386">
        <ele>233</ele>
        <time>2012-09-14T14:28:11Z</time>
      </trkpt>
      <trkpt lat="47.11474" lon="5.5738">
        <ele>233</ele>
        <time>2012-09-14T14:28:13Z</time>
      </trkpt>
      <trkpt lat="47.11464" lon="5.57373">
        <ele>233</ele>
        <time>2012-09-14T14:28:15Z</time>
      </trkpt>
      <trkpt lat="47.11455" lon="5.57367">
        <ele>233</ele>
        <time>2012-09-14T14:28:17Z</time>
      </trkpt>
      <trkpt lat="47.11446" lon="5.57362">
        <ele>233</ele>
        <time>2012-09-14T14:28:19Z</time>
      </trkpt>
      <trkpt lat="47.11437" lon="5.57355">
        <ele>233</ele>
        <time>2012-09-14T14:28:21Z</time>
      </trkpt>
      <trkpt lat="47.11428" lon="5.5735">
        <ele>233</ele>
        <time>2012-09-14T14:28:23Z</time>
      </trkpt>
      <trkpt lat="47.11419" lon="5.57345">
        <ele>238</ele>
        <time>2012-09-14T14:28:25Z</time>
      </trkpt>
      <trkpt lat="47.1141" lon="5.57341">
        <ele>238</ele>
        <time>2012-09-14T14:28:27Z</time>
      </trkpt>
      <trkpt lat="47.11401" lon="5.57336">
        <ele>238</ele>
        <time>2012-09-14T14:28:29Z</time>
      </trkpt>
      <trkpt lat="47.11392" lon="5.57332">
        <ele>238</ele>
        <time>2012-09-14T14:28:31Z</time>
      </trkpt>
      <trkpt lat="47.11382" lon="5.57328">
        <ele>238</ele>
        <time>2012-09-14T14:28:33Z</time>
      </trkpt>
      <trkpt lat="47.11373" lon="5.57325">
        <ele>238</ele>
        <time>2012-09-14T14:28:35Z</time>
      </trkpt>
      <trkpt lat="47.11363" lon="5.57321">
        <ele>238</ele>
        <time>2012-09-14T14:28:37Z</time>
      </trkpt>
      <trkpt lat="47.11353" lon="5.57317">
        <ele>238</ele>
        <time>2012-09-14T14:28:39Z</time>
      </trkpt>
      <trkpt lat="47.11342" lon="5.5731">
        <ele>238</ele>
        <time>2012-09-14T14:28:41Z</time>
      </trkpt>
      <trkpt lat="47.11332" lon="5.57303">
        <ele>238</ele>
        <time>2012-09-14T14:28:43Z</time>
      </trkpt>
      <trkpt lat="47.11322" lon="5.57293">
        <ele>238</ele>
        <time>2012-09-14T14:28:45Z</time>
      </trkpt>
      <trkpt lat="47.11312" lon="5.57281">
        <ele>238</ele>
        <time>2012-09-14T14:28:47Z</time>
      </trkpt>
      <trkpt lat="47.11303" lon="5.57267">
        <ele>238</ele>
        <time>2012-09-14T14:28:49Z</time>
      </trkpt>
      <trkpt lat="47.11294" lon="5.57254">
        <ele>238</ele>
        <time>2012-09-14T14:28:51Z</time>
      </trkpt>
      <trkpt lat="47.11285" lon="5.57239">
        <ele>238</ele>
        <time>2012-09-14T14:28:53Z</time>
      </trkpt>
      <trkpt lat="47.11276" lon="5.57226">
        <ele>238</ele>
        <time>2012-09-14T14:28:55Z</time>
      </trkpt>
      <trkpt lat="47.11266" lon="5.57212">
        <ele>238</ele>
        <time>2012-09-14T14:28:57Z</time>
      </trkpt>
      <trkpt lat="47.11258" lon="5.57198">
        <ele>238</ele>
        <time>2012-09-14T14:28:59Z</time>
      </trkpt>
      <trkpt lat="47.11248" lon="5.57183">
        <ele>238</ele>
        <time>2012-09-14T14:29:01Z</time>
      </trkpt>
      <trkpt lat="47.11239" lon="5.57168">
        <ele>238</ele>
        <time>2012-09-14T14:29:03Z</time>
      </trkpt>
      <trkpt lat="47.11231" lon="5.57155">
        <ele>238</ele>
        <time>2012-09-14T14:29:05Z</time>
      </trkpt>
      <trkpt lat="47.11223" lon="5.57141">
        <ele>238</ele>
        <time>2012-09-14T14:29:07Z</time>
      </trkpt>
      <trkpt lat="47.11215" lon="5.57126">
        <ele>238</ele>
        <time>2012-09-14T14:29:09Z</time>
      </trkpt>
      <trkpt lat="47.11206" lon="5.57112">
        <ele>238</ele>
        <time>2012-09-14T14:29:11Z</time>
      </trkpt>
      <trkpt lat="47.11198" lon="5.57097">
        <ele>238</ele>
        <time>2012-09-14T14:29:13Z</time>
      </trkpt>
      <trkpt lat="47.11188" lon="5.57081">
        <ele>238</ele>
        <time>2012-09-14T14:29:15Z</time>
      </trkpt>
      <trkpt lat="47.11179" lon="5.57065">
        <ele>238</ele>
        <time>2012-09-14T14:29:17Z</time>
      </trkpt>
      <trkpt lat="47.11169" lon="5.57049">
        <ele>238</ele>
        <time>2012-09-14T14:29:19Z</time>
      </trkpt>
      <trkpt lat="47.11159" lon="5.57031">
        <ele>238</ele>
        <time>2012-09-14T14:29:21Z</time>
      </trkpt>
      <trkpt lat="47.11149" lon="5.57014">
        <ele>238</ele>
        <time>2012-09-14T14:29:23Z</time>
      </trkpt>
      <trkpt lat="47.11137" lon="5.56997">
        <ele>238</ele>
        <time>2012-09-14T14:29:25Z</time>
      </trkpt>
      <trkpt lat="47.11128" lon="5.56978">
        <ele>238</ele>
        <time>2012-09-14T14:29:27Z</time>
      </trkpt>
      <trkpt lat="47.11117" lon="5.5696">
        <ele>238</ele>
        <time>2012-09-14T14:29:29Z</time>
      </trkpt>
      <trkpt lat="47.11106" lon="5.56941">
        <ele>238</ele>
        <time>2012-09-14T14:29:31Z</time>
      </trkpt>
      <trkpt lat="47.11095" lon="5.56923">
        <ele>238</ele>
        <time>2012-09-14T14:29:33Z</time>
      </trkpt>
      <trkpt lat="47.11084" lon="5.56904">
        <ele>238</ele>
        <time>2012-09-14T14:29:35Z</time>
      </trkpt>
      <trkpt lat="47.11073" lon="5.56885">
        <ele>238</ele>
        <time>2012-09-14T14:29:37Z</time>
      </trkpt>
      <trkpt lat="47.11063" lon="5.56867">
        <ele>238</ele>
        <time>2012-09-14T14:29:39Z</time>
      </trkpt>
      <trkpt lat="47.11052" lon="5.56849">
        <ele>238</ele>
        <time>2012-09-14T14:29:41Z</time>
      </trkpt>
      <trkpt lat="47.11041" lon="5.56831">
        <ele>243</ele>
        <time>2012-09-14T14:29:43Z</time>
      </trkpt>
      <trkpt lat="47.1103" lon="5.56812">
        <ele>243</ele>
        <time>2012-09-14T14:29:45Z</time>
      </trkpt>
      <trkpt lat="47.1102" lon="5.56793">
        <ele>243</ele>
        <time>2012-09-14T14:29:47Z</time>
      </trkpt>
      <trkpt lat="47.11008" lon="5.56775">
        <ele>243</ele>
        <time>2012-09-14T14:29:49Z</time>
      </trkpt>
      <trkpt lat="47.10996" lon="5.56759">
        <ele>243</ele>
        <time>2012-09-14T14:29:51Z</time>
      </trkpt>
      <trkpt lat="47.10982" lon="5.56744">
        <ele>243</ele>
        <time>2012-09-14T14:29:53Z</time>
      </trkpt>
      <trkpt lat="47.10968" lon="5.56729">
        <ele>243</ele>
        <time>2012-09-14T14:29:55Z</time>
      </trkpt>
      <trkpt lat="47.10956" lon="5.56717">
        <ele>243</ele>
        <time>2012-09-14T14:29:57Z</time>
      </trkpt>
      <trkpt lat="47.10944" lon="5.56704">
        <ele>243</ele>
        <time>2012-09-14T14:29:59Z</time>
      </trkpt>
      <trkpt lat="47.10933" lon="5.56693">
        <ele>243</ele>
        <time>2012-09-14T14:30:01Z</time>
      </trkpt>
      <trkpt lat="47.10922" lon="5.56682">
        <ele>243</ele>
        <time>2012-09-14T14:30:03Z</time>
      </trkpt>
      <trkpt lat="47.1091" lon="5.56673">
        <ele>243</ele>
        <time>2012-09-14T14:30:05Z</time>
      </trkpt>
      <trkpt lat="47.109" lon="5.56663">
        <ele>243</ele>
        <time>2012-09-14T14:30:07Z</time>
      </trkpt>
      <trkpt lat="47.10889" lon="5.56653">
        <ele>243</ele>
        <time>2012-09-14T14:30:09Z</time>
      </trkpt>
      <trkpt lat="47.10879" lon="5.56642">
        <ele>243</ele>
        <time>2012-09-14T14:30:11Z</time>
      </trkpt>
      <trkpt lat="47.10868" lon="5.5663">
        <ele>243</ele>
        <time>2012-09-14T14:30:13Z</time>
      </trkpt>
      <trkpt lat="47.10857" lon="5.56618">
        <ele>243</ele>
        <time>2012-09-14T14:30:15Z</time>
      </trkpt>
      <trkpt lat="47.10846" lon="5.56606">
        <ele>243</ele>
        <time>2012-09-14T14:30:17Z</time>
      </trkpt>
      <trkpt lat="47.10836" lon="5.56593">
        <ele>243</ele>
        <time>2012-09-14T14:30:19Z</time>
      </trkpt>
      <trkpt lat="47.10825" lon="5.5658">
        <ele>243</ele>
        <time>2012-09-14T14:30:21Z</time>
      </trkpt>
      <trkpt lat="47.10814" lon="5.56567">
        <ele>243</ele>
        <time>2012-09-14T14:30:23Z</time>
      </trkpt>
      <trkpt lat="47.10803" lon="5.56556">
        <ele>243</ele>
        <time>2012-09-14T14:30:25Z</time>
      </trkpt>
      <trkpt lat="47.10789" lon="5.56545">
        <ele>243</ele>
        <time>2012-09-14T14:30:27Z</time>
      </trkpt>
      <trkpt lat="47.10775" lon="5.56535">
        <ele>243</ele>
        <time>2012-09-14T14:30:29Z</time>
      </trkpt>
      <trkpt lat="47.1076" lon="5.56527">
        <ele>243</ele>
        <time>2012-09-14T14:30:31Z</time>
      </trkpt>
      <trkpt lat="47.10745" lon="5.56517">
        <ele>243</ele>
        <time>2012-09-14T14:30:33Z</time>
      </trkpt>
      <trkpt lat="47.10731" lon="5.56509">
        <ele>243</ele>
        <time>2012-09-14T14:30:35Z</time>
      </trkpt>
      <trkpt lat="47.10717" lon="5.56501">
        <ele>243</ele>
        <time>2012-09-14T14:30:37Z</time>
      </trkpt>
      <trkpt lat="47.10703" lon="5.56493">
        <ele>243</ele>
        <time>2012-09-14T14:30:39Z</time>
      </trkpt>
      <trkpt lat="47.1069" lon="5.56485">
        <ele>243</ele>
        <time>2012-09-14T14:30:41Z</time>
      </trkpt>
      <trkpt lat="47.10676" lon="5.56478">
        <ele>243</ele>
        <time>2012-09-14T14:30:43Z</time>
      </trkpt>
      <trkpt lat="47.10663" lon="5.56469">
        <ele>243</ele>
        <time>2012-09-14T14:30:45Z</time>
      </trkpt>
      <trkpt lat="47.1065" lon="5.56461">
        <ele>243</ele>
        <time>2012-09-14T14:30:47Z</time>
      </trkpt>
      <trkpt lat="47.10638" lon="5.56452">
        <ele>243</ele>
        <time>2012-09-14T14:30:49Z</time>
      </trkpt>
      <trkpt lat="47.10625" lon="5.56444">
        <ele>243</ele>
        <time>2012-09-14T14:30:51Z</time>
      </trkpt>
      <trkpt lat="47.10613" lon="5.56436">
        <ele>243</ele>
        <time>2012-09-14T14:30:53Z</time>
      </trkpt>
      <trkpt lat="47.106" lon="5.56429">
        <ele>243</ele>
        <time>2012-09-14T14:30:55Z</time>
      </trkpt>
      <trkpt lat="47.10587" lon="5.56421">
        <ele>243</ele>
        <time>2012-09-14T14:30:57Z</time>
      </trkpt>
      <trkpt lat="47.10574" lon="5.56414">
        <ele>243</ele>
        <time>2012-09-14T14:30:59Z</time>
      </trkpt>
      <trkpt lat="47.10561" lon="5.56409">
        <ele>243</ele>
        <time>2012-09-14T14:31:01Z</time>
      </trkpt>
      <trkpt lat="47.10548" lon="5.5641">
        <ele>243</ele>
        <time>2012-09-14T14:31:03Z</time>
      </trkpt>
      <trkpt lat="47.10538" lon="5.56416">
        <ele>243</ele>
        <time>2012-09-14T14:31:05Z</time>
      </trkpt>
      <trkpt lat="47.10528" lon="5.56422">
        <ele>243</ele>
        <time>2012-09-14T14:31:07Z</time>
      </trkpt>
      <trkpt lat="47.10517" lon="5.56429">
        <ele>243</ele>
        <time>2012-09-14T14:31:10Z</time>
      </trkpt>
      <trkpt lat="47.10506" lon="5.56436">
        <ele>243</ele>
        <time>2012-09-14T14:31:13Z</time>
      </trkpt>
      <trkpt lat="47.10497" lon="5.56441">
        <ele>243</ele>
        <time>2012-09-14T14:31:16Z</time>
      </trkpt>
      <trkpt lat="47.10487" lon="5.56443">
        <ele>243</ele>
        <time>2012-09-14T14:31:19Z</time>
      </trkpt>
      <trkpt lat="47.10478" lon="5.56444">
        <ele>237</ele>
        <time>2012-09-14T14:31:22Z</time>
      </trkpt>
      <trkpt lat="47.10466" lon="5.56445">
        <ele>237</ele>
        <time>2012-09-14T14:31:25Z</time>
      </trkpt>
      <trkpt lat="47.10456" lon="5.56446">
        <ele>237</ele>
        <time>2012-09-14T14:31:27Z</time>
      </trkpt>
      <trkpt lat="47.10446" lon="5.56446">
        <ele>237</ele>
        <time>2012-09-14T14:31:29Z</time>
      </trkpt>
      <trkpt lat="47.10435" lon="5.56447">
        <ele>237</ele>
        <time>2012-09-14T14:31:31Z</time>
      </trkpt>
      <trkpt lat="47.10425" lon="5.56448">
        <ele>237</ele>
        <time>2012-09-14T14:31:33Z</time>
      </trkpt>
      <trkpt lat="47.10414" lon="5.56452">
        <ele>237</ele>
        <time>2012-09-14T14:31:35Z</time>
      </trkpt>
      <trkpt lat="47.10405" lon="5.56459">
        <ele>237</ele>
        <time>2012-09-14T14:31:37Z</time>
      </trkpt>
      <trkpt lat="47.10398" lon="5.56468">
        <ele>237</ele>
        <time>2012-09-14T14:31:39Z</time>
      </trkpt>
      <trkpt lat="47.10391" lon="5.56479">
        <ele>237</ele>
        <time>2012-09-14T14:31:41Z</time>
      </trkpt>
      <trkpt lat="47.10385" lon="5.56489">
        <ele>237</ele>
        <time>2012-09-14T14:31:43Z</time>
      </trkpt>
      <trkpt lat="47.10377" lon="5.56502">
        <ele>237</ele>
        <time>2012-09-14T14:31:46Z</time>
      </trkpt>
      <trkpt lat="47.10368" lon="5.56511">
        <ele>237</ele>
        <time>2012-09-14T14:31:49Z</time>
      </trkpt>
      <trkpt lat="47.10357" lon="5.56518">
        <ele>237</ele>
        <time>2012-09-14T14:31:52Z</time>
      </trkpt>
      <trkpt lat="47.10345" lon="5.56526">
        <ele>237</ele>
        <time>2012-09-14T14:31:55Z</time>
      </trkpt>
      <trkpt lat="47.10336" lon="5.56531">
        <ele>232</ele>
        <time>2012-09-14T14:31:57Z</time>
      </trkpt>
      <trkpt lat="47.10325" lon="5.56536">
        <ele>232</ele>
        <time>2012-09-14T14:31:59Z</time>
      </trkpt>
      <trkpt lat="47.10314" lon="5.56543">
        <ele>232</ele>
        <time>2012-09-14T14:32:01Z</time>
      </trkpt>
      <trkpt lat="47.10305" lon="5.56551">
        <ele>232</ele>
        <time>2012-09-14T14:32:03Z</time>
      </trkpt>
      <trkpt lat="47.10294" lon="5.5656">
        <ele>232</ele>
        <time>2012-09-14T14:32:05Z</time>
      </trkpt>
      <trkpt lat="47.10283" lon="5.5657">
        <ele>232</ele>
        <time>2012-09-14T14:32:07Z</time>
      </trkpt>
      <trkpt lat="47.10272" lon="5.56581">
        <ele>232</ele>
        <time>2012-09-14T14:32:09Z</time>
      </trkpt>
      <trkpt lat="47.10262" lon="5.56593">
        <ele>227</ele>
        <time>2012-09-14T14:32:11Z</time>
      </trkpt>
      <trkpt lat="47.10252" lon="5.56601">
        <ele>227</ele>
        <time>2012-09-14T14:32:13Z</time>
      </trkpt>
      <trkpt lat="47.10242" lon="5.56607">
        <ele>227</ele>
        <time>2012-09-14T14:32:15Z</time>
      </trkpt>
      <trkpt lat="47.10232" lon="5.56613">
        <ele>227</ele>
        <time>2012-09-14T14:32:17Z</time>
      </trkpt>
      <trkpt lat="47.10223" lon="5.5662">
        <ele>227</ele>
        <time>2012-09-14T14:32:19Z</time>
      </trkpt>
      <trkpt lat="47.10214" lon="5.56625">
        <ele>227</ele>
        <time>2012-09-14T14:32:21Z</time>
      </trkpt>
      <trkpt lat="47.10202" lon="5.56626">
        <ele>222</ele>
        <time>2012-09-14T14:32:24Z</time>
      </trkpt>
      <trkpt lat="47.10195" lon="5.56611">
        <ele>222</ele>
        <time>2012-09-14T14:32:27Z</time>
      </trkpt>
      <trkpt lat="47.10197" lon="5.56594">
        <ele>222</ele>
        <time>2012-09-14T14:32:29Z</time>
      </trkpt>
      <trkpt lat="47.10202" lon="5.56579">
        <ele>222</ele>
        <time>2012-09-14T14:32:31Z</time>
      </trkpt>
      <trkpt lat="47.10208" lon="5.56564">
        <ele>222</ele>
        <time>2012-09-14T14:32:33Z</time>
      </trkpt>
      <trkpt lat="47.10213" lon="5.56549">
        <ele>222</ele>
        <time>2012-09-14T14:32:35Z</time>
      </trkpt>
      <trkpt lat="47.10218" lon="5.56533">
        <ele>222</ele>
        <time>2012-09-14T14:32:37Z</time>
      </trkpt>
      <trkpt lat="47.10224" lon="5.56516">
        <ele>222</ele>
        <time>2012-09-14T14:32:39Z</time>
      </trkpt>
      <trkpt lat="47.1023" lon="5.56499">
        <ele>222</ele>
        <time>2012-09-14T14:32:41Z</time>
      </trkpt>
      <trkpt lat="47.10238" lon="5.56481">
        <ele>222</ele>
        <time>2012-09-14T14:32:43Z</time>
      </trkpt>
      <trkpt lat="47.10246" lon="5.56463">
        <ele>216</ele>
        <time>2012-09-14T14:32:45Z</time>
      </trkpt>
      <trkpt lat="47.10254" lon="5.56445">
        <ele>216</ele>
        <time>2012-09-14T14:32:47Z</time>
      </trkpt>
      <trkpt lat="47.1026" lon="5.56425">
        <ele>216</ele>
        <time>2012-09-14T14:32:49Z</time>
      </trkpt>
      <trkpt lat="47.10265" lon="5.56405">
        <ele>216</ele>
        <time>2012-09-14T14:32:51Z</time>
      </trkpt>
      <trkpt lat="47.10269" lon="5.56383">
        <ele>216</ele>
        <time>2012-09-14T14:32:53Z</time>
      </trkpt>
      <trkpt lat="47.10268" lon="5.56362">
        <ele>216</ele>
        <time>2012-09-14T14:32:55Z</time>
      </trkpt>
      <trkpt lat="47.10263" lon="5.56339">
        <ele>216</ele>
        <time>2012-09-14T14:32:57Z</time>
      </trkpt>
      <trkpt lat="47.10256" lon="5.56322">
        <ele>216</ele>
        <time>2012-09-14T14:32:59Z</time>
      </trkpt>
      <trkpt lat="47.10252" lon="5.56304">
        <ele>216</ele>
        <time>2012-09-14T14:33:01Z</time>
      </trkpt>
      <trkpt lat="47.10252" lon="5.56287">
        <ele>211</ele>
        <time>2012-09-14T14:33:03Z</time>
      </trkpt>
      <trkpt lat="47.10256" lon="5.56273">
        <ele>211</ele>
        <time>2012-09-14T14:33:05Z</time>
      </trkpt>
      <trkpt lat="47.1026" lon="5.5626">
        <ele>211</ele>
        <time>2012-09-14T14:33:07Z</time>
      </trkpt>
      <trkpt lat="47.10264" lon="5.56247">
        <ele>211</ele>
        <time>2012-09-14T14:33:09Z</time>
      </trkpt>
      <trkpt lat="47.10267" lon="5.56233">
        <ele>211</ele>
        <time>2012-09-14T14:33:11Z</time>
      </trkpt>
      <trkpt lat="47.10269" lon="5.56221">
        <ele>211</ele>
        <time>2012-09-14T14:33:13Z</time>
      </trkpt>
      <trkpt lat="47.10272" lon="5.56204">
        <ele>211</ele>
        <time>2012-09-14T14:33:16Z</time>
      </trkpt>
      <trkpt lat="47.10275" lon="5.56188">
        <ele>211</ele>
        <time>2012-09-14T14:33:19Z</time>
      </trkpt>
      <trkpt lat="47.10278" lon="5.56175">
        <ele>211</ele>
        <time>2012-09-14T14:33:24Z</time>
      </trkpt>
      <trkpt lat="47.10276" lon="5.56158">
        <ele>211</ele>
        <time>2012-09-14T14:33:45Z</time>
      </trkpt>
      <trkpt lat="47.10276" lon="5.56143">
        <ele>211</ele>
        <time>2012-09-14T14:33:47Z</time>
      </trkpt>
      <trkpt lat="47.10277" lon="5.56128">
        <ele>211</ele>
        <time>2012-09-14T14:33:49Z</time>
      </trkpt>
      <trkpt lat="47.10276" lon="5.56111">
        <ele>211</ele>
        <time>2012-09-14T14:33:51Z</time>
      </trkpt>
      <trkpt lat="47.10275" lon="5.56093">
        <ele>211</ele>
        <time>2012-09-14T14:33:53Z</time>
      </trkpt>
      <trkpt lat="47.10273" lon="5.56075">
        <ele>211</ele>
        <time>2012-09-14T14:33:55Z</time>
      </trkpt>
      <trkpt lat="47.10271" lon="5.56056">
        <ele>211</ele>
        <time>2012-09-14T14:33:57Z</time>
      </trkpt>
      <trkpt lat="47.1027" lon="5.56037">
        <ele>211</ele>
        <time>2012-09-14T14:33:59Z</time>
      </trkpt>
      <trkpt lat="47.10267" lon="5.56017">
        <ele>211</ele>
        <time>2012-09-14T14:34:01Z</time>
      </trkpt>
      <trkpt lat="47.10265" lon="5.55997">
        <ele>211</ele>
        <time>2012-09-14T14:34:03Z</time>
      </trkpt>
      <trkpt lat="47.10263" lon="5.55976">
        <ele>217</ele>
        <time>2012-09-14T14:34:05Z</time>
      </trkpt>
      <trkpt lat="47.10263" lon="5.55956">
        <ele>217</ele>
        <time>2012-09-14T14:34:07Z</time>
      </trkpt>
      <trkpt lat="47.10263" lon="5.55936">
        <ele>217</ele>
        <time>2012-09-14T14:34:09Z</time>
      </trkpt>
      <trkpt lat="47.10267" lon="5.55913">
        <ele>217</ele>
        <time>2012-09-14T14:34:11Z</time>
      </trkpt>
      <trkpt lat="47.10271" lon="5.55891">
        <ele>210</ele>
        <time>2012-09-14T14:34:13Z</time>
      </trkpt>
      <trkpt lat="47.10275" lon="5.55871">
        <ele>210</ele>
        <time>2012-09-14T14:34:15Z</time>
      </trkpt>
      <trkpt lat="47.10278" lon="5.55852">
        <ele>210</ele>
        <time>2012-09-14T14:34:17Z</time>
      </trkpt>
      <trkpt lat="47.10278" lon="5.55834">
        <ele>210</ele>
        <time>2012-09-14T14:34:19Z</time>
      </trkpt>
      <trkpt lat="47.10276" lon="5.55815">
        <ele>210</ele>
        <time>2012-09-14T14:34:21Z</time>
      </trkpt>
      <trkpt lat="47.10271" lon="5.55796">
        <ele>210</ele>
        <time>2012-09-14T14:34:23Z</time>
      </trkpt>
      <trkpt lat="47.10266" lon="5.55779">
        <ele>210</ele>
        <time>2012-09-14T14:34:25Z</time>
      </trkpt>
      <trkpt lat="47.10259" lon="5.55763">
        <ele>210</ele>
        <time>2012-09-14T14:34:27Z</time>
      </trkpt>
      <trkpt lat="47.10251" lon="5.55746">
        <ele>210</ele>
        <time>2012-09-14T14:34:29Z</time>
      </trkpt>
      <trkpt lat="47.10242" lon="5.55731">
        <ele>210</ele>
        <time>2012-09-14T14:34:31Z</time>
      </trkpt>
      <trkpt lat="47.10233" lon="5.55717">
        <ele>210</ele>
        <time>2012-09-14T14:34:33Z</time>
      </trkpt>
      <trkpt lat="47.10223" lon="5.55702">
        <ele>210</ele>
        <time>2012-09-14T14:34:35Z</time>
      </trkpt>
      <trkpt lat="47.10213" lon="5.55689">
        <ele>210</ele>
        <time>2012-09-14T14:34:37Z</time>
      </trkpt>
      <trkpt lat="47.10203" lon="5.55675">
        <ele>210</ele>
        <time>2012-09-14T14:34:39Z</time>
      </trkpt>
      <trkpt lat="47.10192" lon="5.55663">
        <ele>210</ele>
        <time>2012-09-14T14:34:41Z</time>
      </trkpt>
      <trkpt lat="47.10181" lon="5.55651">
        <ele>210</ele>
        <time>2012-09-14T14:34:43Z</time>
      </trkpt>
      <trkpt lat="47.10169" lon="5.55641">
        <ele>210</ele>
        <time>2012-09-14T14:34:45Z</time>
      </trkpt>
      <trkpt lat="47.10157" lon="5.55631">
        <ele>210</ele>
        <time>2012-09-14T14:34:47Z</time>
      </trkpt>
      <trkpt lat="47.10144" lon="5.55621">
        <ele>210</ele>
        <time>2012-09-14T14:34:49Z</time>
      </trkpt>
      <trkpt lat="47.10132" lon="5.55612">
        <ele>210</ele>
        <time>2012-09-14T14:34:51Z</time>
      </trkpt>
      <trkpt lat="47.10119" lon="5.55602">
        <ele>210</ele>
        <time>2012-09-14T14:34:53Z</time>
      </trkpt>
      <trkpt lat="47.10108" lon="5.55593">
        <ele>210</ele>
        <time>2012-09-14T14:34:55Z</time>
      </trkpt>
      <trkpt lat="47.10096" lon="5.55584">
        <ele>210</ele>
        <time>2012-09-14T14:34:57Z</time>
      </trkpt>
      <trkpt lat="47.10085" lon="5.55573">
        <ele>210</ele>
        <time>2012-09-14T14:34:59Z</time>
      </trkpt>
      <trkpt lat="47.10075" lon="5.55562">
        <ele>210</ele>
        <time>2012-09-14T14:35:01Z</time>
      </trkpt>
      <trkpt lat="47.10064" lon="5.55551">
        <ele>210</ele>
        <time>2012-09-14T14:35:03Z</time>
      </trkpt>
      <trkpt lat="47.10055" lon="5.5554">
        <ele>210</ele>
        <time>2012-09-14T14:35:05Z</time>
      </trkpt>
      <trkpt lat="47.10047" lon="5.55526">
        <ele>210</ele>
        <time>2012-09-14T14:35:07Z</time>
      </trkpt>
      <trkpt lat="47.10039" lon="5.55514">
        <ele>210</ele>
        <time>2012-09-14T14:35:09Z</time>
      </trkpt>
      <trkpt lat="47.10032" lon="5.555">
        <ele>210</ele>
        <time>2012-09-14T14:35:11Z</time>
      </trkpt>
      <trkpt lat="47.10024" lon="5.55487">
        <ele>210</ele>
        <time>2012-09-14T14:35:13Z</time>
      </trkpt>
      <trkpt lat="47.10018" lon="5.55473">
        <ele>210</ele>
        <time>2012-09-14T14:35:15Z</time>
      </trkpt>
      <trkpt lat="47.1001" lon="5.55458">
        <ele>210</ele>
        <time>2012-09-14T14:35:17Z</time>
      </trkpt>
      <trkpt lat="47.10002" lon="5.55444">
        <ele>210</ele>
        <time>2012-09-14T14:35:19Z</time>
      </trkpt>
      <trkpt lat="47.09995" lon="5.55429">
        <ele>210</ele>
        <time>2012-09-14T14:35:21Z</time>
      </trkpt>
      <trkpt lat="47.09987" lon="5.55414">
        <ele>210</ele>
        <time>2012-09-14T14:35:23Z</time>
      </trkpt>
      <trkpt lat="47.09979" lon="5.55399">
        <ele>210</ele>
        <time>2012-09-14T14:35:25Z</time>
      </trkpt>
      <trkpt lat="47.0997" lon="5.55383">
        <ele>210</ele>
        <time>2012-09-14T14:35:27Z</time>
      </trkpt>
      <trkpt lat="47.09962" lon="5.55369">
        <ele>210</ele>
        <time>2012-09-14T14:35:29Z</time>
      </trkpt>
      <trkpt lat="47.09954" lon="5.55354">
        <ele>210</ele>
        <time>2012-09-14T14:35:31Z</time>
      </trkpt>
      <trkpt lat="47.09946" lon="5.55338">
        <ele>210</ele>
        <time>2012-09-14T14:35:33Z</time>
      </trkpt>
      <trkpt lat="47.09938" lon="5.55321">
        <ele>210</ele>
        <time>2012-09-14T14:35:35Z</time>
      </trkpt>
      <trkpt lat="47.0993" lon="5.55304">
        <ele>210</ele>
        <time>2012-09-14T14:35:37Z</time>
      </trkpt>
      <trkpt lat="47.09922" lon="5.55287">
        <ele>210</ele>
        <time>2012-09-14T14:35:39Z</time>
      </trkpt>
      <trkpt lat="47.09914" lon="5.5527">
        <ele>210</ele>
        <time>2012-09-14T14:35:41Z</time>
      </trkpt>
      <trkpt lat="47.09906" lon="5.55252">
        <ele>210</ele>
        <time>2012-09-14T14:35:43Z</time>
      </trkpt>
      <trkpt lat="47.09899" lon="5.55235">
        <ele>210</ele>
        <time>2012-09-14T14:35:45Z</time>
      </trkpt>
      <trkpt lat="47.09892" lon="5.55217">
        <ele>210</ele>
        <time>2012-09-14T14:35:47Z</time>
      </trkpt>
      <trkpt lat="47.09886" lon="5.55198">
        <ele>210</ele>
        <time>2012-09-14T14:35:49Z</time>
      </trkpt>
      <trkpt lat="47.0988" lon="5.5518">
        <ele>210</ele>
        <time>2012-09-14T14:35:51Z</time>
      </trkpt>
      <trkpt lat="47.09875" lon="5.5516">
        <ele>210</ele>
        <time>2012-09-14T14:35:53Z</time>
      </trkpt>
      <trkpt lat="47.0987" lon="5.55142">
        <ele>210</ele>
        <time>2012-09-14T14:35:55Z</time>
      </trkpt>
      <trkpt lat="47.09867" lon="5.55122">
        <ele>210</ele>
        <time>2012-09-14T14:35:57Z</time>
      </trkpt>
      <trkpt lat="47.09863" lon="5.55104">
        <ele>210</ele>
        <time>2012-09-14T14:35:59Z</time>
      </trkpt>
      <trkpt lat="47.09859" lon="5.55085">
        <ele>210</ele>
        <time>2012-09-14T14:36:01Z</time>
      </trkpt>
      <trkpt lat="47.09856" lon="5.55065">
        <ele>210</ele>
        <time>2012-09-14T14:36:03Z</time>
      </trkpt>
      <trkpt lat="47.09852" lon="5.55047">
        <ele>210</ele>
        <time>2012-09-14T14:36:05Z</time>
      </trkpt>
      <trkpt lat="47.09848" lon="5.55029">
        <ele>210</ele>
        <time>2012-09-14T14:36:07Z</time>
      </trkpt>
      <trkpt lat="47.09844" lon="5.5501">
        <ele>210</ele>
        <time>2012-09-14T14:36:09Z</time>
      </trkpt>
      <trkpt lat="47.0984" lon="5.5499">
        <ele>210</ele>
        <time>2012-09-14T14:36:11Z</time>
      </trkpt>
      <trkpt lat="47.09836" lon="5.54971">
        <ele>210</ele>
        <time>2012-09-14T14:36:13Z</time>
      </trkpt>
      <trkpt lat="47.09832" lon="5.54952">
        <ele>215</ele>
        <time>2012-09-14T14:36:15Z</time>
      </trkpt>
      <trkpt lat="47.09828" lon="5.54934">
        <ele>215</ele>
        <time>2012-09-14T14:36:17Z</time>
      </trkpt>
      <trkpt lat="47.09824" lon="5.54916">
        <ele>215</ele>
        <time>2012-09-14T14:36:19Z</time>
      </trkpt>
      <trkpt lat="47.0982" lon="5.54898">
        <ele>215</ele>
        <time>2012-09-14T14:36:21Z</time>
      </trkpt>
      <trkpt lat="47.09817" lon="5.5488">
        <ele>215</ele>
        <time>2012-09-14T14:36:23Z</time>
      </trkpt>
      <trkpt lat="47.09813" lon="5.54862">
        <ele>215</ele>
        <time>2012-09-14T14:36:25Z</time>
      </trkpt>
      <trkpt lat="47.09809" lon="5.54844">
        <ele>215</ele>
        <time>2012-09-14T14:36:27Z</time>
      </trkpt>
      <trkpt lat="47.09805" lon="5.54827">
        <ele>215</ele>
        <time>2012-09-14T14:36:29Z</time>
      </trkpt>
      <trkpt lat="47.09801" lon="5.54809">
        <ele>215</ele>
        <time>2012-09-14T14:36:31Z</time>
      </trkpt>
      <trkpt lat="47.09797" lon="5.54791">
        <ele>215</ele>
        <time>2012-09-14T14:36:33Z</time>
      </trkpt>
      <trkpt lat="47.09794" lon="5.54773">
        <ele>215</ele>
        <time>2012-09-14T14:36:35Z</time>
      </trkpt>
      <trkpt lat="47.0979" lon="5.54754">
        <ele>215</ele>
        <time>2012-09-14T14:36:37Z</time>
      </trkpt>
      <trkpt lat="47.09786" lon="5.54734">
        <ele>215</ele>
        <time>2012-09-14T14:36:39Z</time>
      </trkpt>
      <trkpt lat="47.09782" lon="5.54714">
        <ele>215</ele>
        <time>2012-09-14T14:36:41Z</time>
      </trkpt>
      <trkpt lat="47.09778" lon="5.54694">
        <ele>215</ele>
        <time>2012-09-14T14:36:43Z</time>
      </trkpt>
      <trkpt lat="47.09775" lon="5.54676">
        <ele>215</ele>
        <time>2012-09-14T14:36:45Z</time>
      </trkpt>
      <trkpt lat="47.09771" lon="5.54657">
        <ele>215</ele>
        <time>2012-09-14T14:36:47Z</time>
      </trkpt>
      <trkpt lat="47.09766" lon="5.54639">
        <ele>215</ele>
        <time>2012-09-14T14:36:49Z</time>
      </trkpt>
      <trkpt lat="47.09761" lon="5.5462">
        <ele>215</ele>
        <time>2012-09-14T14:36:51Z</time>
      </trkpt>
      <trkpt lat="47.09754" lon="5.54603">
        <ele>215</ele>
        <time>2012-09-14T14:36:53Z</time>
      </trkpt>
      <trkpt lat="47.09748" lon="5.54586">
        <ele>215</ele>
        <time>2012-09-14T14:36:55Z</time>
      </trkpt>
      <trkpt lat="47.09742" lon="5.5457">
        <ele>215</ele>
        <time>2012-09-14T14:36:57Z</time>
      </trkpt>
      <trkpt lat="47.09737" lon="5.54553">
        <ele>215</ele>
        <time>2012-09-14T14:36:59Z</time>
      </trkpt>
      <trkpt lat="47.09732" lon="5.54536">
        <ele>215</ele>
        <time>2012-09-14T14:37:01Z</time>
      </trkpt>
      <trkpt lat="47.09726" lon="5.5452">
        <ele>215</ele>
        <time>2012-09-14T14:37:03Z</time>
      </trkpt>
      <trkpt lat="47.09721" lon="5.54503">
        <ele>215</ele>
        <time>2012-09-14T14:37:05Z</time>
      </trkpt>
      <trkpt lat="47.09715" lon="5.54485">
        <ele>215</ele>
        <time>2012-09-14T14:37:07Z</time>
      </trkpt>
      <trkpt lat="47.09711" lon="5.54468">
        <ele>215</ele>
        <time>2012-09-14T14:37:09Z</time>
      </trkpt>
      <trkpt lat="47.09706" lon="5.54452">
        <ele>215</ele>
        <time>2012-09-14T14:37:11Z</time>
      </trkpt>
      <trkpt lat="47.09702" lon="5.54435">
        <ele>215</ele>
        <time>2012-09-14T14:37:13Z</time>
      </trkpt>
      <trkpt lat="47.09697" lon="5.54418">
        <ele>215</ele>
        <time>2012-09-14T14:37:15Z</time>
      </trkpt>
      <trkpt lat="47.09692" lon="5.54402">
        <ele>215</ele>
        <time>2012-09-14T14:37:17Z</time>
      </trkpt>
      <trkpt lat="47.09688" lon="5.54387">
        <ele>215</ele>
        <time>2012-09-14T14:37:19Z</time>
      </trkpt>
      <trkpt lat="47.09683" lon="5.54371">
        <ele>215</ele>
        <time>2012-09-14T14:37:22Z</time>
      </trkpt>
      <trkpt lat="47.09677" lon="5.54356">
        <ele>215</ele>
        <time>2012-09-14T14:37:25Z</time>
      </trkpt>
      <trkpt lat="47.09665" lon="5.54347">
        <ele>215</ele>
        <time>2012-09-14T14:37:28Z</time>
      </trkpt>
      <trkpt lat="47.09655" lon="5.54345">
        <ele>210</ele>
        <time>2012-09-14T14:37:30Z</time>
      </trkpt>
      <trkpt lat="47.09643" lon="5.54344">
        <ele>210</ele>
        <time>2012-09-14T14:37:32Z</time>
      </trkpt>
      <trkpt lat="47.09632" lon="5.54344">
        <ele>210</ele>
        <time>2012-09-14T14:37:34Z</time>
      </trkpt>
      <trkpt lat="47.09619" lon="5.54345">
        <ele>210</ele>
        <time>2012-09-14T14:37:36Z</time>
      </trkpt>
      <trkpt lat="47.09607" lon="5.54345">
        <ele>210</ele>
        <time>2012-09-14T14:37:38Z</time>
      </trkpt>
      <trkpt lat="47.09593" lon="5.54345">
        <ele>210</ele>
        <time>2012-09-14T14:37:40Z</time>
      </trkpt>
      <trkpt lat="47.0958" lon="5.54346">
        <ele>210</ele>
        <time>2012-09-14T14:37:42Z</time>
      </trkpt>
      <trkpt lat="47.09566" lon="5.54346">
        <ele>210</ele>
        <time>2012-09-14T14:37:44Z</time>
      </trkpt>
      <trkpt lat="47.09552" lon="5.54345">
        <ele>210</ele>
        <time>2012-09-14T14:37:46Z</time>
      </trkpt>
      <trkpt lat="47.09538" lon="5.54345">
        <ele>210</ele>
        <time>2012-09-14T14:37:48Z</time>
      </trkpt>
      <trkpt lat="47.09524" lon="5.54346">
        <ele>210</ele>
        <time>2012-09-14T14:37:50Z</time>
      </trkpt>
      <trkpt lat="47.09511" lon="5.54346">
        <ele>210</ele>
        <time>2012-09-14T14:37:52Z</time>
      </trkpt>
      <trkpt lat="47.09498" lon="5.54346">
        <ele>210</ele>
        <time>2012-09-14T14:37:54Z</time>
      </trkpt>
      <trkpt lat="47.09485" lon="5.54346">
        <ele>210</ele>
        <time>2012-09-14T14:37:56Z</time>
      </trkpt>
      <trkpt lat="47.09472" lon="5.54346">
        <ele>210</ele>
        <time>2012-09-14T14:37:58Z</time>
      </trkpt>
      <trkpt lat="47.09459" lon="5.54346">
        <ele>210</ele>
        <time>2012-09-14T14:38:00Z</time>
      </trkpt>
      <trkpt lat="47.09446" lon="5.54347">
        <ele>210</ele>
        <time>2012-09-14T14:38:02Z</time>
      </trkpt>
      <trkpt lat="47.09434" lon="5.54347">
        <ele>210</ele>
        <time>2012-09-14T14:38:04Z</time>
      </trkpt>
      <trkpt lat="47.09421" lon="5.54347">
        <ele>210</ele>
        <time>2012-09-14T14:38:06Z</time>
      </trkpt>
      <trkpt lat="47.0941" lon="5.54347">
        <ele>210</ele>
        <time>2012-09-14T14:38:08Z</time>
      </trkpt>
      <trkpt lat="47.09399" lon="5.54347">
        <ele>210</ele>
        <time>2012-09-14T14:38:10Z</time>
      </trkpt>
      <trkpt lat="47.09388" lon="5.54347">
        <ele>210</ele>
        <time>2012-09-14T14:38:12Z</time>
      </trkpt>
      <trkpt lat="47.09376" lon="5.54347">
        <ele>210</ele>
        <time>2012-09-14T14:38:14Z</time>
      </trkpt>
      <trkpt lat="47.09365" lon="5.54348">
        <ele>210</ele>
        <time>2012-09-14T14:38:16Z</time>
      </trkpt>
      <trkpt lat="47.09353" lon="5.54349">
        <ele>210</ele>
        <time>2012-09-14T14:38:18Z</time>
      </trkpt>
      <trkpt lat="47.09341" lon="5.5435">
        <ele>210</ele>
        <time>2012-09-14T14:38:20Z</time>
      </trkpt>
      <trkpt lat="47.09329" lon="5.54353">
        <ele>210</ele>
        <time>2012-09-14T14:38:22Z</time>
      </trkpt>
      <trkpt lat="47.09316" lon="5.54357">
        <ele>210</ele>
        <time>2012-09-14T14:38:24Z</time>
      </trkpt>
      <trkpt lat="47.09304" lon="5.5436">
        <ele>210</ele>
        <time>2012-09-14T14:38:26Z</time>
      </trkpt>
      <trkpt lat="47.09291" lon="5.54366">
        <ele>210</ele>
        <time>2012-09-14T14:38:28Z</time>
      </trkpt>
      <trkpt lat="47.09278" lon="5.5437">
        <ele>210</ele>
        <time>2012-09-14T14:38:30Z</time>
      </trkpt>
      <trkpt lat="47.09265" lon="5.54376">
        <ele>210</ele>
        <time>2012-09-14T14:38:32Z</time>
      </trkpt>
      <trkpt lat="47.09253" lon="5.54384">
        <ele>210</ele>
        <time>2012-09-14T14:38:34Z</time>
      </trkpt>
      <trkpt lat="47.0924" lon="5.54391">
        <ele>210</ele>
        <time>2012-09-14T14:38:36Z</time>
      </trkpt>
      <trkpt lat="47.09229" lon="5.544">
        <ele>210</ele>
        <time>2012-09-14T14:38:38Z</time>
      </trkpt>
      <trkpt lat="47.09217" lon="5.54408">
        <ele>210</ele>
        <time>2012-09-14T14:38:40Z</time>
      </trkpt>
      <trkpt lat="47.09205" lon="5.54418">
        <ele>210</ele>
        <time>2012-09-14T14:38:42Z</time>
      </trkpt>
      <trkpt lat="47.09195" lon="5.54427">
        <ele>210</ele>
        <time>2012-09-14T14:38:44Z</time>
      </trkpt>
      <trkpt lat="47.09184" lon="5.54436">
        <ele>205</ele>
        <time>2012-09-14T14:38:46Z</time>
      </trkpt>
      <trkpt lat="47.09173" lon="5.54444">
        <ele>205</ele>
        <time>2012-09-14T14:38:48Z</time>
      </trkpt>
      <trkpt lat="47.09162" lon="5.54454">
        <ele>205</ele>
        <time>2012-09-14T14:38:50Z</time>
      </trkpt>
      <trkpt lat="47.0915" lon="5.54463">
        <ele>205</ele>
        <time>2012-09-14T14:38:52Z</time>
      </trkpt>
      <trkpt lat="47.09139" lon="5.54472">
        <ele>205</ele>
        <time>2012-09-14T14:38:54Z</time>
      </trkpt>
      <trkpt lat="47.09127" lon="5.54481">
        <ele>205</ele>
        <time>2012-09-14T14:38:56Z</time>
      </trkpt>
      <trkpt lat="47.09115" lon="5.54488">
        <ele>205</ele>
        <time>2012-09-14T14:38:58Z</time>
      </trkpt>
      <trkpt lat="47.09103" lon="5.54496">
        <ele>205</ele>
        <time>2012-09-14T14:39:00Z</time>
      </trkpt>
      <trkpt lat="47.09091" lon="5.54502">
        <ele>205</ele>
        <time>2012-09-14T14:39:02Z</time>
      </trkpt>
      <trkpt lat="47.09078" lon="5.54509">
        <ele>205</ele>
        <time>2012-09-14T14:39:04Z</time>
      </trkpt>
      <trkpt lat="47.09065" lon="5.54514">
        <ele>205</ele>
        <time>2012-09-14T14:39:06Z</time>
      </trkpt>
      <trkpt lat="47.09052" lon="5.54519">
        <ele>205</ele>
        <time>2012-09-14T14:39:08Z</time>
      </trkpt>
      <trkpt lat="47.09038" lon="5.54523">
        <ele>205</ele>
        <time>2012-09-14T14:39:10Z</time>
      </trkpt>
      <trkpt lat="47.09024" lon="5.54527">
        <ele>205</ele>
        <time>2012-09-14T14:39:12Z</time>
      </trkpt>
      <trkpt lat="47.09011" lon="5.54531">
        <ele>205</ele>
        <time>2012-09-14T14:39:14Z</time>
      </trkpt>
      <trkpt lat="47.08997" lon="5.54535">
        <ele>205</ele>
        <time>2012-09-14T14:39:16Z</time>
      </trkpt>
      <trkpt lat="47.08984" lon="5.54541">
        <ele>205</ele>
        <time>2012-09-14T14:39:18Z</time>
      </trkpt>
      <trkpt lat="47.08973" lon="5.54548">
        <ele>205</ele>
        <time>2012-09-14T14:39:20Z</time>
      </trkpt>
      <trkpt lat="47.08962" lon="5.54559">
        <ele>205</ele>
        <time>2012-09-14T14:39:22Z</time>
      </trkpt>
      <trkpt lat="47.08953" lon="5.5457">
        <ele>205</ele>
        <time>2012-09-14T14:39:24Z</time>
      </trkpt>
      <trkpt lat="47.08945" lon="5.54579">
        <ele>205</ele>
        <time>2012-09-14T14:39:26Z</time>
      </trkpt>
      <trkpt lat="47.08934" lon="5.54583">
        <ele>205</ele>
        <time>2012-09-14T14:39:28Z</time>
      </trkpt>
      <trkpt lat="47.08923" lon="5.54581">
        <ele>205</ele>
        <time>2012-09-14T14:39:30Z</time>
      </trkpt>
      <trkpt lat="47.08912" lon="5.54575">
        <ele>205</ele>
        <time>2012-09-14T14:39:32Z</time>
      </trkpt>
      <trkpt lat="47.08901" lon="5.54567">
        <ele>205</ele>
        <time>2012-09-14T14:39:34Z</time>
      </trkpt>
      <trkpt lat="47.08892" lon="5.54561">
        <ele>205</ele>
        <time>2012-09-14T14:39:36Z</time>
      </trkpt>
      <trkpt lat="47.08881" lon="5.54553">
        <ele>210</ele>
        <time>2012-09-14T14:39:38Z</time>
      </trkpt>
      <trkpt lat="47.08871" lon="5.54546">
        <ele>210</ele>
        <time>2012-09-14T14:39:40Z</time>
      </trkpt>
      <trkpt lat="47.08861" lon="5.5454">
        <ele>210</ele>
        <time>2012-09-14T14:39:42Z</time>
      </trkpt>
      <trkpt lat="47.0885" lon="5.54534">
        <ele>210</ele>
        <time>2012-09-14T14:39:44Z</time>
      </trkpt>
      <trkpt lat="47.0884" lon="5.54527">
        <ele>210</ele>
        <time>2012-09-14T14:39:46Z</time>
      </trkpt>
      <trkpt lat="47.08829" lon="5.54522">
        <ele>210</ele>
        <time>2012-09-14T14:39:48Z</time>
      </trkpt>
      <trkpt lat="47.08818" lon="5.54517">
        <ele>210</ele>
        <time>2012-09-14T14:39:50Z</time>
      </trkpt>
      <trkpt lat="47.08807" lon="5.54514">
        <ele>210</ele>
        <time>2012-09-14T14:39:52Z</time>
      </trkpt>
      <trkpt lat="47.08795" lon="5.54512">
        <ele>210</ele>
        <time>2012-09-14T14:39:54Z</time>
      </trkpt>
      <trkpt lat="47.08784" lon="5.5451">
        <ele>210</ele>
        <time>2012-09-14T14:39:56Z</time>
      </trkpt>
      <trkpt lat="47.08772" lon="5.54509">
        <ele>210</ele>
        <time>2012-09-14T14:39:58Z</time>
      </trkpt>
      <trkpt lat="47.08761" lon="5.54504">
        <ele>210</ele>
        <time>2012-09-14T14:40:00Z</time>
      </trkpt>
      <trkpt lat="47.08749" lon="5.54498">
        <ele>210</ele>
        <time>2012-09-14T14:40:02Z</time>
      </trkpt>
      <trkpt lat="47.08722" lon="5.54472">
        <ele>210</ele>
        <time>2012-09-14T14:40:07Z</time>
      </trkpt>
      <trkpt lat="47.08711" lon="5.54461">
        <ele>210</ele>
        <time>2012-09-14T14:40:09Z</time>
      </trkpt>
      <trkpt lat="47.087" lon="5.54452">
        <ele>210</ele>
        <time>2012-09-14T14:40:11Z</time>
      </trkpt>
      <trkpt lat="47.08688" lon="5.54442">
        <ele>210</ele>
        <time>2012-09-14T14:40:13Z</time>
      </trkpt>
      <trkpt lat="47.08676" lon="5.54436">
        <ele>210</ele>
        <time>2012-09-14T14:40:15Z</time>
      </trkpt>
      <trkpt lat="47.08662" lon="5.54429">
        <ele>210</ele>
        <time>2012-09-14T14:40:17Z</time>
      </trkpt>
      <trkpt lat="47.08648" lon="5.54423">
        <ele>210</ele>
        <time>2012-09-14T14:40:19Z</time>
      </trkpt>
      <trkpt lat="47.08634" lon="5.5442">
        <ele>210</ele>
        <time>2012-09-14T14:40:21Z</time>
      </trkpt>
      <trkpt lat="47.0862" lon="5.54416">
        <ele>210</ele>
        <time>2012-09-14T14:40:23Z</time>
      </trkpt>
      <trkpt lat="47.08606" lon="5.54413">
        <ele>210</ele>
        <time>2012-09-14T14:40:25Z</time>
      </trkpt>
      <trkpt lat="47.08594" lon="5.54413">
        <ele>210</ele>
        <time>2012-09-14T14:40:27Z</time>
      </trkpt>
      <trkpt lat="47.0858" lon="5.5441">
        <ele>210</ele>
        <time>2012-09-14T14:40:29Z</time>
      </trkpt>
      <trkpt lat="47.08567" lon="5.54404">
        <ele>210</ele>
        <time>2012-09-14T14:40:31Z</time>
      </trkpt>
      <trkpt lat="47.08554" lon="5.54397">
        <ele>210</ele>
        <time>2012-09-14T14:40:33Z</time>
      </trkpt>
      <trkpt lat="47.08541" lon="5.54389">
        <ele>210</ele>
        <time>2012-09-14T14:40:35Z</time>
      </trkpt>
      <trkpt lat="47.08529" lon="5.54381">
        <ele>210</ele>
        <time>2012-09-14T14:40:37Z</time>
      </trkpt>
      <trkpt lat="47.08518" lon="5.54374">
        <ele>210</ele>
        <time>2012-09-14T14:40:39Z</time>
      </trkpt>
      <trkpt lat="47.08505" lon="5.54365">
        <ele>210</ele>
        <time>2012-09-14T14:40:41Z</time>
      </trkpt>
      <trkpt lat="47.08493" lon="5.54356">
        <ele>210</ele>
        <time>2012-09-14T14:40:43Z</time>
      </trkpt>
      <trkpt lat="47.08481" lon="5.54347">
        <ele>210</ele>
        <time>2012-09-14T14:40:45Z</time>
      </trkpt>
      <trkpt lat="47.08468" lon="5.54339">
        <ele>210</ele>
        <time>2012-09-14T14:40:47Z</time>
      </trkpt>
      <trkpt lat="47.08456" lon="5.54331">
        <ele>210</ele>
        <time>2012-09-14T14:40:49Z</time>
      </trkpt>
      <trkpt lat="47.08443" lon="5.54321">
        <ele>210</ele>
        <time>2012-09-14T14:40:51Z</time>
      </trkpt>
      <trkpt lat="47.0843" lon="5.54311">
        <ele>210</ele>
        <time>2012-09-14T14:40:53Z</time>
      </trkpt>
      <trkpt lat="47.08418" lon="5.54299">
        <ele>210</ele>
        <time>2012-09-14T14:40:55Z</time>
      </trkpt>
      <trkpt lat="47.08408" lon="5.54285">
        <ele>210</ele>
        <time>2012-09-14T14:40:57Z</time>
      </trkpt>
      <trkpt lat="47.084" lon="5.5427">
        <ele>210</ele>
        <time>2012-09-14T14:40:59Z</time>
      </trkpt>
      <trkpt lat="47.08392" lon="5.54255">
        <ele>210</ele>
        <time>2012-09-14T14:41:01Z</time>
      </trkpt>
      <trkpt lat="47.08386" lon="5.54236">
        <ele>210</ele>
        <time>2012-09-14T14:41:03Z</time>
      </trkpt>
      <trkpt lat="47.08379" lon="5.54221">
        <ele>210</ele>
        <time>2012-09-14T14:41:05Z</time>
      </trkpt>
      <trkpt lat="47.08375" lon="5.54206">
        <ele>216</ele>
        <time>2012-09-14T14:41:07Z</time>
      </trkpt>
      <trkpt lat="47.08368" lon="5.54189">
        <ele>216</ele>
        <time>2012-09-14T14:41:09Z</time>
      </trkpt>
      <trkpt lat="47.08363" lon="5.54172">
        <ele>216</ele>
        <time>2012-09-14T14:41:11Z</time>
      </trkpt>
      <trkpt lat="47.0836" lon="5.54154">
        <ele>216</ele>
        <time>2012-09-14T14:41:13Z</time>
      </trkpt>
      <trkpt lat="47.08357" lon="5.54137">
        <ele>225</ele>
        <time>2012-09-14T14:41:15Z</time>
      </trkpt>
      <trkpt lat="47.08351" lon="5.54123">
        <ele>225</ele>
        <time>2012-09-14T14:41:17Z</time>
      </trkpt>
      <trkpt lat="47.08347" lon="5.54106">
        <ele>230</ele>
        <time>2012-09-14T14:41:19Z</time>
      </trkpt>
      <trkpt lat="47.08342" lon="5.54091">
        <ele>230</ele>
        <time>2012-09-14T14:41:21Z</time>
      </trkpt>
      <trkpt lat="47.08337" lon="5.54076">
        <ele>239</ele>
        <time>2012-09-14T14:41:23Z</time>
      </trkpt>
      <trkpt lat="47.08332" lon="5.54062">
        <ele>239</ele>
        <time>2012-09-14T14:41:25Z</time>
      </trkpt>
      <trkpt lat="47.08325" lon="5.54045">
        <ele>246</ele>
        <time>2012-09-14T14:41:27Z</time>
      </trkpt>
      <trkpt lat="47.08325" lon="5.54028">
        <ele>246</ele>
        <time>2012-09-14T14:41:29Z</time>
      </trkpt>
      <trkpt lat="47.08322" lon="5.54009">
        <ele>252</ele>
        <time>2012-09-14T14:41:31Z</time>
      </trkpt>
      <trkpt lat="47.08321" lon="5.53988">
        <ele>252</ele>
        <time>2012-09-14T14:41:33Z</time>
      </trkpt>
      <trkpt lat="47.08319" lon="5.5397">
        <ele>252</ele>
        <time>2012-09-14T14:41:35Z</time>
      </trkpt>
      <trkpt lat="47.08319" lon="5.53948">
        <ele>252</ele>
        <time>2012-09-14T14:41:37Z</time>
      </trkpt>
      <trkpt lat="47.08321" lon="5.53927">
        <ele>252</ele>
        <time>2012-09-14T14:41:39Z</time>
      </trkpt>
      <trkpt lat="47.08324" lon="5.53908">
        <ele>259</ele>
        <time>2012-09-14T14:41:41Z</time>
      </trkpt>
      <trkpt lat="47.08327" lon="5.53888">
        <ele>259</ele>
        <time>2012-09-14T14:41:43Z</time>
      </trkpt>
      <trkpt lat="47.08336" lon="5.53871">
        <ele>259</ele>
        <time>2012-09-14T14:41:45Z</time>
      </trkpt>
      <trkpt lat="47.08346" lon="5.53856">
        <ele>259</ele>
        <time>2012-09-14T14:41:47Z</time>
      </trkpt>
      <trkpt lat="47.08357" lon="5.5384">
        <ele>254</ele>
        <time>2012-09-14T14:41:49Z</time>
      </trkpt>
      <trkpt lat="47.08366" lon="5.53825">
        <ele>254</ele>
        <time>2012-09-14T14:41:51Z</time>
      </trkpt>
      <trkpt lat="47.08375" lon="5.53807">
        <ele>254</ele>
        <time>2012-09-14T14:41:53Z</time>
      </trkpt>
      <trkpt lat="47.08378" lon="5.53787">
        <ele>254</ele>
        <time>2012-09-14T14:41:55Z</time>
      </trkpt>
      <trkpt lat="47.08381" lon="5.53768">
        <ele>254</ele>
        <time>2012-09-14T14:41:57Z</time>
      </trkpt>
      <trkpt lat="47.08381" lon="5.53749">
        <ele>243</ele>
        <time>2012-09-14T14:41:59Z</time>
      </trkpt>
      <trkpt lat="47.08379" lon="5.53728">
        <ele>243</ele>
        <time>2012-09-14T14:42:01Z</time>
      </trkpt>
      <trkpt lat="47.08376" lon="5.53707">
        <ele>236</ele>
        <time>2012-09-14T14:42:03Z</time>
      </trkpt>
      <trkpt lat="47.08373" lon="5.5369">
        <ele>236</ele>
        <time>2012-09-14T14:42:05Z</time>
      </trkpt>
      <trkpt lat="47.0837" lon="5.53671">
        <ele>236</ele>
        <time>2012-09-14T14:42:07Z</time>
      </trkpt>
      <trkpt lat="47.08368" lon="5.53651">
        <ele>236</ele>
        <time>2012-09-14T14:42:09Z</time>
      </trkpt>
      <trkpt lat="47.08366" lon="5.5363">
        <ele>236</ele>
        <time>2012-09-14T14:42:11Z</time>
      </trkpt>
      <trkpt lat="47.08363" lon="5.53611">
        <ele>236</ele>
        <time>2012-09-14T14:42:13Z</time>
      </trkpt>
      <trkpt lat="47.08359" lon="5.53594">
        <ele>236</ele>
        <time>2012-09-14T14:42:15Z</time>
      </trkpt>
      <trkpt lat="47.08353" lon="5.53578">
        <ele>236</ele>
        <time>2012-09-14T14:42:17Z</time>
      </trkpt>
      <trkpt lat="47.08348" lon="5.53561">
        <ele>236</ele>
        <time>2012-09-14T14:42:19Z</time>
      </trkpt>
      <trkpt lat="47.08342" lon="5.53543">
        <ele>236</ele>
        <time>2012-09-14T14:42:21Z</time>
      </trkpt>
      <trkpt lat="47.08335" lon="5.53527">
        <ele>236</ele>
        <time>2012-09-14T14:42:23Z</time>
      </trkpt>
      <trkpt lat="47.0833" lon="5.5351">
        <ele>236</ele>
        <time>2012-09-14T14:42:25Z</time>
      </trkpt>
      <trkpt lat="47.08325" lon="5.53492">
        <ele>231</ele>
        <time>2012-09-14T14:42:27Z</time>
      </trkpt>
      <trkpt lat="47.08321" lon="5.53475">
        <ele>231</ele>
        <time>2012-09-14T14:42:29Z</time>
      </trkpt>
      <trkpt lat="47.08315" lon="5.53457">
        <ele>231</ele>
        <time>2012-09-14T14:42:31Z</time>
      </trkpt>
      <trkpt lat="47.08313" lon="5.53439">
        <ele>231</ele>
        <time>2012-09-14T14:42:33Z</time>
      </trkpt>
      <trkpt lat="47.08313" lon="5.53418">
        <ele>231</ele>
        <time>2012-09-14T14:42:35Z</time>
      </trkpt>
      <trkpt lat="47.08314" lon="5.53396">
        <ele>231</ele>
        <time>2012-09-14T14:42:37Z</time>
      </trkpt>
      <trkpt lat="47.08316" lon="5.53373">
        <ele>221</ele>
        <time>2012-09-14T14:42:39Z</time>
      </trkpt>
      <trkpt lat="47.08318" lon="5.53351">
        <ele>221</ele>
        <time>2012-09-14T14:42:41Z</time>
      </trkpt>
      <trkpt lat="47.08321" lon="5.53329">
        <ele>214</ele>
        <time>2012-09-14T14:42:43Z</time>
      </trkpt>
      <trkpt lat="47.08324" lon="5.53308">
        <ele>214</ele>
        <time>2012-09-14T14:42:45Z</time>
      </trkpt>
      <trkpt lat="47.08327" lon="5.53289">
        <ele>214</ele>
        <time>2012-09-14T14:42:47Z</time>
      </trkpt>
      <trkpt lat="47.08328" lon="5.53269">
        <ele>214</ele>
        <time>2012-09-14T14:42:49Z</time>
      </trkpt>
      <trkpt lat="47.08328" lon="5.5325">
        <ele>214</ele>
        <time>2012-09-14T14:42:51Z</time>
      </trkpt>
      <trkpt lat="47.08325" lon="5.53232">
        <ele>214</ele>
        <time>2012-09-14T14:42:53Z</time>
      </trkpt>
      <trkpt lat="47.08321" lon="5.53215">
        <ele>214</ele>
        <time>2012-09-14T14:42:55Z</time>
      </trkpt>
      <trkpt lat="47.08315" lon="5.53197">
        <ele>214</ele>
        <time>2012-09-14T14:42:57Z</time>
      </trkpt>
      <trkpt lat="47.0831" lon="5.53179">
        <ele>214</ele>
        <time>2012-09-14T14:42:59Z</time>
      </trkpt>
      <trkpt lat="47.08305" lon="5.53161">
        <ele>214</ele>
        <time>2012-09-14T14:43:01Z</time>
      </trkpt>
      <trkpt lat="47.08299" lon="5.53144">
        <ele>214</ele>
        <time>2012-09-14T14:43:03Z</time>
      </trkpt>
      <trkpt lat="47.08293" lon="5.53125">
        <ele>214</ele>
        <time>2012-09-14T14:43:05Z</time>
      </trkpt>
      <trkpt lat="47.08287" lon="5.53107">
        <ele>214</ele>
        <time>2012-09-14T14:43:07Z</time>
      </trkpt>
      <trkpt lat="47.08282" lon="5.5309">
        <ele>214</ele>
        <time>2012-09-14T14:43:09Z</time>
      </trkpt>
      <trkpt lat="47.08276" lon="5.53073">
        <ele>214</ele>
        <time>2012-09-14T14:43:11Z</time>
      </trkpt>
      <trkpt lat="47.0827" lon="5.53056">
        <ele>214</ele>
        <time>2012-09-14T14:43:13Z</time>
      </trkpt>
      <trkpt lat="47.08263" lon="5.5304">
        <ele>214</ele>
        <time>2012-09-14T14:43:15Z</time>
      </trkpt>
      <trkpt lat="47.08258" lon="5.53023">
        <ele>208</ele>
        <time>2012-09-14T14:43:17Z</time>
      </trkpt>
      <trkpt lat="47.08253" lon="5.53006">
        <ele>208</ele>
        <time>2012-09-14T14:43:19Z</time>
      </trkpt>
      <trkpt lat="47.08249" lon="5.52989">
        <ele>208</ele>
        <time>2012-09-14T14:43:21Z</time>
      </trkpt>
      <trkpt lat="47.08246" lon="5.52972">
        <ele>208</ele>
        <time>2012-09-14T14:43:23Z</time>
      </trkpt>
      <trkpt lat="47.08244" lon="5.52955">
        <ele>208</ele>
        <time>2012-09-14T14:43:25Z</time>
      </trkpt>
      <trkpt lat="47.08243" lon="5.52936">
        <ele>208</ele>
        <time>2012-09-14T14:43:27Z</time>
      </trkpt>
      <trkpt lat="47.08242" lon="5.52917">
        <ele>208</ele>
        <time>2012-09-14T14:43:29Z</time>
      </trkpt>
      <trkpt lat="47.08241" lon="5.52897">
        <ele>208</ele>
        <time>2012-09-14T14:43:31Z</time>
      </trkpt>
      <trkpt lat="47.0824" lon="5.52876">
        <ele>214</ele>
        <time>2012-09-14T14:43:33Z</time>
      </trkpt>
      <trkpt lat="47.08237" lon="5.52857">
        <ele>214</ele>
        <time>2012-09-14T14:43:35Z</time>
      </trkpt>
      <trkpt lat="47.08232" lon="5.5284">
        <ele>214</ele>
        <time>2012-09-14T14:43:37Z</time>
      </trkpt>
      <trkpt lat="47.08227" lon="5.52823">
        <ele>214</ele>
        <time>2012-09-14T14:43:39Z</time>
      </trkpt>
      <trkpt lat="47.08222" lon="5.52804">
        <ele>214</ele>
        <time>2012-09-14T14:43:41Z</time>
      </trkpt>
      <trkpt lat="47.08217" lon="5.52787">
        <ele>214</ele>
        <time>2012-09-14T14:43:43Z</time>
      </trkpt>
      <trkpt lat="47.08209" lon="5.5277">
        <ele>214</ele>
        <time>2012-09-14T14:43:45Z</time>
      </trkpt>
      <trkpt lat="47.082" lon="5.52754">
        <ele>214</ele>
        <time>2012-09-14T14:43:47Z</time>
      </trkpt>
      <trkpt lat="47.08192" lon="5.5274">
        <ele>214</ele>
        <time>2012-09-14T14:43:49Z</time>
      </trkpt>
      <trkpt lat="47.08184" lon="5.52723">
        <ele>214</ele>
        <time>2012-09-14T14:43:51Z</time>
      </trkpt>
      <trkpt lat="47.08175" lon="5.52706">
        <ele>214</ele>
        <time>2012-09-14T14:43:53Z</time>
      </trkpt>
      <trkpt lat="47.08167" lon="5.5269">
        <ele>214</ele>
        <time>2012-09-14T14:43:55Z</time>
      </trkpt>
      <trkpt lat="47.08159" lon="5.52673">
        <ele>214</ele>
        <time>2012-09-14T14:43:57Z</time>
      </trkpt>
      <trkpt lat="47.08152" lon="5.52654">
        <ele>214</ele>
        <time>2012-09-14T14:43:59Z</time>
      </trkpt>
      <trkpt lat="47.08144" lon="5.52637">
        <ele>214</ele>
        <time>2012-09-14T14:44:01Z</time>
      </trkpt>
      <trkpt lat="47.08136" lon="5.52621">
        <ele>214</ele>
        <time>2012-09-14T14:44:03Z</time>
      </trkpt>
      <trkpt lat="47.08127" lon="5.52605">
        <ele>214</ele>
        <time>2012-09-14T14:44:05Z</time>
      </trkpt>
      <trkpt lat="47.0812" lon="5.52588">
        <ele>214</ele>
        <time>2012-09-14T14:44:07Z</time>
      </trkpt>
      <trkpt lat="47.08113" lon="5.5257">
        <ele>214</ele>
        <time>2012-09-14T14:44:09Z</time>
      </trkpt>
      <trkpt lat="47.08105" lon="5.52552">
        <ele>214</ele>
        <time>2012-09-14T14:44:11Z</time>
      </trkpt>
      <trkpt lat="47.08097" lon="5.52535">
        <ele>214</ele>
        <time>2012-09-14T14:44:13Z</time>
      </trkpt>
      <trkpt lat="47.08089" lon="5.52518">
        <ele>214</ele>
        <time>2012-09-14T14:44:15Z</time>
      </trkpt>
      <trkpt lat="47.08081" lon="5.52501">
        <ele>214</ele>
        <time>2012-09-14T14:44:17Z</time>
      </trkpt>
      <trkpt lat="47.08073" lon="5.52485">
        <ele>214</ele>
        <time>2012-09-14T14:44:19Z</time>
      </trkpt>
      <trkpt lat="47.08065" lon="5.52468">
        <ele>214</ele>
        <time>2012-09-14T14:44:21Z</time>
      </trkpt>
      <trkpt lat="47.08057" lon="5.5245">
        <ele>214</ele>
        <time>2012-09-14T14:44:23Z</time>
      </trkpt>
      <trkpt lat="47.08049" lon="5.52433">
        <ele>209</ele>
        <time>2012-09-14T14:44:25Z</time>
      </trkpt>
      <trkpt lat="47.0804" lon="5.52415">
        <ele>209</ele>
        <time>2012-09-14T14:44:27Z</time>
      </trkpt>
      <trkpt lat="47.08032" lon="5.52397">
        <ele>209</ele>
        <time>2012-09-14T14:44:29Z</time>
      </trkpt>
      <trkpt lat="47.08024" lon="5.5238">
        <ele>209</ele>
        <time>2012-09-14T14:44:31Z</time>
      </trkpt>
      <trkpt lat="47.08016" lon="5.52364">
        <ele>209</ele>
        <time>2012-09-14T14:44:33Z</time>
      </trkpt>
      <trkpt lat="47.08006" lon="5.52348">
        <ele>209</ele>
        <time>2012-09-14T14:44:35Z</time>
      </trkpt>
      <trkpt lat="47.07997" lon="5.52333">
        <ele>209</ele>
        <time>2012-09-14T14:44:37Z</time>
      </trkpt>
      <trkpt lat="47.07987" lon="5.52318">
        <ele>209</ele>
        <time>2012-09-14T14:44:39Z</time>
      </trkpt>
      <trkpt lat="47.07978" lon="5.52305">
        <ele>209</ele>
        <time>2012-09-14T14:44:41Z</time>
      </trkpt>
      <trkpt lat="47.07969" lon="5.52292">
        <ele>209</ele>
        <time>2012-09-14T14:44:43Z</time>
      </trkpt>
      <trkpt lat="47.07959" lon="5.52278">
        <ele>209</ele>
        <time>2012-09-14T14:44:45Z</time>
      </trkpt>
      <trkpt lat="47.07949" lon="5.52261">
        <ele>209</ele>
        <time>2012-09-14T14:44:47Z</time>
      </trkpt>
      <trkpt lat="47.07939" lon="5.52244">
        <ele>209</ele>
        <time>2012-09-14T14:44:49Z</time>
      </trkpt>
      <trkpt lat="47.0793" lon="5.52228">
        <ele>209</ele>
        <time>2012-09-14T14:44:51Z</time>
      </trkpt>
      <trkpt lat="47.07922" lon="5.52207">
        <ele>209</ele>
        <time>2012-09-14T14:44:53Z</time>
      </trkpt>
      <trkpt lat="47.07914" lon="5.52188">
        <ele>215</ele>
        <time>2012-09-14T14:44:55Z</time>
      </trkpt>
      <trkpt lat="47.07909" lon="5.5217">
        <ele>215</ele>
        <time>2012-09-14T14:44:57Z</time>
      </trkpt>
      <trkpt lat="47.07906" lon="5.52151">
        <ele>215</ele>
        <time>2012-09-14T14:44:59Z</time>
      </trkpt>
      <trkpt lat="47.07904" lon="5.5213">
        <ele>215</ele>
        <time>2012-09-14T14:45:01Z</time>
      </trkpt>
      <trkpt lat="47.07903" lon="5.52107">
        <ele>215</ele>
        <time>2012-09-14T14:45:03Z</time>
      </trkpt>
      <trkpt lat="47.07906" lon="5.52085">
        <ele>215</ele>
        <time>2012-09-14T14:45:05Z</time>
      </trkpt>
      <trkpt lat="47.07906" lon="5.52063">
        <ele>215</ele>
        <time>2012-09-14T14:45:07Z</time>
      </trkpt>
      <trkpt lat="47.07906" lon="5.52043">
        <ele>215</ele>
        <time>2012-09-14T14:45:09Z</time>
      </trkpt>
      <trkpt lat="47.07905" lon="5.52022">
        <ele>215</ele>
        <time>2012-09-14T14:45:11Z</time>
      </trkpt>
      <trkpt lat="47.07905" lon="5.52">
        <ele>215</ele>
        <time>2012-09-14T14:45:13Z</time>
      </trkpt>
      <trkpt lat="47.07905" lon="5.51978">
        <ele>215</ele>
        <time>2012-09-14T14:45:15Z</time>
      </trkpt>
      <trkpt lat="47.07904" lon="5.51956">
        <ele>215</ele>
        <time>2012-09-14T14:45:17Z</time>
      </trkpt>
      <trkpt lat="47.07903" lon="5.51937">
        <ele>215</ele>
        <time>2012-09-14T14:45:19Z</time>
      </trkpt>
      <trkpt lat="47.07901" lon="5.51917">
        <ele>215</ele>
        <time>2012-09-14T14:45:21Z</time>
      </trkpt>
      <trkpt lat="47.079" lon="5.51897">
        <ele>215</ele>
        <time>2012-09-14T14:45:23Z</time>
      </trkpt>
      <trkpt lat="47.07899" lon="5.51876">
        <ele>209</ele>
        <time>2012-09-14T14:45:25Z</time>
      </trkpt>
      <trkpt lat="47.07897" lon="5.51857">
        <ele>209</ele>
        <time>2012-09-14T14:45:27Z</time>
      </trkpt>
      <trkpt lat="47.07896" lon="5.51838">
        <ele>209</ele>
        <time>2012-09-14T14:45:29Z</time>
      </trkpt>
      <trkpt lat="47.07895" lon="5.5182">
        <ele>209</ele>
        <time>2012-09-14T14:45:31Z</time>
      </trkpt>
      <trkpt lat="47.07896" lon="5.518">
        <ele>209</ele>
        <time>2012-09-14T14:45:33Z</time>
      </trkpt>
      <trkpt lat="47.07898" lon="5.51779">
        <ele>209</ele>
        <time>2012-09-14T14:45:35Z</time>
      </trkpt>
      <trkpt lat="47.07903" lon="5.5176">
        <ele>209</ele>
        <time>2012-09-14T14:45:37Z</time>
      </trkpt>
      <trkpt lat="47.07908" lon="5.51741">
        <ele>209</ele>
        <time>2012-09-14T14:45:39Z</time>
      </trkpt>
      <trkpt lat="47.07913" lon="5.51722">
        <ele>209</ele>
        <time>2012-09-14T14:45:41Z</time>
      </trkpt>
      <trkpt lat="47.0792" lon="5.51704">
        <ele>209</ele>
        <time>2012-09-14T14:45:43Z</time>
      </trkpt>
      <trkpt lat="47.07927" lon="5.51687">
        <ele>209</ele>
        <time>2012-09-14T14:45:45Z</time>
      </trkpt>
      <trkpt lat="47.07933" lon="5.5167">
        <ele>209</ele>
        <time>2012-09-14T14:45:47Z</time>
      </trkpt>
      <trkpt lat="47.07939" lon="5.51655">
        <ele>209</ele>
        <time>2012-09-14T14:45:49Z</time>
      </trkpt>
      <trkpt lat="47.07947" lon="5.51639">
        <ele>209</ele>
        <time>2012-09-14T14:45:51Z</time>
      </trkpt>
      <trkpt lat="47.07954" lon="5.51625">
        <ele>209</ele>
        <time>2012-09-14T14:45:53Z</time>
      </trkpt>
      <trkpt lat="47.07962" lon="5.51612">
        <ele>209</ele>
        <time>2012-09-14T14:45:55Z</time>
      </trkpt>
      <trkpt lat="47.07969" lon="5.516">
        <ele>215</ele>
        <time>2012-09-14T14:45:57Z</time>
      </trkpt>
      <trkpt lat="47.07977" lon="5.51586">
        <ele>215</ele>
        <time>2012-09-14T14:45:59Z</time>
      </trkpt>
      <trkpt lat="47.07988" lon="5.51575">
        <ele>215</ele>
        <time>2012-09-14T14:46:01Z</time>
      </trkpt>
      <trkpt lat="47.08" lon="5.51566">
        <ele>215</ele>
        <time>2012-09-14T14:46:03Z</time>
      </trkpt>
      <trkpt lat="47.08011" lon="5.51559">
        <ele>220</ele>
        <time>2012-09-14T14:46:05Z</time>
      </trkpt>
      <trkpt lat="47.08022" lon="5.51555">
        <ele>220</ele>
        <time>2012-09-14T14:46:07Z</time>
      </trkpt>
      <trkpt lat="47.08034" lon="5.51552">
        <ele>220</ele>
        <time>2012-09-14T14:46:09Z</time>
      </trkpt>
      <trkpt lat="47.08046" lon="5.51549">
        <ele>220</ele>
        <time>2012-09-14T14:46:11Z</time>
      </trkpt>
      <trkpt lat="47.08055" lon="5.51545">
        <ele>225</ele>
        <time>2012-09-14T14:46:13Z</time>
      </trkpt>
      <trkpt lat="47.08066" lon="5.51541">
        <ele>225</ele>
        <time>2012-09-14T14:46:15Z</time>
      </trkpt>
      <trkpt lat="47.08076" lon="5.51536">
        <ele>225</ele>
        <time>2012-09-14T14:46:17Z</time>
      </trkpt>
      <trkpt lat="47.08086" lon="5.51531">
        <ele>225</ele>
        <time>2012-09-14T14:46:19Z</time>
      </trkpt>
      <trkpt lat="47.08095" lon="5.51523">
        <ele>225</ele>
        <time>2012-09-14T14:46:21Z</time>
      </trkpt>
      <trkpt lat="47.08103" lon="5.51515">
        <ele>231</ele>
        <time>2012-09-14T14:46:23Z</time>
      </trkpt>
      <trkpt lat="47.08111" lon="5.51506">
        <ele>231</ele>
        <time>2012-09-14T14:46:25Z</time>
      </trkpt>
      <trkpt lat="47.08121" lon="5.51497">
        <ele>231</ele>
        <time>2012-09-14T14:46:27Z</time>
      </trkpt>
      <trkpt lat="47.0813" lon="5.51487">
        <ele>231</ele>
        <time>2012-09-14T14:46:29Z</time>
      </trkpt>
      <trkpt lat="47.08141" lon="5.51478">
        <ele>225</ele>
        <time>2012-09-14T14:46:31Z</time>
      </trkpt>
      <trkpt lat="47.08151" lon="5.51467">
        <ele>225</ele>
        <time>2012-09-14T14:46:33Z</time>
      </trkpt>
      <trkpt lat="47.08162" lon="5.51453">
        <ele>225</ele>
        <time>2012-09-14T14:46:35Z</time>
      </trkpt>
      <trkpt lat="47.08173" lon="5.51437">
        <ele>225</ele>
        <time>2012-09-14T14:46:37Z</time>
      </trkpt>
      <trkpt lat="47.08183" lon="5.5142">
        <ele>219</ele>
        <time>2012-09-14T14:46:39Z</time>
      </trkpt>
      <trkpt lat="47.08193" lon="5.51401">
        <ele>219</ele>
        <time>2012-09-14T14:46:41Z</time>
      </trkpt>
      <trkpt lat="47.08205" lon="5.51385">
        <ele>219</ele>
        <time>2012-09-14T14:46:43Z</time>
      </trkpt>
      <trkpt lat="47.08218" lon="5.51368">
        <ele>214</ele>
        <time>2012-09-14T14:46:45Z</time>
      </trkpt>
      <trkpt lat="47.08225" lon="5.5136">
        <ele>214</ele>
        <time>2012-09-14T14:46:46Z</time>
      </trkpt>
      <trkpt lat="47.08232" lon="5.5135">
        <ele>214</ele>
        <time>2012-09-14T14:46:47Z</time>
      </trkpt>
      <trkpt lat="47.08239" lon="5.51341">
        <ele>214</ele>
        <time>2012-09-14T14:46:48Z</time>
      </trkpt>
      <trkpt lat="47.08245" lon="5.51331">
        <ele>214</ele>
        <time>2012-09-14T14:46:49Z</time>
      </trkpt>
      <trkpt lat="47.08251" lon="5.5132">
        <ele>214</ele>
        <time>2012-09-14T14:46:50Z</time>
      </trkpt>
      <trkpt lat="47.08256" lon="5.5131">
        <ele>214</ele>
        <time>2012-09-14T14:46:51Z</time>
      </trkpt>
      <trkpt lat="47.08265" lon="5.51287">
        <ele>214</ele>
        <time>2012-09-14T14:46:53Z</time>
      </trkpt>
      <trkpt lat="47.08273" lon="5.51266">
        <ele>209</ele>
        <time>2012-09-14T14:46:55Z</time>
      </trkpt>
      <trkpt lat="47.08281" lon="5.51245">
        <ele>209</ele>
        <time>2012-09-14T14:46:57Z</time>
      </trkpt>
      <trkpt lat="47.08289" lon="5.51224">
        <ele>209</ele>
        <time>2012-09-14T14:46:59Z</time>
      </trkpt>
      <trkpt lat="47.08297" lon="5.51204">
        <ele>209</ele>
        <time>2012-09-14T14:47:01Z</time>
      </trkpt>
      <trkpt lat="47.08306" lon="5.51183">
        <ele>209</ele>
        <time>2012-09-14T14:47:03Z</time>
      </trkpt>
      <trkpt lat="47.08318" lon="5.51165">
        <ele>209</ele>
        <time>2012-09-14T14:47:05Z</time>
      </trkpt>
      <trkpt lat="47.08325" lon="5.51156">
        <ele>209</ele>
        <time>2012-09-14T14:47:06Z</time>
      </trkpt>
      <trkpt lat="47.08338" lon="5.51142">
        <ele>209</ele>
        <time>2012-09-14T14:47:08Z</time>
      </trkpt>
      <trkpt lat="47.08352" lon="5.5113">
        <ele>209</ele>
        <time>2012-09-14T14:47:10Z</time>
      </trkpt>
      <trkpt lat="47.08365" lon="5.51119">
        <ele>209</ele>
        <time>2012-09-14T14:47:12Z</time>
      </trkpt>
      <trkpt lat="47.08378" lon="5.51108">
        <ele>209</ele>
        <time>2012-09-14T14:47:14Z</time>
      </trkpt>
      <trkpt lat="47.08389" lon="5.51097">
        <ele>209</ele>
        <time>2012-09-14T14:47:16Z</time>
      </trkpt>
      <trkpt lat="47.08396" lon="5.51084">
        <ele>209</ele>
        <time>2012-09-14T14:47:18Z</time>
      </trkpt>
      <trkpt lat="47.08402" lon="5.5107">
        <ele>209</ele>
        <time>2012-09-14T14:47:20Z</time>
      </trkpt>
      <trkpt lat="47.08406" lon="5.51054">
        <ele>209</ele>
        <time>2012-09-14T14:47:22Z</time>
      </trkpt>
      <trkpt lat="47.08408" lon="5.51037">
        <ele>209</ele>
        <time>2012-09-14T14:47:24Z</time>
      </trkpt>
      <trkpt lat="47.08408" lon="5.51022">
        <ele>209</ele>
        <time>2012-09-14T14:47:26Z</time>
      </trkpt>
      <trkpt lat="47.08408" lon="5.51007">
        <ele>209</ele>
        <time>2012-09-14T14:47:28Z</time>
      </trkpt>
      <trkpt lat="47.08409" lon="5.50993">
        <ele>209</ele>
        <time>2012-09-14T14:47:30Z</time>
      </trkpt>
      <trkpt lat="47.08413" lon="5.50978">
        <ele>209</ele>
        <time>2012-09-14T14:47:32Z</time>
      </trkpt>
      <trkpt lat="47.08418" lon="5.50965">
        <ele>209</ele>
        <time>2012-09-14T14:47:34Z</time>
      </trkpt>
      <trkpt lat="47.08424" lon="5.50951">
        <ele>209</ele>
        <time>2012-09-14T14:47:36Z</time>
      </trkpt>
      <trkpt lat="47.08429" lon="5.5094">
        <ele>209</ele>
        <time>2012-09-14T14:47:38Z</time>
      </trkpt>
      <trkpt lat="47.08435" lon="5.50929">
        <ele>209</ele>
        <time>2012-09-14T14:47:40Z</time>
      </trkpt>
      <trkpt lat="47.08441" lon="5.50913">
        <ele>209</ele>
        <time>2012-09-14T14:47:43Z</time>
      </trkpt>
      <trkpt lat="47.08449" lon="5.50898">
        <ele>216</ele>
        <time>2012-09-14T14:47:46Z</time>
      </trkpt>
      <trkpt lat="47.08456" lon="5.50885">
        <ele>216</ele>
        <time>2012-09-14T14:47:49Z</time>
      </trkpt>
      <trkpt lat="47.08464" lon="5.50875">
        <ele>216</ele>
        <time>2012-09-14T14:47:52Z</time>
      </trkpt>
      <trkpt lat="47.08472" lon="5.50862">
        <ele>222</ele>
        <time>2012-09-14T14:47:55Z</time>
      </trkpt>
      <trkpt lat="47.08478" lon="5.50851">
        <ele>222</ele>
        <time>2012-09-14T14:47:58Z</time>
      </trkpt>
      <trkpt lat="47.08484" lon="5.50839">
        <ele>222</ele>
        <time>2012-09-14T14:48:01Z</time>
      </trkpt>
      <trkpt lat="47.0849" lon="5.50824">
        <ele>222</ele>
        <time>2012-09-14T14:48:05Z</time>
      </trkpt>
      <trkpt lat="47.08495" lon="5.50808">
        <ele>222</ele>
        <time>2012-09-14T14:48:08Z</time>
      </trkpt>
      <trkpt lat="47.08499" lon="5.50792">
        <ele>222</ele>
        <time>2012-09-14T14:48:11Z</time>
      </trkpt>
      <trkpt lat="47.08503" lon="5.50778">
        <ele>222</ele>
        <time>2012-09-14T14:48:14Z</time>
      </trkpt>
      <trkpt lat="47.08508" lon="5.50764">
        <ele>222</ele>
        <time>2012-09-14T14:48:18Z</time>
      </trkpt>
      <trkpt lat="47.08511" lon="5.50752">
        <ele>222</ele>
        <time>2012-09-14T14:48:23Z</time>
      </trkpt>
      <trkpt lat="47.08505" lon="5.50762">
        <ele>222</ele>
        <time>2012-09-14T14:49:08Z</time>
      </trkpt>
      <trkpt lat="47.08499" lon="5.50751">
        <ele>222</ele>
        <time>2012-09-14T14:49:49Z</time>
      </trkpt>
      <trkpt lat="47.08495" lon="5.50763">
        <ele>222</ele>
        <time>2012-09-14T14:54:12Z</time>
      </trkpt>
      <trkpt lat="47.08502" lon="5.50754">
        <ele>222</ele>
        <time>2012-09-14T14:55:35Z</time>
      </trkpt>
      <trkpt lat="47.08512" lon="5.50747">
        <ele>222</ele>
        <time>2012-09-14T14:55:41Z</time>
      </trkpt>
      <trkpt lat="47.08517" lon="5.50735">
        <ele>222</ele>
        <time>2012-09-14T14:55:44Z</time>
      </trkpt>
      <trkpt lat="47.08522" lon="5.5072">
        <ele>222</ele>
        <time>2012-09-14T14:55:47Z</time>
      </trkpt>
      <trkpt lat="47.08526" lon="5.50703">
        <ele>222</ele>
        <time>2012-09-14T14:55:50Z</time>
      </trkpt>
      <trkpt lat="47.08528" lon="5.5069">
        <ele>222</ele>
        <time>2012-09-14T14:55:52Z</time>
      </trkpt>
      <trkpt lat="47.08532" lon="5.50677">
        <ele>222</ele>
        <time>2012-09-14T14:55:54Z</time>
      </trkpt>
      <trkpt lat="47.08535" lon="5.50665">
        <ele>227</ele>
        <time>2012-09-14T14:55:56Z</time>
      </trkpt>
      <trkpt lat="47.08538" lon="5.50651">
        <ele>227</ele>
        <time>2012-09-14T14:55:58Z</time>
      </trkpt>
      <trkpt lat="47.08543" lon="5.50632">
        <ele>227</ele>
        <time>2012-09-14T14:56:01Z</time>
      </trkpt>
      <trkpt lat="47.08548" lon="5.50614">
        <ele>227</ele>
        <time>2012-09-14T14:56:04Z</time>
      </trkpt>
      <trkpt lat="47.08551" lon="5.50601">
        <ele>227</ele>
        <time>2012-09-14T14:56:06Z</time>
      </trkpt>
      <trkpt lat="47.08556" lon="5.50588">
        <ele>227</ele>
        <time>2012-09-14T14:56:08Z</time>
      </trkpt>
      <trkpt lat="47.0856" lon="5.50576">
        <ele>227</ele>
        <time>2012-09-14T14:56:10Z</time>
      </trkpt>
      <trkpt lat="47.08565" lon="5.50564">
        <ele>227</ele>
        <time>2012-09-14T14:56:12Z</time>
      </trkpt>
      <trkpt lat="47.0857" lon="5.50551">
        <ele>227</ele>
        <time>2012-09-14T14:56:14Z</time>
      </trkpt>
      <trkpt lat="47.08576" lon="5.50539">
        <ele>227</ele>
        <time>2012-09-14T14:56:16Z</time>
      </trkpt>
      <trkpt lat="47.08582" lon="5.50527">
        <ele>227</ele>
        <time>2012-09-14T14:56:18Z</time>
      </trkpt>
      <trkpt lat="47.08588" lon="5.50514">
        <ele>227</ele>
        <time>2012-09-14T14:56:20Z</time>
      </trkpt>
      <trkpt lat="47.08594" lon="5.50498">
        <ele>227</ele>
        <time>2012-09-14T14:56:22Z</time>
      </trkpt>
      <trkpt lat="47.08601" lon="5.50482">
        <ele>227</ele>
        <time>2012-09-14T14:56:24Z</time>
      </trkpt>
      <trkpt lat="47.08608" lon="5.50467">
        <ele>227</ele>
        <time>2012-09-14T14:56:26Z</time>
      </trkpt>
      <trkpt lat="47.08614" lon="5.50452">
        <ele>227</ele>
        <time>2012-09-14T14:56:28Z</time>
      </trkpt>
      <trkpt lat="47.08619" lon="5.50438">
        <ele>227</ele>
        <time>2012-09-14T14:56:30Z</time>
      </trkpt>
      <trkpt lat="47.08622" lon="5.50424">
        <ele>227</ele>
        <time>2012-09-14T14:56:32Z</time>
      </trkpt>
      <trkpt lat="47.08627" lon="5.50407">
        <ele>227</ele>
        <time>2012-09-14T14:56:35Z</time>
      </trkpt>
      <trkpt lat="47.08625" lon="5.5039">
        <ele>227</ele>
        <time>2012-09-14T14:56:38Z</time>
      </trkpt>
      <trkpt lat="47.08622" lon="5.50375">
        <ele>227</ele>
        <time>2012-09-14T14:56:41Z</time>
      </trkpt>
      <trkpt lat="47.08622" lon="5.5036">
        <ele>227</ele>
        <time>2012-09-14T14:56:44Z</time>
      </trkpt>
      <trkpt lat="47.08625" lon="5.50345">
        <ele>227</ele>
        <time>2012-09-14T14:56:47Z</time>
      </trkpt>
      <trkpt lat="47.08631" lon="5.50326">
        <ele>221</ele>
        <time>2012-09-14T14:56:50Z</time>
      </trkpt>
      <trkpt lat="47.08635" lon="5.50313">
        <ele>221</ele>
        <time>2012-09-14T14:56:52Z</time>
      </trkpt>
      <trkpt lat="47.0864" lon="5.503">
        <ele>221</ele>
        <time>2012-09-14T14:56:54Z</time>
      </trkpt>
      <trkpt lat="47.08642" lon="5.50286">
        <ele>221</ele>
        <time>2012-09-14T14:56:56Z</time>
      </trkpt>
      <trkpt lat="47.08643" lon="5.50273">
        <ele>221</ele>
        <time>2012-09-14T14:56:58Z</time>
      </trkpt>
      <trkpt lat="47.08645" lon="5.50253">
        <ele>221</ele>
        <time>2012-09-14T14:57:01Z</time>
      </trkpt>
      <trkpt lat="47.08645" lon="5.50239">
        <ele>221</ele>
        <time>2012-09-14T14:57:03Z</time>
      </trkpt>
      <trkpt lat="47.08643" lon="5.50219">
        <ele>227</ele>
        <time>2012-09-14T14:57:06Z</time>
      </trkpt>
      <trkpt lat="47.0864" lon="5.50206">
        <ele>227</ele>
        <time>2012-09-14T14:57:08Z</time>
      </trkpt>
      <trkpt lat="47.08636" lon="5.50193">
        <ele>227</ele>
        <time>2012-09-14T14:57:10Z</time>
      </trkpt>
      <trkpt lat="47.08632" lon="5.50177">
        <ele>227</ele>
        <time>2012-09-14T14:57:13Z</time>
      </trkpt>
      <trkpt lat="47.0863" lon="5.50162">
        <ele>227</ele>
        <time>2012-09-14T14:57:17Z</time>
      </trkpt>
      <trkpt lat="47.08635" lon="5.5015">
        <ele>221</ele>
        <time>2012-09-14T14:57:20Z</time>
      </trkpt>
      <trkpt lat="47.08646" lon="5.50139">
        <ele>221</ele>
        <time>2012-09-14T14:57:23Z</time>
      </trkpt>
      <trkpt lat="47.08655" lon="5.5013">
        <ele>221</ele>
        <time>2012-09-14T14:57:25Z</time>
      </trkpt>
      <trkpt lat="47.08665" lon="5.5012">
        <ele>216</ele>
        <time>2012-09-14T14:57:27Z</time>
      </trkpt>
      <trkpt lat="47.08676" lon="5.5011">
        <ele>216</ele>
        <time>2012-09-14T14:57:29Z</time>
      </trkpt>
      <trkpt lat="47.08689" lon="5.50098">
        <ele>216</ele>
        <time>2012-09-14T14:57:31Z</time>
      </trkpt>
      <trkpt lat="47.08701" lon="5.50082">
        <ele>216</ele>
        <time>2012-09-14T14:57:33Z</time>
      </trkpt>
      <trkpt lat="47.08708" lon="5.50058">
        <ele>216</ele>
        <time>2012-09-14T14:57:35Z</time>
      </trkpt>
      <trkpt lat="47.0871" lon="5.50045">
        <ele>211</ele>
        <time>2012-09-14T14:57:36Z</time>
      </trkpt>
      <trkpt lat="47.08713" lon="5.5002">
        <ele>211</ele>
        <time>2012-09-14T14:57:38Z</time>
      </trkpt>
      <trkpt lat="47.08714" lon="5.49996">
        <ele>211</ele>
        <time>2012-09-14T14:57:40Z</time>
      </trkpt>
      <trkpt lat="47.08715" lon="5.49972">
        <ele>211</ele>
        <time>2012-09-14T14:57:42Z</time>
      </trkpt>
      <trkpt lat="47.08717" lon="5.49951">
        <ele>211</ele>
        <time>2012-09-14T14:57:44Z</time>
      </trkpt>
      <trkpt lat="47.08721" lon="5.49933">
        <ele>211</ele>
        <time>2012-09-14T14:57:46Z</time>
      </trkpt>
      <trkpt lat="47.08727" lon="5.4992">
        <ele>211</ele>
        <time>2012-09-14T14:57:48Z</time>
      </trkpt>
      <trkpt lat="47.0873" lon="5.49906">
        <ele>211</ele>
        <time>2012-09-14T14:57:50Z</time>
      </trkpt>
      <trkpt lat="47.0873" lon="5.4989">
        <ele>211</ele>
        <time>2012-09-14T14:57:52Z</time>
      </trkpt>
      <trkpt lat="47.08724" lon="5.49875">
        <ele>211</ele>
        <time>2012-09-14T14:57:54Z</time>
      </trkpt>
      <trkpt lat="47.08715" lon="5.4986">
        <ele>211</ele>
        <time>2012-09-14T14:57:56Z</time>
      </trkpt>
      <trkpt lat="47.08706" lon="5.49844">
        <ele>211</ele>
        <time>2012-09-14T14:57:58Z</time>
      </trkpt>
      <trkpt lat="47.08696" lon="5.49829">
        <ele>211</ele>
        <time>2012-09-14T14:58:00Z</time>
      </trkpt>
      <trkpt lat="47.08687" lon="5.49814">
        <ele>211</ele>
        <time>2012-09-14T14:58:02Z</time>
      </trkpt>
      <trkpt lat="47.08678" lon="5.498">
        <ele>211</ele>
        <time>2012-09-14T14:58:04Z</time>
      </trkpt>
      <trkpt lat="47.08668" lon="5.49785">
        <ele>211</ele>
        <time>2012-09-14T14:58:06Z</time>
      </trkpt>
      <trkpt lat="47.08659" lon="5.49771">
        <ele>211</ele>
        <time>2012-09-14T14:58:08Z</time>
      </trkpt>
      <trkpt lat="47.0865" lon="5.49757">
        <ele>211</ele>
        <time>2012-09-14T14:58:10Z</time>
      </trkpt>
      <trkpt lat="47.08643" lon="5.49743">
        <ele>211</ele>
        <time>2012-09-14T14:58:12Z</time>
      </trkpt>
      <trkpt lat="47.08643" lon="5.49726">
        <ele>205</ele>
        <time>2012-09-14T14:58:14Z</time>
      </trkpt>
      <trkpt lat="47.08651" lon="5.49711">
        <ele>205</ele>
        <time>2012-09-14T14:58:16Z</time>
      </trkpt>
      <trkpt lat="47.08661" lon="5.49694">
        <ele>205</ele>
        <time>2012-09-14T14:58:18Z</time>
      </trkpt>
      <trkpt lat="47.0867" lon="5.49678">
        <ele>205</ele>
        <time>2012-09-14T14:58:20Z</time>
      </trkpt>
      <trkpt lat="47.0868" lon="5.49662">
        <ele>205</ele>
        <time>2012-09-14T14:58:22Z</time>
      </trkpt>
      <trkpt lat="47.08689" lon="5.49646">
        <ele>205</ele>
        <time>2012-09-14T14:58:24Z</time>
      </trkpt>
      <trkpt lat="47.08697" lon="5.49629">
        <ele>205</ele>
        <time>2012-09-14T14:58:26Z</time>
      </trkpt>
      <trkpt lat="47.08699" lon="5.49614">
        <ele>205</ele>
        <time>2012-09-14T14:58:28Z</time>
      </trkpt>
      <trkpt lat="47.08697" lon="5.49598">
        <ele>205</ele>
        <time>2012-09-14T14:58:34Z</time>
      </trkpt>
      <trkpt lat="47.08703" lon="5.49588">
        <ele>205</ele>
        <time>2012-09-14T14:58:48Z</time>
      </trkpt>
      <trkpt lat="47.08712" lon="5.4958">
        <ele>205</ele>
        <time>2012-09-14T14:58:52Z</time>
      </trkpt>
      <trkpt lat="47.08718" lon="5.49568">
        <ele>211</ele>
        <time>2012-09-14T14:58:55Z</time>
      </trkpt>
      <trkpt lat="47.08721" lon="5.49551">
        <ele>211</ele>
        <time>2012-09-14T14:58:58Z</time>
      </trkpt>
      <trkpt lat="47.08728" lon="5.49539">
        <ele>211</ele>
        <time>2012-09-14T14:59:00Z</time>
      </trkpt>
      <trkpt lat="47.08737" lon="5.4953">
        <ele>211</ele>
        <time>2012-09-14T14:59:02Z</time>
      </trkpt>
      <trkpt lat="47.08748" lon="5.49521">
        <ele>211</ele>
        <time>2012-09-14T14:59:04Z</time>
      </trkpt>
      <trkpt lat="47.08759" lon="5.49514">
        <ele>211</ele>
        <time>2012-09-14T14:59:06Z</time>
      </trkpt>
      <trkpt lat="47.08771" lon="5.49506">
        <ele>211</ele>
        <time>2012-09-14T14:59:08Z</time>
      </trkpt>
      <trkpt lat="47.08782" lon="5.49499">
        <ele>211</ele>
        <time>2012-09-14T14:59:10Z</time>
      </trkpt>
      <trkpt lat="47.08793" lon="5.49491">
        <ele>211</ele>
        <time>2012-09-14T14:59:12Z</time>
      </trkpt>
      <trkpt lat="47.08803" lon="5.49483">
        <ele>211</ele>
        <time>2012-09-14T14:59:14Z</time>
      </trkpt>
      <trkpt lat="47.08814" lon="5.49475">
        <ele>211</ele>
        <time>2012-09-14T14:59:16Z</time>
      </trkpt>
      <trkpt lat="47.08826" lon="5.49468">
        <ele>211</ele>
        <time>2012-09-14T14:59:18Z</time>
      </trkpt>
      <trkpt lat="47.08838" lon="5.4946">
        <ele>211</ele>
        <time>2012-09-14T14:59:20Z</time>
      </trkpt>
      <trkpt lat="47.0885" lon="5.49453">
        <ele>211</ele>
        <time>2012-09-14T14:59:22Z</time>
      </trkpt>
      <trkpt lat="47.08862" lon="5.49445">
        <ele>211</ele>
        <time>2012-09-14T14:59:24Z</time>
      </trkpt>
      <trkpt lat="47.0887" lon="5.49439">
        <ele>211</ele>
        <time>2012-09-14T14:59:26Z</time>
      </trkpt>
      <trkpt lat="47.08879" lon="5.49432">
        <ele>211</ele>
        <time>2012-09-14T15:00:43Z</time>
      </trkpt>
      <trkpt lat="47.08889" lon="5.49426">
        <ele>211</ele>
        <time>2012-09-14T15:00:48Z</time>
      </trkpt>
      <trkpt lat="47.08894" lon="5.49412">
        <ele>211</ele>
        <time>2012-09-14T15:01:00Z</time>
      </trkpt>
      <trkpt lat="47.08891" lon="5.494">
        <ele>211</ele>
        <time>2012-09-14T15:01:02Z</time>
      </trkpt>
      <trkpt lat="47.08886" lon="5.49383">
        <ele>211</ele>
        <time>2012-09-14T15:01:04Z</time>
      </trkpt>
      <trkpt lat="47.08881" lon="5.49362">
        <ele>211</ele>
        <time>2012-09-14T15:01:06Z</time>
      </trkpt>
      <trkpt lat="47.08876" lon="5.4934">
        <ele>211</ele>
        <time>2012-09-14T15:01:08Z</time>
      </trkpt>
      <trkpt lat="47.08871" lon="5.49319">
        <ele>211</ele>
        <time>2012-09-14T15:01:10Z</time>
      </trkpt>
      <trkpt lat="47.08865" lon="5.49301">
        <ele>211</ele>
        <time>2012-09-14T15:01:12Z</time>
      </trkpt>
      <trkpt lat="47.08859" lon="5.49285">
        <ele>211</ele>
        <time>2012-09-14T15:01:14Z</time>
      </trkpt>
      <trkpt lat="47.08864" lon="5.4927">
        <ele>211</ele>
        <time>2012-09-14T15:01:17Z</time>
      </trkpt>
      <trkpt lat="47.08873" lon="5.49263">
        <ele>211</ele>
        <time>2012-09-14T15:01:19Z</time>
      </trkpt>
      <trkpt lat="47.08872" lon="5.49244">
        <ele>211</ele>
        <time>2012-09-14T15:01:22Z</time>
      </trkpt>
      <trkpt lat="47.08865" lon="5.49229">
        <ele>211</ele>
        <time>2012-09-14T15:01:24Z</time>
      </trkpt>
      <trkpt lat="47.08856" lon="5.49214">
        <ele>211</ele>
        <time>2012-09-14T15:01:26Z</time>
      </trkpt>
      <trkpt lat="47.08849" lon="5.49199">
        <ele>211</ele>
        <time>2012-09-14T15:01:28Z</time>
      </trkpt>
      <trkpt lat="47.0884" lon="5.49184">
        <ele>211</ele>
        <time>2012-09-14T15:01:30Z</time>
      </trkpt>
      <trkpt lat="47.08829" lon="5.49175">
        <ele>211</ele>
        <time>2012-09-14T15:01:32Z</time>
      </trkpt>
      <trkpt lat="47.08816" lon="5.49169">
        <ele>211</ele>
        <time>2012-09-14T15:01:34Z</time>
      </trkpt>
      <trkpt lat="47.08804" lon="5.49161">
        <ele>211</ele>
        <time>2012-09-14T15:01:36Z</time>
      </trkpt>
      <trkpt lat="47.08792" lon="5.49154">
        <ele>211</ele>
        <time>2012-09-14T15:01:38Z</time>
      </trkpt>
      <trkpt lat="47.0878" lon="5.49145">
        <ele>211</ele>
        <time>2012-09-14T15:01:40Z</time>
      </trkpt>
      <trkpt lat="47.08768" lon="5.49133">
        <ele>211</ele>
        <time>2012-09-14T15:01:42Z</time>
      </trkpt>
      <trkpt lat="47.08757" lon="5.4912">
        <ele>211</ele>
        <time>2012-09-14T15:01:44Z</time>
      </trkpt>
      <trkpt lat="47.08746" lon="5.49106">
        <ele>206</ele>
        <time>2012-09-14T15:01:46Z</time>
      </trkpt>
      <trkpt lat="47.08735" lon="5.49092">
        <ele>206</ele>
        <time>2012-09-14T15:01:48Z</time>
      </trkpt>
      <trkpt lat="47.08727" lon="5.49076">
        <ele>206</ele>
        <time>2012-09-14T15:01:50Z</time>
      </trkpt>
      <trkpt lat="47.08721" lon="5.49058">
        <ele>206</ele>
        <time>2012-09-14T15:01:52Z</time>
      </trkpt>
      <trkpt lat="47.08715" lon="5.4904">
        <ele>206</ele>
        <time>2012-09-14T15:01:54Z</time>
      </trkpt>
      <trkpt lat="47.08709" lon="5.49023">
        <ele>206</ele>
        <time>2012-09-14T15:01:56Z</time>
      </trkpt>
      <trkpt lat="47.08702" lon="5.49006">
        <ele>206</ele>
        <time>2012-09-14T15:01:58Z</time>
      </trkpt>
      <trkpt lat="47.08694" lon="5.4899">
        <ele>206</ele>
        <time>2012-09-14T15:02:00Z</time>
      </trkpt>
      <trkpt lat="47.08687" lon="5.48973">
        <ele>206</ele>
        <time>2012-09-14T15:02:02Z</time>
      </trkpt>
      <trkpt lat="47.0868" lon="5.48956">
        <ele>206</ele>
        <time>2012-09-14T15:02:04Z</time>
      </trkpt>
      <trkpt lat="47.08673" lon="5.48939">
        <ele>206</ele>
        <time>2012-09-14T15:02:06Z</time>
      </trkpt>
      <trkpt lat="47.08665" lon="5.48921">
        <ele>206</ele>
        <time>2012-09-14T15:02:08Z</time>
      </trkpt>
      <trkpt lat="47.08658" lon="5.48905">
        <ele>206</ele>
        <time>2012-09-14T15:02:10Z</time>
      </trkpt>
      <trkpt lat="47.08651" lon="5.48889">
        <ele>206</ele>
        <time>2012-09-14T15:02:12Z</time>
      </trkpt>
      <trkpt lat="47.08644" lon="5.48872">
        <ele>206</ele>
        <time>2012-09-14T15:02:14Z</time>
      </trkpt>
      <trkpt lat="47.08637" lon="5.48856">
        <ele>206</ele>
        <time>2012-09-14T15:02:16Z</time>
      </trkpt>
      <trkpt lat="47.0863" lon="5.48842">
        <ele>206</ele>
        <time>2012-09-14T15:02:18Z</time>
      </trkpt>
      <trkpt lat="47.08624" lon="5.48826">
        <ele>206</ele>
        <time>2012-09-14T15:02:20Z</time>
      </trkpt>
      <trkpt lat="47.08617" lon="5.48811">
        <ele>206</ele>
        <time>2012-09-14T15:02:22Z</time>
      </trkpt>
      <trkpt lat="47.0861" lon="5.48794">
        <ele>206</ele>
        <time>2012-09-14T15:02:24Z</time>
      </trkpt>
      <trkpt lat="47.08603" lon="5.48778">
        <ele>206</ele>
        <time>2012-09-14T15:02:26Z</time>
      </trkpt>
      <trkpt lat="47.08597" lon="5.48762">
        <ele>206</ele>
        <time>2012-09-14T15:02:28Z</time>
      </trkpt>
      <trkpt lat="47.08589" lon="5.48746">
        <ele>206</ele>
        <time>2012-09-14T15:02:30Z</time>
      </trkpt>
      <trkpt lat="47.08581" lon="5.48731">
        <ele>206</ele>
        <time>2012-09-14T15:02:32Z</time>
      </trkpt>
      <trkpt lat="47.08573" lon="5.48715">
        <ele>206</ele>
        <time>2012-09-14T15:02:34Z</time>
      </trkpt>
      <trkpt lat="47.08566" lon="5.48701">
        <ele>206</ele>
        <time>2012-09-14T15:02:36Z</time>
      </trkpt>
      <trkpt lat="47.08559" lon="5.48687">
        <ele>206</ele>
        <time>2012-09-14T15:02:38Z</time>
      </trkpt>
      <trkpt lat="47.08551" lon="5.48672">
        <ele>206</ele>
        <time>2012-09-14T15:02:40Z</time>
      </trkpt>
      <trkpt lat="47.08543" lon="5.48658">
        <ele>206</ele>
        <time>2012-09-14T15:02:42Z</time>
      </trkpt>
      <trkpt lat="47.08535" lon="5.48645">
        <ele>206</ele>
        <time>2012-09-14T15:02:44Z</time>
      </trkpt>
      <trkpt lat="47.08528" lon="5.48634">
        <ele>206</ele>
        <time>2012-09-14T15:02:46Z</time>
      </trkpt>
      <trkpt lat="47.08524" lon="5.48621">
        <ele>206</ele>
        <time>2012-09-14T15:02:49Z</time>
      </trkpt>
      <trkpt lat="47.08532" lon="5.48612">
        <ele>206</ele>
        <time>2012-09-14T15:02:52Z</time>
      </trkpt>
      <trkpt lat="47.08541" lon="5.48604">
        <ele>206</ele>
        <time>2012-09-14T15:02:55Z</time>
      </trkpt>
      <trkpt lat="47.0855" lon="5.48596">
        <ele>206</ele>
        <time>2012-09-14T15:02:58Z</time>
      </trkpt>
      <trkpt lat="47.08559" lon="5.48588">
        <ele>211</ele>
        <time>2012-09-14T15:03:01Z</time>
      </trkpt>
      <trkpt lat="47.08568" lon="5.48581">
        <ele>211</ele>
        <time>2012-09-14T15:03:04Z</time>
      </trkpt>
      <trkpt lat="47.08577" lon="5.48578">
        <ele>211</ele>
        <time>2012-09-14T15:03:07Z</time>
      </trkpt>
      <trkpt lat="47.08586" lon="5.48573">
        <ele>217</ele>
        <time>2012-09-14T15:03:10Z</time>
      </trkpt>
      <trkpt lat="47.08595" lon="5.48569">
        <ele>217</ele>
        <time>2012-09-14T15:03:13Z</time>
      </trkpt>
      <trkpt lat="47.08605" lon="5.48565">
        <ele>217</ele>
        <time>2012-09-14T15:03:16Z</time>
      </trkpt>
      <trkpt lat="47.08615" lon="5.4856">
        <ele>217</ele>
        <time>2012-09-14T15:03:19Z</time>
      </trkpt>
      <trkpt lat="47.08626" lon="5.48554">
        <ele>217</ele>
        <time>2012-09-14T15:03:22Z</time>
      </trkpt>
      <trkpt lat="47.08634" lon="5.48547">
        <ele>217</ele>
        <time>2012-09-14T15:03:25Z</time>
      </trkpt>
      <trkpt lat="47.08641" lon="5.48536">
        <ele>217</ele>
        <time>2012-09-14T15:03:28Z</time>
      </trkpt>
      <trkpt lat="47.08645" lon="5.48522">
        <ele>217</ele>
        <time>2012-09-14T15:03:31Z</time>
      </trkpt>
      <trkpt lat="47.08649" lon="5.48509">
        <ele>217</ele>
        <time>2012-09-14T15:03:34Z</time>
      </trkpt>
      <trkpt lat="47.08653" lon="5.48495">
        <ele>217</ele>
        <time>2012-09-14T15:03:37Z</time>
      </trkpt>
      <trkpt lat="47.08657" lon="5.48483">
        <ele>217</ele>
        <time>2012-09-14T15:03:40Z</time>
      </trkpt>
      <trkpt lat="47.08662" lon="5.48466">
        <ele>222</ele>
        <time>2012-09-14T15:03:44Z</time>
      </trkpt>
      <trkpt lat="47.08666" lon="5.48451">
        <ele>222</ele>
        <time>2012-09-14T15:03:48Z</time>
      </trkpt>
      <trkpt lat="47.08668" lon="5.48437">
        <ele>222</ele>
        <time>2012-09-14T15:03:52Z</time>
      </trkpt>
      <trkpt lat="47.08678" lon="5.48437">
        <ele>228</ele>
        <time>2012-09-14T15:04:11Z</time>
      </trkpt>
      <trkpt lat="47.08688" lon="5.4845">
        <ele>228</ele>
        <time>2012-09-14T15:04:15Z</time>
      </trkpt>
      <trkpt lat="47.08698" lon="5.48461">
        <ele>228</ele>
        <time>2012-09-14T15:04:18Z</time>
      </trkpt>
      <trkpt lat="47.08705" lon="5.4847">
        <ele>228</ele>
        <time>2012-09-14T15:04:20Z</time>
      </trkpt>
      <trkpt lat="47.08711" lon="5.4848">
        <ele>228</ele>
        <time>2012-09-14T15:04:22Z</time>
      </trkpt>
      <trkpt lat="47.08718" lon="5.48491">
        <ele>228</ele>
        <time>2012-09-14T15:04:24Z</time>
      </trkpt>
      <trkpt lat="47.08725" lon="5.48501">
        <ele>228</ele>
        <time>2012-09-14T15:04:26Z</time>
      </trkpt>
      <trkpt lat="47.08731" lon="5.48511">
        <ele>228</ele>
        <time>2012-09-14T15:04:28Z</time>
      </trkpt>
      <trkpt lat="47.0874" lon="5.48526">
        <ele>228</ele>
        <time>2012-09-14T15:04:31Z</time>
      </trkpt>
      <trkpt lat="47.08749" lon="5.48539">
        <ele>228</ele>
        <time>2012-09-14T15:04:34Z</time>
      </trkpt>
      <trkpt lat="47.08757" lon="5.48551">
        <ele>228</ele>
        <time>2012-09-14T15:04:36Z</time>
      </trkpt>
      <trkpt lat="47.08766" lon="5.48565">
        <ele>228</ele>
        <time>2012-09-14T15:04:39Z</time>
      </trkpt>
      <trkpt lat="47.08773" lon="5.48576">
        <ele>228</ele>
        <time>2012-09-14T15:04:41Z</time>
      </trkpt>
      <trkpt lat="47.0878" lon="5.48587">
        <ele>228</ele>
        <time>2012-09-14T15:04:43Z</time>
      </trkpt>
      <trkpt lat="47.08787" lon="5.48598">
        <ele>228</ele>
        <time>2012-09-14T15:04:45Z</time>
      </trkpt>
      <trkpt lat="47.08794" lon="5.48609">
        <ele>228</ele>
        <time>2012-09-14T15:04:47Z</time>
      </trkpt>
      <trkpt lat="47.08802" lon="5.4862">
        <ele>228</ele>
        <time>2012-09-14T15:04:49Z</time>
      </trkpt>
      <trkpt lat="47.08808" lon="5.4863">
        <ele>228</ele>
        <time>2012-09-14T15:04:51Z</time>
      </trkpt>
      <trkpt lat="47.08814" lon="5.48641">
        <ele>228</ele>
        <time>2012-09-14T15:04:53Z</time>
      </trkpt>
      <trkpt lat="47.08821" lon="5.48651">
        <ele>228</ele>
        <time>2012-09-14T15:04:55Z</time>
      </trkpt>
      <trkpt lat="47.08828" lon="5.48662">
        <ele>228</ele>
        <time>2012-09-14T15:04:58Z</time>
      </trkpt>
      <trkpt lat="47.08837" lon="5.48665">
        <ele>228</ele>
        <time>2012-09-14T15:05:03Z</time>
      </trkpt>
      <trkpt lat="47.08845" lon="5.48651">
        <ele>228</ele>
        <time>2012-09-14T15:05:07Z</time>
      </trkpt>
      <trkpt lat="47.08854" lon="5.48637">
        <ele>228</ele>
        <time>2012-09-14T15:05:10Z</time>
      </trkpt>
      <trkpt lat="47.0886" lon="5.48626">
        <ele>233</ele>
        <time>2012-09-14T15:05:12Z</time>
      </trkpt>
      <trkpt lat="47.0887" lon="5.48614">
        <ele>233</ele>
        <time>2012-09-14T15:05:15Z</time>
      </trkpt>
      <trkpt lat="47.08878" lon="5.48605">
        <ele>233</ele>
        <time>2012-09-14T15:05:17Z</time>
      </trkpt>
      <trkpt lat="47.08888" lon="5.48592">
        <ele>233</ele>
        <time>2012-09-14T15:05:20Z</time>
      </trkpt>
      <trkpt lat="47.08898" lon="5.4858">
        <ele>233</ele>
        <time>2012-09-14T15:05:23Z</time>
      </trkpt>
      <trkpt lat="47.08907" lon="5.48566">
        <ele>233</ele>
        <time>2012-09-14T15:05:26Z</time>
      </trkpt>
      <trkpt lat="47.08917" lon="5.48554">
        <ele>233</ele>
        <time>2012-09-14T15:05:29Z</time>
      </trkpt>
      <trkpt lat="47.08926" lon="5.48542">
        <ele>233</ele>
        <time>2012-09-14T15:05:32Z</time>
      </trkpt>
      <trkpt lat="47.08936" lon="5.48529">
        <ele>233</ele>
        <time>2012-09-14T15:05:35Z</time>
      </trkpt>
      <trkpt lat="47.08946" lon="5.48518">
        <ele>233</ele>
        <time>2012-09-14T15:05:38Z</time>
      </trkpt>
    </trkseg>
  </trk>
</gpx>